<?xml version='1.0' encoding='UTF-8'?><gpx version="1.1" creator="JPX - https://github.com/jenetics/jpx" xmlns="http://www.topografix.com/GPX/1/1"><trk><trkseg><trkpt lat="37.56479110255358" lon="15.129955333169999"><ele>241.4</ele><time>2026-05-01T10:09:29.001Z</time></trkpt><trkpt lat="37.56479774288044" lon="15.129853570932307"><ele>241.8</ele><time>2026-05-01T10:09:31.001Z</time></trkpt><trkpt lat="37.564809417046085" lon="15.129717198729521"><ele>242.20000000000002</ele><time>2026-05-01T10:09:33.001Z</time></trkpt><trkpt lat="37.56482523519257" lon="15.129592547735122"><ele>242.60000000000002</ele><time>2026-05-01T10:09:35.001Z</time></trkpt><trkpt lat="37.56485020677773" lon="15.129466526692774"><ele>243.0</ele><time>2026-05-01T10:09:37.001Z</time></trkpt><trkpt lat="37.56485877398975" lon="15.129311442256913"><ele>243.0</ele><time>2026-05-01T10:09:39.001Z</time></trkpt><trkpt lat="37.56485202592117" lon="15.129222705528367"><ele>243.0</ele><time>2026-05-01T10:09:40.001Z</time></trkpt><trkpt lat="37.564842339165146" lon="15.129130171276021"><ele>243.0</ele><time>2026-05-01T10:09:41.001Z</time></trkpt><trkpt lat="37.564828829072894" lon="15.129033629029049"><ele>243.0</ele><time>2026-05-01T10:09:42.001Z</time></trkpt><trkpt lat="37.564809311080516" lon="15.128941242668901"><ele>243.0</ele><time>2026-05-01T10:09:43.001Z</time></trkpt><trkpt lat="37.564810895203706" lon="15.128844033435213"><ele>243.0</ele><time>2026-05-01T10:09:44.001Z</time></trkpt><trkpt lat="37.56483750020088" lon="15.128752418856154"><ele>243.83333333333334</ele><time>2026-05-01T10:09:45.001Z</time></trkpt><trkpt lat="37.564906191458384" lon="15.128686314769775"><ele>244.66666666666669</ele><time>2026-05-01T10:09:46.001Z</time></trkpt><trkpt lat="37.56495096826097" lon="15.128600431771048"><ele>245.5</ele><time>2026-05-01T10:09:47.001Z</time></trkpt><trkpt lat="37.56501386570454" lon="15.128523615775398"><ele>246.33333333333334</ele><time>2026-05-01T10:09:48.001Z</time></trkpt><trkpt lat="37.565061665254184" lon="15.128439214211053"><ele>247.16666666666669</ele><time>2026-05-01T10:09:49.001Z</time></trkpt><trkpt lat="37.56508567618483" lon="15.128333549775997"><ele>248.0</ele><time>2026-05-01T10:09:50.001Z</time></trkpt><trkpt lat="37.56508143012202" lon="15.128219723068565"><ele>248.2</ele><time>2026-05-01T10:09:51.001Z</time></trkpt><trkpt lat="37.56506654229943" lon="15.128103722488051"><ele>248.4</ele><time>2026-05-01T10:09:52.001Z</time></trkpt><trkpt lat="37.5650533454863" lon="15.127985250818202"><ele>248.59999999999997</ele><time>2026-05-01T10:09:53.001Z</time></trkpt><trkpt lat="37.565041366474894" lon="15.127867246490302"><ele>248.79999999999998</ele><time>2026-05-01T10:09:54.001Z</time></trkpt><trkpt lat="37.5650216348267" lon="15.127749416637345"><ele>249.0</ele><time>2026-05-01T10:09:55.001Z</time></trkpt><trkpt lat="37.564997376006204" lon="15.127630569874466"><ele>249.0</ele><time>2026-05-01T10:09:56.001Z</time></trkpt><trkpt lat="37.56497501916461" lon="15.12750665823342"><ele>248.99999999999997</ele><time>2026-05-01T10:09:57.001Z</time></trkpt><trkpt lat="37.56494354150306" lon="15.127385444174992"><ele>248.99999999999997</ele><time>2026-05-01T10:09:58.001Z</time></trkpt><trkpt lat="37.564917145034414" lon="15.127259605593048"><ele>249.0</ele><time>2026-05-01T10:09:59.001Z</time></trkpt><trkpt lat="37.5648916492967" lon="15.127138644658709"><ele>249.0</ele><time>2026-05-01T10:10:00.001Z</time></trkpt><trkpt lat="37.56486349776535" lon="15.127013062645174"><ele>250.0</ele><time>2026-05-01T10:10:01.001Z</time></trkpt><trkpt lat="37.5648342749779" lon="15.126886179409606"><ele>250.99999999999997</ele><time>2026-05-01T10:10:02.001Z</time></trkpt><trkpt lat="37.56480718625905" lon="15.126760091284012"><ele>251.99999999999997</ele><time>2026-05-01T10:10:03.001Z</time></trkpt><trkpt lat="37.564780551068104" lon="15.126636659978798"><ele>253.0</ele><time>2026-05-01T10:10:04.001Z</time></trkpt><trkpt lat="37.56475892203946" lon="15.126518151256493"><ele>254.0</ele><time>2026-05-01T10:10:05.001Z</time></trkpt><trkpt lat="37.56474435198917" lon="15.126403354162191"><ele>254.66666666666669</ele><time>2026-05-01T10:10:06.001Z</time></trkpt><trkpt lat="37.564738639898934" lon="15.126289935411817"><ele>255.33333333333334</ele><time>2026-05-01T10:10:07.001Z</time></trkpt><trkpt lat="37.56472582469638" lon="15.126180141010261"><ele>256.0</ele><time>2026-05-01T10:10:08.001Z</time></trkpt><trkpt lat="37.5647192503125" lon="15.126076079342527"><ele>256.6666666666667</ele><time>2026-05-01T10:10:09.001Z</time></trkpt><trkpt lat="37.5647112969214" lon="15.125971334140104"><ele>257.3333333333333</ele><time>2026-05-01T10:10:10.001Z</time></trkpt><trkpt lat="37.56470135403959" lon="15.125876544625388"><ele>258.0</ele><time>2026-05-01T10:10:11.001Z</time></trkpt><trkpt lat="37.56468791987852" lon="15.125795908509707"><ele>257.8333333333333</ele><time>2026-05-01T10:10:12.001Z</time></trkpt><trkpt lat="37.56466012952506" lon="15.125717249214812"><ele>257.6666666666667</ele><time>2026-05-01T10:10:13.001Z</time></trkpt><trkpt lat="37.564598573820625" lon="15.125580265105155"><ele>257.5</ele><time>2026-05-01T10:10:15.001Z</time></trkpt><trkpt lat="37.56456520063181" lon="15.125492066443304"><ele>257.33333333333337</ele><time>2026-05-01T10:10:16.001Z</time></trkpt><trkpt lat="37.56454091518536" lon="15.125403221613897"><ele>257.1666666666667</ele><time>2026-05-01T10:10:17.001Z</time></trkpt><trkpt lat="37.56451563689517" lon="15.125305473716676"><ele>257.0</ele><time>2026-05-01T10:10:18.003Z</time></trkpt><trkpt lat="37.564493387981216" lon="15.125212972578572"><ele>257.0</ele><time>2026-05-01T10:10:19.003Z</time></trkpt><trkpt lat="37.56448230907047" lon="15.125121977927872"><ele>257.0</ele><time>2026-05-01T10:10:20.003Z</time></trkpt><trkpt lat="37.56448354303679" lon="15.125026649583761"><ele>257.0</ele><time>2026-05-01T10:10:21.003Z</time></trkpt><trkpt lat="37.56450065909419" lon="15.124936165174768"><ele>257.0</ele><time>2026-05-01T10:10:22.003Z</time></trkpt><trkpt lat="37.56454737517449" lon="15.124827161809323"><ele>257.0</ele><time>2026-05-01T10:10:24.003Z</time></trkpt><trkpt lat="37.56454349108933" lon="15.124747668901305"><ele>257.0</ele><time>2026-05-01T10:10:25.003Z</time></trkpt><trkpt lat="37.56465801120133" lon="15.124697597656779"><ele>259.0</ele><time>2026-05-01T10:10:26.003Z</time></trkpt><trkpt lat="37.56471538096925" lon="15.124608027655457"><ele>261.0</ele><time>2026-05-01T10:10:27.002Z</time></trkpt><trkpt lat="37.564786667168214" lon="15.124537120512494"><ele>263.0</ele><time>2026-05-01T10:10:28.002Z</time></trkpt><trkpt lat="37.56486007814514" lon="15.12446077693361"><ele>265.0</ele><time>2026-05-01T10:10:29.002Z</time></trkpt><trkpt lat="37.564941005910036" lon="15.12439592940778"><ele>267.0</ele><time>2026-05-01T10:10:30.002Z</time></trkpt><trkpt lat="37.565028744602174" lon="15.124351554813485"><ele>267.0</ele><time>2026-05-01T10:10:31.002Z</time></trkpt><trkpt lat="37.56510417290585" lon="15.124310678749275"><ele>267.0</ele><time>2026-05-01T10:10:32.002Z</time></trkpt><trkpt lat="37.56518227861448" lon="15.124268524253178"><ele>267.0</ele><time>2026-05-01T10:10:33.002Z</time></trkpt><trkpt lat="37.56526213797061" lon="15.12421746136683"><ele>267.0</ele><time>2026-05-01T10:10:34.002Z</time></trkpt><trkpt lat="37.56533677879946" lon="15.124158779471838"><ele>267.0</ele><time>2026-05-01T10:10:35.002Z</time></trkpt><trkpt lat="37.56538825390463" lon="15.124097840255855"><ele>267.0</ele><time>2026-05-01T10:10:36.002Z</time></trkpt><trkpt lat="37.565451424310545" lon="15.123991945930902"><ele>268.6666666666667</ele><time>2026-05-01T10:10:38.002Z</time></trkpt><trkpt lat="37.56545457633912" lon="15.123842955610451"><ele>270.3333333333333</ele><time>2026-05-01T10:10:40.002Z</time></trkpt><trkpt lat="37.5654463306202" lon="15.123762089597065"><ele>272.0</ele><time>2026-05-01T10:10:41.002Z</time></trkpt><trkpt lat="37.56543867489806" lon="15.123682295764207"><ele>273.66666666666663</ele><time>2026-05-01T10:10:42.002Z</time></trkpt><trkpt lat="37.5654230922575" lon="15.123516807610129"><ele>275.3333333333333</ele><time>2026-05-01T10:10:44.001Z</time></trkpt><trkpt lat="37.56540548171668" lon="15.123431238269085"><ele>277.0</ele><time>2026-05-01T10:10:45.001Z</time></trkpt><trkpt lat="37.565377066374964" lon="15.123343721386513"><ele>276.5</ele><time>2026-05-01T10:10:46.001Z</time></trkpt><trkpt lat="37.565338954743396" lon="15.123261338522209"><ele>276.0</ele><time>2026-05-01T10:10:47.001Z</time></trkpt><trkpt lat="37.56528893596084" lon="15.123175606714142"><ele>275.5</ele><time>2026-05-01T10:10:48.001Z</time></trkpt><trkpt lat="37.56524909018572" lon="15.123085359839518"><ele>275.0</ele><time>2026-05-01T10:10:49.001Z</time></trkpt><trkpt lat="37.56524006026611" lon="15.122990704803033"><ele>274.5</ele><time>2026-05-01T10:10:50.001Z</time></trkpt><trkpt lat="37.56525413183318" lon="15.12289745836041"><ele>274.0</ele><time>2026-05-01T10:10:51.001Z</time></trkpt><trkpt lat="37.56531446586" lon="15.122827937538322"><ele>275.59999999999997</ele><time>2026-05-01T10:10:52.001Z</time></trkpt><trkpt lat="37.56535255121106" lon="15.122732628196312"><ele>277.2</ele><time>2026-05-01T10:10:53.001Z</time></trkpt><trkpt lat="37.56538295654806" lon="15.122620832816715"><ele>278.79999999999995</ele><time>2026-05-01T10:10:54.001Z</time></trkpt><trkpt lat="37.56542211886508" lon="15.122505741628405"><ele>280.4</ele><time>2026-05-01T10:10:55.001Z</time></trkpt><trkpt lat="37.56544889231414" lon="15.122382567529728"><ele>282.0</ele><time>2026-05-01T10:10:56.001Z</time></trkpt><trkpt lat="37.565492569156476" lon="15.12227440250934"><ele>282.8333333333333</ele><time>2026-05-01T10:10:57.001Z</time></trkpt><trkpt lat="37.565521325952844" lon="15.122173887555014"><ele>283.6666666666667</ele><time>2026-05-01T10:10:58.001Z</time></trkpt><trkpt lat="37.5655349261887" lon="15.12206791568332"><ele>284.5</ele><time>2026-05-01T10:10:59.001Z</time></trkpt><trkpt lat="37.565564206398896" lon="15.121966583258521"><ele>285.33333333333337</ele><time>2026-05-01T10:11:00.001Z</time></trkpt><trkpt lat="37.56559032085556" lon="15.12187099518638"><ele>286.1666666666667</ele><time>2026-05-01T10:11:01.001Z</time></trkpt><trkpt lat="37.56560630047446" lon="15.121772188712997"><ele>287.0</ele><time>2026-05-01T10:11:02.001Z</time></trkpt><trkpt lat="37.56560551857677" lon="15.121669434596475"><ele>287.0</ele><time>2026-05-01T10:11:03.001Z</time></trkpt><trkpt lat="37.56558784069329" lon="15.121570460229625"><ele>287.0</ele><time>2026-05-01T10:11:04.001Z</time></trkpt><trkpt lat="37.56555606854122" lon="15.12147311059077"><ele>287.0</ele><time>2026-05-01T10:11:05.001Z</time></trkpt><trkpt lat="37.5655205552279" lon="15.12137453762233"><ele>287.0</ele><time>2026-05-01T10:11:06.001Z</time></trkpt><trkpt lat="37.565507411558016" lon="15.12127145929376"><ele>287.0</ele><time>2026-05-01T10:11:07.001Z</time></trkpt><trkpt lat="37.56546345919312" lon="15.12116603069455"><ele>287.0</ele><time>2026-05-01T10:11:08.001Z</time></trkpt><trkpt lat="37.565436119788" lon="15.121064601934108"><ele>287.83333333333337</ele><time>2026-05-01T10:11:09.001Z</time></trkpt><trkpt lat="37.56540840885863" lon="15.120963800097243"><ele>288.6666666666667</ele><time>2026-05-01T10:11:10.001Z</time></trkpt><trkpt lat="37.56538276039835" lon="15.120860349427891"><ele>289.5</ele><time>2026-05-01T10:11:11.001Z</time></trkpt><trkpt lat="37.565358132617256" lon="15.120757114249583"><ele>290.3333333333333</ele><time>2026-05-01T10:11:12.001Z</time></trkpt><trkpt lat="37.56533410322266" lon="15.120654539239014"><ele>291.16666666666663</ele><time>2026-05-01T10:11:13.001Z</time></trkpt><trkpt lat="37.56530996060209" lon="15.120550347015143"><ele>292.0</ele><time>2026-05-01T10:11:14.001Z</time></trkpt><trkpt lat="37.56528810729526" lon="15.120446799904387"><ele>293.0</ele><time>2026-05-01T10:11:15.001Z</time></trkpt><trkpt lat="37.565263929922224" lon="15.120343162009483"><ele>294.0</ele><time>2026-05-01T10:11:16.001Z</time></trkpt><trkpt lat="37.56523767398283" lon="15.120240242614214"><ele>295.0</ele><time>2026-05-01T10:11:17.001Z</time></trkpt><trkpt lat="37.565223648042306" lon="15.120130004114394"><ele>296.0</ele><time>2026-05-01T10:11:18.001Z</time></trkpt><trkpt lat="37.56518418091982" lon="15.120023781994025"><ele>297.0</ele><time>2026-05-01T10:11:19.001Z</time></trkpt><trkpt lat="37.56511263802682" lon="15.119940433465"><ele>298.8333333333333</ele><time>2026-05-01T10:11:20.001Z</time></trkpt><trkpt lat="37.565045069800306" lon="15.119851957803112"><ele>300.6666666666667</ele><time>2026-05-01T10:11:21.001Z</time></trkpt><trkpt lat="37.56497399936375" lon="15.119772546050056"><ele>302.5</ele><time>2026-05-01T10:11:22.001Z</time></trkpt><trkpt lat="37.56492203977763" lon="15.11968065774522"><ele>304.33333333333337</ele><time>2026-05-01T10:11:23.001Z</time></trkpt><trkpt lat="37.564865986363884" lon="15.119610315057695"><ele>306.1666666666667</ele><time>2026-05-01T10:11:24.001Z</time></trkpt><trkpt lat="37.564812405646" lon="15.119542742228235"><ele>308.0</ele><time>2026-05-01T10:11:25.001Z</time></trkpt><trkpt lat="37.56475867845046" lon="15.119474984665224"><ele>308.0</ele><time>2026-05-01T10:11:26.001Z</time></trkpt><trkpt lat="37.564704675969566" lon="15.119406201434817"><ele>308.0</ele><time>2026-05-01T10:11:27.001Z</time></trkpt><trkpt lat="37.564642216870645" lon="15.11935024764026"><ele>308.0</ele><time>2026-05-01T10:11:28.001Z</time></trkpt><trkpt lat="37.56459004709214" lon="15.119283768495968"><ele>308.0</ele><time>2026-05-01T10:11:29.001Z</time></trkpt><trkpt lat="37.56453389513682" lon="15.119216230736525"><ele>308.0</ele><time>2026-05-01T10:11:30.001Z</time></trkpt><trkpt lat="37.564480660816365" lon="15.119147564827244"><ele>308.0</ele><time>2026-05-01T10:11:31.001Z</time></trkpt><trkpt lat="37.56442889325283" lon="15.119080501758491"><ele>309.2857142857143</ele><time>2026-05-01T10:11:32.001Z</time></trkpt><trkpt lat="37.564379467209015" lon="15.119011773497766"><ele>310.57142857142856</ele><time>2026-05-01T10:11:33.001Z</time></trkpt><trkpt lat="37.564332823969714" lon="15.118946716746516"><ele>311.8571428571429</ele><time>2026-05-01T10:11:34.001Z</time></trkpt><trkpt lat="37.564291422346024" lon="15.11887375695262"><ele>313.1428571428571</ele><time>2026-05-01T10:11:35.001Z</time></trkpt><trkpt lat="37.56425848072537" lon="15.118790068530414"><ele>314.42857142857144</ele><time>2026-05-01T10:11:36Z</time></trkpt><trkpt lat="37.56424616552531" lon="15.118704479894792"><ele>315.7142857142857</ele><time>2026-05-01T10:11:37Z</time></trkpt><trkpt lat="37.564254445553864" lon="15.118617085562608"><ele>317.0</ele><time>2026-05-01T10:11:38Z</time></trkpt><trkpt lat="37.56428547547287" lon="15.11853564339517"><ele>317.0</ele><time>2026-05-01T10:11:39Z</time></trkpt><trkpt lat="37.564333528485086" lon="15.118463480864257"><ele>317.0</ele><time>2026-05-01T10:11:40Z</time></trkpt><trkpt lat="37.56438901281913" lon="15.118400192254509"><ele>317.0</ele><time>2026-05-01T10:11:41Z</time></trkpt><trkpt lat="37.56445059931187" lon="15.118349735099478"><ele>317.0</ele><time>2026-05-01T10:11:42Z</time></trkpt><trkpt lat="37.56451666100766" lon="15.118307141276526"><ele>317.0</ele><time>2026-05-01T10:11:43Z</time></trkpt><trkpt lat="37.564586057246444" lon="15.118268904632478"><ele>317.0</ele><time>2026-05-01T10:11:44Z</time></trkpt><trkpt lat="37.56465942079301" lon="15.11823158805489"><ele>318.1666666666667</ele><time>2026-05-01T10:11:45Z</time></trkpt><trkpt lat="37.564729280924176" lon="15.118190144887704"><ele>319.33333333333337</ele><time>2026-05-01T10:11:46Z</time></trkpt><trkpt lat="37.564800983196875" lon="15.118144942897416"><ele>320.5</ele><time>2026-05-01T10:11:47Z</time></trkpt><trkpt lat="37.564879557619854" lon="15.118103832744147"><ele>321.6666666666667</ele><time>2026-05-01T10:11:48Z</time></trkpt><trkpt lat="37.56494801619156" lon="15.118046000993278"><ele>322.8333333333333</ele><time>2026-05-01T10:11:49Z</time></trkpt><trkpt lat="37.56498977619802" lon="15.117967540836485"><ele>324.0</ele><time>2026-05-01T10:11:50Z</time></trkpt><trkpt lat="37.56501487233717" lon="15.117870363078652"><ele>324.0</ele><time>2026-05-01T10:11:51Z</time></trkpt><trkpt lat="37.56502550087855" lon="15.117766387755957"><ele>324.0</ele><time>2026-05-01T10:11:52Z</time></trkpt><trkpt lat="37.565035995761576" lon="15.117655085508932"><ele>324.0</ele><time>2026-05-01T10:11:53Z</time></trkpt><trkpt lat="37.56504715556735" lon="15.117536776059872"><ele>324.0</ele><time>2026-05-01T10:11:54Z</time></trkpt><trkpt lat="37.565060327463335" lon="15.117410571181361"><ele>324.0</ele><time>2026-05-01T10:11:55Z</time></trkpt><trkpt lat="37.56508124832574" lon="15.117310331250144"><ele>324.0</ele><time>2026-05-01T10:11:56Z</time></trkpt><trkpt lat="37.565119824377646" lon="15.11722058143361"><ele>324.6</ele><time>2026-05-01T10:11:57Z</time></trkpt><trkpt lat="37.56514393013872" lon="15.117119011287546"><ele>325.2</ele><time>2026-05-01T10:11:58Z</time></trkpt><trkpt lat="37.56520851455689" lon="15.117048026940358"><ele>325.8</ele><time>2026-05-01T10:11:59Z</time></trkpt><trkpt lat="37.565245010725086" lon="15.116960674235852"><ele>326.40000000000003</ele><time>2026-05-01T10:12:00Z</time></trkpt><trkpt lat="37.56531547501613" lon="15.116855512597525"><ele>327.0</ele><time>2026-05-01T10:12:02Z</time></trkpt><trkpt lat="37.565374308905284" lon="15.116752387502983"><ele>327.40000000000003</ele><time>2026-05-01T10:12:04Z</time></trkpt><trkpt lat="37.56540731067958" lon="15.11667842238898"><ele>327.8</ele><time>2026-05-01T10:12:05Z</time></trkpt><trkpt lat="37.56546868751212" lon="15.116559794859187"><ele>328.2</ele><time>2026-05-01T10:12:07Z</time></trkpt><trkpt lat="37.565509885469375" lon="15.116413213357559"><ele>328.6</ele><time>2026-05-01T10:12:09Z</time></trkpt><trkpt lat="37.565548448613605" lon="15.116271764492412"><ele>329.0</ele><time>2026-05-01T10:12:11Z</time></trkpt><trkpt lat="37.56558050131156" lon="15.116170574279804"><ele>329.6</ele><time>2026-05-01T10:12:13Z</time></trkpt><trkpt lat="37.565609416822376" lon="15.116071997994846"><ele>330.2</ele><time>2026-05-01T10:12:16Z</time></trkpt><trkpt lat="37.56563258391448" lon="15.11599138791101"><ele>330.8</ele><time>2026-05-01T10:12:18Z</time></trkpt><trkpt lat="37.56566801475444" lon="15.115878503998836"><ele>331.40000000000003</ele><time>2026-05-01T10:12:21Z</time></trkpt><trkpt lat="37.565703389082415" lon="15.11576656753144"><ele>332.0</ele><time>2026-05-01T10:12:23Z</time></trkpt><trkpt lat="37.56574151036825" lon="15.11563094578847"><ele>332.6666666666667</ele><time>2026-05-01T10:12:25.003Z</time></trkpt><trkpt lat="37.56577746853637" lon="15.115505813708234"><ele>333.3333333333333</ele><time>2026-05-01T10:12:27.003Z</time></trkpt><trkpt lat="37.56579870008819" lon="15.115371755320139"><ele>334.0</ele><time>2026-05-01T10:12:29.002Z</time></trkpt><trkpt lat="37.56576500561818" lon="15.114382484712682"><ele>334.16666666666663</ele><time>2026-05-01T10:12:43.002Z</time></trkpt><trkpt lat="37.56574294913464" lon="15.11430167486737"><ele>334.3333333333333</ele><time>2026-05-01T10:12:44.002Z</time></trkpt><trkpt lat="37.56571662616719" lon="15.114222815556484"><ele>334.5</ele><time>2026-05-01T10:12:45.001Z</time></trkpt><trkpt lat="37.56569018919579" lon="15.114146615840585"><ele>334.6666666666667</ele><time>2026-05-01T10:12:46.001Z</time></trkpt><trkpt lat="37.565663764473555" lon="15.114072216427124"><ele>334.83333333333337</ele><time>2026-05-01T10:12:47.001Z</time></trkpt><trkpt lat="37.565622186920905" lon="15.11392841304279"><ele>335.0</ele><time>2026-05-01T10:12:49.001Z</time></trkpt><trkpt lat="37.565587757670635" lon="15.113803936928505"><ele>335.0</ele><time>2026-05-01T10:12:51.001Z</time></trkpt><trkpt lat="37.565590350534826" lon="15.113670334855465"><ele>335.0</ele><time>2026-05-01T10:12:53.001Z</time></trkpt><trkpt lat="37.565587792374565" lon="15.11352889450244"><ele>335.0</ele><time>2026-05-01T10:12:55.001Z</time></trkpt><trkpt lat="37.565617944482646" lon="15.113380491397436"><ele>335.0</ele><time>2026-05-01T10:12:57.001Z</time></trkpt><trkpt lat="37.56563272950581" lon="15.113301706441048"><ele>335.0</ele><time>2026-05-01T10:12:58.001Z</time></trkpt><trkpt lat="37.56564656088366" lon="15.113223823047848"><ele>335.0</ele><time>2026-05-01T10:12:59.001Z</time></trkpt><trkpt lat="37.56565883142159" lon="15.11314572839895"><ele>335.0</ele><time>2026-05-01T10:13:00.001Z</time></trkpt><trkpt lat="37.56569505933312" lon="15.113004852081028"><ele>335.0</ele><time>2026-05-01T10:13:02.001Z</time></trkpt><trkpt lat="37.5659699118776" lon="15.112436710660418"><ele>335.0</ele><time>2026-05-01T10:13:12.001Z</time></trkpt><trkpt lat="37.56601539285214" lon="15.112298134165922"><ele>335.0</ele><time>2026-05-01T10:13:14Z</time></trkpt><trkpt lat="37.566027873270535" lon="15.112180457405133"><ele>335.0</ele><time>2026-05-01T10:13:16Z</time></trkpt><trkpt lat="37.56602365224937" lon="15.112081401680417"><ele>335.0</ele><time>2026-05-01T10:13:19Z</time></trkpt><trkpt lat="37.566042348086675" lon="15.111906696624192"><ele>335.0</ele><time>2026-05-01T10:13:20Z</time></trkpt><trkpt lat="37.56604639039763" lon="15.111817385346022"><ele>335.0</ele><time>2026-05-01T10:13:21Z</time></trkpt><trkpt lat="37.566041198206044" lon="15.111676489359157"><ele>335.0</ele><time>2026-05-01T10:13:23Z</time></trkpt><trkpt lat="37.56604515130411" lon="15.111529946329904"><ele>335.0</ele><time>2026-05-01T10:13:25Z</time></trkpt><trkpt lat="37.56605646177366" lon="15.111387656947764"><ele>335.0</ele><time>2026-05-01T10:13:27Z</time></trkpt><trkpt lat="37.56608097190901" lon="15.111311641157307"><ele>335.0</ele><time>2026-05-01T10:13:28Z</time></trkpt><trkpt lat="37.566113582667306" lon="15.111163321299518"><ele>335.2</ele><time>2026-05-01T10:13:30Z</time></trkpt><trkpt lat="37.5661440325675" lon="15.111024633523986"><ele>335.4</ele><time>2026-05-01T10:13:32Z</time></trkpt><trkpt lat="37.566173162264754" lon="15.110899083945197"><ele>335.6</ele><time>2026-05-01T10:13:34Z</time></trkpt><trkpt lat="37.56617850637059" lon="15.11080639971483"><ele>335.8</ele><time>2026-05-01T10:13:36Z</time></trkpt><trkpt lat="37.56621577736809" lon="15.11073914072766"><ele>336.0</ele><time>2026-05-01T10:13:39Z</time></trkpt><trkpt lat="37.566260834950704" lon="15.110624036590558"><ele>336.0</ele><time>2026-05-01T10:13:42Z</time></trkpt><trkpt lat="37.566277340807844" lon="15.110529854796162"><ele>336.0</ele><time>2026-05-01T10:13:44Z</time></trkpt><trkpt lat="37.566289289616" lon="15.11044432336636"><ele>336.0</ele><time>2026-05-01T10:13:46Z</time></trkpt><trkpt lat="37.566294054627384" lon="15.110330622936331"><ele>336.0</ele><time>2026-05-01T10:13:49Z</time></trkpt><trkpt lat="37.56627707252556" lon="15.110224431866643"><ele>336.0</ele><time>2026-05-01T10:13:52Z</time></trkpt><trkpt lat="37.566248862187464" lon="15.110136879918063"><ele>336.0</ele><time>2026-05-01T10:13:55Z</time></trkpt><trkpt lat="37.56624519954991" lon="15.110045750636552"><ele>336.0</ele><time>2026-05-01T10:13:58Z</time></trkpt><trkpt lat="37.566249598232595" lon="15.109964493131605"><ele>336.0</ele><time>2026-05-01T10:14:01Z</time></trkpt><trkpt lat="37.56623640566888" lon="15.109852756821399"><ele>336.0</ele><time>2026-05-01T10:14:04Z</time></trkpt><trkpt lat="37.56622532475401" lon="15.109768766748175"><ele>336.0</ele><time>2026-05-01T10:14:05Z</time></trkpt><trkpt lat="37.566210167307815" lon="15.109669077246952"><ele>336.0</ele><time>2026-05-01T10:14:07Z</time></trkpt><trkpt lat="37.566249726099805" lon="15.109553908292293"><ele>336.0</ele><time>2026-05-01T10:14:08.999Z</time></trkpt><trkpt lat="37.56627459932211" lon="15.109419338533668"><ele>335.8</ele><time>2026-05-01T10:14:10.999Z</time></trkpt><trkpt lat="37.566299468000146" lon="15.10928990267483"><ele>335.6</ele><time>2026-05-01T10:14:12.999Z</time></trkpt><trkpt lat="37.56631947691745" lon="15.109170029954475"><ele>335.4</ele><time>2026-05-01T10:14:14.999Z</time></trkpt><trkpt lat="37.56635331214517" lon="15.109019534024233"><ele>335.2</ele><time>2026-05-01T10:14:16.999Z</time></trkpt><trkpt lat="37.56637618141319" lon="15.10893089402127"><ele>335.0</ele><time>2026-05-01T10:14:17.999Z</time></trkpt><trkpt lat="37.56640009933702" lon="15.108834554288553"><ele>335.0</ele><time>2026-05-01T10:14:18.999Z</time></trkpt><trkpt lat="37.56642241599701" lon="15.108758889285212"><ele>335.0</ele><time>2026-05-01T10:14:19.999Z</time></trkpt><trkpt lat="37.566465733926194" lon="15.108608358443318"><ele>335.0</ele><time>2026-05-01T10:14:21.999Z</time></trkpt><trkpt lat="37.56649407274094" lon="15.108531885156129"><ele>335.0</ele><time>2026-05-01T10:14:22.999Z</time></trkpt><trkpt lat="37.566518008396066" lon="15.108452872408074"><ele>335.0</ele><time>2026-05-01T10:14:23.999Z</time></trkpt><trkpt lat="37.56654295052876" lon="15.10837442669146"><ele>335.0</ele><time>2026-05-01T10:14:24.999Z</time></trkpt><trkpt lat="37.566569663179486" lon="15.10830028269452"><ele>335.0</ele><time>2026-05-01T10:14:25.999Z</time></trkpt><trkpt lat="37.56661515052532" lon="15.108168975805947"><ele>335.0</ele><time>2026-05-01T10:14:27.999Z</time></trkpt><trkpt lat="37.566656047143596" lon="15.108073046812924"><ele>335.0</ele><time>2026-05-01T10:14:30.001Z</time></trkpt><trkpt lat="37.56670052864236" lon="15.107971538228005"><ele>335.0</ele><time>2026-05-01T10:14:32.001Z</time></trkpt><trkpt lat="37.566764416191354" lon="15.107836675820982"><ele>335.0</ele><time>2026-05-01T10:14:34.001Z</time></trkpt><trkpt lat="37.56683431920838" lon="15.10771896139271"><ele>335.0</ele><time>2026-05-01T10:14:36.001Z</time></trkpt><trkpt lat="37.56690758061735" lon="15.107596843098731"><ele>335.0</ele><time>2026-05-01T10:14:38.001Z</time></trkpt><trkpt lat="37.56698777222622" lon="15.107469725223686"><ele>335.0</ele><time>2026-05-01T10:14:40.001Z</time></trkpt><trkpt lat="37.56703470157093" lon="15.107405078397653"><ele>335.0</ele><time>2026-05-01T10:14:41.001Z</time></trkpt><trkpt lat="37.5670785706458" lon="15.107332362361689"><ele>335.0</ele><time>2026-05-01T10:14:42.001Z</time></trkpt><trkpt lat="37.56712347187945" lon="15.107260160379923"><ele>334.99999999999994</ele><time>2026-05-01T10:14:43.001Z</time></trkpt><trkpt lat="37.56717230920958" lon="15.107185601960852"><ele>335.0</ele><time>2026-05-01T10:14:44.001Z</time></trkpt><trkpt lat="37.56721943324916" lon="15.10711119093468"><ele>335.0</ele><time>2026-05-01T10:14:45.001Z</time></trkpt><trkpt lat="37.5672617264304" lon="15.107035406577491"><ele>335.0</ele><time>2026-05-01T10:14:46.001Z</time></trkpt><trkpt lat="37.56730568318827" lon="15.106961610560127"><ele>335.0</ele><time>2026-05-01T10:14:47.001Z</time></trkpt><trkpt lat="37.567346573397124" lon="15.106893604452198"><ele>334.99999999999994</ele><time>2026-05-01T10:14:48.001Z</time></trkpt><trkpt lat="37.567390321315855" lon="15.106826683233884"><ele>335.0</ele><time>2026-05-01T10:14:49.001Z</time></trkpt><trkpt lat="37.56743220290055" lon="15.106761594726688"><ele>335.0</ele><time>2026-05-01T10:14:50.001Z</time></trkpt><trkpt lat="37.56750374483641" lon="15.106640917875058"><ele>335.0</ele><time>2026-05-01T10:14:52.001Z</time></trkpt><trkpt lat="37.56756356859484" lon="15.106546308206656"><ele>335.0</ele><time>2026-05-01T10:14:54.001Z</time></trkpt><trkpt lat="37.56762428047495" lon="15.106487069006027"><ele>335.0</ele><time>2026-05-01T10:14:56.001Z</time></trkpt><trkpt lat="37.56770552880888" lon="15.106450181078696"><ele>335.0</ele><time>2026-05-01T10:14:59Z</time></trkpt><trkpt lat="37.56777676044464" lon="15.106420936819312"><ele>335.0</ele><time>2026-05-01T10:15:01Z</time></trkpt><trkpt lat="37.567825861166476" lon="15.106278499239815"><ele>335.0</ele><time>2026-05-01T10:15:04Z</time></trkpt><trkpt lat="37.56777758563259" lon="15.106172925869851"><ele>335.0</ele><time>2026-05-01T10:15:06Z</time></trkpt><trkpt lat="37.56769767733934" lon="15.106114183421754"><ele>335.0</ele><time>2026-05-01T10:15:08Z</time></trkpt><trkpt lat="37.56761850327527" lon="15.106135918047483"><ele>335.0</ele><time>2026-05-01T10:15:11Z</time></trkpt><trkpt lat="37.567596596318275" lon="15.106223020571491"><ele>335.0</ele><time>2026-05-01T10:15:13Z</time></trkpt><trkpt lat="37.567606256978074" lon="15.106309455122528"><ele>335.0</ele><time>2026-05-01T10:15:14Z</time></trkpt><trkpt lat="37.567627761875364" lon="15.10639060117579"><ele>335.0</ele><time>2026-05-01T10:15:15Z</time></trkpt><trkpt lat="37.56770023253854" lon="15.106465092609415"><ele>335.0</ele><time>2026-05-01T10:15:17Z</time></trkpt><trkpt lat="37.567787942031025" lon="15.106425038353358"><ele>335.0</ele><time>2026-05-01T10:15:19Z</time></trkpt><trkpt lat="37.567816173613984" lon="15.106316003082563"><ele>335.0</ele><time>2026-05-01T10:15:21Z</time></trkpt><trkpt lat="37.56778934380971" lon="15.106215545707641"><ele>335.0</ele><time>2026-05-01T10:15:23Z</time></trkpt><trkpt lat="37.567749768441324" lon="15.106126942302447"><ele>335.0</ele><time>2026-05-01T10:15:36Z</time></trkpt><trkpt lat="37.56764011333511" lon="15.10609205444249"><ele>335.0</ele><time>2026-05-01T10:15:38Z</time></trkpt><trkpt lat="37.56758192319454" lon="15.10603863183157"><ele>335.0</ele><time>2026-05-01T10:15:39Z</time></trkpt><trkpt lat="37.56751265438807" lon="15.106019220791769"><ele>335.0</ele><time>2026-05-01T10:15:40Z</time></trkpt><trkpt lat="37.56743933258413" lon="15.105995748174536"><ele>335.0</ele><time>2026-05-01T10:15:41Z</time></trkpt><trkpt lat="37.567363718957324" lon="15.105968826023746"><ele>335.0</ele><time>2026-05-01T10:15:42Z</time></trkpt><trkpt lat="37.56729136936467" lon="15.105938272587863"><ele>335.0</ele><time>2026-05-01T10:15:43Z</time></trkpt><trkpt lat="37.56721690904058" lon="15.105909029226705"><ele>335.0</ele><time>2026-05-01T10:15:43.999Z</time></trkpt><trkpt lat="37.56714129342485" lon="15.105883318036087"><ele>335.0</ele><time>2026-05-01T10:15:44.999Z</time></trkpt><trkpt lat="37.56706481002465" lon="15.105861079989456"><ele>335.0</ele><time>2026-05-01T10:15:45.999Z</time></trkpt><trkpt lat="37.566990995480374" lon="15.105837335775481"><ele>335.0</ele><time>2026-05-01T10:15:46.999Z</time></trkpt><trkpt lat="37.56691518920513" lon="15.105809768815291"><ele>334.83333333333337</ele><time>2026-05-01T10:15:47.999Z</time></trkpt><trkpt lat="37.56683703336942" lon="15.105779638061437"><ele>334.6666666666667</ele><time>2026-05-01T10:15:48.999Z</time></trkpt><trkpt lat="37.56676644463285" lon="15.105750693391409"><ele>334.5</ele><time>2026-05-01T10:15:49.999Z</time></trkpt><trkpt lat="37.5667027931836" lon="15.105725438819933"><ele>334.3333333333333</ele><time>2026-05-01T10:15:50.999Z</time></trkpt><trkpt lat="37.5666057393052" lon="15.105680104616074"><ele>334.16666666666663</ele><time>2026-05-01T10:15:52.999Z</time></trkpt><trkpt lat="37.56651633561321" lon="15.105635444216944"><ele>334.0</ele><time>2026-05-01T10:15:54.999Z</time></trkpt><trkpt lat="37.56644925087425" lon="15.105547202624134"><ele>334.2</ele><time>2026-05-01T10:15:56.999Z</time></trkpt><trkpt lat="37.566383514470125" lon="15.105445348764384"><ele>334.4</ele><time>2026-05-01T10:15:58.999Z</time></trkpt><trkpt lat="37.566285475728236" lon="15.10545300644381"><ele>334.6</ele><time>2026-05-01T10:16:00.999Z</time></trkpt><trkpt lat="37.56620416557134" lon="15.105558619026738"><ele>334.8</ele><time>2026-05-01T10:16:02.999Z</time></trkpt><trkpt lat="37.56615720983262" lon="15.105613400583655"><ele>335.0</ele><time>2026-05-01T10:16:03.999Z</time></trkpt><trkpt lat="37.56606706715335" lon="15.105610991562495"><ele>335.0</ele><time>2026-05-01T10:16:04.999Z</time></trkpt><trkpt lat="37.56598020596644" lon="15.105624355689951"><ele>335.0</ele><time>2026-05-01T10:16:05.999Z</time></trkpt><trkpt lat="37.56589348033932" lon="15.105611570237315"><ele>335.0</ele><time>2026-05-01T10:16:06.999Z</time></trkpt><trkpt lat="37.56580004962609" lon="15.105629630764584"><ele>335.0</ele><time>2026-05-01T10:16:07.999Z</time></trkpt><trkpt lat="37.56569528898233" lon="15.105654676469575"><ele>335.0</ele><time>2026-05-01T10:16:08.999Z</time></trkpt><trkpt lat="37.565587906492254" lon="15.105686314202694"><ele>335.0</ele><time>2026-05-01T10:16:09.999Z</time></trkpt><trkpt lat="37.5654866343632" lon="15.105742644044494"><ele>335.0</ele><time>2026-05-01T10:16:10.999Z</time></trkpt><trkpt lat="37.56538510153154" lon="15.105774379718083"><ele>335.0</ele><time>2026-05-01T10:16:11.999Z</time></trkpt><trkpt lat="37.56529370697242" lon="15.105818706746522"><ele>335.0</ele><time>2026-05-01T10:16:12.999Z</time></trkpt><trkpt lat="37.56521643907168" lon="15.105855365017362"><ele>335.0</ele><time>2026-05-01T10:16:13.999Z</time></trkpt><trkpt lat="37.56515450429099" lon="15.105883970731268"><ele>335.4</ele><time>2026-05-01T10:16:14.999Z</time></trkpt><trkpt lat="37.56505581904086" lon="15.105930880249355"><ele>335.8</ele><time>2026-05-01T10:16:16.999Z</time></trkpt><trkpt lat="37.56495343360519" lon="15.105978134130309"><ele>336.20000000000005</ele><time>2026-05-01T10:16:18.999Z</time></trkpt><trkpt lat="37.56485660626163" lon="15.106023756299821"><ele>336.6</ele><time>2026-05-01T10:16:20.999Z</time></trkpt><trkpt lat="37.5647606237974" lon="15.106080585046442"><ele>337.0</ele><time>2026-05-01T10:16:22.999Z</time></trkpt><trkpt lat="37.56465617234506" lon="15.106139027982904"><ele>337.0</ele><time>2026-05-01T10:16:24.999Z</time></trkpt><trkpt lat="37.56458453456125" lon="15.106175692442072"><ele>337.0</ele><time>2026-05-01T10:16:25.999Z</time></trkpt><trkpt lat="37.564506543548326" lon="15.106217309188455"><ele>337.0</ele><time>2026-05-01T10:16:26.999Z</time></trkpt><trkpt lat="37.564433314602596" lon="15.106257688514459"><ele>337.0</ele><time>2026-05-01T10:16:27.999Z</time></trkpt><trkpt lat="37.564361291195894" lon="15.106293238094702"><ele>337.0</ele><time>2026-05-01T10:16:28.999Z</time></trkpt><trkpt lat="37.56426847722183" lon="15.106362355554348"><ele>337.0</ele><time>2026-05-01T10:16:30.999Z</time></trkpt><trkpt lat="37.56421176789936" lon="15.106407734228037"><ele>336.8333333333333</ele><time>2026-05-01T10:16:32.999Z</time></trkpt><trkpt lat="37.564156785695104" lon="15.106455086829008"><ele>336.66666666666663</ele><time>2026-05-01T10:16:36.001Z</time></trkpt><trkpt lat="37.56409769951085" lon="15.106504232687067"><ele>336.5</ele><time>2026-05-01T10:16:39.001Z</time></trkpt><trkpt lat="37.564025004208055" lon="15.106361796253479"><ele>336.3333333333333</ele><time>2026-05-01T10:16:40.001Z</time></trkpt><trkpt lat="37.56395649221378" lon="15.106311230928519"><ele>336.1666666666667</ele><time>2026-05-01T10:16:42.001Z</time></trkpt><trkpt lat="37.5639099289477" lon="15.106250209757587"><ele>336.0</ele><time>2026-05-01T10:16:46.001Z</time></trkpt><trkpt lat="37.56385591694124" lon="15.106103040841754"><ele>336.0</ele><time>2026-05-01T10:16:48.001Z</time></trkpt><trkpt lat="37.563842954049456" lon="15.106018202826231"><ele>336.0</ele><time>2026-05-01T10:16:49.001Z</time></trkpt><trkpt lat="37.56383886013552" lon="15.105914038580837"><ele>336.0</ele><time>2026-05-01T10:16:51.001Z</time></trkpt><trkpt lat="37.56385643700821" lon="15.105808279815234"><ele>336.0</ele><time>2026-05-01T10:16:52.001Z</time></trkpt><trkpt lat="37.56387438537163" lon="15.105699458862656"><ele>336.0</ele><time>2026-05-01T10:16:53.001Z</time></trkpt><trkpt lat="37.56389949708553" lon="15.105589801036487"><ele>336.0</ele><time>2026-05-01T10:16:54.001Z</time></trkpt><trkpt lat="37.56392784186588" lon="15.105478499906122"><ele>335.6</ele><time>2026-05-01T10:16:55.001Z</time></trkpt><trkpt lat="37.56395429445437" lon="15.105362664359212"><ele>335.20000000000005</ele><time>2026-05-01T10:16:56.001Z</time></trkpt><trkpt lat="37.56397803498192" lon="15.105243002002807"><ele>334.79999999999995</ele><time>2026-05-01T10:16:57.001Z</time></trkpt><trkpt lat="37.56400142187761" lon="15.105119868677441"><ele>334.4</ele><time>2026-05-01T10:16:58.001Z</time></trkpt><trkpt lat="37.564025436672274" lon="15.104996663445558"><ele>334.0</ele><time>2026-05-01T10:16:59.001Z</time></trkpt><trkpt lat="37.56404430567933" lon="15.104878287982057"><ele>334.0</ele><time>2026-05-01T10:17:00.001Z</time></trkpt><trkpt lat="37.56404975558564" lon="15.10475629279149"><ele>334.0</ele><time>2026-05-01T10:17:01.001Z</time></trkpt><trkpt lat="37.564040038813104" lon="15.104625672980614"><ele>334.0</ele><time>2026-05-01T10:17:02Z</time></trkpt><trkpt lat="37.564016987649964" lon="15.10449090494968"><ele>334.0</ele><time>2026-05-01T10:17:03Z</time></trkpt><trkpt lat="37.56398334868426" lon="15.104363227055863"><ele>334.0</ele><time>2026-05-01T10:17:04Z</time></trkpt><trkpt lat="37.56394482881472" lon="15.104251035270927"><ele>334.0</ele><time>2026-05-01T10:17:05Z</time></trkpt><trkpt lat="37.56387694232228" lon="15.104164475763397"><ele>334.0</ele><time>2026-05-01T10:17:06Z</time></trkpt><trkpt lat="37.56379216822401" lon="15.104109267357401"><ele>334.0</ele><time>2026-05-01T10:17:07Z</time></trkpt><trkpt lat="37.56369064131242" lon="15.104084090924161"><ele>334.0</ele><time>2026-05-01T10:17:08Z</time></trkpt><trkpt lat="37.56357468295528" lon="15.10408256255562"><ele>334.0</ele><time>2026-05-01T10:17:09Z</time></trkpt><trkpt lat="37.56345739220309" lon="15.10410859680476"><ele>328.0</ele><time>2026-05-01T10:17:10Z</time></trkpt><trkpt lat="37.56334285641412" lon="15.104139599576307"><ele>322.0</ele><time>2026-05-01T10:17:11Z</time></trkpt><trkpt lat="37.56322601552975" lon="15.104163119949108"><ele>316.0</ele><time>2026-05-01T10:17:12Z</time></trkpt><trkpt lat="37.56310758945655" lon="15.104153674066081"><ele>310.0</ele><time>2026-05-01T10:17:13Z</time></trkpt><trkpt lat="37.56299375448693" lon="15.10415384994548"><ele>309.0</ele><time>2026-05-01T10:17:14Z</time></trkpt><trkpt lat="37.562876808264775" lon="15.104066334414672"><ele>308.0</ele><time>2026-05-01T10:17:15Z</time></trkpt><trkpt lat="37.56276348512701" lon="15.104002402477983"><ele>307.0</ele><time>2026-05-01T10:17:16Z</time></trkpt><trkpt lat="37.562648694346315" lon="15.103925466809747"><ele>306.0</ele><time>2026-05-01T10:17:17Z</time></trkpt><trkpt lat="37.562523753352096" lon="15.103867149906288"><ele>304.5</ele><time>2026-05-01T10:17:18Z</time></trkpt><trkpt lat="37.56241061035811" lon="15.10376994569219"><ele>303.0</ele><time>2026-05-01T10:17:19Z</time></trkpt><trkpt lat="37.56228692631063" lon="15.103696216506293"><ele>301.5</ele><time>2026-05-01T10:17:20Z</time></trkpt><trkpt lat="37.56216796363429" lon="15.103625276959665"><ele>300.0</ele><time>2026-05-01T10:17:21Z</time></trkpt><trkpt lat="37.56205316455284" lon="15.103558209667773"><ele>299.5</ele><time>2026-05-01T10:17:22Z</time></trkpt><trkpt lat="37.5619408439018" lon="15.103494524648227"><ele>299.0</ele><time>2026-05-01T10:17:23Z</time></trkpt><trkpt lat="37.56183194789267" lon="15.103435179125011"><ele>298.5</ele><time>2026-05-01T10:17:24Z</time></trkpt><trkpt lat="37.561733044829616" lon="15.103353734709481"><ele>298.0</ele><time>2026-05-01T10:17:25Z</time></trkpt><trkpt lat="37.56162840107205" lon="15.103288838122898"><ele>297.5</ele><time>2026-05-01T10:17:26Z</time></trkpt><trkpt lat="37.56152452921401" lon="15.103226380845907"><ele>297.0</ele><time>2026-05-01T10:17:27Z</time></trkpt><trkpt lat="37.56141490011248" lon="15.103178559020908"><ele>296.5</ele><time>2026-05-01T10:17:28Z</time></trkpt><trkpt lat="37.56130891110714" lon="15.103107355609103"><ele>296.0</ele><time>2026-05-01T10:17:29Z</time></trkpt><trkpt lat="37.56119597383158" lon="15.103031995940878"><ele>295.5</ele><time>2026-05-01T10:17:30Z</time></trkpt><trkpt lat="37.561078729187166" lon="15.102951663407191"><ele>295.0</ele><time>2026-05-01T10:17:31Z</time></trkpt><trkpt lat="37.56096266578529" lon="15.102864313390143"><ele>294.5</ele><time>2026-05-01T10:17:32Z</time></trkpt><trkpt lat="37.560850359489365" lon="15.102765184745245"><ele>294.0</ele><time>2026-05-01T10:17:33Z</time></trkpt><trkpt lat="37.56074263264613" lon="15.102660070576793"><ele>294.0</ele><time>2026-05-01T10:17:34Z</time></trkpt><trkpt lat="37.56063770259762" lon="15.10254699155646"><ele>294.0</ele><time>2026-05-01T10:17:35Z</time></trkpt><trkpt lat="37.560537175840224" lon="15.102429450348628"><ele>294.0</ele><time>2026-05-01T10:17:36Z</time></trkpt><trkpt lat="37.56043923357634" lon="15.102310831926834"><ele>294.0</ele><time>2026-05-01T10:17:37Z</time></trkpt><trkpt lat="37.56034237977146" lon="15.102192691514547"><ele>292.5</ele><time>2026-05-01T10:17:38Z</time></trkpt><trkpt lat="37.56024795333743" lon="15.102077815751208"><ele>291.0</ele><time>2026-05-01T10:17:39Z</time></trkpt><trkpt lat="37.56016741435565" lon="15.101963217421577"><ele>289.5</ele><time>2026-05-01T10:17:40Z</time></trkpt><trkpt lat="37.56010029465825" lon="15.101848723153317"><ele>288.0</ele><time>2026-05-01T10:17:41Z</time></trkpt><trkpt lat="37.560043964177595" lon="15.101726766557848"><ele>288.0</ele><time>2026-05-01T10:17:42Z</time></trkpt><trkpt lat="37.560004214724266" lon="15.101599727998137"><ele>288.0</ele><time>2026-05-01T10:17:43Z</time></trkpt><trkpt lat="37.559984425221735" lon="15.101467750609373"><ele>288.0</ele><time>2026-05-01T10:17:43.999Z</time></trkpt><trkpt lat="37.55998697247127" lon="15.10132535965184"><ele>288.0</ele><time>2026-05-01T10:17:44.999Z</time></trkpt><trkpt lat="37.5600112469989" lon="15.10116915784286"><ele>288.75</ele><time>2026-05-01T10:17:45.999Z</time></trkpt><trkpt lat="37.56005714321873" lon="15.101016390768933"><ele>289.5</ele><time>2026-05-01T10:17:46.999Z</time></trkpt><trkpt lat="37.56011774720637" lon="15.100879264130382"><ele>290.25</ele><time>2026-05-01T10:17:47.999Z</time></trkpt><trkpt lat="37.560180897512645" lon="15.100749967390668"><ele>291.0</ele><time>2026-05-01T10:17:48.999Z</time></trkpt><trkpt lat="37.56023889816448" lon="15.100610264518746"><ele>291.75</ele><time>2026-05-01T10:17:49.999Z</time></trkpt><trkpt lat="37.56029375687646" lon="15.100455941064702"><ele>292.5</ele><time>2026-05-01T10:17:50.999Z</time></trkpt><trkpt lat="37.560346404690726" lon="15.100304499836145"><ele>293.25</ele><time>2026-05-01T10:17:51.999Z</time></trkpt><trkpt lat="37.560400335873" lon="15.100155656681324"><ele>294.0</ele><time>2026-05-01T10:17:52.999Z</time></trkpt><trkpt lat="37.560451447258714" lon="15.100013834032557"><ele>296.5</ele><time>2026-05-01T10:17:53.999Z</time></trkpt><trkpt lat="37.5604988758511" lon="15.099879822529697"><ele>299.0</ele><time>2026-05-01T10:17:54.999Z</time></trkpt><trkpt lat="37.56054382169358" lon="15.099747196134599"><ele>301.5</ele><time>2026-05-01T10:17:55.999Z</time></trkpt><trkpt lat="37.560587805521855" lon="15.099612911387165"><ele>304.0</ele><time>2026-05-01T10:17:56.999Z</time></trkpt><trkpt lat="37.56063895964027" lon="15.099467125824397"><ele>304.0</ele><time>2026-05-01T10:17:57.999Z</time></trkpt><trkpt lat="37.560697201952955" lon="15.09932068690256"><ele>304.0</ele><time>2026-05-01T10:17:58.999Z</time></trkpt><trkpt lat="37.560763855857836" lon="15.099173424081735"><ele>304.0</ele><time>2026-05-01T10:17:59.999Z</time></trkpt><trkpt lat="37.56083061533085" lon="15.099022658640544"><ele>304.0</ele><time>2026-05-01T10:18:00.999Z</time></trkpt><trkpt lat="37.560902205548615" lon="15.09887875977337"><ele>304.75</ele><time>2026-05-01T10:18:01.999Z</time></trkpt><trkpt lat="37.56096871790262" lon="15.098733416218657"><ele>305.5</ele><time>2026-05-01T10:18:02.999Z</time></trkpt><trkpt lat="37.56103986683444" lon="15.098586466420878"><ele>306.25</ele><time>2026-05-01T10:18:03.999Z</time></trkpt><trkpt lat="37.56110739366234" lon="15.098441455187967"><ele>307.0</ele><time>2026-05-01T10:18:04.999Z</time></trkpt><trkpt lat="37.56117611921302" lon="15.09829326303251"><ele>307.25</ele><time>2026-05-01T10:18:05.999Z</time></trkpt><trkpt lat="37.561243849747456" lon="15.098144695608699"><ele>307.5</ele><time>2026-05-01T10:18:06.999Z</time></trkpt><trkpt lat="37.56131216713364" lon="15.097995629486217"><ele>307.75</ele><time>2026-05-01T10:18:07.999Z</time></trkpt><trkpt lat="37.561381018284585" lon="15.097840673100617"><ele>308.0</ele><time>2026-05-01T10:18:08.999Z</time></trkpt><trkpt lat="37.56145370714776" lon="15.097686531644442"><ele>308.0</ele><time>2026-05-01T10:18:09.999Z</time></trkpt><trkpt lat="37.56152907489369" lon="15.097531889488245"><ele>308.0</ele><time>2026-05-01T10:18:10.999Z</time></trkpt><trkpt lat="37.561603807364556" lon="15.097375510312604"><ele>308.0</ele><time>2026-05-01T10:18:11.999Z</time></trkpt><trkpt lat="37.561676120320556" lon="15.09721796099017"><ele>308.0</ele><time>2026-05-01T10:18:12.999Z</time></trkpt><trkpt lat="37.5617461034352" lon="15.097063079861547"><ele>309.0</ele><time>2026-05-01T10:18:13.999Z</time></trkpt><trkpt lat="37.561820000600314" lon="15.096909827813253"><ele>310.0</ele><time>2026-05-01T10:18:14.999Z</time></trkpt><trkpt lat="37.56189250079458" lon="15.09675984654954"><ele>311.0</ele><time>2026-05-01T10:18:15.999Z</time></trkpt><trkpt lat="37.56196777724929" lon="15.0966088224161"><ele>312.0</ele><time>2026-05-01T10:18:16.999Z</time></trkpt><trkpt lat="37.56204101406431" lon="15.096464003588073"><ele>314.0</ele><time>2026-05-01T10:18:17.999Z</time></trkpt><trkpt lat="37.56211194210827" lon="15.096333846491696"><ele>316.0</ele><time>2026-05-01T10:18:18.999Z</time></trkpt><trkpt lat="37.56220796746441" lon="15.096221932798175"><ele>318.0</ele><time>2026-05-01T10:18:19.999Z</time></trkpt><trkpt lat="37.56230662288447" lon="15.09612159827371"><ele>320.0</ele><time>2026-05-01T10:18:20.999Z</time></trkpt><trkpt lat="37.562406907917094" lon="15.096044123860187"><ele>320.0</ele><time>2026-05-01T10:18:21.999Z</time></trkpt><trkpt lat="37.562504810141604" lon="15.095999464080958"><ele>320.0</ele><time>2026-05-01T10:18:22.999Z</time></trkpt><trkpt lat="37.562597193249836" lon="15.09599059375309"><ele>320.0</ele><time>2026-05-01T10:18:23.999Z</time></trkpt><trkpt lat="37.56269294642566" lon="15.096003330332948"><ele>320.0</ele><time>2026-05-01T10:18:24.999Z</time></trkpt><trkpt lat="37.5627846147585" lon="15.096044017615046"><ele>320.0</ele><time>2026-05-01T10:18:25.999Z</time></trkpt><trkpt lat="37.562859297032794" lon="15.096109230038081"><ele>321.4</ele><time>2026-05-01T10:18:26.999Z</time></trkpt><trkpt lat="37.56292534796497" lon="15.096199206648546"><ele>322.8</ele><time>2026-05-01T10:18:27.999Z</time></trkpt><trkpt lat="37.56296809372857" lon="15.096301941720684"><ele>324.20000000000005</ele><time>2026-05-01T10:18:28.999Z</time></trkpt><trkpt lat="37.5629922718127" lon="15.096425615596766"><ele>325.6</ele><time>2026-05-01T10:18:29.999Z</time></trkpt><trkpt lat="37.56299366862992" lon="15.096555957030603"><ele>327.0</ele><time>2026-05-01T10:18:30.998Z</time></trkpt><trkpt lat="37.56296877476393" lon="15.096678292812696"><ele>327.0</ele><time>2026-05-01T10:18:31.998Z</time></trkpt><trkpt lat="37.56291551638719" lon="15.096787870773992"><ele>327.0</ele><time>2026-05-01T10:18:32.998Z</time></trkpt><trkpt lat="37.56284024376189" lon="15.0968786379796"><ele>327.0</ele><time>2026-05-01T10:18:33.998Z</time></trkpt><trkpt lat="37.56274773898273" lon="15.096944654772255"><ele>327.0</ele><time>2026-05-01T10:18:34.998Z</time></trkpt><trkpt lat="37.56264330761934" lon="15.096983617758163"><ele>327.0</ele><time>2026-05-01T10:18:35.998Z</time></trkpt><trkpt lat="37.5625366604319" lon="15.096993896829428"><ele>324.5</ele><time>2026-05-01T10:18:36.998Z</time></trkpt><trkpt lat="37.56243188796501" lon="15.096972086714079"><ele>322.0</ele><time>2026-05-01T10:18:37.998Z</time></trkpt><trkpt lat="37.562328619192286" lon="15.096923827590707"><ele>319.5</ele><time>2026-05-01T10:18:38.998Z</time></trkpt><trkpt lat="37.562222854149724" lon="15.096853902040047"><ele>317.0</ele><time>2026-05-01T10:18:40.001Z</time></trkpt><trkpt lat="37.56212615606136" lon="15.096764421895434"><ele>317.0</ele><time>2026-05-01T10:18:41.001Z</time></trkpt><trkpt lat="37.5620398019045" lon="15.096654118345224"><ele>317.0</ele><time>2026-05-01T10:18:42.001Z</time></trkpt><trkpt lat="37.56195601033095" lon="15.096535066824895"><ele>317.0</ele><time>2026-05-01T10:18:43.001Z</time></trkpt><trkpt lat="37.56187187933048" lon="15.096417825066705"><ele>317.0</ele><time>2026-05-01T10:18:44.001Z</time></trkpt><trkpt lat="37.56178105150627" lon="15.096296987394737"><ele>316.75</ele><time>2026-05-01T10:18:45.001Z</time></trkpt><trkpt lat="37.56168573413514" lon="15.096171146852544"><ele>316.5</ele><time>2026-05-01T10:18:46.001Z</time></trkpt><trkpt lat="37.56158328442445" lon="15.096032454529016"><ele>316.25</ele><time>2026-05-01T10:18:47.001Z</time></trkpt><trkpt lat="37.561477805028304" lon="15.095888022063201"><ele>316.0</ele><time>2026-05-01T10:18:48.001Z</time></trkpt><trkpt lat="37.56136887862573" lon="15.095736076646883"><ele>316.66666666666663</ele><time>2026-05-01T10:18:49.001Z</time></trkpt><trkpt lat="37.56126206408249" lon="15.095582307430705"><ele>317.3333333333333</ele><time>2026-05-01T10:18:50.001Z</time></trkpt><trkpt lat="37.56115197230408" lon="15.095427019695826"><ele>318.0</ele><time>2026-05-01T10:18:51.001Z</time></trkpt><trkpt lat="37.561036042765956" lon="15.095270347340122"><ele>315.6666666666667</ele><time>2026-05-01T10:18:52.001Z</time></trkpt><trkpt lat="37.56092968712356" lon="15.095106524976467"><ele>313.33333333333337</ele><time>2026-05-01T10:18:53.001Z</time></trkpt><trkpt lat="37.56081366412407" lon="15.094944624767201"><ele>311.0</ele><time>2026-05-01T10:18:54.001Z</time></trkpt><trkpt lat="37.56070088495755" lon="15.094781785176272"><ele>311.0</ele><time>2026-05-01T10:18:55.001Z</time></trkpt><trkpt lat="37.56058651331168" lon="15.094614460361239"><ele>311.0</ele><time>2026-05-01T10:18:56.001Z</time></trkpt><trkpt lat="37.56047316623734" lon="15.094447779606282"><ele>311.0</ele><time>2026-05-01T10:18:57.001Z</time></trkpt><trkpt lat="37.5603594142957" lon="15.094280591815735"><ele>310.33333333333337</ele><time>2026-05-01T10:18:58.001Z</time></trkpt><trkpt lat="37.56024440934173" lon="15.094111663043257"><ele>309.6666666666667</ele><time>2026-05-01T10:18:59.001Z</time></trkpt><trkpt lat="37.56013044897556" lon="15.093944276953621"><ele>309.0</ele><time>2026-05-01T10:19:00.001Z</time></trkpt><trkpt lat="37.560016788780175" lon="15.093773562673658"><ele>309.0</ele><time>2026-05-01T10:19:01.001Z</time></trkpt><trkpt lat="37.559902560327636" lon="15.09360315173825"><ele>309.0</ele><time>2026-05-01T10:19:02.001Z</time></trkpt><trkpt lat="37.55978686140067" lon="15.093432904084553"><ele>309.0</ele><time>2026-05-01T10:19:03.001Z</time></trkpt><trkpt lat="37.559671772873926" lon="15.093261811919449"><ele>309.6666666666667</ele><time>2026-05-01T10:19:04Z</time></trkpt><trkpt lat="37.559553762562395" lon="15.09308595731296"><ele>310.33333333333337</ele><time>2026-05-01T10:19:05Z</time></trkpt><trkpt lat="37.559435715424925" lon="15.09290662045032"><ele>311.0</ele><time>2026-05-01T10:19:06Z</time></trkpt><trkpt lat="37.55931704279107" lon="15.092723977890623"><ele>311.33333333333337</ele><time>2026-05-01T10:19:07Z</time></trkpt><trkpt lat="37.55920021133032" lon="15.092537136342001"><ele>311.6666666666667</ele><time>2026-05-01T10:19:08Z</time></trkpt><trkpt lat="37.55908446026551" lon="15.092348120815458"><ele>312.0</ele><time>2026-05-01T10:19:09Z</time></trkpt><trkpt lat="37.55897565279072" lon="15.092152933396022"><ele>312.0</ele><time>2026-05-01T10:19:10Z</time></trkpt><trkpt lat="37.558868957572834" lon="15.091952257051371"><ele>312.0</ele><time>2026-05-01T10:19:11Z</time></trkpt><trkpt lat="37.55876425785306" lon="15.091749620629237"><ele>312.0</ele><time>2026-05-01T10:19:12Z</time></trkpt><trkpt lat="37.55865829261459" lon="15.091544287530837"><ele>310.6666666666667</ele><time>2026-05-01T10:19:13Z</time></trkpt><trkpt lat="37.55855355184529" lon="15.091336618159703"><ele>309.33333333333337</ele><time>2026-05-01T10:19:14Z</time></trkpt><trkpt lat="37.558443556144084" lon="15.091126754098605"><ele>308.0</ele><time>2026-05-01T10:19:15Z</time></trkpt><trkpt lat="37.55833600332886" lon="15.090915451354489"><ele>308.33333333333337</ele><time>2026-05-01T10:19:16Z</time></trkpt><trkpt lat="37.55823088182175" lon="15.090705464395729"><ele>308.6666666666667</ele><time>2026-05-01T10:19:17Z</time></trkpt><trkpt lat="37.55813319599704" lon="15.090502311063155"><ele>309.0</ele><time>2026-05-01T10:19:18Z</time></trkpt><trkpt lat="37.55803558222286" lon="15.090309128893384"><ele>309.0</ele><time>2026-05-01T10:19:19Z</time></trkpt><trkpt lat="37.55793448242965" lon="15.090106101965764"><ele>309.0</ele><time>2026-05-01T10:19:20Z</time></trkpt><trkpt lat="37.557834381537596" lon="15.089903756568539"><ele>309.0</ele><time>2026-05-01T10:19:21Z</time></trkpt><trkpt lat="37.55773429416846" lon="15.089699519826246"><ele>309.3333333333333</ele><time>2026-05-01T10:19:22Z</time></trkpt><trkpt lat="37.55762918003366" lon="15.089480228375084"><ele>309.66666666666663</ele><time>2026-05-01T10:19:23.067Z</time></trkpt><trkpt lat="37.55753373049361" lon="15.089279942101847"><ele>310.0</ele><time>2026-05-01T10:19:24.067Z</time></trkpt><trkpt lat="37.55744035204536" lon="15.089075517167913"><ele>310.0</ele><time>2026-05-01T10:19:25.069Z</time></trkpt><trkpt lat="37.55731549240218" lon="15.088905899708285"><ele>310.0</ele><time>2026-05-01T10:19:26.067Z</time></trkpt><trkpt lat="37.557204075638175" lon="15.088727994570304"><ele>310.0</ele><time>2026-05-01T10:19:27.041Z</time></trkpt><trkpt lat="37.55637093937173" lon="15.087679636464348"><ele>306.5</ele><time>2026-05-01T10:19:32Z</time></trkpt><trkpt lat="37.55621523393284" lon="15.087493884589492"><ele>303.0</ele><time>2026-05-01T10:19:33Z</time></trkpt><trkpt lat="37.55600668842276" lon="15.087295192629028"><ele>302.0</ele><time>2026-05-01T10:19:34Z</time></trkpt><trkpt lat="37.55583626490421" lon="15.087103787833351"><ele>301.0</ele><time>2026-05-01T10:19:35Z</time></trkpt><trkpt lat="37.55565577583097" lon="15.086939586339518"><ele>301.0</ele><time>2026-05-01T10:19:36Z</time></trkpt><trkpt lat="37.55548009936054" lon="15.086767696378582"><ele>301.0</ele><time>2026-05-01T10:19:37Z</time></trkpt><trkpt lat="37.55528020463478" lon="15.086586410673318"><ele>299.66666666666663</ele><time>2026-05-01T10:19:38Z</time></trkpt><trkpt lat="37.55509492501328" lon="15.086426780322203"><ele>298.3333333333333</ele><time>2026-05-01T10:19:39Z</time></trkpt><trkpt lat="37.55490951068011" lon="15.086268277977844"><ele>297.0</ele><time>2026-05-01T10:19:40Z</time></trkpt><trkpt lat="37.55472432891044" lon="15.086108744375215"><ele>295.5</ele><time>2026-05-01T10:19:41Z</time></trkpt><trkpt lat="37.55453735982267" lon="15.085949999726965"><ele>294.0</ele><time>2026-05-01T10:19:42Z</time></trkpt><trkpt lat="37.55434458740104" lon="15.085787614589432"><ele>294.5</ele><time>2026-05-01T10:19:42.999Z</time></trkpt><trkpt lat="37.554151333713136" lon="15.085620900909422"><ele>295.0</ele><time>2026-05-01T10:19:43.999Z</time></trkpt><trkpt lat="37.55396068854125" lon="15.085450018153482"><ele>295.0</ele><time>2026-05-01T10:19:44.999Z</time></trkpt><trkpt lat="37.553772100037975" lon="15.085273946820603"><ele>295.0</ele><time>2026-05-01T10:19:45.999Z</time></trkpt><trkpt lat="37.55358476819984" lon="15.085093859961207"><ele>291.0</ele><time>2026-05-01T10:19:46.999Z</time></trkpt><trkpt lat="37.55340387301494" lon="15.084906823389932"><ele>287.0</ele><time>2026-05-01T10:19:47.999Z</time></trkpt><trkpt lat="37.55322632264688" lon="15.084712794619398"><ele>287.0</ele><time>2026-05-01T10:19:48.999Z</time></trkpt><trkpt lat="37.553048472431485" lon="15.08451485623473"><ele>287.0</ele><time>2026-05-01T10:19:49.999Z</time></trkpt><trkpt lat="37.552878454667656" lon="15.084305889952523"><ele>284.5</ele><time>2026-05-01T10:19:50.999Z</time></trkpt><trkpt lat="37.55271402508029" lon="15.084091333414964"><ele>282.0</ele><time>2026-05-01T10:19:51.999Z</time></trkpt><trkpt lat="37.55255528227784" lon="15.083868522595699"><ele>282.0</ele><time>2026-05-01T10:19:52.999Z</time></trkpt><trkpt lat="37.55239990930815" lon="15.083643311198982"><ele>282.0</ele><time>2026-05-01T10:19:53.999Z</time></trkpt><trkpt lat="37.552244428856326" lon="15.083417482849255"><ele>281.5</ele><time>2026-05-01T10:19:54.999Z</time></trkpt><trkpt lat="37.552093815035114" lon="15.083186770690789"><ele>281.0</ele><time>2026-05-01T10:19:55.999Z</time></trkpt><trkpt lat="37.55194943551672" lon="15.082943516770223"><ele>281.0</ele><time>2026-05-01T10:19:56.999Z</time></trkpt><trkpt lat="37.55181525757725" lon="15.082699333817564"><ele>281.0</ele><time>2026-05-01T10:19:57.999Z</time></trkpt><trkpt lat="37.551686150781336" lon="15.08245010024486"><ele>281.33333333333337</ele><time>2026-05-01T10:19:58.999Z</time></trkpt><trkpt lat="37.55156525512162" lon="15.082208626721876"><ele>281.6666666666667</ele><time>2026-05-01T10:19:59.999Z</time></trkpt><trkpt lat="37.551454185752455" lon="15.081978726067534"><ele>282.0</ele><time>2026-05-01T10:20:00.999Z</time></trkpt><trkpt lat="37.551349828340264" lon="15.081745572387046"><ele>282.6666666666667</ele><time>2026-05-01T10:20:01.999Z</time></trkpt><trkpt lat="37.55125256068863" lon="15.081516524904359"><ele>283.33333333333337</ele><time>2026-05-01T10:20:02.999Z</time></trkpt><trkpt lat="37.55115509922926" lon="15.08128399781093"><ele>284.0</ele><time>2026-05-01T10:20:03.999Z</time></trkpt><trkpt lat="37.551059080601654" lon="15.081058813796794"><ele>283.33333333333337</ele><time>2026-05-01T10:20:04.999Z</time></trkpt><trkpt lat="37.55096169711133" lon="15.080830820003623"><ele>282.6666666666667</ele><time>2026-05-01T10:20:05.999Z</time></trkpt><trkpt lat="37.550863663064085" lon="15.080605231840014"><ele>282.0</ele><time>2026-05-01T10:20:06.999Z</time></trkpt><trkpt lat="37.55075732263633" lon="15.080363484070562"><ele>282.0</ele><time>2026-05-01T10:20:08.067Z</time></trkpt><trkpt lat="37.5506928813776" lon="15.080116322762589"><ele>282.0</ele><time>2026-05-01T10:20:09.065Z</time></trkpt><trkpt lat="37.55062928259467" lon="15.079862379980472"><ele>282.0</ele><time>2026-05-01T10:20:10.063Z</time></trkpt><trkpt lat="37.55057058641321" lon="15.079612123239832"><ele>281.6666666666667</ele><time>2026-05-01T10:20:11.059Z</time></trkpt><trkpt lat="37.55051477400315" lon="15.079356168411186"><ele>281.33333333333337</ele><time>2026-05-01T10:20:12.058Z</time></trkpt><trkpt lat="37.550465739695234" lon="15.079108014899708"><ele>281.0</ele><time>2026-05-01T10:20:13.045Z</time></trkpt><trkpt lat="37.55027685993962" lon="15.076601131051989"><ele>279.0</ele><time>2026-05-01T10:20:16.684Z</time></trkpt><trkpt lat="37.5501290709697" lon="15.07513936935238"><ele>271.0</ele><time>2026-05-01T10:20:17.687Z</time></trkpt><trkpt lat="37.55034662581793" lon="15.077605638522188"><ele>272.3333333333333</ele><time>2026-05-01T10:20:18.999Z</time></trkpt><trkpt lat="37.55032801753065" lon="15.077346821702154"><ele>273.6666666666667</ele><time>2026-05-01T10:20:19.999Z</time></trkpt><trkpt lat="37.55033379045484" lon="15.077050813189803"><ele>275.0</ele><time>2026-05-01T10:20:20.999Z</time></trkpt><trkpt lat="37.55030961856816" lon="15.076779746016166"><ele>275.5</ele><time>2026-05-01T10:20:21.999Z</time></trkpt><trkpt lat="37.55029763632997" lon="15.076497096371638"><ele>276.0</ele><time>2026-05-01T10:20:22.999Z</time></trkpt><trkpt lat="37.54985404266469" lon="15.073492371721688"><ele>275.5</ele><time>2026-05-01T10:20:33.998Z</time></trkpt><trkpt lat="37.549803113579905" lon="15.073215252579672"><ele>275.0</ele><time>2026-05-01T10:20:34.998Z</time></trkpt><trkpt lat="37.549744026191675" lon="15.072939155494948"><ele>275.0</ele><time>2026-05-01T10:20:35.998Z</time></trkpt><trkpt lat="37.54970021861589" lon="15.072675933933851"><ele>275.0</ele><time>2026-05-01T10:20:36.998Z</time></trkpt><trkpt lat="37.54966430107233" lon="15.072401392042718"><ele>275.0</ele><time>2026-05-01T10:20:37.998Z</time></trkpt><trkpt lat="37.54962484368412" lon="15.072131798073784"><ele>272.0</ele><time>2026-05-01T10:20:38.998Z</time></trkpt><trkpt lat="37.549591464560564" lon="15.07182715404888"><ele>269.0</ele><time>2026-05-01T10:20:39.998Z</time></trkpt><trkpt lat="37.54956886268254" lon="15.071547883341287"><ele>269.33333333333337</ele><time>2026-05-01T10:20:40.998Z</time></trkpt><trkpt lat="37.54955700869614" lon="15.07126739718124"><ele>269.6666666666667</ele><time>2026-05-01T10:20:41.998Z</time></trkpt><trkpt lat="37.54955043476849" lon="15.070983330412286"><ele>270.0</ele><time>2026-05-01T10:20:42.998Z</time></trkpt><trkpt lat="37.54954992060612" lon="15.07069853060834"><ele>270.0</ele><time>2026-05-01T10:20:43.998Z</time></trkpt><trkpt lat="37.54955538816229" lon="15.07041310603545"><ele>270.0</ele><time>2026-05-01T10:20:44.998Z</time></trkpt><trkpt lat="37.54956628941384" lon="15.070126233823713"><ele>270.5</ele><time>2026-05-01T10:20:46.001Z</time></trkpt><trkpt lat="37.54958092472202" lon="15.069838723578314"><ele>271.0</ele><time>2026-05-01T10:20:47.001Z</time></trkpt><trkpt lat="37.54959934067902" lon="15.069551443205018"><ele>271.0</ele><time>2026-05-01T10:20:48.001Z</time></trkpt><trkpt lat="37.5496219341497" lon="15.069261513382079"><ele>271.0</ele><time>2026-05-01T10:20:49.001Z</time></trkpt><trkpt lat="37.54964553579674" lon="15.068971150461524"><ele>271.5</ele><time>2026-05-01T10:20:50.001Z</time></trkpt><trkpt lat="37.549668304664536" lon="15.068680143728628"><ele>272.0</ele><time>2026-05-01T10:20:51.001Z</time></trkpt><trkpt lat="37.549683455710344" lon="15.068384746981152"><ele>272.5</ele><time>2026-05-01T10:20:52.001Z</time></trkpt><trkpt lat="37.54969007168851" lon="15.068088686775587"><ele>273.0</ele><time>2026-05-01T10:20:53.001Z</time></trkpt><trkpt lat="37.549693549067456" lon="15.067793393806442"><ele>273.0</ele><time>2026-05-01T10:20:54.001Z</time></trkpt><trkpt lat="37.54969320498018" lon="15.067496111801338"><ele>273.0</ele><time>2026-05-01T10:20:55.001Z</time></trkpt><trkpt lat="37.54968412351973" lon="15.067196281532944"><ele>273.5</ele><time>2026-05-01T10:20:56.001Z</time></trkpt><trkpt lat="37.54966893586433" lon="15.066897346067076"><ele>274.0</ele><time>2026-05-01T10:20:57.001Z</time></trkpt><trkpt lat="37.54964328801783" lon="15.066599539470932"><ele>275.0</ele><time>2026-05-01T10:20:58.001Z</time></trkpt><trkpt lat="37.54960995331497" lon="15.066295212230893"><ele>276.0</ele><time>2026-05-01T10:20:59.001Z</time></trkpt><trkpt lat="37.54957794271009" lon="15.066007543871637"><ele>274.0</ele><time>2026-05-01T10:21:00.001Z</time></trkpt><trkpt lat="37.54953701620443" lon="15.065746502035953"><ele>272.0</ele><time>2026-05-01T10:21:01.001Z</time></trkpt><trkpt lat="37.54949079450876" lon="15.065456137902688"><ele>270.0</ele><time>2026-05-01T10:21:02.001Z</time></trkpt><trkpt lat="37.54940034252433" lon="15.065151959201176"><ele>271.0</ele><time>2026-05-01T10:21:03.001Z</time></trkpt><trkpt lat="37.54934343763274" lon="15.064900122405946"><ele>272.0</ele><time>2026-05-01T10:21:04.001Z</time></trkpt><trkpt lat="37.549219628607815" lon="15.064561199469297"><ele>272.0</ele><time>2026-05-01T10:21:05.001Z</time></trkpt><trkpt lat="37.5491172124731" lon="15.06428574189925"><ele>272.0</ele><time>2026-05-01T10:21:06.001Z</time></trkpt><trkpt lat="37.54901108052141" lon="15.064020142427456"><ele>272.5</ele><time>2026-05-01T10:21:07Z</time></trkpt><trkpt lat="37.54890043112263" lon="15.063758307700944"><ele>273.0</ele><time>2026-05-01T10:21:08Z</time></trkpt><trkpt lat="37.54877945104778" lon="15.063502802246218"><ele>272.0</ele><time>2026-05-01T10:21:09Z</time></trkpt><trkpt lat="37.54865367331036" lon="15.063255935654183"><ele>271.0</ele><time>2026-05-01T10:21:10Z</time></trkpt><trkpt lat="37.54852473563276" lon="15.063017982536758"><ele>271.0</ele><time>2026-05-01T10:21:11Z</time></trkpt><trkpt lat="37.548390256562634" lon="15.06278671223853"><ele>271.0</ele><time>2026-05-01T10:21:12Z</time></trkpt><trkpt lat="37.54825377194577" lon="15.062561414015457"><ele>272.5</ele><time>2026-05-01T10:21:13Z</time></trkpt><trkpt lat="37.54810937182337" lon="15.062342054073698"><ele>274.0</ele><time>2026-05-01T10:21:14Z</time></trkpt><trkpt lat="37.54795824850854" lon="15.062130280586478"><ele>273.3333333333333</ele><time>2026-05-01T10:21:15Z</time></trkpt><trkpt lat="37.54779930856405" lon="15.061928943092445"><ele>272.6666666666667</ele><time>2026-05-01T10:21:16Z</time></trkpt><trkpt lat="37.54763837131894" lon="15.061738598269148"><ele>272.0</ele><time>2026-05-01T10:21:17Z</time></trkpt><trkpt lat="37.54748173404383" lon="15.06153892553526"><ele>272.0</ele><time>2026-05-01T10:21:18Z</time></trkpt><trkpt lat="37.54732495444557" lon="15.061337539943741"><ele>272.0</ele><time>2026-05-01T10:21:19Z</time></trkpt><trkpt lat="37.54716908610053" lon="15.061140150282801"><ele>272.0</ele><time>2026-05-01T10:21:20Z</time></trkpt><trkpt lat="37.54701477933094" lon="15.060943223703088"><ele>273.0</ele><time>2026-05-01T10:21:21Z</time></trkpt><trkpt lat="37.546865641426635" lon="15.060745920326434"><ele>274.0</ele><time>2026-05-01T10:21:22Z</time></trkpt><trkpt lat="37.54671333366271" lon="15.060552628948857"><ele>275.0</ele><time>2026-05-01T10:21:23Z</time></trkpt><trkpt lat="37.54656168325683" lon="15.060358924079663"><ele>275.0</ele><time>2026-05-01T10:21:24Z</time></trkpt><trkpt lat="37.546413744201104" lon="15.060162544371071"><ele>275.0</ele><time>2026-05-01T10:21:25Z</time></trkpt><trkpt lat="37.54626187847946" lon="15.059967494186624"><ele>275.0</ele><time>2026-05-01T10:21:26Z</time></trkpt><trkpt lat="37.546110395413514" lon="15.05977251117536"><ele>274.6666666666667</ele><time>2026-05-01T10:21:27Z</time></trkpt><trkpt lat="37.54596006245545" lon="15.059578617048953"><ele>274.3333333333333</ele><time>2026-05-01T10:21:28Z</time></trkpt><trkpt lat="37.54580865394861" lon="15.059381755452222"><ele>274.0</ele><time>2026-05-01T10:21:29Z</time></trkpt><trkpt lat="37.54565860011914" lon="15.059183014390559"><ele>274.0</ele><time>2026-05-01T10:21:30Z</time></trkpt><trkpt lat="37.54550979291018" lon="15.05898638081632"><ele>274.0</ele><time>2026-05-01T10:21:31Z</time></trkpt><trkpt lat="37.54536041053906" lon="15.058792551612175"><ele>274.0</ele><time>2026-05-01T10:21:32Z</time></trkpt><trkpt lat="37.545208176873295" lon="15.058602237053332"><ele>273.0</ele><time>2026-05-01T10:21:33Z</time></trkpt><trkpt lat="37.54505722730847" lon="15.058411280177793"><ele>272.0</ele><time>2026-05-01T10:21:34Z</time></trkpt><trkpt lat="37.544907396963694" lon="15.058221766852808"><ele>271.0</ele><time>2026-05-01T10:21:35Z</time></trkpt><trkpt lat="37.54476300471121" lon="15.058036446517967"><ele>271.0</ele><time>2026-05-01T10:21:36Z</time></trkpt><trkpt lat="37.54462996932804" lon="15.057860788456525"><ele>271.0</ele><time>2026-05-01T10:21:37Z</time></trkpt><trkpt lat="37.54449670279928" lon="15.057682830713187"><ele>271.0</ele><time>2026-05-01T10:21:38Z</time></trkpt><trkpt lat="37.544369129323975" lon="15.057512232267815"><ele>270.66666666666663</ele><time>2026-05-01T10:21:39Z</time></trkpt><trkpt lat="37.544243815778714" lon="15.057344007777129"><ele>270.3333333333333</ele><time>2026-05-01T10:21:40Z</time></trkpt><trkpt lat="37.544116579663374" lon="15.057176885302432"><ele>270.0</ele><time>2026-05-01T10:21:41Z</time></trkpt><trkpt lat="37.54398682296793" lon="15.057008672319636"><ele>270.0</ele><time>2026-05-01T10:21:42Z</time></trkpt><trkpt lat="37.54385498068182" lon="15.056837012477933"><ele>270.0</ele><time>2026-05-01T10:21:43Z</time></trkpt><trkpt lat="37.543725713897494" lon="15.05666502442581"><ele>270.0</ele><time>2026-05-01T10:21:43.999Z</time></trkpt><trkpt lat="37.54359923907886" lon="15.056488167919026"><ele>268.6666666666667</ele><time>2026-05-01T10:21:44.999Z</time></trkpt><trkpt lat="37.54347228720722" lon="15.056309223262495"><ele>267.33333333333337</ele><time>2026-05-01T10:21:45.999Z</time></trkpt><trkpt lat="37.54334658743842" lon="15.056132395779159"><ele>266.0</ele><time>2026-05-01T10:21:46.999Z</time></trkpt><trkpt lat="37.543219134147044" lon="15.055954723385174"><ele>266.33333333333337</ele><time>2026-05-01T10:21:47.999Z</time></trkpt><trkpt lat="37.54309228806447" lon="15.055772913363251"><ele>266.6666666666667</ele><time>2026-05-01T10:21:48.999Z</time></trkpt><trkpt lat="37.54296805149778" lon="15.055587528497904"><ele>267.0</ele><time>2026-05-01T10:21:49.999Z</time></trkpt><trkpt lat="37.542844270654996" lon="15.055397313181968"><ele>266.0</ele><time>2026-05-01T10:21:50.999Z</time></trkpt><trkpt lat="37.542722627902485" lon="15.055205200215095"><ele>265.0</ele><time>2026-05-01T10:21:51.999Z</time></trkpt><trkpt lat="37.54260551178774" lon="15.055007658789727"><ele>264.0</ele><time>2026-05-01T10:21:52.999Z</time></trkpt><trkpt lat="37.54248972085044" lon="15.054801106768428"><ele>264.0</ele><time>2026-05-01T10:21:53.999Z</time></trkpt><trkpt lat="37.54237777451559" lon="15.054601680154525"><ele>264.0</ele><time>2026-05-01T10:21:54.999Z</time></trkpt><trkpt lat="37.54225722731726" lon="15.054392855623663"><ele>264.0</ele><time>2026-05-01T10:21:55.999Z</time></trkpt><trkpt lat="37.54214816500432" lon="15.054177887096294"><ele>261.3333333333333</ele><time>2026-05-01T10:21:56.999Z</time></trkpt><trkpt lat="37.54204307261173" lon="15.053959825851845"><ele>258.66666666666663</ele><time>2026-05-01T10:21:57.999Z</time></trkpt><trkpt lat="37.5419374490476" lon="15.053739446351315"><ele>256.0</ele><time>2026-05-01T10:21:58.999Z</time></trkpt><trkpt lat="37.54183295940402" lon="15.053517475995493"><ele>256.0</ele><time>2026-05-01T10:21:59.999Z</time></trkpt><trkpt lat="37.541730455642686" lon="15.053294624550382"><ele>256.0</ele><time>2026-05-01T10:22:00.999Z</time></trkpt><trkpt lat="37.54162920734508" lon="15.053069890821629"><ele>256.0</ele><time>2026-05-01T10:22:01.999Z</time></trkpt><trkpt lat="37.54153041198366" lon="15.052839964795675"><ele>256.0</ele><time>2026-05-01T10:22:02.999Z</time></trkpt><trkpt lat="37.54143476986474" lon="15.052607620062712"><ele>256.0</ele><time>2026-05-01T10:22:03.999Z</time></trkpt><trkpt lat="37.54133795556908" lon="15.052372938810205"><ele>256.0</ele><time>2026-05-01T10:22:04.999Z</time></trkpt><trkpt lat="37.54124119110803" lon="15.052139412268673"><ele>255.33333333333331</ele><time>2026-05-01T10:22:05.999Z</time></trkpt><trkpt lat="37.541144311640224" lon="15.051904365426514"><ele>254.66666666666669</ele><time>2026-05-01T10:22:06.999Z</time></trkpt><trkpt lat="37.54104554346024" lon="15.051667829508787"><ele>254.0</ele><time>2026-05-01T10:22:07.999Z</time></trkpt><trkpt lat="37.54094852895143" lon="15.051429093488897"><ele>255.33333333333334</ele><time>2026-05-01T10:22:08.999Z</time></trkpt><trkpt lat="37.54085507383977" lon="15.051188717483557"><ele>256.6666666666667</ele><time>2026-05-01T10:22:09.999Z</time></trkpt><trkpt lat="37.54075982058177" lon="15.050946547134407"><ele>258.0</ele><time>2026-05-01T10:22:10.999Z</time></trkpt><trkpt lat="37.54066309011803" lon="15.050705021140482"><ele>258.0</ele><time>2026-05-01T10:22:11.999Z</time></trkpt><trkpt lat="37.54056334527147" lon="15.050463622542138"><ele>258.0</ele><time>2026-05-01T10:22:12.999Z</time></trkpt><trkpt lat="37.54046302131057" lon="15.050220490186426"><ele>258.0</ele><time>2026-05-01T10:22:13.999Z</time></trkpt><trkpt lat="37.540363596064545" lon="15.049971003768224"><ele>256.0</ele><time>2026-05-01T10:22:14.999Z</time></trkpt><trkpt lat="37.5402677466511" lon="15.049719325632752"><ele>254.0</ele><time>2026-05-01T10:22:15.999Z</time></trkpt><trkpt lat="37.540169426416185" lon="15.049467382068087"><ele>252.0</ele><time>2026-05-01T10:22:16.999Z</time></trkpt><trkpt lat="37.54006717906457" lon="15.049220815522315"><ele>250.66666666666669</ele><time>2026-05-01T10:22:17.999Z</time></trkpt><trkpt lat="37.53996293675604" lon="15.048973950063973"><ele>249.33333333333334</ele><time>2026-05-01T10:22:18.999Z</time></trkpt><trkpt lat="37.53985514086558" lon="15.048722861292227"><ele>248.0</ele><time>2026-05-01T10:22:19.999Z</time></trkpt><trkpt lat="37.539747809517685" lon="15.048476949538689"><ele>247.66666666666669</ele><time>2026-05-01T10:22:20.999Z</time></trkpt><trkpt lat="37.539637158559444" lon="15.048235633010034"><ele>247.33333333333331</ele><time>2026-05-01T10:22:21.999Z</time></trkpt><trkpt lat="37.53952584056149" lon="15.047989299184946"><ele>247.0</ele><time>2026-05-01T10:22:22.999Z</time></trkpt><trkpt lat="37.53941376420614" lon="15.04775102047337"><ele>246.0</ele><time>2026-05-01T10:22:23.999Z</time></trkpt><trkpt lat="37.539303036630606" lon="15.047516696045705"><ele>245.0</ele><time>2026-05-01T10:22:24.999Z</time></trkpt><trkpt lat="37.5391895394753" lon="15.047285960011887"><ele>244.0</ele><time>2026-05-01T10:22:25.999Z</time></trkpt><trkpt lat="37.5390720871036" lon="15.047056271995693"><ele>244.0</ele><time>2026-05-01T10:22:26.998Z</time></trkpt><trkpt lat="37.538947869582174" lon="15.046834535243066"><ele>244.0</ele><time>2026-05-01T10:22:27.998Z</time></trkpt><trkpt lat="37.53881918747545" lon="15.04661848168596"><ele>244.0</ele><time>2026-05-01T10:22:28.998Z</time></trkpt><trkpt lat="37.538692927310976" lon="15.046403735757568"><ele>243.0</ele><time>2026-05-01T10:22:29.998Z</time></trkpt><trkpt lat="37.538567125043535" lon="15.046188627754193"><ele>242.0</ele><time>2026-05-01T10:22:30.998Z</time></trkpt><trkpt lat="37.5384403173628" lon="15.045977708491714"><ele>241.0</ele><time>2026-05-01T10:22:31.998Z</time></trkpt><trkpt lat="37.53831043935405" lon="15.045769566455547"><ele>241.0</ele><time>2026-05-01T10:22:32.998Z</time></trkpt><trkpt lat="37.53817683071647" lon="15.045564110210638"><ele>241.0</ele><time>2026-05-01T10:22:33.998Z</time></trkpt><trkpt lat="37.538040864770856" lon="15.045359899729831"><ele>241.0</ele><time>2026-05-01T10:22:34.998Z</time></trkpt><trkpt lat="37.537899515404945" lon="15.045159514284325"><ele>240.33333333333331</ele><time>2026-05-01T10:22:35.998Z</time></trkpt><trkpt lat="37.537754983528906" lon="15.044957222172853"><ele>239.66666666666669</ele><time>2026-05-01T10:22:36.998Z</time></trkpt><trkpt lat="37.53760777314816" lon="15.044755197652607"><ele>239.0</ele><time>2026-05-01T10:22:37.998Z</time></trkpt><trkpt lat="37.53745353917108" lon="15.044556915720412"><ele>239.0</ele><time>2026-05-01T10:22:38.998Z</time></trkpt><trkpt lat="37.53729750649078" lon="15.044358772508323"><ele>239.0</ele><time>2026-05-01T10:22:39.998Z</time></trkpt><trkpt lat="37.53714045231307" lon="15.044158865086228"><ele>239.0</ele><time>2026-05-01T10:22:40.998Z</time></trkpt><trkpt lat="37.53697990440187" lon="15.043960768006327"><ele>235.5</ele><time>2026-05-01T10:22:41.998Z</time></trkpt><trkpt lat="37.536813794100524" lon="15.043769027594449"><ele>232.0</ele><time>2026-05-01T10:22:42.998Z</time></trkpt><trkpt lat="37.5366420832337" lon="15.043578579911244"><ele>232.0</ele><time>2026-05-01T10:22:43.998Z</time></trkpt><trkpt lat="37.53646727704752" lon="15.043390241704603"><ele>232.0</ele><time>2026-05-01T10:22:44.998Z</time></trkpt><trkpt lat="37.53629005342574" lon="15.043203906330874"><ele>230.0</ele><time>2026-05-01T10:22:45.998Z</time></trkpt><trkpt lat="37.53611083938829" lon="15.043017949255487"><ele>228.0</ele><time>2026-05-01T10:22:46.998Z</time></trkpt><trkpt lat="37.53593000039798" lon="15.042834692807352"><ele>228.0</ele><time>2026-05-01T10:22:47.998Z</time></trkpt><trkpt lat="37.53574548376651" lon="15.042652878050056"><ele>228.0</ele><time>2026-05-01T10:22:48.998Z</time></trkpt><trkpt lat="37.53556298644557" lon="15.042471910493457"><ele>228.5</ele><time>2026-05-01T10:22:49.998Z</time></trkpt><trkpt lat="37.53537977903347" lon="15.042289631912217"><ele>229.0</ele><time>2026-05-01T10:22:50.998Z</time></trkpt><trkpt lat="37.535199415663904" lon="15.042108052327013"><ele>229.0</ele><time>2026-05-01T10:22:52.001Z</time></trkpt><trkpt lat="37.535020394780766" lon="15.041926372654705"><ele>229.0</ele><time>2026-05-01T10:22:53.001Z</time></trkpt><trkpt lat="37.53484074141877" lon="15.041746651619748"><ele>228.5</ele><time>2026-05-01T10:22:54.001Z</time></trkpt><trkpt lat="37.53466326461494" lon="15.041570869918898"><ele>228.0</ele><time>2026-05-01T10:22:55.001Z</time></trkpt><trkpt lat="37.53448543486915" lon="15.041393900989991"><ele>228.0</ele><time>2026-05-01T10:22:56.001Z</time></trkpt><trkpt lat="37.5343100209642" lon="15.041218018309248"><ele>228.0</ele><time>2026-05-01T10:22:57.001Z</time></trkpt><trkpt lat="37.53413189533604" lon="15.041043267961008"><ele>228.0</ele><time>2026-05-01T10:22:58.001Z</time></trkpt><trkpt lat="37.53395506485175" lon="15.040870640225032"><ele>228.0</ele><time>2026-05-01T10:22:59.001Z</time></trkpt><trkpt lat="37.53377933819441" lon="15.040694501504852"><ele>228.0</ele><time>2026-05-01T10:23:00.001Z</time></trkpt><trkpt lat="37.533605719723816" lon="15.040517269776673"><ele>226.66666666666669</ele><time>2026-05-01T10:23:01.001Z</time></trkpt><trkpt lat="37.53343200808193" lon="15.040337421311873"><ele>225.33333333333334</ele><time>2026-05-01T10:23:02.001Z</time></trkpt><trkpt lat="37.53325817031659" lon="15.040158228790851"><ele>224.0</ele><time>2026-05-01T10:23:03Z</time></trkpt><trkpt lat="37.53308009082908" lon="15.039980094221063"><ele>223.0</ele><time>2026-05-01T10:23:04Z</time></trkpt><trkpt lat="37.53290448105148" lon="15.03980535552652"><ele>222.0</ele><time>2026-05-01T10:23:05.001Z</time></trkpt><trkpt lat="37.53272772073718" lon="15.039625641428938"><ele>221.0</ele><time>2026-05-01T10:23:06Z</time></trkpt><trkpt lat="37.53255210383151" lon="15.03944255095629"><ele>220.0</ele><time>2026-05-01T10:23:07Z</time></trkpt><trkpt lat="37.53237628260853" lon="15.039255783091141"><ele>221.0</ele><time>2026-05-01T10:23:08Z</time></trkpt><trkpt lat="37.53220385082696" lon="15.03907042974378"><ele>222.0</ele><time>2026-05-01T10:23:09Z</time></trkpt><trkpt lat="37.53203061851156" lon="15.038883914340335"><ele>217.5</ele><time>2026-05-01T10:23:10Z</time></trkpt><trkpt lat="37.53185835023737" lon="15.03869375996573"><ele>213.0</ele><time>2026-05-01T10:23:11Z</time></trkpt><trkpt lat="37.531688687559516" lon="15.038499362044323"><ele>212.0</ele><time>2026-05-01T10:23:12Z</time></trkpt><trkpt lat="37.53152134255132" lon="15.038298072933452"><ele>211.0</ele><time>2026-05-01T10:23:13Z</time></trkpt><trkpt lat="37.53135610557003" lon="15.03809712292881"><ele>209.0</ele><time>2026-05-01T10:23:14Z</time></trkpt><trkpt lat="37.531190305654846" lon="15.037895665472638"><ele>207.0</ele><time>2026-05-01T10:23:15Z</time></trkpt><trkpt lat="37.53102653643774" lon="15.037692679330654"><ele>207.0</ele><time>2026-05-01T10:23:16Z</time></trkpt><trkpt lat="37.53086448870162" lon="15.037485597051136"><ele>207.0</ele><time>2026-05-01T10:23:17Z</time></trkpt><trkpt lat="37.53070538534092" lon="15.03727562766887"><ele>208.5</ele><time>2026-05-01T10:23:18Z</time></trkpt><trkpt lat="37.53054833246976" lon="15.037063482037116"><ele>210.0</ele><time>2026-05-01T10:23:19Z</time></trkpt><trkpt lat="37.53039211793209" lon="15.036852654831813"><ele>208.5</ele><time>2026-05-01T10:23:20Z</time></trkpt><trkpt lat="37.53023683514974" lon="15.036638996436714"><ele>207.0</ele><time>2026-05-01T10:23:21Z</time></trkpt><trkpt lat="37.53008280293187" lon="15.036423659822264"><ele>207.0</ele><time>2026-05-01T10:23:22Z</time></trkpt><trkpt lat="37.52992941893421" lon="15.036206090911735"><ele>207.0</ele><time>2026-05-01T10:23:23Z</time></trkpt><trkpt lat="37.52977718962967" lon="15.035985045967944"><ele>206.5</ele><time>2026-05-01T10:23:24Z</time></trkpt><trkpt lat="37.52962701213356" lon="15.03575961383703"><ele>206.0</ele><time>2026-05-01T10:23:25Z</time></trkpt><trkpt lat="37.529474010574425" lon="15.03552351602996"><ele>206.0</ele><time>2026-05-01T10:23:26Z</time></trkpt><trkpt lat="37.529327993525605" lon="15.035296587303732"><ele>206.0</ele><time>2026-05-01T10:23:27Z</time></trkpt><trkpt lat="37.52917921058567" lon="15.035064721100506"><ele>207.0</ele><time>2026-05-01T10:23:28Z</time></trkpt><trkpt lat="37.529029981296766" lon="15.034827558415573"><ele>208.0</ele><time>2026-05-01T10:23:29Z</time></trkpt><trkpt lat="37.528886491860646" lon="15.034587162712873"><ele>208.0</ele><time>2026-05-01T10:23:30Z</time></trkpt><trkpt lat="37.528746185175066" lon="15.034344617274837"><ele>208.0</ele><time>2026-05-01T10:23:31Z</time></trkpt><trkpt lat="37.528611971919126" lon="15.034097844788542"><ele>206.0</ele><time>2026-05-01T10:23:32Z</time></trkpt><trkpt lat="37.528470296318034" lon="15.03383795919863"><ele>204.0</ele><time>2026-05-01T10:23:33Z</time></trkpt><trkpt lat="37.52831349421723" lon="15.03356078972613"><ele>206.0</ele><time>2026-05-01T10:23:34Z</time></trkpt><trkpt lat="37.528153161493854" lon="15.033270301780949"><ele>208.0</ele><time>2026-05-01T10:23:35Z</time></trkpt><trkpt lat="37.52796090796118" lon="15.032939106076872"><ele>208.0</ele><time>2026-05-01T10:23:36Z</time></trkpt><trkpt lat="37.52794453641179" lon="15.03282586249857"><ele>208.0</ele><time>2026-05-01T10:23:37Z</time></trkpt><trkpt lat="37.527812940130076" lon="15.032569912090306"><ele>208.0</ele><time>2026-05-01T10:23:38Z</time></trkpt><trkpt lat="37.527684840864175" lon="15.032317383603324"><ele>204.0</ele><time>2026-05-01T10:23:39Z</time></trkpt><trkpt lat="37.52755468846605" lon="15.032069863962754"><ele>200.0</ele><time>2026-05-01T10:23:40Z</time></trkpt><trkpt lat="37.527429131640346" lon="15.031815852799644"><ele>201.5</ele><time>2026-05-01T10:23:41Z</time></trkpt><trkpt lat="37.52730101967269" lon="15.031561152274296"><ele>203.0</ele><time>2026-05-01T10:23:42Z</time></trkpt><trkpt lat="37.5271743680232" lon="15.031304213426612"><ele>199.5</ele><time>2026-05-01T10:23:42.999Z</time></trkpt><trkpt lat="37.527053117540994" lon="15.031046261492017"><ele>196.0</ele><time>2026-05-01T10:23:43.999Z</time></trkpt><trkpt lat="37.52692683544535" lon="15.030795222135112"><ele>196.0</ele><time>2026-05-01T10:23:44.999Z</time></trkpt><trkpt lat="37.5268008956118" lon="15.030543490930558"><ele>196.0</ele><time>2026-05-01T10:23:45.999Z</time></trkpt><trkpt lat="37.526675189997576" lon="15.030288189425447"><ele>196.0</ele><time>2026-05-01T10:23:46.999Z</time></trkpt><trkpt lat="37.52655170391549" lon="15.030031863160652"><ele>196.0</ele><time>2026-05-01T10:23:47.999Z</time></trkpt><trkpt lat="37.52643188777653" lon="15.0297796312128"><ele>195.5</ele><time>2026-05-01T10:23:48.999Z</time></trkpt><trkpt lat="37.52631105826764" lon="15.029533822894157"><ele>195.0</ele><time>2026-05-01T10:23:49.999Z</time></trkpt><trkpt lat="37.52619145083389" lon="15.029290576721055"><ele>190.5</ele><time>2026-05-01T10:23:50.999Z</time></trkpt><trkpt lat="37.52607073035139" lon="15.02904783048728"><ele>186.0</ele><time>2026-05-01T10:23:51.999Z</time></trkpt><trkpt lat="37.52595042967205" lon="15.028808046708278"><ele>186.0</ele><time>2026-05-01T10:23:52.999Z</time></trkpt><trkpt lat="37.52583327869494" lon="15.028572646851666"><ele>186.0</ele><time>2026-05-01T10:23:53.999Z</time></trkpt><trkpt lat="37.525719214967246" lon="15.02833655757372"><ele>186.0</ele><time>2026-05-01T10:23:54.999Z</time></trkpt><trkpt lat="37.52560446394801" lon="15.028102411014878"><ele>187.0</ele><time>2026-05-01T10:23:55.999Z</time></trkpt><trkpt lat="37.525492532870096" lon="15.027868011361628"><ele>188.0</ele><time>2026-05-01T10:23:56.999Z</time></trkpt><trkpt lat="37.525384636155465" lon="15.027641567469056"><ele>189.0</ele><time>2026-05-01T10:23:57.999Z</time></trkpt><trkpt lat="37.52527367719451" lon="15.027417518460851"><ele>185.0</ele><time>2026-05-01T10:23:58.999Z</time></trkpt><trkpt lat="37.52516004527203" lon="15.027195252053037"><ele>181.0</ele><time>2026-05-01T10:23:59.999Z</time></trkpt><trkpt lat="37.52504849571448" lon="15.026971982133233"><ele>177.0</ele><time>2026-05-01T10:24:00.999Z</time></trkpt><trkpt lat="37.52493826005796" lon="15.026744261807353"><ele>178.33333333333334</ele><time>2026-05-01T10:24:01.999Z</time></trkpt><trkpt lat="37.524826772066554" lon="15.026518334440631"><ele>179.66666666666669</ele><time>2026-05-01T10:24:02.999Z</time></trkpt><trkpt lat="37.52471428065222" lon="15.026295039180733"><ele>181.0</ele><time>2026-05-01T10:24:03.999Z</time></trkpt><trkpt lat="37.52460246778297" lon="15.026074151309578"><ele>180.0</ele><time>2026-05-01T10:24:04.999Z</time></trkpt><trkpt lat="37.52449071964463" lon="15.025858348222247"><ele>179.0</ele><time>2026-05-01T10:24:05.999Z</time></trkpt><trkpt lat="37.524380964673476" lon="15.02564349683242"><ele>178.0</ele><time>2026-05-01T10:24:06.999Z</time></trkpt><trkpt lat="37.524273495693166" lon="15.025428320720055"><ele>178.0</ele><time>2026-05-01T10:24:07.999Z</time></trkpt><trkpt lat="37.524165110062945" lon="15.025216668587637"><ele>178.0</ele><time>2026-05-01T10:24:08.999Z</time></trkpt><trkpt lat="37.52405132093727" lon="15.025008253817946"><ele>178.0</ele><time>2026-05-01T10:24:09.999Z</time></trkpt><trkpt lat="37.52393814119172" lon="15.024805243193388"><ele>177.33333333333334</ele><time>2026-05-01T10:24:10.999Z</time></trkpt><trkpt lat="37.523824699109184" lon="15.02460734360742"><ele>176.66666666666666</ele><time>2026-05-01T10:24:11.999Z</time></trkpt><trkpt lat="37.52370919244777" lon="15.02441707787399"><ele>176.0</ele><time>2026-05-01T10:24:12.999Z</time></trkpt><trkpt lat="37.52359339854267" lon="15.02422986785055"><ele>178.0</ele><time>2026-05-01T10:24:13.999Z</time></trkpt><trkpt lat="37.523473279661964" lon="15.024050578598999"><ele>180.0</ele><time>2026-05-01T10:24:14.999Z</time></trkpt><trkpt lat="37.52334954648323" lon="15.023873931956706"><ele>182.0</ele><time>2026-05-01T10:24:15.999Z</time></trkpt><trkpt lat="37.52322378555267" lon="15.023701308648116"><ele>182.0</ele><time>2026-05-01T10:24:16.999Z</time></trkpt><trkpt lat="37.52309559687293" lon="15.023534074978452"><ele>182.0</ele><time>2026-05-01T10:24:17.999Z</time></trkpt><trkpt lat="37.5229672755571" lon="15.023368834771814"><ele>182.0</ele><time>2026-05-01T10:24:18.999Z</time></trkpt><trkpt lat="37.52283611165719" lon="15.023207814435846"><ele>182.66666666666666</ele><time>2026-05-01T10:24:19.999Z</time></trkpt><trkpt lat="37.52270090229036" lon="15.023051651046961"><ele>183.33333333333334</ele><time>2026-05-01T10:24:20.999Z</time></trkpt><trkpt lat="37.52256327119953" lon="15.022903794320092"><ele>184.0</ele><time>2026-05-01T10:24:21.999Z</time></trkpt><trkpt lat="37.52242286894426" lon="15.022760981260543"><ele>184.0</ele><time>2026-05-01T10:24:22.999Z</time></trkpt><trkpt lat="37.5222816044915" lon="15.022622772809717"><ele>184.0</ele><time>2026-05-01T10:24:23.998Z</time></trkpt><trkpt lat="37.52213981456293" lon="15.022486930205252"><ele>184.0</ele><time>2026-05-01T10:24:24.998Z</time></trkpt><trkpt lat="37.521999476737435" lon="15.022350655055407"><ele>185.33333333333334</ele><time>2026-05-01T10:24:25.998Z</time></trkpt><trkpt lat="37.521858019140225" lon="15.022215957675135"><ele>186.66666666666666</ele><time>2026-05-01T10:24:26.998Z</time></trkpt><trkpt lat="37.52171105773673" lon="15.02208629280232"><ele>188.0</ele><time>2026-05-01T10:24:27.998Z</time></trkpt><trkpt lat="37.521559985816396" lon="15.02196022620498"><ele>188.0</ele><time>2026-05-01T10:24:28.998Z</time></trkpt><trkpt lat="37.52140503152021" lon="15.021835480138153"><ele>188.0</ele><time>2026-05-01T10:24:29.998Z</time></trkpt><trkpt lat="37.521247936430555" lon="15.021716176582999"><ele>188.0</ele><time>2026-05-01T10:24:30.998Z</time></trkpt><trkpt lat="37.521087971019135" lon="15.021599095678782"><ele>189.0</ele><time>2026-05-01T10:24:31.998Z</time></trkpt><trkpt lat="37.52092782929804" lon="15.02148472404327"><ele>190.0</ele><time>2026-05-01T10:24:32.998Z</time></trkpt><trkpt lat="37.52076844361275" lon="15.021383813771875"><ele>191.0</ele><time>2026-05-01T10:24:33.998Z</time></trkpt><trkpt lat="37.52060638697878" lon="15.021281690233998"><ele>191.0</ele><time>2026-05-01T10:24:34.998Z</time></trkpt><trkpt lat="37.52043668422533" lon="15.021180671159698"><ele>191.0</ele><time>2026-05-01T10:24:35.998Z</time></trkpt><trkpt lat="37.52027291622223" lon="15.021079897110596"><ele>191.0</ele><time>2026-05-01T10:24:36.998Z</time></trkpt><trkpt lat="37.52012130026199" lon="15.020979333050388"><ele>190.66666666666666</ele><time>2026-05-01T10:24:37.998Z</time></trkpt><trkpt lat="37.519951015205166" lon="15.02090391329169"><ele>190.33333333333334</ele><time>2026-05-01T10:24:38.998Z</time></trkpt><trkpt lat="37.51977445336161" lon="15.020825127236982"><ele>190.0</ele><time>2026-05-01T10:24:39.998Z</time></trkpt><trkpt lat="37.519598365536" lon="15.020752846989899"><ele>190.66666666666669</ele><time>2026-05-01T10:24:40.998Z</time></trkpt><trkpt lat="37.519424105636666" lon="15.020681547956096"><ele>191.33333333333334</ele><time>2026-05-01T10:24:41.998Z</time></trkpt><trkpt lat="37.519246361562445" lon="15.020613517141093"><ele>192.0</ele><time>2026-05-01T10:24:42.998Z</time></trkpt><trkpt lat="37.51906770852449" lon="15.020547710153302"><ele>192.0</ele><time>2026-05-01T10:24:43.998Z</time></trkpt><trkpt lat="37.51888712455109" lon="15.020486843857517"><ele>192.0</ele><time>2026-05-01T10:24:44.998Z</time></trkpt><trkpt lat="37.518701942609674" lon="15.02042825481655"><ele>192.0</ele><time>2026-05-01T10:24:45.998Z</time></trkpt><trkpt lat="37.51851699135349" lon="15.020373646159744"><ele>192.33333333333331</ele><time>2026-05-01T10:24:46.998Z</time></trkpt><trkpt lat="37.51833302210093" lon="15.020323999765857"><ele>192.66666666666666</ele><time>2026-05-01T10:24:47.998Z</time></trkpt><trkpt lat="37.518148357887554" lon="15.020281679621197"><ele>193.0</ele><time>2026-05-01T10:24:48.998Z</time></trkpt><trkpt lat="37.5179590240007" lon="15.020246070796771"><ele>190.66666666666666</ele><time>2026-05-01T10:24:49.998Z</time></trkpt><trkpt lat="37.517771185828906" lon="15.020210912172617"><ele>188.33333333333331</ele><time>2026-05-01T10:24:50.998Z</time></trkpt><trkpt lat="37.51758808525218" lon="15.020178483069698"><ele>186.0</ele><time>2026-05-01T10:24:51.998Z</time></trkpt><trkpt lat="37.51740263361744" lon="15.020144839067918"><ele>186.0</ele><time>2026-05-01T10:24:52.998Z</time></trkpt><trkpt lat="37.517214402241684" lon="15.020115581425673"><ele>186.0</ele><time>2026-05-01T10:24:53.998Z</time></trkpt><trkpt lat="37.51702879431207" lon="15.020087798035975"><ele>186.0</ele><time>2026-05-01T10:24:54.998Z</time></trkpt><trkpt lat="37.516842551851695" lon="15.020059469586926"><ele>184.66666666666666</ele><time>2026-05-01T10:24:55.998Z</time></trkpt><trkpt lat="37.516658496789056" lon="15.0200264223277"><ele>183.33333333333331</ele><time>2026-05-01T10:24:57Z</time></trkpt><trkpt lat="37.516475590079196" lon="15.019993243056213"><ele>182.0</ele><time>2026-05-01T10:24:58Z</time></trkpt><trkpt lat="37.51629236417521" lon="15.019961048005756"><ele>177.66666666666666</ele><time>2026-05-01T10:24:59Z</time></trkpt><trkpt lat="37.51610963504902" lon="15.019930571954967"><ele>173.33333333333334</ele><time>2026-05-01T10:25:00Z</time></trkpt><trkpt lat="37.51593189156342" lon="15.01989988725163"><ele>169.0</ele><time>2026-05-01T10:25:01Z</time></trkpt><trkpt lat="37.51575171126922" lon="15.019869674300239"><ele>169.0</ele><time>2026-05-01T10:25:02Z</time></trkpt><trkpt lat="37.515577500167936" lon="15.01984233680604"><ele>169.0</ele><time>2026-05-01T10:25:03Z</time></trkpt><trkpt lat="37.51540288417783" lon="15.019816705052632"><ele>169.0</ele><time>2026-05-01T10:25:04Z</time></trkpt><trkpt lat="37.51522825223747" lon="15.01978947600548"><ele>166.66666666666669</ele><time>2026-05-01T10:25:05Z</time></trkpt><trkpt lat="37.515053602976685" lon="15.019761866246128"><ele>164.33333333333334</ele><time>2026-05-01T10:25:06Z</time></trkpt><trkpt lat="37.5148780557404" lon="15.019733388886749"><ele>162.0</ele><time>2026-05-01T10:25:07Z</time></trkpt><trkpt lat="37.51470437936039" lon="15.019705563349092"><ele>161.33333333333334</ele><time>2026-05-01T10:25:08Z</time></trkpt><trkpt lat="37.51453104666322" lon="15.0196773286421"><ele>160.66666666666669</ele><time>2026-05-01T10:25:09Z</time></trkpt><trkpt lat="37.51435558905296" lon="15.019647742345262"><ele>160.0</ele><time>2026-05-01T10:25:10Z</time></trkpt><trkpt lat="37.51417880499881" lon="15.019617973007874"><ele>160.0</ele><time>2026-05-01T10:25:11Z</time></trkpt><trkpt lat="37.514001788209356" lon="15.01958956651078"><ele>160.0</ele><time>2026-05-01T10:25:12Z</time></trkpt><trkpt lat="37.513824402964424" lon="15.01956292115038"><ele>160.0</ele><time>2026-05-01T10:25:13Z</time></trkpt><trkpt lat="37.51364576065165" lon="15.019537631926207"><ele>160.0</ele><time>2026-05-01T10:25:14Z</time></trkpt><trkpt lat="37.51346956953645" lon="15.019511976891078"><ele>160.0</ele><time>2026-05-01T10:25:15Z</time></trkpt><trkpt lat="37.51329653818746" lon="15.01948314859878"><ele>160.0</ele><time>2026-05-01T10:25:16Z</time></trkpt><trkpt lat="37.5131218175492" lon="15.019454641140028"><ele>160.0</ele><time>2026-05-01T10:25:17Z</time></trkpt><trkpt lat="37.51294991502694" lon="15.019424801494548"><ele>160.0</ele><time>2026-05-01T10:25:18Z</time></trkpt><trkpt lat="37.5127775692313" lon="15.019398041603017"><ele>160.0</ele><time>2026-05-01T10:25:19Z</time></trkpt><trkpt lat="37.512605938048075" lon="15.01937034046594"><ele>160.33333333333334</ele><time>2026-05-01T10:25:20Z</time></trkpt><trkpt lat="37.51243530425662" lon="15.019341601535377"><ele>160.66666666666666</ele><time>2026-05-01T10:25:21Z</time></trkpt><trkpt lat="37.51226138743778" lon="15.019313113151322"><ele>161.0</ele><time>2026-05-01T10:25:22Z</time></trkpt><trkpt lat="37.512089284283256" lon="15.019286650362753"><ele>161.66666666666666</ele><time>2026-05-01T10:25:23Z</time></trkpt><trkpt lat="37.51191512113634" lon="15.019258492544749"><ele>162.33333333333334</ele><time>2026-05-01T10:25:24Z</time></trkpt><trkpt lat="37.51174207829911" lon="15.019229095074774"><ele>163.0</ele><time>2026-05-01T10:25:25Z</time></trkpt><trkpt lat="37.51156914697191" lon="15.01920070063061"><ele>163.0</ele><time>2026-05-01T10:25:26Z</time></trkpt><trkpt lat="37.51139597930232" lon="15.01917443418942"><ele>163.0</ele><time>2026-05-01T10:25:27Z</time></trkpt><trkpt lat="37.51122486456764" lon="15.019145958114908"><ele>163.0</ele><time>2026-05-01T10:25:28Z</time></trkpt><trkpt lat="37.511050162444384" lon="15.01911644856914"><ele>161.66666666666669</ele><time>2026-05-01T10:25:29Z</time></trkpt><trkpt lat="37.51087680541534" lon="15.019088250746924"><ele>160.33333333333334</ele><time>2026-05-01T10:25:30Z</time></trkpt><trkpt lat="37.510703715348065" lon="15.019062721104"><ele>159.0</ele><time>2026-05-01T10:25:31Z</time></trkpt><trkpt lat="37.51053206259171" lon="15.01903746346929"><ele>160.0</ele><time>2026-05-01T10:25:32Z</time></trkpt><trkpt lat="37.510361133214786" lon="15.019012400376235"><ele>161.0</ele><time>2026-05-01T10:25:33Z</time></trkpt><trkpt lat="37.51018777557543" lon="15.018992773634345"><ele>162.0</ele><time>2026-05-01T10:25:34Z</time></trkpt><trkpt lat="37.51001885700016" lon="15.018983510637726"><ele>162.0</ele><time>2026-05-01T10:25:35Z</time></trkpt><trkpt lat="37.50984966785427" lon="15.018983491088994"><ele>162.0</ele><time>2026-05-01T10:25:36Z</time></trkpt><trkpt lat="37.50968079768376" lon="15.018986932530982"><ele>162.0</ele><time>2026-05-01T10:25:37Z</time></trkpt><trkpt lat="37.50951383923172" lon="15.01899189105356"><ele>162.33333333333334</ele><time>2026-05-01T10:25:38Z</time></trkpt><trkpt lat="37.50935327092326" lon="15.018997540730158"><ele>162.66666666666669</ele><time>2026-05-01T10:25:39Z</time></trkpt><trkpt lat="37.509196465804045" lon="15.01900379870903"><ele>163.0</ele><time>2026-05-01T10:25:40Z</time></trkpt><trkpt lat="37.5090409837398" lon="15.019008855011013"><ele>163.0</ele><time>2026-05-01T10:25:41Z</time></trkpt><trkpt lat="37.50889130629086" lon="15.019003509752062"><ele>163.0</ele><time>2026-05-01T10:25:42Z</time></trkpt><trkpt lat="37.5087457533904" lon="15.018990608462207"><ele>163.0</ele><time>2026-05-01T10:25:43Z</time></trkpt><trkpt lat="37.508605017606655" lon="15.018971151770554"><ele>163.0</ele><time>2026-05-01T10:25:44Z</time></trkpt><trkpt lat="37.50846455175161" lon="15.018947191880386"><ele>164.25</ele><time>2026-05-01T10:25:45Z</time></trkpt><trkpt lat="37.50832803220094" lon="15.018913150067364"><ele>165.5</ele><time>2026-05-01T10:25:46Z</time></trkpt><trkpt lat="37.5081900621597" lon="15.018867895041877"><ele>166.75</ele><time>2026-05-01T10:25:46.999Z</time></trkpt><trkpt lat="37.508045030065176" lon="15.01880839203028"><ele>168.0</ele><time>2026-05-01T10:25:47.999Z</time></trkpt><trkpt lat="37.5078969849979" lon="15.018740600014793"><ele>168.33333333333334</ele><time>2026-05-01T10:25:48.999Z</time></trkpt><trkpt lat="37.5077502322673" lon="15.018680841994819"><ele>168.66666666666669</ele><time>2026-05-01T10:25:49.999Z</time></trkpt><trkpt lat="37.50760278692453" lon="15.018631826909395"><ele>169.0</ele><time>2026-05-01T10:25:50.999Z</time></trkpt><trkpt lat="37.50746027839505" lon="15.018601513921185"><ele>169.0</ele><time>2026-05-01T10:25:51.999Z</time></trkpt><trkpt lat="37.50732280899445" lon="15.018597602536554"><ele>169.0</ele><time>2026-05-01T10:25:52.999Z</time></trkpt><trkpt lat="37.507190593997464" lon="15.018621955628792"><ele>169.0</ele><time>2026-05-01T10:25:53.999Z</time></trkpt><trkpt lat="37.507066124781915" lon="15.018676265741869"><ele>169.0</ele><time>2026-05-01T10:25:54.999Z</time></trkpt><trkpt lat="37.50694969123679" lon="15.018753535769592"><ele>171.0</ele><time>2026-05-01T10:25:55.999Z</time></trkpt><trkpt lat="37.50684628446831" lon="15.018850520180683"><ele>173.0</ele><time>2026-05-01T10:25:56.999Z</time></trkpt><trkpt lat="37.506752622773604" lon="15.018965338483317"><ele>175.0</ele><time>2026-05-01T10:25:57.999Z</time></trkpt><trkpt lat="37.50667040476849" lon="15.01909553121071"><ele>177.0</ele><time>2026-05-01T10:25:58.999Z</time></trkpt><trkpt lat="37.50660371068486" lon="15.019236906620357"><ele>177.0</ele><time>2026-05-01T10:25:59.999Z</time></trkpt><trkpt lat="37.50655561989598" lon="15.019387729608177"><ele>177.0</ele><time>2026-05-01T10:26:00.999Z</time></trkpt><trkpt lat="37.50652547097333" lon="15.019539092530707"><ele>177.0</ele><time>2026-05-01T10:26:01.999Z</time></trkpt><trkpt lat="37.506509642780166" lon="15.019690822020008"><ele>177.0</ele><time>2026-05-01T10:26:02.999Z</time></trkpt><trkpt lat="37.50651157083373" lon="15.019840452204532"><ele>176.0</ele><time>2026-05-01T10:26:03.999Z</time></trkpt><trkpt lat="37.506529042861" lon="15.01998759965657"><ele>175.0</ele><time>2026-05-01T10:26:04.999Z</time></trkpt><trkpt lat="37.50656011217639" lon="15.020112914482453"><ele>174.0</ele><time>2026-05-01T10:26:05.999Z</time></trkpt><trkpt lat="37.50659245394263" lon="15.02025613846449"><ele>173.0</ele><time>2026-05-01T10:26:06.999Z</time></trkpt><trkpt lat="37.50661171919771" lon="15.02042604020915"><ele>173.0</ele><time>2026-05-01T10:26:07.999Z</time></trkpt><trkpt lat="37.506683738116976" lon="15.020555491473655"><ele>173.0</ele><time>2026-05-01T10:26:08.999Z</time></trkpt><trkpt lat="37.5067640322622" lon="15.02066297192987"><ele>173.0</ele><time>2026-05-01T10:26:09.999Z</time></trkpt><trkpt lat="37.50685571130587" lon="15.020732795248225"><ele>173.0</ele><time>2026-05-01T10:26:10.999Z</time></trkpt><trkpt lat="37.50696165776754" lon="15.020768456027211"><ele>173.60000000000002</ele><time>2026-05-01T10:26:11.999Z</time></trkpt><trkpt lat="37.507065138915145" lon="15.020818544924857"><ele>174.20000000000002</ele><time>2026-05-01T10:26:12.999Z</time></trkpt><trkpt lat="37.50716395788855" lon="15.020870225191636"><ele>174.8</ele><time>2026-05-01T10:26:13.999Z</time></trkpt><trkpt lat="37.5072625918566" lon="15.02093526558548"><ele>175.4</ele><time>2026-05-01T10:26:14.999Z</time></trkpt><trkpt lat="37.50735866186663" lon="15.021009264199533"><ele>176.0</ele><time>2026-05-01T10:26:15.999Z</time></trkpt><trkpt lat="37.50745337170916" lon="15.021093276919872"><ele>174.5</ele><time>2026-05-01T10:26:16.999Z</time></trkpt><trkpt lat="37.507547418773406" lon="15.021184081744435"><ele>173.0</ele><time>2026-05-01T10:26:17.999Z</time></trkpt><trkpt lat="37.507638093715364" lon="15.021288620376609"><ele>171.5</ele><time>2026-05-01T10:26:18.999Z</time></trkpt><trkpt lat="37.50772357622763" lon="15.021403475722709"><ele>170.0</ele><time>2026-05-01T10:26:19.999Z</time></trkpt><trkpt lat="37.50780335301764" lon="15.021526954637949"><ele>170.0</ele><time>2026-05-01T10:26:20.999Z</time></trkpt><trkpt lat="37.507880577187656" lon="15.02165309052408"><ele>170.0</ele><time>2026-05-01T10:26:21.999Z</time></trkpt><trkpt lat="37.50794776418779" lon="15.021784802270234"><ele>170.0</ele><time>2026-05-01T10:26:22.999Z</time></trkpt><trkpt lat="37.50800588134837" lon="15.021926185007352"><ele>170.0</ele><time>2026-05-01T10:26:23.999Z</time></trkpt><trkpt lat="37.508050233792815" lon="15.022072068339847"><ele>169.0</ele><time>2026-05-01T10:26:24.999Z</time></trkpt><trkpt lat="37.508083679050046" lon="15.0222219991594"><ele>168.0</ele><time>2026-05-01T10:26:25.999Z</time></trkpt><trkpt lat="37.50811279632334" lon="15.022376038006229"><ele>167.0</ele><time>2026-05-01T10:26:26.999Z</time></trkpt><trkpt lat="37.50814047426806" lon="15.02252892119505"><ele>166.0</ele><time>2026-05-01T10:26:27.999Z</time></trkpt><trkpt lat="37.50817059281629" lon="15.022683701725645"><ele>165.75</ele><time>2026-05-01T10:26:28.998Z</time></trkpt><trkpt lat="37.50820140570302" lon="15.022845759982829"><ele>165.5</ele><time>2026-05-01T10:26:29.998Z</time></trkpt><trkpt lat="37.50823088868667" lon="15.023007434001897"><ele>165.25</ele><time>2026-05-01T10:26:30.998Z</time></trkpt><trkpt lat="37.5082581999657" lon="15.0231715559518"><ele>165.0</ele><time>2026-05-01T10:26:31.998Z</time></trkpt><trkpt lat="37.50828599094388" lon="15.023338427527953"><ele>164.25</ele><time>2026-05-01T10:26:32.998Z</time></trkpt><trkpt lat="37.50831459719309" lon="15.023507059740346"><ele>163.5</ele><time>2026-05-01T10:26:33.998Z</time></trkpt><trkpt lat="37.50834143128886" lon="15.023676425555037"><ele>162.75</ele><time>2026-05-01T10:26:34.998Z</time></trkpt><trkpt lat="37.50836982736241" lon="15.023849868977598"><ele>162.0</ele><time>2026-05-01T10:26:35.998Z</time></trkpt><trkpt lat="37.50840215266576" lon="15.02401961375301"><ele>162.5</ele><time>2026-05-01T10:26:36.998Z</time></trkpt><trkpt lat="37.50843666123111" lon="15.024187506193313"><ele>163.0</ele><time>2026-05-01T10:26:37.998Z</time></trkpt><trkpt lat="37.50846835008303" lon="15.024351370281558"><ele>163.5</ele><time>2026-05-01T10:26:38.998Z</time></trkpt><trkpt lat="37.50849266172194" lon="15.024513281395382"><ele>164.0</ele><time>2026-05-01T10:26:39.998Z</time></trkpt><trkpt lat="37.50851219451589" lon="15.02467535231539"><ele>164.0</ele><time>2026-05-01T10:26:40.998Z</time></trkpt><trkpt lat="37.508530391276665" lon="15.024839274488732"><ele>164.0</ele><time>2026-05-01T10:26:41.998Z</time></trkpt><trkpt lat="37.50854776869384" lon="15.025005957084513"><ele>164.0</ele><time>2026-05-01T10:26:42.998Z</time></trkpt><trkpt lat="37.508564320207945" lon="15.025172296085751"><ele>164.0</ele><time>2026-05-01T10:26:43.998Z</time></trkpt><trkpt lat="37.50857819370247" lon="15.02534095175631"><ele>164.25</ele><time>2026-05-01T10:26:44.998Z</time></trkpt><trkpt lat="37.50858266276145" lon="15.025509681937052"><ele>164.5</ele><time>2026-05-01T10:26:45.998Z</time></trkpt><trkpt lat="37.50857828668385" lon="15.025679116730323"><ele>164.75</ele><time>2026-05-01T10:26:46.998Z</time></trkpt><trkpt lat="37.50857101197518" lon="15.025855335207574"><ele>165.0</ele><time>2026-05-01T10:26:47.998Z</time></trkpt><trkpt lat="37.508562766778745" lon="15.02603183379641"><ele>165.0</ele><time>2026-05-01T10:26:48.998Z</time></trkpt><trkpt lat="37.50854936331344" lon="15.02621358706901"><ele>165.0</ele><time>2026-05-01T10:26:49.998Z</time></trkpt><trkpt lat="37.50853392560353" lon="15.026392136375362"><ele>165.0</ele><time>2026-05-01T10:26:50.998Z</time></trkpt><trkpt lat="37.50851959907276" lon="15.026567321356945"><ele>165.0</ele><time>2026-05-01T10:26:51.998Z</time></trkpt><trkpt lat="37.50850855583784" lon="15.02672383631681"><ele>165.0</ele><time>2026-05-01T10:26:52.998Z</time></trkpt><trkpt lat="37.50850330233794" lon="15.026869669334118"><ele>165.0</ele><time>2026-05-01T10:26:53.998Z</time></trkpt><trkpt lat="37.50850484209612" lon="15.027016171332576"><ele>165.0</ele><time>2026-05-01T10:26:54.998Z</time></trkpt><trkpt lat="37.50851769951708" lon="15.027170955658539"><ele>165.0</ele><time>2026-05-01T10:26:55.998Z</time></trkpt><trkpt lat="37.50854460976429" lon="15.027329330153062"><ele>165.25</ele><time>2026-05-01T10:26:56.998Z</time></trkpt><trkpt lat="37.508584209664875" lon="15.02748439019907"><ele>165.5</ele><time>2026-05-01T10:26:57.998Z</time></trkpt><trkpt lat="37.50863396141155" lon="15.02762653528968"><ele>165.75</ele><time>2026-05-01T10:26:58.998Z</time></trkpt><trkpt lat="37.508678694048776" lon="15.027768359934443"><ele>166.0</ele><time>2026-05-01T10:26:59.998Z</time></trkpt><trkpt lat="37.50873305247723" lon="15.027895556601877"><ele>165.0</ele><time>2026-05-01T10:27:00.998Z</time></trkpt><trkpt lat="37.508785103057164" lon="15.028016235103072"><ele>164.0</ele><time>2026-05-01T10:27:01.998Z</time></trkpt><trkpt lat="37.50895540584183" lon="15.028048476844175"><ele>163.0</ele><time>2026-05-01T10:27:03Z</time></trkpt><trkpt lat="37.50906173174765" lon="15.02810986424006"><ele>162.0</ele><time>2026-05-01T10:27:04Z</time></trkpt><trkpt lat="37.50917291547265" lon="15.028156527916687"><ele>162.0</ele><time>2026-05-01T10:27:05Z</time></trkpt><trkpt lat="37.509289284022685" lon="15.028182179353031"><ele>162.0</ele><time>2026-05-01T10:27:06Z</time></trkpt><trkpt lat="37.50941681251932" lon="15.028187323221223"><ele>162.0</ele><time>2026-05-01T10:27:07Z</time></trkpt><trkpt lat="37.509543188594705" lon="15.028176856441602"><ele>162.0</ele><time>2026-05-01T10:27:08Z</time></trkpt><trkpt lat="37.50966338930795" lon="15.028148020890669"><ele>161.0</ele><time>2026-05-01T10:27:09Z</time></trkpt><trkpt lat="37.509751095971424" lon="15.02810051583886"><ele>160.0</ele><time>2026-05-01T10:27:10Z</time></trkpt><trkpt lat="37.509850918326116" lon="15.02804012507942"><ele>159.0</ele><time>2026-05-01T10:27:11Z</time></trkpt><trkpt lat="37.5099448172101" lon="15.02796675344984"><ele>158.0</ele><time>2026-05-01T10:27:12Z</time></trkpt><trkpt lat="37.51002735546388" lon="15.027895496276502"><ele>157.0</ele><time>2026-05-01T10:27:13Z</time></trkpt><trkpt lat="37.51010570849325" lon="15.027827120544863"><ele>157.0</ele><time>2026-05-01T10:27:14Z</time></trkpt><trkpt lat="37.51018457480702" lon="15.02764140038561"><ele>157.0</ele><time>2026-05-01T10:27:15Z</time></trkpt><trkpt lat="37.51023587448098" lon="15.02751527308342"><ele>157.0</ele><time>2026-05-01T10:27:16Z</time></trkpt><trkpt lat="37.51028204547734" lon="15.027394222658927"><ele>157.0</ele><time>2026-05-01T10:27:17Z</time></trkpt><trkpt lat="37.5103221256145" lon="15.027282528670833"><ele>156.4</ele><time>2026-05-01T10:27:18Z</time></trkpt><trkpt lat="37.51035577105347" lon="15.027170895033963"><ele>155.79999999999998</ele><time>2026-05-01T10:27:19Z</time></trkpt><trkpt lat="37.51038865391508" lon="15.027045094598002"><ele>155.2</ele><time>2026-05-01T10:27:20Z</time></trkpt><trkpt lat="37.51043597212423" lon="15.026911125573527"><ele>154.6</ele><time>2026-05-01T10:27:21Z</time></trkpt><trkpt lat="37.51048901195903" lon="15.026776748849567"><ele>154.0</ele><time>2026-05-01T10:27:22Z</time></trkpt><trkpt lat="37.51054099475769" lon="15.026623061945038"><ele>154.0</ele><time>2026-05-01T10:27:23Z</time></trkpt><trkpt lat="37.510577930761805" lon="15.026461648369727"><ele>154.0</ele><time>2026-05-01T10:27:24Z</time></trkpt><trkpt lat="37.51061051950789" lon="15.026289311886359"><ele>154.0</ele><time>2026-05-01T10:27:25Z</time></trkpt><trkpt lat="37.51064385615442" lon="15.026116932810664"><ele>154.0</ele><time>2026-05-01T10:27:26Z</time></trkpt><trkpt lat="37.510680399822554" lon="15.025933529901863"><ele>154.0</ele><time>2026-05-01T10:27:27Z</time></trkpt><trkpt lat="37.51071829897391" lon="15.02574303808433"><ele>154.0</ele><time>2026-05-01T10:27:28Z</time></trkpt><trkpt lat="37.510750004195756" lon="15.025546654398559"><ele>154.0</ele><time>2026-05-01T10:27:29Z</time></trkpt><trkpt lat="37.51077566042712" lon="15.025351310645217"><ele>154.0</ele><time>2026-05-01T10:27:30Z</time></trkpt><trkpt lat="37.51079818962229" lon="15.02515165429124"><ele>154.0</ele><time>2026-05-01T10:27:31Z</time></trkpt><trkpt lat="37.51081024962354" lon="15.024946273700145"><ele>154.0</ele><time>2026-05-01T10:27:32Z</time></trkpt><trkpt lat="37.51082396690447" lon="15.024732980244224"><ele>154.0</ele><time>2026-05-01T10:27:33Z</time></trkpt><trkpt lat="37.51083097691048" lon="15.024518368356329"><ele>154.0</ele><time>2026-05-01T10:27:34Z</time></trkpt><trkpt lat="37.510837807432885" lon="15.024301101122159"><ele>154.0</ele><time>2026-05-01T10:27:35Z</time></trkpt><trkpt lat="37.51083468436125" lon="15.02408009955774"><ele>154.0</ele><time>2026-05-01T10:27:36Z</time></trkpt><trkpt lat="37.510827555207584" lon="15.023850441494435"><ele>154.0</ele><time>2026-05-01T10:27:37Z</time></trkpt><trkpt lat="37.51082705494105" lon="15.023621097111773"><ele>154.0</ele><time>2026-05-01T10:27:38Z</time></trkpt><trkpt lat="37.51082848334655" lon="15.02338926529343"><ele>154.66666666666669</ele><time>2026-05-01T10:27:39Z</time></trkpt><trkpt lat="37.510836437992744" lon="15.023152600024881"><ele>155.33333333333334</ele><time>2026-05-01T10:27:40Z</time></trkpt><trkpt lat="37.51084716976981" lon="15.022918858008895"><ele>156.0</ele><time>2026-05-01T10:27:41Z</time></trkpt><trkpt lat="37.51085751074526" lon="15.022687391467713"><ele>155.66666666666666</ele><time>2026-05-01T10:27:42Z</time></trkpt><trkpt lat="37.51086835002472" lon="15.022454301778344"><ele>155.33333333333331</ele><time>2026-05-01T10:27:43Z</time></trkpt><trkpt lat="37.51088336127861" lon="15.022221237682082"><ele>155.0</ele><time>2026-05-01T10:27:44Z</time></trkpt><trkpt lat="37.51090176627296" lon="15.021994685123685"><ele>155.0</ele><time>2026-05-01T10:27:45Z</time></trkpt><trkpt lat="37.51091996412294" lon="15.021766735504968"><ele>155.0</ele><time>2026-05-01T10:27:46Z</time></trkpt><trkpt lat="37.51094081861599" lon="15.021540261273511"><ele>155.0</ele><time>2026-05-01T10:27:47Z</time></trkpt><trkpt lat="37.51096757716029" lon="15.021310465806565"><ele>156.33333333333331</ele><time>2026-05-01T10:27:48Z</time></trkpt><trkpt lat="37.51099798223488" lon="15.021078709411407"><ele>157.66666666666666</ele><time>2026-05-01T10:27:48.999Z</time></trkpt><trkpt lat="37.51103137818819" lon="15.020843169259718"><ele>159.0</ele><time>2026-05-01T10:27:49.999Z</time></trkpt><trkpt lat="37.51107098049285" lon="15.020607964180979"><ele>159.0</ele><time>2026-05-01T10:27:50.999Z</time></trkpt><trkpt lat="37.51111203699574" lon="15.020368515561833"><ele>159.0</ele><time>2026-05-01T10:27:51.999Z</time></trkpt><trkpt lat="37.51115739109566" lon="15.020129062043429"><ele>159.0</ele><time>2026-05-01T10:27:52.999Z</time></trkpt><trkpt lat="37.511204777904275" lon="15.019890045909298"><ele>160.33333333333334</ele><time>2026-05-01T10:27:53.999Z</time></trkpt><trkpt lat="37.511259700245006" lon="15.019650731302178"><ele>161.66666666666669</ele><time>2026-05-01T10:27:54.999Z</time></trkpt><trkpt lat="37.51132647444162" lon="15.019416782273725"><ele>163.0</ele><time>2026-05-01T10:27:55.999Z</time></trkpt><trkpt lat="37.51139904822201" lon="15.019183286181564"><ele>162.0</ele><time>2026-05-01T10:27:56.999Z</time></trkpt><trkpt lat="37.51147134617721" lon="15.018950170618155"><ele>161.0</ele><time>2026-05-01T10:27:57.999Z</time></trkpt><trkpt lat="37.51154611044598" lon="15.018724174940383"><ele>160.0</ele><time>2026-05-01T10:27:58.999Z</time></trkpt><trkpt lat="37.51162472028984" lon="15.018485976373796"><ele>160.33333333333334</ele><time>2026-05-01T10:27:59.999Z</time></trkpt><trkpt lat="37.51170005917658" lon="15.018247572440087"><ele>160.66666666666666</ele><time>2026-05-01T10:28:00.999Z</time></trkpt><trkpt lat="37.511777218167765" lon="15.018009628655491"><ele>161.0</ele><time>2026-05-01T10:28:01.999Z</time></trkpt><trkpt lat="37.51185172868803" lon="15.017768636630091"><ele>161.0</ele><time>2026-05-01T10:28:02.999Z</time></trkpt><trkpt lat="37.511920749924464" lon="15.017529054257338"><ele>161.0</ele><time>2026-05-01T10:28:03.999Z</time></trkpt><trkpt lat="37.511984608790335" lon="15.017289394411394"><ele>161.0</ele><time>2026-05-01T10:28:04.999Z</time></trkpt><trkpt lat="37.51204595084483" lon="15.01705217310528"><ele>161.0</ele><time>2026-05-01T10:28:05.999Z</time></trkpt><trkpt lat="37.51211318785625" lon="15.016818108756729"><ele>161.0</ele><time>2026-05-01T10:28:06.999Z</time></trkpt><trkpt lat="37.512183093149346" lon="15.016594080832016"><ele>161.0</ele><time>2026-05-01T10:28:07.999Z</time></trkpt><trkpt lat="37.512257484458495" lon="15.016376668018315"><ele>161.0</ele><time>2026-05-01T10:28:08.999Z</time></trkpt><trkpt lat="37.51233597677109" lon="15.016163549715323"><ele>161.0</ele><time>2026-05-01T10:28:09.999Z</time></trkpt><trkpt lat="37.51242110958162" lon="15.015958971737456"><ele>161.0</ele><time>2026-05-01T10:28:10.999Z</time></trkpt><trkpt lat="37.51250902613742" lon="15.015760782888014"><ele>161.0</ele><time>2026-05-01T10:28:11.999Z</time></trkpt><trkpt lat="37.51259959222164" lon="15.01556412067989"><ele>161.0</ele><time>2026-05-01T10:28:12.999Z</time></trkpt><trkpt lat="37.51269060277218" lon="15.015367069017774"><ele>161.0</ele><time>2026-05-01T10:28:13.999Z</time></trkpt><trkpt lat="37.51278338071518" lon="15.015167482936615"><ele>161.66666666666666</ele><time>2026-05-01T10:28:14.999Z</time></trkpt><trkpt lat="37.51287598555724" lon="15.014969416185783"><ele>162.33333333333334</ele><time>2026-05-01T10:28:15.999Z</time></trkpt><trkpt lat="37.5129691452173" lon="15.014774937407106"><ele>163.0</ele><time>2026-05-01T10:28:16.999Z</time></trkpt><trkpt lat="37.513061733173316" lon="15.014585114550487"><ele>163.0</ele><time>2026-05-01T10:28:17.999Z</time></trkpt><trkpt lat="37.513147983379035" lon="15.01439609158277"><ele>163.0</ele><time>2026-05-01T10:28:18.999Z</time></trkpt><trkpt lat="37.51322739043509" lon="15.014200851036547"><ele>163.0</ele><time>2026-05-01T10:28:19.999Z</time></trkpt><trkpt lat="37.51329811476382" lon="15.01399900406435"><ele>162.66666666666669</ele><time>2026-05-01T10:28:20.999Z</time></trkpt><trkpt lat="37.51337714433864" lon="15.013800046954861"><ele>162.33333333333334</ele><time>2026-05-01T10:28:21.999Z</time></trkpt><trkpt lat="37.513449114978386" lon="15.013596146691755"><ele>162.0</ele><time>2026-05-01T10:28:22.999Z</time></trkpt><trkpt lat="37.51351691228775" lon="15.013388160303128"><ele>163.0</ele><time>2026-05-01T10:28:23.999Z</time></trkpt><trkpt lat="37.51357897472049" lon="15.013180676414219"><ele>164.0</ele><time>2026-05-01T10:28:24.999Z</time></trkpt><trkpt lat="37.51362635197472" lon="15.012974346443212"><ele>165.0</ele><time>2026-05-01T10:28:25.999Z</time></trkpt><trkpt lat="37.5136534429323" lon="15.012777849870002"><ele>165.0</ele><time>2026-05-01T10:28:26.999Z</time></trkpt><trkpt lat="37.513677984974514" lon="15.012585996293357"><ele>165.0</ele><time>2026-05-01T10:28:27.999Z</time></trkpt><trkpt lat="37.51369249742629" lon="15.012406842098946"><ele>165.0</ele><time>2026-05-01T10:28:28.999Z</time></trkpt><trkpt lat="37.51370381130939" lon="15.012231300241089"><ele>165.0</ele><time>2026-05-01T10:28:29.998Z</time></trkpt><trkpt lat="37.51371191860395" lon="15.012065220671698"><ele>165.25</ele><time>2026-05-01T10:28:30.998Z</time></trkpt><trkpt lat="37.51371763282624" lon="15.011898029098173"><ele>165.5</ele><time>2026-05-01T10:28:31.998Z</time></trkpt><trkpt lat="37.51371816136548" lon="15.011732628192744"><ele>165.75</ele><time>2026-05-01T10:28:32.998Z</time></trkpt><trkpt lat="37.513719213369356" lon="15.011576836761638"><ele>166.0</ele><time>2026-05-01T10:28:33.998Z</time></trkpt><trkpt lat="37.513716083899155" lon="15.011424516961721"><ele>166.5</ele><time>2026-05-01T10:28:34.998Z</time></trkpt><trkpt lat="37.51370591866761" lon="15.011271824374674"><ele>167.0</ele><time>2026-05-01T10:28:35.998Z</time></trkpt><trkpt lat="37.513695529879975" lon="15.011118691977215"><ele>167.5</ele><time>2026-05-01T10:28:36.998Z</time></trkpt><trkpt lat="37.51368569826555" lon="15.010967145245772"><ele>168.0</ele><time>2026-05-01T10:28:37.998Z</time></trkpt><trkpt lat="37.513677853793546" lon="15.010819389318254"><ele>169.25</ele><time>2026-05-01T10:28:38.998Z</time></trkpt><trkpt lat="37.5136689776919" lon="15.010668485284157"><ele>170.5</ele><time>2026-05-01T10:28:39.998Z</time></trkpt><trkpt lat="37.51366131790984" lon="15.010519144028365"><ele>171.75</ele><time>2026-05-01T10:28:40.998Z</time></trkpt><trkpt lat="37.513654861415795" lon="15.010371480342595"><ele>173.0</ele><time>2026-05-01T10:28:41.998Z</time></trkpt><trkpt lat="37.51364839413577" lon="15.010223041302657"><ele>173.0</ele><time>2026-05-01T10:28:42.998Z</time></trkpt><trkpt lat="37.513640771606354" lon="15.010074697779457"><ele>173.0</ele><time>2026-05-01T10:28:43.998Z</time></trkpt><trkpt lat="37.51363118052025" lon="15.00991990149127"><ele>173.0</ele><time>2026-05-01T10:28:44.998Z</time></trkpt><trkpt lat="37.51362323662352" lon="15.00977188654587"><ele>173.0</ele><time>2026-05-01T10:28:45.998Z</time></trkpt><trkpt lat="37.5136140124373" lon="15.009616075838023"><ele>173.0</ele><time>2026-05-01T10:28:46.998Z</time></trkpt><trkpt lat="37.51360760877909" lon="15.009460164480732"><ele>173.0</ele><time>2026-05-01T10:28:47.998Z</time></trkpt><trkpt lat="37.51360361186515" lon="15.00930172070035"><ele>173.0</ele><time>2026-05-01T10:28:48.998Z</time></trkpt><trkpt lat="37.51360076255807" lon="15.009142149333954"><ele>173.0</ele><time>2026-05-01T10:28:49.998Z</time></trkpt><trkpt lat="37.51359878112555" lon="15.008977054332613"><ele>175.25</ele><time>2026-05-01T10:28:50.998Z</time></trkpt><trkpt lat="37.513594619603566" lon="15.008812240348922"><ele>177.5</ele><time>2026-05-01T10:28:51.998Z</time></trkpt><trkpt lat="37.51358980979089" lon="15.00864312115571"><ele>179.75</ele><time>2026-05-01T10:28:52.998Z</time></trkpt><trkpt lat="37.51358279538135" lon="15.008473294183526"><ele>182.0</ele><time>2026-05-01T10:28:53.998Z</time></trkpt><trkpt lat="37.51357563405419" lon="15.00830851056248"><ele>183.25</ele><time>2026-05-01T10:28:54.998Z</time></trkpt><trkpt lat="37.5135709531033" lon="15.008133319746078"><ele>184.5</ele><time>2026-05-01T10:28:55.998Z</time></trkpt><trkpt lat="37.51357133418412" lon="15.007956246203273"><ele>185.75</ele><time>2026-05-01T10:28:56.998Z</time></trkpt><trkpt lat="37.51357923863546" lon="15.007775045170115"><ele>187.0</ele><time>2026-05-01T10:28:57.998Z</time></trkpt><trkpt lat="37.51359524265709" lon="15.00759293383886"><ele>187.25</ele><time>2026-05-01T10:28:58.998Z</time></trkpt><trkpt lat="37.513619555896206" lon="15.00741247756906"><ele>187.5</ele><time>2026-05-01T10:28:59.998Z</time></trkpt><trkpt lat="37.51364914069581" lon="15.007231312816211"><ele>187.75</ele><time>2026-05-01T10:29:00.998Z</time></trkpt><trkpt lat="37.51368566910101" lon="15.007050524245644"><ele>188.0</ele><time>2026-05-01T10:29:01.998Z</time></trkpt><trkpt lat="37.51373148798546" lon="15.006874659996633"><ele>191.0</ele><time>2026-05-01T10:29:02.998Z</time></trkpt><trkpt lat="37.513785297945155" lon="15.006701980127673"><ele>194.0</ele><time>2026-05-01T10:29:03.998Z</time></trkpt><trkpt lat="37.51384636415639" lon="15.006532858098899"><ele>197.0</ele><time>2026-05-01T10:29:04.998Z</time></trkpt><trkpt lat="37.51391536197734" lon="15.006366707908093"><ele>200.0</ele><time>2026-05-01T10:29:05.998Z</time></trkpt><trkpt lat="37.51399325235633" lon="15.00620363915676"><ele>200.33333333333334</ele><time>2026-05-01T10:29:06.998Z</time></trkpt><trkpt lat="37.51408267348399" lon="15.006045424161828"><ele>200.66666666666669</ele><time>2026-05-01T10:29:07.998Z</time></trkpt><trkpt lat="37.514173590733606" lon="15.005896610702454"><ele>201.0</ele><time>2026-05-01T10:29:09Z</time></trkpt><trkpt lat="37.514269947577034" lon="15.005743428532764"><ele>203.0</ele><time>2026-05-01T10:29:10Z</time></trkpt><trkpt lat="37.51437447070614" lon="15.005600369274687"><ele>205.0</ele><time>2026-05-01T10:29:11Z</time></trkpt><trkpt lat="37.5144879879216" lon="15.005461977323959"><ele>207.0</ele><time>2026-05-01T10:29:12Z</time></trkpt><trkpt lat="37.51460223645077" lon="15.005329053136721"><ele>207.0</ele><time>2026-05-01T10:29:13Z</time></trkpt><trkpt lat="37.51471766216315" lon="15.005204368835976"><ele>207.0</ele><time>2026-05-01T10:29:14Z</time></trkpt><trkpt lat="37.514820371474414" lon="15.005098050625966"><ele>207.0</ele><time>2026-05-01T10:29:15Z</time></trkpt><trkpt lat="37.51492940240907" lon="15.004980206655882"><ele>207.0</ele><time>2026-05-01T10:29:16Z</time></trkpt><trkpt lat="37.51503848280428" lon="15.004867031678458"><ele>207.5</ele><time>2026-05-01T10:29:17Z</time></trkpt><trkpt lat="37.51514915031211" lon="15.00475262209038"><ele>208.0</ele><time>2026-05-01T10:29:18Z</time></trkpt><trkpt lat="37.51526410406342" lon="15.0046357098118"><ele>208.5</ele><time>2026-05-01T10:29:19Z</time></trkpt><trkpt lat="37.51537821077538" lon="15.004517904660657"><ele>209.0</ele><time>2026-05-01T10:29:20Z</time></trkpt><trkpt lat="37.515489782068975" lon="15.004402213916872"><ele>209.0</ele><time>2026-05-01T10:29:21Z</time></trkpt><trkpt lat="37.5155999918049" lon="15.004293354342238"><ele>209.0</ele><time>2026-05-01T10:29:22Z</time></trkpt><trkpt lat="37.51570983158532" lon="15.004182925867447"><ele>209.0</ele><time>2026-05-01T10:29:23Z</time></trkpt><trkpt lat="37.51581781251682" lon="15.00407729254764"><ele>209.0</ele><time>2026-05-01T10:29:24Z</time></trkpt><trkpt lat="37.51592328677089" lon="15.0039766462925"><ele>208.2</ele><time>2026-05-01T10:29:25Z</time></trkpt><trkpt lat="37.516018479376136" lon="15.003890309260518"><ele>207.39999999999998</ele><time>2026-05-01T10:29:26Z</time></trkpt><trkpt lat="37.516104447835225" lon="15.003814698920406"><ele>206.6</ele><time>2026-05-01T10:29:27Z</time></trkpt><trkpt lat="37.51618577689216" lon="15.003741114570623"><ele>205.8</ele><time>2026-05-01T10:29:28Z</time></trkpt><trkpt lat="37.51627013713473" lon="15.003663865828061"><ele>205.0</ele><time>2026-05-01T10:29:29Z</time></trkpt><trkpt lat="37.51634826771122" lon="15.003591670933847"><ele>206.0</ele><time>2026-05-01T10:29:30Z</time></trkpt><trkpt lat="37.51642140409518" lon="15.00351552272194"><ele>207.0</ele><time>2026-05-01T10:29:31Z</time></trkpt><trkpt lat="37.51649617296332" lon="15.003435397600159"><ele>208.0</ele><time>2026-05-01T10:29:32Z</time></trkpt><trkpt lat="37.51657382754308" lon="15.00335761405642"><ele>209.0</ele><time>2026-05-01T10:29:33Z</time></trkpt><trkpt lat="37.51665154628254" lon="15.003280408205288"><ele>210.0</ele><time>2026-05-01T10:29:34Z</time></trkpt><trkpt lat="37.516719900218895" lon="15.003207517516822"><ele>210.0</ele><time>2026-05-01T10:29:35Z</time></trkpt><trkpt lat="37.516788093262285" lon="15.003134570504216"><ele>210.0</ele><time>2026-05-01T10:29:36Z</time></trkpt><trkpt lat="37.51685546079555" lon="15.003065641860552"><ele>210.0</ele><time>2026-05-01T10:29:37Z</time></trkpt><trkpt lat="37.516913990072304" lon="15.00300673442493"><ele>210.0</ele><time>2026-05-01T10:29:38Z</time></trkpt><trkpt lat="37.51699086549198" lon="15.002966726724205"><ele>210.0</ele><time>2026-05-01T10:29:40Z</time></trkpt><trkpt lat="37.51693530555997" lon="15.003068946605694"><ele>210.0</ele><time>2026-05-01T10:29:51.999Z</time></trkpt><trkpt lat="37.51684003180065" lon="15.003152931384836"><ele>210.0</ele><time>2026-05-01T10:29:53.999Z</time></trkpt><trkpt lat="37.516789949246565" lon="15.003202969719585"><ele>210.0</ele><time>2026-05-01T10:29:54.999Z</time></trkpt><trkpt lat="37.51673696904597" lon="15.003257728766606"><ele>210.0</ele><time>2026-05-01T10:29:55.999Z</time></trkpt><trkpt lat="37.51668055898528" lon="15.003310476548817"><ele>210.0</ele><time>2026-05-01T10:29:56.999Z</time></trkpt><trkpt lat="37.51663035679235" lon="15.003365550934667"><ele>210.0</ele><time>2026-05-01T10:29:57.999Z</time></trkpt><trkpt lat="37.51658215129248" lon="15.0034230637383"><ele>210.0</ele><time>2026-05-01T10:29:58.999Z</time></trkpt><trkpt lat="37.51653373767048" lon="15.003478992601933"><ele>210.0</ele><time>2026-05-01T10:29:59.999Z</time></trkpt><trkpt lat="37.51648569775886" lon="15.00359542425914"><ele>210.66666666666666</ele><time>2026-05-01T10:30:01.999Z</time></trkpt><trkpt lat="37.51649070929388" lon="15.003685695537525"><ele>211.33333333333331</ele><time>2026-05-01T10:30:03.999Z</time></trkpt><trkpt lat="37.51650701898214" lon="15.003783978140756"><ele>212.0</ele><time>2026-05-01T10:30:05.999Z</time></trkpt><trkpt lat="37.51645961037472" lon="15.003881397342363"><ele>212.66666666666666</ele><time>2026-05-01T10:30:07.999Z</time></trkpt><trkpt lat="37.51639510729406" lon="15.003901926881623"><ele>213.33333333333331</ele><time>2026-05-01T10:31:42Z</time></trkpt><trkpt lat="37.516350229856364" lon="15.003821916517081"><ele>214.0</ele><time>2026-05-01T10:31:45Z</time></trkpt><trkpt lat="37.51636025534453" lon="15.003696041545272"><ele>213.99999999999997</ele><time>2026-05-01T10:31:47Z</time></trkpt><trkpt lat="37.51640784592006" lon="15.003629545766278"><ele>214.0</ele><time>2026-05-01T10:31:49Z</time></trkpt><trkpt lat="37.51647513251711" lon="15.003566626290121"><ele>214.0</ele><time>2026-05-01T10:31:51Z</time></trkpt><trkpt lat="37.516530365524076" lon="15.003495128758956"><ele>214.0</ele><time>2026-05-01T10:31:53Z</time></trkpt><trkpt lat="37.51657862317987" lon="15.003436480630155"><ele>213.99999999999997</ele><time>2026-05-01T10:31:54.999Z</time></trkpt><trkpt lat="37.516641864390664" lon="15.00336425980116"><ele>214.0</ele><time>2026-05-01T10:31:56.999Z</time></trkpt><trkpt lat="37.51671520722616" lon="15.003271826633764"><ele>213.2</ele><time>2026-05-01T10:31:58.999Z</time></trkpt><trkpt lat="37.516802941682116" lon="15.003176013115253"><ele>212.39999999999998</ele><time>2026-05-01T10:32:00.999Z</time></trkpt><trkpt lat="37.51690950743538" lon="15.003077817032416"><ele>211.6</ele><time>2026-05-01T10:32:02.999Z</time></trkpt><trkpt lat="37.516960281900054" lon="15.003016052561641"><ele>210.8</ele><time>2026-05-01T10:32:03.999Z</time></trkpt><trkpt lat="37.51701408268673" lon="15.00295657687806"><ele>210.0</ele><time>2026-05-01T10:32:04.999Z</time></trkpt><trkpt lat="37.517065916642906" lon="15.00288827135739"><ele>210.83333333333334</ele><time>2026-05-01T10:32:05.999Z</time></trkpt><trkpt lat="37.51711670940398" lon="15.002820263624528"><ele>211.66666666666669</ele><time>2026-05-01T10:32:06.999Z</time></trkpt><trkpt lat="37.517161592792476" lon="15.002746571910862"><ele>212.5</ele><time>2026-05-01T10:32:07.999Z</time></trkpt><trkpt lat="37.517226069592795" lon="15.002683410037426"><ele>213.33333333333334</ele><time>2026-05-01T10:32:08.999Z</time></trkpt><trkpt lat="37.51728718573072" lon="15.002623156013938"><ele>214.16666666666669</ele><time>2026-05-01T10:32:09.999Z</time></trkpt><trkpt lat="37.51735217797283" lon="15.002555434856403"><ele>215.0</ele><time>2026-05-01T10:32:10.999Z</time></trkpt><trkpt lat="37.51741973514059" lon="15.002488493855585"><ele>215.0</ele><time>2026-05-01T10:32:11.999Z</time></trkpt><trkpt lat="37.517487445220574" lon="15.00242264800689"><ele>215.0</ele><time>2026-05-01T10:32:12.999Z</time></trkpt><trkpt lat="37.517558085831396" lon="15.00235561479216"><ele>215.0</ele><time>2026-05-01T10:32:13.999Z</time></trkpt><trkpt lat="37.51762981515502" lon="15.00227897701176"><ele>215.0</ele><time>2026-05-01T10:32:14.999Z</time></trkpt><trkpt lat="37.51770486929059" lon="15.002196123407492"><ele>215.0</ele><time>2026-05-01T10:32:15.999Z</time></trkpt><trkpt lat="37.51778768580141" lon="15.002112504598987"><ele>215.0</ele><time>2026-05-01T10:32:16.999Z</time></trkpt><trkpt lat="37.517869548940496" lon="15.002027362141673"><ele>215.0</ele><time>2026-05-01T10:32:17.999Z</time></trkpt><trkpt lat="37.51795335807356" lon="15.001940189445266"><ele>215.0</ele><time>2026-05-01T10:32:18.999Z</time></trkpt><trkpt lat="37.51803510408135" lon="15.001848255667639"><ele>215.0</ele><time>2026-05-01T10:32:19.999Z</time></trkpt><trkpt lat="37.51811598856842" lon="15.00175029387517"><ele>215.0</ele><time>2026-05-01T10:32:20.999Z</time></trkpt><trkpt lat="37.518197083878505" lon="15.001650453835882"><ele>217.0</ele><time>2026-05-01T10:32:21.999Z</time></trkpt><trkpt lat="37.51827894115585" lon="15.001547039303354"><ele>219.0</ele><time>2026-05-01T10:32:22.999Z</time></trkpt><trkpt lat="37.51835945142152" lon="15.00143943169882"><ele>221.0</ele><time>2026-05-01T10:32:23.999Z</time></trkpt><trkpt lat="37.51843720427428" lon="15.001327875126488"><ele>223.0</ele><time>2026-05-01T10:32:24.999Z</time></trkpt><trkpt lat="37.51851211353519" lon="15.001208992395528"><ele>223.0</ele><time>2026-05-01T10:32:25.999Z</time></trkpt><trkpt lat="37.518582430446834" lon="15.001087528227368"><ele>223.0</ele><time>2026-05-01T10:32:26.999Z</time></trkpt><trkpt lat="37.5186509941611" lon="15.000961717325167"><ele>223.0</ele><time>2026-05-01T10:32:27.999Z</time></trkpt><trkpt lat="37.51872010378007" lon="15.000834906033415"><ele>223.0</ele><time>2026-05-01T10:32:28.999Z</time></trkpt><trkpt lat="37.518789917934384" lon="15.000708008444162"><ele>227.5</ele><time>2026-05-01T10:32:29.999Z</time></trkpt><trkpt lat="37.51885900497246" lon="15.000581489831491"><ele>232.0</ele><time>2026-05-01T10:32:30.999Z</time></trkpt><trkpt lat="37.51892394628246" lon="15.0004529838701"><ele>236.5</ele><time>2026-05-01T10:32:31.999Z</time></trkpt><trkpt lat="37.51898387769483" lon="15.00032161510479"><ele>241.0</ele><time>2026-05-01T10:32:32.999Z</time></trkpt><trkpt lat="37.519045851485544" lon="15.000186130454445"><ele>241.0</ele><time>2026-05-01T10:32:33.999Z</time></trkpt><trkpt lat="37.5191036115188" lon="15.000049840157054"><ele>241.0</ele><time>2026-05-01T10:32:34.998Z</time></trkpt><trkpt lat="37.51916289283101" lon="14.999913106066517"><ele>241.0</ele><time>2026-05-01T10:32:35.998Z</time></trkpt><trkpt lat="37.519221935385566" lon="14.999777718822916"><ele>241.0</ele><time>2026-05-01T10:32:36.998Z</time></trkpt><trkpt lat="37.51928021694517" lon="14.99964043763096"><ele>241.0</ele><time>2026-05-01T10:32:37.998Z</time></trkpt><trkpt lat="37.51933872788351" lon="14.99950324029996"><ele>241.0</ele><time>2026-05-01T10:32:38.998Z</time></trkpt><trkpt lat="37.51939817030383" lon="14.999364798850756"><ele>241.0</ele><time>2026-05-01T10:32:39.998Z</time></trkpt><trkpt lat="37.51946301236481" lon="14.999227962271704"><ele>241.0</ele><time>2026-05-01T10:32:40.998Z</time></trkpt><trkpt lat="37.51952780965594" lon="14.999091771477731"><ele>243.25</ele><time>2026-05-01T10:32:41.998Z</time></trkpt><trkpt lat="37.51959363242193" lon="14.998956736957702"><ele>245.5</ele><time>2026-05-01T10:32:42.998Z</time></trkpt><trkpt lat="37.5196611142337" lon="14.998822864701085"><ele>247.75</ele><time>2026-05-01T10:32:43.998Z</time></trkpt><trkpt lat="37.51972780273868" lon="14.998693632875657"><ele>250.0</ele><time>2026-05-01T10:32:44.998Z</time></trkpt><trkpt lat="37.519798094089836" lon="14.998564304281448"><ele>250.0</ele><time>2026-05-01T10:32:45.998Z</time></trkpt><trkpt lat="37.51987691102926" lon="14.998435855794847"><ele>250.0</ele><time>2026-05-01T10:32:46.998Z</time></trkpt><trkpt lat="37.51995940293614" lon="14.998312264368042"><ele>250.0</ele><time>2026-05-01T10:32:47.998Z</time></trkpt><trkpt lat="37.520044149032174" lon="14.998194664710317"><ele>250.0</ele><time>2026-05-01T10:32:48.998Z</time></trkpt><trkpt lat="37.520129159770576" lon="14.998082829138141"><ele>249.75</ele><time>2026-05-01T10:32:49.998Z</time></trkpt><trkpt lat="37.52021675995669" lon="14.997978170102556"><ele>249.5</ele><time>2026-05-01T10:32:50.998Z</time></trkpt><trkpt lat="37.52030660067404" lon="14.997877265837664"><ele>249.25</ele><time>2026-05-01T10:32:51.998Z</time></trkpt><trkpt lat="37.52039694584646" lon="14.997774760201382"><ele>249.0</ele><time>2026-05-01T10:32:52.998Z</time></trkpt><trkpt lat="37.52049365108657" lon="14.997679224289234"><ele>249.0</ele><time>2026-05-01T10:32:53.998Z</time></trkpt><trkpt lat="37.520593390112076" lon="14.997592480547112"><ele>249.0</ele><time>2026-05-01T10:32:54.998Z</time></trkpt><trkpt lat="37.520695720606746" lon="14.997506988331704"><ele>249.0</ele><time>2026-05-01T10:32:55.998Z</time></trkpt><trkpt lat="37.520797462609984" lon="14.997425737521585"><ele>249.0</ele><time>2026-05-01T10:32:56.998Z</time></trkpt><trkpt lat="37.520896425512994" lon="14.997350149855368"><ele>248.5</ele><time>2026-05-01T10:32:57.998Z</time></trkpt><trkpt lat="37.5209966239214" lon="14.997280509964334"><ele>248.0</ele><time>2026-05-01T10:32:58.998Z</time></trkpt><trkpt lat="37.5210996204735" lon="14.997214201902738"><ele>247.5</ele><time>2026-05-01T10:32:59.998Z</time></trkpt><trkpt lat="37.521200740106295" lon="14.997150713943414"><ele>247.0</ele><time>2026-05-01T10:33:00.998Z</time></trkpt><trkpt lat="37.52129778999325" lon="14.9970923297797"><ele>247.0</ele><time>2026-05-01T10:33:01.998Z</time></trkpt><trkpt lat="37.52139432970491" lon="14.997042112669583"><ele>247.0</ele><time>2026-05-01T10:33:02.998Z</time></trkpt><trkpt lat="37.521487932614725" lon="14.996993891786762"><ele>247.0</ele><time>2026-05-01T10:33:03.998Z</time></trkpt><trkpt lat="37.52157977567057" lon="14.996944739667518"><ele>247.0</ele><time>2026-05-01T10:33:04.998Z</time></trkpt><trkpt lat="37.521668936039134" lon="14.996895800995734"><ele>247.0</ele><time>2026-05-01T10:33:05.998Z</time></trkpt><trkpt lat="37.52176185397273" lon="14.996847919537723"><ele>247.0</ele><time>2026-05-01T10:33:06.998Z</time></trkpt><trkpt lat="37.521861046397866" lon="14.996789594590442"><ele>247.0</ele><time>2026-05-01T10:33:07.998Z</time></trkpt><trkpt lat="37.52194951088155" lon="14.996716209247891"><ele>247.0</ele><time>2026-05-01T10:33:08.998Z</time></trkpt><trkpt lat="37.522046052795865" lon="14.99667710079675"><ele>247.0</ele><time>2026-05-01T10:33:09.998Z</time></trkpt><trkpt lat="37.522141583081435" lon="14.996621377643386"><ele>247.0</ele><time>2026-05-01T10:33:10.998Z</time></trkpt><trkpt lat="37.52223679131953" lon="14.996574020329462"><ele>247.75</ele><time>2026-05-01T10:33:11.998Z</time></trkpt><trkpt lat="37.5223349686407" lon="14.99651407037044"><ele>248.5</ele><time>2026-05-01T10:33:12.998Z</time></trkpt><trkpt lat="37.5224341954718" lon="14.996455806618737"><ele>249.25</ele><time>2026-05-01T10:33:13.998Z</time></trkpt><trkpt lat="37.52253806060583" lon="14.99639366079634"><ele>250.0</ele><time>2026-05-01T10:33:14.998Z</time></trkpt><trkpt lat="37.522648542031845" lon="14.996329620531876"><ele>250.0</ele><time>2026-05-01T10:33:15.997Z</time></trkpt><trkpt lat="37.522762229528304" lon="14.996266153200546"><ele>250.0</ele><time>2026-05-01T10:33:16.997Z</time></trkpt><trkpt lat="37.52287623483495" lon="14.99620297133545"><ele>250.0</ele><time>2026-05-01T10:33:17.997Z</time></trkpt><trkpt lat="37.52298808965327" lon="14.996139114402904"><ele>250.0</ele><time>2026-05-01T10:33:18.997Z</time></trkpt><trkpt lat="37.523099631023804" lon="14.996078041048483"><ele>250.5</ele><time>2026-05-01T10:33:19.997Z</time></trkpt><trkpt lat="37.523213067682306" lon="14.996017859295208"><ele>251.0</ele><time>2026-05-01T10:33:21Z</time></trkpt><trkpt lat="37.52332920563429" lon="14.995956931877943"><ele>251.5</ele><time>2026-05-01T10:33:22Z</time></trkpt><trkpt lat="37.523439885648685" lon="14.995895361177757"><ele>252.0</ele><time>2026-05-01T10:33:23Z</time></trkpt><trkpt lat="37.5235505721152" lon="14.995836370017335"><ele>252.25</ele><time>2026-05-01T10:33:24Z</time></trkpt><trkpt lat="37.523661552571966" lon="14.995782559044853"><ele>252.5</ele><time>2026-05-01T10:33:25Z</time></trkpt><trkpt lat="37.5237699099811" lon="14.995726778993474"><ele>252.75</ele><time>2026-05-01T10:33:26Z</time></trkpt><trkpt lat="37.52387838606603" lon="14.995671750772843"><ele>253.0</ele><time>2026-05-01T10:33:27Z</time></trkpt><trkpt lat="37.52399211580067" lon="14.995611986498853"><ele>253.0</ele><time>2026-05-01T10:33:28Z</time></trkpt><trkpt lat="37.52410421691678" lon="14.995556674289032"><ele>253.0</ele><time>2026-05-01T10:33:29Z</time></trkpt><trkpt lat="37.52421682690908" lon="14.995504716386433"><ele>253.0</ele><time>2026-05-01T10:33:30Z</time></trkpt><trkpt lat="37.52433169808424" lon="14.995453198296643"><ele>253.0</ele><time>2026-05-01T10:33:31Z</time></trkpt><trkpt lat="37.524445848971155" lon="14.995404886845677"><ele>253.0</ele><time>2026-05-01T10:33:32Z</time></trkpt><trkpt lat="37.524556161873505" lon="14.995361979722011"><ele>253.0</ele><time>2026-05-01T10:33:33Z</time></trkpt><trkpt lat="37.52466705864853" lon="14.995322386442963"><ele>253.0</ele><time>2026-05-01T10:33:34Z</time></trkpt><trkpt lat="37.52478164557774" lon="14.995280200666938"><ele>253.0</ele><time>2026-05-01T10:33:35Z</time></trkpt><trkpt lat="37.524895377251916" lon="14.99523460963506"><ele>253.5</ele><time>2026-05-01T10:33:36Z</time></trkpt><trkpt lat="37.5250093428919" lon="14.995188947777876"><ele>254.0</ele><time>2026-05-01T10:33:37Z</time></trkpt><trkpt lat="37.525127230775" lon="14.995141823937875"><ele>254.5</ele><time>2026-05-01T10:33:38Z</time></trkpt><trkpt lat="37.52524293440006" lon="14.99509147191022"><ele>255.0</ele><time>2026-05-01T10:33:39Z</time></trkpt><trkpt lat="37.52535871040012" lon="14.995042347062842"><ele>255.25</ele><time>2026-05-01T10:33:40Z</time></trkpt><trkpt lat="37.525476848595744" lon="14.994996309474077"><ele>255.5</ele><time>2026-05-01T10:33:41Z</time></trkpt><trkpt lat="37.52559482532834" lon="14.994951093730368"><ele>255.75</ele><time>2026-05-01T10:33:42Z</time></trkpt><trkpt lat="37.525715539149715" lon="14.994904544480509"><ele>256.0</ele><time>2026-05-01T10:33:43Z</time></trkpt><trkpt lat="37.525835103472474" lon="14.99485284717708"><ele>256.0</ele><time>2026-05-01T10:33:44Z</time></trkpt><trkpt lat="37.52595561133666" lon="14.994797954416972"><ele>256.0</ele><time>2026-05-01T10:33:45Z</time></trkpt><trkpt lat="37.5260703873144" lon="14.994739343346595"><ele>256.0</ele><time>2026-05-01T10:33:46Z</time></trkpt><trkpt lat="37.526185357689116" lon="14.99468105357785"><ele>256.0</ele><time>2026-05-01T10:33:47Z</time></trkpt><trkpt lat="37.526300547013626" lon="14.994619883465933"><ele>255.75</ele><time>2026-05-01T10:33:48Z</time></trkpt><trkpt lat="37.52641825826468" lon="14.994554359829495"><ele>255.5</ele><time>2026-05-01T10:33:49Z</time></trkpt><trkpt lat="37.52653851419551" lon="14.994484655735224"><ele>255.25</ele><time>2026-05-01T10:33:50Z</time></trkpt><trkpt lat="37.52665774447998" lon="14.994409500867775"><ele>255.0</ele><time>2026-05-01T10:33:51Z</time></trkpt><trkpt lat="37.52677556131435" lon="14.994331651161152"><ele>255.0</ele><time>2026-05-01T10:33:52Z</time></trkpt><trkpt lat="37.5268937795147" lon="14.994249572045987"><ele>255.0</ele><time>2026-05-01T10:33:53Z</time></trkpt><trkpt lat="37.52701031783941" lon="14.994163798784973"><ele>255.0</ele><time>2026-05-01T10:33:54Z</time></trkpt><trkpt lat="37.52712145427394" lon="14.994080429951678"><ele>255.0</ele><time>2026-05-01T10:33:55Z</time></trkpt><trkpt lat="37.52723291146932" lon="14.993995245619866"><ele>254.5</ele><time>2026-05-01T10:33:56Z</time></trkpt><trkpt lat="37.52734122989799" lon="14.993907024041658"><ele>254.0</ele><time>2026-05-01T10:33:57Z</time></trkpt><trkpt lat="37.52744610759225" lon="14.993815218677437"><ele>253.5</ele><time>2026-05-01T10:33:57.999Z</time></trkpt><trkpt lat="37.527549120734825" lon="14.993720860305485"><ele>253.0</ele><time>2026-05-01T10:33:58.999Z</time></trkpt><trkpt lat="37.527650598249096" lon="14.993624440826782"><ele>253.0</ele><time>2026-05-01T10:33:59.999Z</time></trkpt><trkpt lat="37.527753013654824" lon="14.993527827303996"><ele>253.0</ele><time>2026-05-01T10:34:00.999Z</time></trkpt><trkpt lat="37.52785738270994" lon="14.993425181201731"><ele>253.0</ele><time>2026-05-01T10:34:01.999Z</time></trkpt><trkpt lat="37.52796082455706" lon="14.993317027670814"><ele>253.0</ele><time>2026-05-01T10:34:02.999Z</time></trkpt><trkpt lat="37.52806754550945" lon="14.993202971339066"><ele>253.25</ele><time>2026-05-01T10:34:03.999Z</time></trkpt><trkpt lat="37.5281742676937" lon="14.993088610271318"><ele>253.5</ele><time>2026-05-01T10:34:04.999Z</time></trkpt><trkpt lat="37.52828126661139" lon="14.992973249335499"><ele>253.75</ele><time>2026-05-01T10:34:05.999Z</time></trkpt><trkpt lat="37.52839137922937" lon="14.992854542382242"><ele>254.0</ele><time>2026-05-01T10:34:06.999Z</time></trkpt><trkpt lat="37.52850445869061" lon="14.992733000715525"><ele>254.0</ele><time>2026-05-01T10:34:07.999Z</time></trkpt><trkpt lat="37.52862094188705" lon="14.992609639776953"><ele>254.0</ele><time>2026-05-01T10:34:08.999Z</time></trkpt><trkpt lat="37.528737377713576" lon="14.99248867784959"><ele>254.0</ele><time>2026-05-01T10:34:09.999Z</time></trkpt><trkpt lat="37.52884921220494" lon="14.992375055144777"><ele>254.0</ele><time>2026-05-01T10:34:10.999Z</time></trkpt><trkpt lat="37.52895821229231" lon="14.992263313959143"><ele>253.75</ele><time>2026-05-01T10:34:11.999Z</time></trkpt><trkpt lat="37.52906574164315" lon="14.992152487347132"><ele>253.5</ele><time>2026-05-01T10:34:12.999Z</time></trkpt><trkpt lat="37.52916953839326" lon="14.99204581500656"><ele>253.25</ele><time>2026-05-01T10:34:13.999Z</time></trkpt><trkpt lat="37.52927610863241" lon="14.991934449091078"><ele>253.0</ele><time>2026-05-01T10:34:14.999Z</time></trkpt><trkpt lat="37.529379857304775" lon="14.991822178303304"><ele>253.0</ele><time>2026-05-01T10:34:15.999Z</time></trkpt><trkpt lat="37.529488176027286" lon="14.99170403808439"><ele>253.0</ele><time>2026-05-01T10:34:16.999Z</time></trkpt><trkpt lat="37.52959572086344" lon="14.991587277871329"><ele>253.0</ele><time>2026-05-01T10:34:17.999Z</time></trkpt><trkpt lat="37.52970328820725" lon="14.991471100669065"><ele>253.0</ele><time>2026-05-01T10:34:18.999Z</time></trkpt><trkpt lat="37.5298117608915" lon="14.991356964796733"><ele>252.66666666666666</ele><time>2026-05-01T10:34:19.999Z</time></trkpt><trkpt lat="37.52992483454276" lon="14.991239992407012"><ele>252.33333333333331</ele><time>2026-05-01T10:34:20.999Z</time></trkpt><trkpt lat="37.53004109300524" lon="14.991119456419568"><ele>252.0</ele><time>2026-05-01T10:34:21.999Z</time></trkpt><trkpt lat="37.5301586385054" lon="14.990996172640417"><ele>252.0</ele><time>2026-05-01T10:34:22.999Z</time></trkpt><trkpt lat="37.53027529300541" lon="14.99087275737683"><ele>252.0</ele><time>2026-05-01T10:34:23.999Z</time></trkpt><trkpt lat="37.530391097929886" lon="14.99074941798389"><ele>252.0</ele><time>2026-05-01T10:34:24.999Z</time></trkpt><trkpt lat="37.53051049906701" lon="14.990623938029856"><ele>251.0</ele><time>2026-05-01T10:34:25.999Z</time></trkpt><trkpt lat="37.5306283424051" lon="14.990501769255067"><ele>250.0</ele><time>2026-05-01T10:34:26.999Z</time></trkpt><trkpt lat="37.53074384947881" lon="14.99038349407563"><ele>249.0</ele><time>2026-05-01T10:34:27.999Z</time></trkpt><trkpt lat="37.53086120848684" lon="14.990258334336838"><ele>249.0</ele><time>2026-05-01T10:34:28.999Z</time></trkpt><trkpt lat="37.530976660778926" lon="14.990135263920422"><ele>249.0</ele><time>2026-05-01T10:34:29.999Z</time></trkpt><trkpt lat="37.53109035168924" lon="14.990018270394485"><ele>249.0</ele><time>2026-05-01T10:34:30.999Z</time></trkpt><trkpt lat="37.531208740805106" lon="14.989895022781049"><ele>249.25</ele><time>2026-05-01T10:34:31.999Z</time></trkpt><trkpt lat="37.531323810639236" lon="14.989775464499163"><ele>249.5</ele><time>2026-05-01T10:34:32.999Z</time></trkpt><trkpt lat="37.53143640875172" lon="14.989654847083946"><ele>249.75</ele><time>2026-05-01T10:34:33.999Z</time></trkpt><trkpt lat="37.53154796082801" lon="14.989535422463858"><ele>250.0</ele><time>2026-05-01T10:34:34.999Z</time></trkpt><trkpt lat="37.5316605249652" lon="14.989414744640712"><ele>250.0</ele><time>2026-05-01T10:34:35.999Z</time></trkpt><trkpt lat="37.531774125261244" lon="14.989295736158546"><ele>250.0</ele><time>2026-05-01T10:34:36.999Z</time></trkpt><trkpt lat="37.53188652105289" lon="14.98917645052594"><ele>250.0</ele><time>2026-05-01T10:34:37.999Z</time></trkpt><trkpt lat="37.53200039528377" lon="14.989057221733278"><ele>250.0</ele><time>2026-05-01T10:34:38.998Z</time></trkpt><trkpt lat="37.53211381260043" lon="14.98893957236348"><ele>250.25</ele><time>2026-05-01T10:34:39.998Z</time></trkpt><trkpt lat="37.53222671701917" lon="14.988823333276848"><ele>250.5</ele><time>2026-05-01T10:34:40.998Z</time></trkpt><trkpt lat="37.53233954199043" lon="14.988704140100287"><ele>250.75</ele><time>2026-05-01T10:34:41.998Z</time></trkpt><trkpt lat="37.532453942574996" lon="14.98857992387264"><ele>251.0</ele><time>2026-05-01T10:34:42.998Z</time></trkpt><trkpt lat="37.53256866366219" lon="14.988450880467695"><ele>251.66666666666669</ele><time>2026-05-01T10:34:43.998Z</time></trkpt><trkpt lat="37.532683760357884" lon="14.988316063683964"><ele>252.33333333333331</ele><time>2026-05-01T10:34:44.998Z</time></trkpt><trkpt lat="37.53279321942819" lon="14.988182762034375"><ele>253.0</ele><time>2026-05-01T10:34:45.998Z</time></trkpt><trkpt lat="37.53289937637944" lon="14.988050061610572"><ele>253.25</ele><time>2026-05-01T10:34:46.998Z</time></trkpt><trkpt lat="37.53300252087942" lon="14.987920412905632"><ele>253.5</ele><time>2026-05-01T10:34:47.998Z</time></trkpt><trkpt lat="37.53310268248499" lon="14.987788165100246"><ele>253.75</ele><time>2026-05-01T10:34:48.998Z</time></trkpt><trkpt lat="37.53319729054574" lon="14.987657877584008"><ele>254.0</ele><time>2026-05-01T10:34:49.998Z</time></trkpt><trkpt lat="37.5332857492127" lon="14.987526680089411"><ele>254.25</ele><time>2026-05-01T10:34:50.998Z</time></trkpt><trkpt lat="37.53337697312015" lon="14.987391841145731"><ele>254.5</ele><time>2026-05-01T10:34:51.998Z</time></trkpt><trkpt lat="37.53346810199691" lon="14.98724973865582"><ele>254.75</ele><time>2026-05-01T10:34:52.998Z</time></trkpt><trkpt lat="37.5335540441691" lon="14.987106541365367"><ele>255.0</ele><time>2026-05-01T10:34:53.998Z</time></trkpt><trkpt lat="37.533638684888565" lon="14.98696656832202"><ele>255.0</ele><time>2026-05-01T10:34:54.998Z</time></trkpt><trkpt lat="37.53372055211222" lon="14.986826196363145"><ele>255.0</ele><time>2026-05-01T10:34:55.998Z</time></trkpt><trkpt lat="37.53379828442979" lon="14.98668285152681"><ele>255.0</ele><time>2026-05-01T10:34:56.998Z</time></trkpt><trkpt lat="37.533874597150586" lon="14.986524343624003"><ele>255.0</ele><time>2026-05-01T10:34:57.998Z</time></trkpt><trkpt lat="37.53395180099923" lon="14.986363839167808"><ele>255.0</ele><time>2026-05-01T10:34:58.998Z</time></trkpt><trkpt lat="37.53402861535556" lon="14.986203564604317"><ele>255.0</ele><time>2026-05-01T10:34:59.998Z</time></trkpt><trkpt lat="37.534103336154956" lon="14.986044009090623"><ele>255.0</ele><time>2026-05-01T10:35:00.998Z</time></trkpt><trkpt lat="37.534177070152865" lon="14.985876541294209"><ele>255.0</ele><time>2026-05-01T10:35:01.998Z</time></trkpt><trkpt lat="37.534243303155556" lon="14.985708414441621"><ele>255.0</ele><time>2026-05-01T10:35:02.998Z</time></trkpt><trkpt lat="37.53430239253371" lon="14.985539861602403"><ele>255.0</ele><time>2026-05-01T10:35:03.998Z</time></trkpt><trkpt lat="37.53436123617237" lon="14.985344564890744"><ele>255.0</ele><time>2026-05-01T10:35:04.998Z</time></trkpt><trkpt lat="37.53444006362594" lon="14.985130228432238"><ele>255.0</ele><time>2026-05-01T10:35:05.998Z</time></trkpt><trkpt lat="37.53453375253917" lon="14.98490679815422"><ele>255.0</ele><time>2026-05-01T10:35:06.998Z</time></trkpt><trkpt lat="37.53462929284143" lon="14.98469109895488"><ele>255.0</ele><time>2026-05-01T10:35:07.998Z</time></trkpt><trkpt lat="37.5347220666982" lon="14.984477676740365"><ele>255.0</ele><time>2026-05-01T10:35:08.998Z</time></trkpt><trkpt lat="37.534812333336255" lon="14.98425389234585"><ele>255.0</ele><time>2026-05-01T10:35:09.998Z</time></trkpt><trkpt lat="37.5348991426998" lon="14.984030447666061"><ele>255.0</ele><time>2026-05-01T10:35:10.998Z</time></trkpt><trkpt lat="37.53498325881843" lon="14.983812385381688"><ele>255.33333333333331</ele><time>2026-05-01T10:35:11.998Z</time></trkpt><trkpt lat="37.53506711741334" lon="14.98359992921571"><ele>255.66666666666666</ele><time>2026-05-01T10:35:12.998Z</time></trkpt><trkpt lat="37.53514892572019" lon="14.983389952767496"><ele>256.0</ele><time>2026-05-01T10:35:13.998Z</time></trkpt><trkpt lat="37.535228772935994" lon="14.983184335258539"><ele>256.3333333333333</ele><time>2026-05-01T10:35:14.998Z</time></trkpt><trkpt lat="37.53530661667804" lon="14.982983065692839"><ele>256.6666666666667</ele><time>2026-05-01T10:35:15.998Z</time></trkpt><trkpt lat="37.535385686371804" lon="14.982786688717265"><ele>257.0</ele><time>2026-05-01T10:35:16.998Z</time></trkpt><trkpt lat="37.535465455224234" lon="14.98259454810162"><ele>256.6666666666667</ele><time>2026-05-01T10:35:17.998Z</time></trkpt><trkpt lat="37.53554298747571" lon="14.982398618834342"><ele>256.3333333333333</ele><time>2026-05-01T10:35:18.998Z</time></trkpt><trkpt lat="37.535612218556814" lon="14.982211653216245"><ele>256.0</ele><time>2026-05-01T10:35:19.997Z</time></trkpt><trkpt lat="37.535676774416814" lon="14.98203448021282"><ele>256.0</ele><time>2026-05-01T10:35:20.997Z</time></trkpt><trkpt lat="37.53574600026168" lon="14.981868689768467"><ele>256.0</ele><time>2026-05-01T10:35:21.997Z</time></trkpt><trkpt lat="37.535815358566815" lon="14.981710372543048"><ele>256.0</ele><time>2026-05-01T10:35:22.997Z</time></trkpt><trkpt lat="37.53588131008656" lon="14.981557966935961"><ele>256.0</ele><time>2026-05-01T10:35:23.997Z</time></trkpt><trkpt lat="37.535945108793726" lon="14.98139555608824"><ele>255.75</ele><time>2026-05-01T10:35:24.997Z</time></trkpt><trkpt lat="37.536007410951186" lon="14.981227321200176"><ele>255.5</ele><time>2026-05-01T10:35:25.997Z</time></trkpt><trkpt lat="37.53607158630774" lon="14.981057823040386"><ele>255.25</ele><time>2026-05-01T10:35:27Z</time></trkpt><trkpt lat="37.53613687741248" lon="14.980889011588001"><ele>255.0</ele><time>2026-05-01T10:35:28Z</time></trkpt><trkpt lat="37.53620080952556" lon="14.980719945954082"><ele>255.33333333333331</ele><time>2026-05-01T10:35:29Z</time></trkpt><trkpt lat="37.536263053390755" lon="14.98054883872434"><ele>255.66666666666666</ele><time>2026-05-01T10:35:30Z</time></trkpt><trkpt lat="37.53632647785082" lon="14.98036869492406"><ele>256.0</ele><time>2026-05-01T10:35:31Z</time></trkpt><trkpt lat="37.53638964422642" lon="14.980185251113602"><ele>256.3333333333333</ele><time>2026-05-01T10:35:32Z</time></trkpt><trkpt lat="37.536454023057395" lon="14.979993432892227"><ele>256.6666666666667</ele><time>2026-05-01T10:35:33Z</time></trkpt><trkpt lat="37.53651310816322" lon="14.979800259754368"><ele>257.0</ele><time>2026-05-01T10:35:34Z</time></trkpt><trkpt lat="37.536567420919845" lon="14.979601977805226"><ele>257.0</ele><time>2026-05-01T10:35:35Z</time></trkpt><trkpt lat="37.53661913007675" lon="14.979402399916141"><ele>257.0</ele><time>2026-05-01T10:35:36Z</time></trkpt><trkpt lat="37.536666177450265" lon="14.979197777134342"><ele>257.0</ele><time>2026-05-01T10:35:37Z</time></trkpt><trkpt lat="37.536709145854324" lon="14.978989598349566"><ele>257.0</ele><time>2026-05-01T10:35:38Z</time></trkpt><trkpt lat="37.53674874635033" lon="14.978775507703057"><ele>257.0</ele><time>2026-05-01T10:35:39Z</time></trkpt><trkpt lat="37.536786751235" lon="14.978563782344432"><ele>257.0</ele><time>2026-05-01T10:35:40Z</time></trkpt><trkpt lat="37.53682376155419" lon="14.978350395845588"><ele>257.0</ele><time>2026-05-01T10:35:41Z</time></trkpt><trkpt lat="37.536858393844334" lon="14.978137611015418"><ele>257.0</ele><time>2026-05-01T10:35:42Z</time></trkpt><trkpt lat="37.53688923486508" lon="14.977928341836183"><ele>257.0</ele><time>2026-05-01T10:35:43Z</time></trkpt><trkpt lat="37.53691817061284" lon="14.977720120213057"><ele>256.0</ele><time>2026-05-01T10:35:44Z</time></trkpt><trkpt lat="37.536947185310844" lon="14.977510352073995"><ele>255.0</ele><time>2026-05-01T10:35:45Z</time></trkpt><trkpt lat="37.536978592150646" lon="14.977298847389882"><ele>254.0</ele><time>2026-05-01T10:35:46Z</time></trkpt><trkpt lat="37.537009721009994" lon="14.977085552662313"><ele>254.0</ele><time>2026-05-01T10:35:47Z</time></trkpt><trkpt lat="37.53704235589207" lon="14.97687198008419"><ele>254.0</ele><time>2026-05-01T10:35:48Z</time></trkpt><trkpt lat="37.537076128085246" lon="14.976657049616326"><ele>254.0</ele><time>2026-05-01T10:35:49Z</time></trkpt><trkpt lat="37.53711152496766" lon="14.976439188197087"><ele>254.0</ele><time>2026-05-01T10:35:50Z</time></trkpt><trkpt lat="37.53714468238431" lon="14.976223880263976"><ele>254.0</ele><time>2026-05-01T10:35:51Z</time></trkpt><trkpt lat="37.53717647316871" lon="14.976004550771028"><ele>254.0</ele><time>2026-05-01T10:35:52Z</time></trkpt><trkpt lat="37.537208744474405" lon="14.975783366654532"><ele>254.0</ele><time>2026-05-01T10:35:53Z</time></trkpt><trkpt lat="37.537241508777974" lon="14.97556332009441"><ele>254.0</ele><time>2026-05-01T10:35:54Z</time></trkpt><trkpt lat="37.537275415508546" lon="14.97534196002346"><ele>254.0</ele><time>2026-05-01T10:35:55Z</time></trkpt><trkpt lat="37.53730975128888" lon="14.975122745040284"><ele>254.66666666666669</ele><time>2026-05-01T10:35:56Z</time></trkpt><trkpt lat="37.53734223953864" lon="14.97489989589305"><ele>255.33333333333331</ele><time>2026-05-01T10:35:57Z</time></trkpt><trkpt lat="37.537373336898405" lon="14.974676920846688"><ele>256.0</ele><time>2026-05-01T10:35:58Z</time></trkpt><trkpt lat="37.53740588229439" lon="14.974452989216536"><ele>256.0</ele><time>2026-05-01T10:35:59Z</time></trkpt><trkpt lat="37.537440616602694" lon="14.974231980306076"><ele>256.0</ele><time>2026-05-01T10:36:00Z</time></trkpt><trkpt lat="37.53747479326408" lon="14.974008839159739"><ele>256.0</ele><time>2026-05-01T10:36:01Z</time></trkpt><trkpt lat="37.53750500409379" lon="14.973782497491644"><ele>256.0</ele><time>2026-05-01T10:36:02Z</time></trkpt><trkpt lat="37.537540135517425" lon="14.973564033542301"><ele>256.0</ele><time>2026-05-01T10:36:02.999Z</time></trkpt><trkpt lat="37.537573932598704" lon="14.97334265926809"><ele>256.0</ele><time>2026-05-01T10:36:03.999Z</time></trkpt><trkpt lat="37.53760787878284" lon="14.973123644919557"><ele>256.0</ele><time>2026-05-01T10:36:04.999Z</time></trkpt><trkpt lat="37.537640835482726" lon="14.972905266715129"><ele>256.0</ele><time>2026-05-01T10:36:05.999Z</time></trkpt><trkpt lat="37.537671003851656" lon="14.97268727079516"><ele>256.0</ele><time>2026-05-01T10:36:06.999Z</time></trkpt><trkpt lat="37.5377041426363" lon="14.9724690109698"><ele>255.66666666666666</ele><time>2026-05-01T10:36:07.999Z</time></trkpt><trkpt lat="37.537730033075455" lon="14.972245425481862"><ele>255.33333333333331</ele><time>2026-05-01T10:36:08.999Z</time></trkpt><trkpt lat="37.5377641445956" lon="14.972035744790656"><ele>255.0</ele><time>2026-05-01T10:36:09.999Z</time></trkpt><trkpt lat="37.537795342752005" lon="14.971817626552346"><ele>254.66666666666669</ele><time>2026-05-01T10:36:10.999Z</time></trkpt><trkpt lat="37.53782713235996" lon="14.971603495440553"><ele>254.33333333333334</ele><time>2026-05-01T10:36:11.999Z</time></trkpt><trkpt lat="37.537860236007" lon="14.9713882354914"><ele>254.0</ele><time>2026-05-01T10:36:12.999Z</time></trkpt><trkpt lat="37.53789344481973" lon="14.971169978777391"><ele>254.0</ele><time>2026-05-01T10:36:13.999Z</time></trkpt><trkpt lat="37.53792660328207" lon="14.97095390388285"><ele>254.0</ele><time>2026-05-01T10:36:14.999Z</time></trkpt><trkpt lat="37.53795984801222" lon="14.970738759512335"><ele>254.0</ele><time>2026-05-01T10:36:15.999Z</time></trkpt><trkpt lat="37.53799265557334" lon="14.9705223951017"><ele>254.33333333333334</ele><time>2026-05-01T10:36:16.999Z</time></trkpt><trkpt lat="37.53802651599162" lon="14.970304977739543"><ele>254.66666666666669</ele><time>2026-05-01T10:36:17.999Z</time></trkpt><trkpt lat="37.53805997805306" lon="14.970088812611555"><ele>255.0</ele><time>2026-05-01T10:36:18.999Z</time></trkpt><trkpt lat="37.53809319651195" lon="14.969869443071481"><ele>254.33333333333331</ele><time>2026-05-01T10:36:19.999Z</time></trkpt><trkpt lat="37.53812608319826" lon="14.969647003808207"><ele>253.66666666666666</ele><time>2026-05-01T10:36:20.999Z</time></trkpt><trkpt lat="37.5381586014006" lon="14.969423910778989"><ele>253.0</ele><time>2026-05-01T10:36:21.999Z</time></trkpt><trkpt lat="37.53819087227961" lon="14.969201957813807"><ele>252.33333333333331</ele><time>2026-05-01T10:36:22.999Z</time></trkpt><trkpt lat="37.538224501537805" lon="14.968980042384324"><ele>251.66666666666669</ele><time>2026-05-01T10:36:23.999Z</time></trkpt><trkpt lat="37.538260226052756" lon="14.968757613592908"><ele>251.0</ele><time>2026-05-01T10:36:24.999Z</time></trkpt><trkpt lat="37.538295241042306" lon="14.968532760832508"><ele>250.33333333333334</ele><time>2026-05-01T10:36:25.999Z</time></trkpt><trkpt lat="37.538328816738876" lon="14.96830463164931"><ele>249.66666666666669</ele><time>2026-05-01T10:36:26.999Z</time></trkpt><trkpt lat="37.538362822632166" lon="14.968074856953333"><ele>249.0</ele><time>2026-05-01T10:36:27.999Z</time></trkpt><trkpt lat="37.53839807714771" lon="14.967844742129408"><ele>249.0</ele><time>2026-05-01T10:36:28.999Z</time></trkpt><trkpt lat="37.538431170137564" lon="14.967611475392973"><ele>249.0</ele><time>2026-05-01T10:36:29.999Z</time></trkpt><trkpt lat="37.53846439557308" lon="14.96737968433961"><ele>249.0</ele><time>2026-05-01T10:36:30.999Z</time></trkpt><trkpt lat="37.53849690385411" lon="14.967146205617635"><ele>248.33333333333331</ele><time>2026-05-01T10:36:31.999Z</time></trkpt><trkpt lat="37.53853003026692" lon="14.966913957878466"><ele>247.66666666666666</ele><time>2026-05-01T10:36:32.999Z</time></trkpt><trkpt lat="37.538565498595446" lon="14.966681530583818"><ele>247.0</ele><time>2026-05-01T10:36:33.999Z</time></trkpt><trkpt lat="37.53860217913888" lon="14.96644882117621"><ele>246.66666666666666</ele><time>2026-05-01T10:36:34.999Z</time></trkpt><trkpt lat="37.53864039076785" lon="14.966217348421328"><ele>246.33333333333331</ele><time>2026-05-01T10:36:35.999Z</time></trkpt><trkpt lat="37.53867625168917" lon="14.965988071130461"><ele>246.0</ele><time>2026-05-01T10:36:36.999Z</time></trkpt><trkpt lat="37.53871064162399" lon="14.965757246884413"><ele>245.0</ele><time>2026-05-01T10:36:37.999Z</time></trkpt><trkpt lat="37.53874457345774" lon="14.965530138429562"><ele>244.0</ele><time>2026-05-01T10:36:38.999Z</time></trkpt><trkpt lat="37.53878036621501" lon="14.965301063954392"><ele>243.0</ele><time>2026-05-01T10:36:39.999Z</time></trkpt><trkpt lat="37.5388158887615" lon="14.965073185024835"><ele>242.66666666666669</ele><time>2026-05-01T10:36:40.999Z</time></trkpt><trkpt lat="37.53885093490825" lon="14.964846472965204"><ele>242.33333333333334</ele><time>2026-05-01T10:36:41.999Z</time></trkpt><trkpt lat="37.538883370460255" lon="14.964619894815746"><ele>242.0</ele><time>2026-05-01T10:36:42.999Z</time></trkpt><trkpt lat="37.53891546873492" lon="14.964386678239924"><ele>241.66666666666669</ele><time>2026-05-01T10:36:43.998Z</time></trkpt><trkpt lat="37.53894811219023" lon="14.964145435809515"><ele>241.33333333333331</ele><time>2026-05-01T10:36:44.998Z</time></trkpt><trkpt lat="37.53898247255486" lon="14.963904075660619"><ele>241.0</ele><time>2026-05-01T10:36:45.998Z</time></trkpt><trkpt lat="37.53901773852742" lon="14.963661484214796"><ele>241.0</ele><time>2026-05-01T10:36:46.998Z</time></trkpt><trkpt lat="37.53905295662139" lon="14.963419830783076"><ele>241.0</ele><time>2026-05-01T10:36:47.998Z</time></trkpt><trkpt lat="37.5390887194288" lon="14.963179795289083"><ele>241.0</ele><time>2026-05-01T10:36:48.998Z</time></trkpt><trkpt lat="37.539125245700816" lon="14.962939845018514"><ele>241.33333333333331</ele><time>2026-05-01T10:36:49.998Z</time></trkpt><trkpt lat="37.53916223414052" lon="14.962700131995819"><ele>241.66666666666669</ele><time>2026-05-01T10:36:50.998Z</time></trkpt><trkpt lat="37.53919957036787" lon="14.96245864794986"><ele>242.0</ele><time>2026-05-01T10:36:51.998Z</time></trkpt><trkpt lat="37.53923530013992" lon="14.962216883251047"><ele>243.33333333333334</ele><time>2026-05-01T10:36:52.998Z</time></trkpt><trkpt lat="37.53927163514087" lon="14.961975452085628"><ele>244.66666666666669</ele><time>2026-05-01T10:36:53.998Z</time></trkpt><trkpt lat="37.53930959402547" lon="14.96173669386968"><ele>246.0</ele><time>2026-05-01T10:36:54.998Z</time></trkpt><trkpt lat="37.53934741394275" lon="14.961495548663875"><ele>246.66666666666669</ele><time>2026-05-01T10:36:55.998Z</time></trkpt><trkpt lat="37.539382228512586" lon="14.96125351381715"><ele>247.33333333333334</ele><time>2026-05-01T10:36:56.998Z</time></trkpt><trkpt lat="37.539414703612394" lon="14.96101271585633"><ele>248.0</ele><time>2026-05-01T10:36:57.998Z</time></trkpt><trkpt lat="37.53944643231473" lon="14.9607732006485"><ele>248.0</ele><time>2026-05-01T10:36:58.998Z</time></trkpt><trkpt lat="37.539480305573136" lon="14.960533694328976"><ele>248.0</ele><time>2026-05-01T10:36:59.998Z</time></trkpt><trkpt lat="37.53951505119773" lon="14.960303219602775"><ele>248.0</ele><time>2026-05-01T10:37:00.998Z</time></trkpt><trkpt lat="37.53954600178796" lon="14.960081545798454"><ele>248.66666666666669</ele><time>2026-05-01T10:37:01.998Z</time></trkpt><trkpt lat="37.5395779291728" lon="14.959860143213149"><ele>249.33333333333331</ele><time>2026-05-01T10:37:02.998Z</time></trkpt><trkpt lat="37.53961275451993" lon="14.959644445989081"><ele>250.0</ele><time>2026-05-01T10:37:03.998Z</time></trkpt><trkpt lat="37.53964848305564" lon="14.95942896107663"><ele>250.0</ele><time>2026-05-01T10:37:04.998Z</time></trkpt><trkpt lat="37.53968559331146" lon="14.959212767943349"><ele>250.0</ele><time>2026-05-01T10:37:05.998Z</time></trkpt><trkpt lat="37.53972462616502" lon="14.9589979700502"><ele>250.0</ele><time>2026-05-01T10:37:06.998Z</time></trkpt><trkpt lat="37.53976873514877" lon="14.958784402070131"><ele>249.66666666666666</ele><time>2026-05-01T10:37:07.998Z</time></trkpt><trkpt lat="37.53982257302767" lon="14.95857363037967"><ele>249.33333333333331</ele><time>2026-05-01T10:37:08.998Z</time></trkpt><trkpt lat="37.53987302408995" lon="14.958365727258753"><ele>249.0</ele><time>2026-05-01T10:37:09.998Z</time></trkpt><trkpt lat="37.539915358335556" lon="14.958155345528985"><ele>249.0</ele><time>2026-05-01T10:37:10.998Z</time></trkpt><trkpt lat="37.53996599543565" lon="14.957948112717267"><ele>249.0</ele><time>2026-05-01T10:37:11.998Z</time></trkpt><trkpt lat="37.540021490674704" lon="14.957741037559495"><ele>249.0</ele><time>2026-05-01T10:37:12.998Z</time></trkpt><trkpt lat="37.54008268503856" lon="14.957535148546029"><ele>249.33333333333331</ele><time>2026-05-01T10:37:13.998Z</time></trkpt><trkpt lat="37.540149031087395" lon="14.957329728056907"><ele>249.66666666666666</ele><time>2026-05-01T10:37:14.998Z</time></trkpt><trkpt lat="37.54022173600824" lon="14.95712640864688"><ele>250.0</ele><time>2026-05-01T10:37:15.998Z</time></trkpt><trkpt lat="37.54030126411102" lon="14.956925496491209"><ele>249.66666666666666</ele><time>2026-05-01T10:37:16.998Z</time></trkpt><trkpt lat="37.54038485629055" lon="14.956725070749146"><ele>249.33333333333331</ele><time>2026-05-01T10:37:17.998Z</time></trkpt><trkpt lat="37.540466847514175" lon="14.956519965026008"><ele>249.0</ele><time>2026-05-01T10:37:18.998Z</time></trkpt><trkpt lat="37.54054613857749" lon="14.956315700791798"><ele>249.0</ele><time>2026-05-01T10:37:19.998Z</time></trkpt><trkpt lat="37.54063330613148" lon="14.956114898183326"><ele>249.0</ele><time>2026-05-01T10:37:20.998Z</time></trkpt><trkpt lat="37.540727177038704" lon="14.955918110329838"><ele>249.0</ele><time>2026-05-01T10:37:21.998Z</time></trkpt><trkpt lat="37.54082454667115" lon="14.955726461637418"><ele>248.66666666666669</ele><time>2026-05-01T10:37:22.998Z</time></trkpt><trkpt lat="37.540923962766406" lon="14.95553779801381"><ele>248.33333333333334</ele><time>2026-05-01T10:37:23.998Z</time></trkpt><trkpt lat="37.54102446978825" lon="14.955350605857104"><ele>248.0</ele><time>2026-05-01T10:37:24.997Z</time></trkpt><trkpt lat="37.54112681407496" lon="14.955164629823013"><ele>248.33333333333334</ele><time>2026-05-01T10:37:25.997Z</time></trkpt><trkpt lat="37.541232665818406" lon="14.954981200126092"><ele>248.66666666666669</ele><time>2026-05-01T10:37:26.997Z</time></trkpt><trkpt lat="37.541339716112994" lon="14.954797996745514"><ele>249.0</ele><time>2026-05-01T10:37:27.997Z</time></trkpt><trkpt lat="37.54144653553834" lon="14.954616676128557"><ele>249.0</ele><time>2026-05-01T10:37:28.997Z</time></trkpt><trkpt lat="37.541554127481795" lon="14.954435601382139"><ele>249.0</ele><time>2026-05-01T10:37:29.997Z</time></trkpt><trkpt lat="37.541661888189715" lon="14.954253144286177"><ele>249.0</ele><time>2026-05-01T10:37:30.997Z</time></trkpt><trkpt lat="37.541770593243676" lon="14.954070519216424"><ele>249.0</ele><time>2026-05-01T10:37:31.997Z</time></trkpt><trkpt lat="37.54188170960351" lon="14.953885197074605"><ele>249.0</ele><time>2026-05-01T10:37:33Z</time></trkpt><trkpt lat="37.541990585306216" lon="14.95370293912121"><ele>249.0</ele><time>2026-05-01T10:37:34Z</time></trkpt><trkpt lat="37.54209631724021" lon="14.953521990055805"><ele>248.0</ele><time>2026-05-01T10:37:35Z</time></trkpt><trkpt lat="37.5421995957478" lon="14.953344851299384"><ele>247.0</ele><time>2026-05-01T10:37:36Z</time></trkpt><trkpt lat="37.54230160171313" lon="14.953168807191904"><ele>246.0</ele><time>2026-05-01T10:37:37Z</time></trkpt><trkpt lat="37.542401673062145" lon="14.952992627153465"><ele>246.0</ele><time>2026-05-01T10:37:38Z</time></trkpt><trkpt lat="37.54250395672437" lon="14.952817079659768"><ele>246.0</ele><time>2026-05-01T10:37:39Z</time></trkpt><trkpt lat="37.542602189021935" lon="14.952649163322713"><ele>246.0</ele><time>2026-05-01T10:37:40Z</time></trkpt><trkpt lat="37.54269836932782" lon="14.952482826497022"><ele>246.0</ele><time>2026-05-01T10:37:41Z</time></trkpt><trkpt lat="37.542794963199974" lon="14.952321323475799"><ele>246.0</ele><time>2026-05-01T10:37:42Z</time></trkpt><trkpt lat="37.542892248858394" lon="14.952156881120237"><ele>246.0</ele><time>2026-05-01T10:37:43Z</time></trkpt><trkpt lat="37.54299161014571" lon="14.951992380158432"><ele>246.0</ele><time>2026-05-01T10:37:44Z</time></trkpt><trkpt lat="37.543093045273224" lon="14.951825462084331"><ele>246.0</ele><time>2026-05-01T10:37:45Z</time></trkpt><trkpt lat="37.54319454758197" lon="14.951660796678073"><ele>246.0</ele><time>2026-05-01T10:37:46Z</time></trkpt><trkpt lat="37.543293925308845" lon="14.951494398001248"><ele>246.66666666666669</ele><time>2026-05-01T10:37:47Z</time></trkpt><trkpt lat="37.54339195159664" lon="14.951325340440748"><ele>247.33333333333334</ele><time>2026-05-01T10:37:48Z</time></trkpt><trkpt lat="37.543490705211106" lon="14.951155202108927"><ele>248.0</ele><time>2026-05-01T10:37:49Z</time></trkpt><trkpt lat="37.54359182493951" lon="14.95098472477342"><ele>248.0</ele><time>2026-05-01T10:37:50Z</time></trkpt><trkpt lat="37.5436946877013" lon="14.950814699776"><ele>248.0</ele><time>2026-05-01T10:37:51Z</time></trkpt><trkpt lat="37.54379714384004" lon="14.950641892160213"><ele>248.0</ele><time>2026-05-01T10:37:52Z</time></trkpt><trkpt lat="37.543897437544125" lon="14.950471366764159"><ele>248.0</ele><time>2026-05-01T10:37:53Z</time></trkpt><trkpt lat="37.5439960357352" lon="14.950304301626296"><ele>248.0</ele><time>2026-05-01T10:37:54Z</time></trkpt><trkpt lat="37.544092519786076" lon="14.950137374909326"><ele>248.0</ele><time>2026-05-01T10:37:55Z</time></trkpt><trkpt lat="37.54418699702891" lon="14.94997434706202"><ele>249.0</ele><time>2026-05-01T10:37:56Z</time></trkpt><trkpt lat="37.54428023016087" lon="14.949815993579067"><ele>250.0</ele><time>2026-05-01T10:37:57Z</time></trkpt><trkpt lat="37.54437465007287" lon="14.949654458071345"><ele>251.0</ele><time>2026-05-01T10:37:58Z</time></trkpt><trkpt lat="37.54447249747682" lon="14.949485078949479"><ele>250.66666666666669</ele><time>2026-05-01T10:37:59Z</time></trkpt><trkpt lat="37.54457443313109" lon="14.94931512827907"><ele>250.33333333333331</ele><time>2026-05-01T10:38:00Z</time></trkpt><trkpt lat="37.54467524192893" lon="14.949142618536854"><ele>250.0</ele><time>2026-05-01T10:38:01Z</time></trkpt><trkpt lat="37.544779807778596" lon="14.948969582627129"><ele>250.0</ele><time>2026-05-01T10:38:02Z</time></trkpt><trkpt lat="37.54488318909459" lon="14.948800841843063"><ele>250.0</ele><time>2026-05-01T10:38:03Z</time></trkpt><trkpt lat="37.54498637838263" lon="14.948631820606627"><ele>250.0</ele><time>2026-05-01T10:38:04Z</time></trkpt><trkpt lat="37.545088182856816" lon="14.948461635588862"><ele>250.0</ele><time>2026-05-01T10:38:05Z</time></trkpt><trkpt lat="37.54518885358209" lon="14.948293254765447"><ele>250.0</ele><time>2026-05-01T10:38:06Z</time></trkpt><trkpt lat="37.545288373433095" lon="14.948125219294086"><ele>250.0</ele><time>2026-05-01T10:38:07Z</time></trkpt><trkpt lat="37.54538727302916" lon="14.947959643106323"><ele>249.66666666666666</ele><time>2026-05-01T10:38:07.999Z</time></trkpt><trkpt lat="37.54548581681445" lon="14.947793626936232"><ele>249.33333333333331</ele><time>2026-05-01T10:38:08.999Z</time></trkpt><trkpt lat="37.54558458675291" lon="14.947628965783357"><ele>249.0</ele><time>2026-05-01T10:38:09.999Z</time></trkpt><trkpt lat="37.5456817476072" lon="14.94746520437664"><ele>249.66666666666669</ele><time>2026-05-01T10:38:10.999Z</time></trkpt><trkpt lat="37.54577801121786" lon="14.947301408786485"><ele>250.33333333333334</ele><time>2026-05-01T10:38:11.999Z</time></trkpt><trkpt lat="37.545873732902855" lon="14.947138017891195"><ele>251.0</ele><time>2026-05-01T10:38:12.999Z</time></trkpt><trkpt lat="37.54596764703647" lon="14.946978072865079"><ele>251.0</ele><time>2026-05-01T10:38:13.999Z</time></trkpt><trkpt lat="37.54606148954925" lon="14.946818562458933"><ele>251.0</ele><time>2026-05-01T10:38:14.999Z</time></trkpt><trkpt lat="37.546155893585656" lon="14.946658939994405"><ele>251.0</ele><time>2026-05-01T10:38:15.999Z</time></trkpt><trkpt lat="37.54624989984045" lon="14.946499507656135"><ele>249.66666666666669</ele><time>2026-05-01T10:38:16.999Z</time></trkpt><trkpt lat="37.546345919064095" lon="14.946336751562404"><ele>248.33333333333331</ele><time>2026-05-01T10:38:17.999Z</time></trkpt><trkpt lat="37.54644147612589" lon="14.946169942338921"><ele>247.0</ele><time>2026-05-01T10:38:18.999Z</time></trkpt><trkpt lat="37.546538738348126" lon="14.946005438653913"><ele>247.33333333333331</ele><time>2026-05-01T10:38:19.999Z</time></trkpt><trkpt lat="37.54663720950237" lon="14.945839721649829"><ele>247.66666666666669</ele><time>2026-05-01T10:38:20.999Z</time></trkpt><trkpt lat="37.54673620108934" lon="14.945676445462665"><ele>248.0</ele><time>2026-05-01T10:38:21.999Z</time></trkpt><trkpt lat="37.546835415026344" lon="14.94551514882333"><ele>248.0</ele><time>2026-05-01T10:38:22.999Z</time></trkpt><trkpt lat="37.54693401218639" lon="14.945353736440524"><ele>248.0</ele><time>2026-05-01T10:38:23.999Z</time></trkpt><trkpt lat="37.54703236146767" lon="14.945185215696869"><ele>248.0</ele><time>2026-05-01T10:38:24.999Z</time></trkpt><trkpt lat="37.54712913735845" lon="14.945011254947897"><ele>248.66666666666669</ele><time>2026-05-01T10:38:25.999Z</time></trkpt><trkpt lat="37.54722741887517" lon="14.94483771190291"><ele>249.33333333333331</ele><time>2026-05-01T10:38:26.999Z</time></trkpt><trkpt lat="37.547326586649255" lon="14.94467021626224"><ele>250.0</ele><time>2026-05-01T10:38:27.999Z</time></trkpt><trkpt lat="37.54742519279346" lon="14.94450810792288"><ele>250.0</ele><time>2026-05-01T10:38:28.999Z</time></trkpt><trkpt lat="37.54752204505835" lon="14.944348041192688"><ele>250.0</ele><time>2026-05-01T10:38:29.999Z</time></trkpt><trkpt lat="37.54762208377451" lon="14.94418711211405"><ele>250.0</ele><time>2026-05-01T10:38:30.999Z</time></trkpt><trkpt lat="37.54771872095495" lon="14.944024832967823"><ele>250.0</ele><time>2026-05-01T10:38:31.999Z</time></trkpt><trkpt lat="37.54781568038048" lon="14.943859506599606"><ele>250.0</ele><time>2026-05-01T10:38:32.999Z</time></trkpt><trkpt lat="37.547908902023536" lon="14.943693947442629"><ele>250.0</ele><time>2026-05-01T10:38:33.999Z</time></trkpt><trkpt lat="37.54800345984973" lon="14.94352522147721"><ele>251.66666666666666</ele><time>2026-05-01T10:38:34.999Z</time></trkpt><trkpt lat="37.548101643953125" lon="14.943355135455256"><ele>253.33333333333331</ele><time>2026-05-01T10:38:35.999Z</time></trkpt><trkpt lat="37.548202150463105" lon="14.943183982824296"><ele>255.0</ele><time>2026-05-01T10:38:36.999Z</time></trkpt><trkpt lat="37.548305291904065" lon="14.943010260022138"><ele>255.0</ele><time>2026-05-01T10:38:37.999Z</time></trkpt><trkpt lat="37.54841017324874" lon="14.942835032759847"><ele>255.0</ele><time>2026-05-01T10:38:38.999Z</time></trkpt><trkpt lat="37.54851467311839" lon="14.942656716082624"><ele>255.0</ele><time>2026-05-01T10:38:39.999Z</time></trkpt><trkpt lat="37.54861965475804" lon="14.94247640119641"><ele>256.0</ele><time>2026-05-01T10:38:40.999Z</time></trkpt><trkpt lat="37.54872546699301" lon="14.942294584864321"><ele>257.0</ele><time>2026-05-01T10:38:41.999Z</time></trkpt><trkpt lat="37.54883573635197" lon="14.942116052304534"><ele>258.0</ele><time>2026-05-01T10:38:42.999Z</time></trkpt><trkpt lat="37.548941916717645" lon="14.94193764757278"><ele>258.0</ele><time>2026-05-01T10:38:43.999Z</time></trkpt><trkpt lat="37.54904575819533" lon="14.941756469129766"><ele>258.0</ele><time>2026-05-01T10:38:44.999Z</time></trkpt><trkpt lat="37.549150806575085" lon="14.94157346863121"><ele>258.0</ele><time>2026-05-01T10:38:45.999Z</time></trkpt><trkpt lat="37.54925868421343" lon="14.941394755488039"><ele>258.0</ele><time>2026-05-01T10:38:46.999Z</time></trkpt><trkpt lat="37.54936493839048" lon="14.941211787861256"><ele>258.0</ele><time>2026-05-01T10:38:47.999Z</time></trkpt><trkpt lat="37.549474173739924" lon="14.941031095120191"><ele>258.0</ele><time>2026-05-01T10:38:48.998Z</time></trkpt><trkpt lat="37.5495830341974" lon="14.94085374230601"><ele>260.3333333333333</ele><time>2026-05-01T10:38:49.998Z</time></trkpt><trkpt lat="37.54968902241216" lon="14.940677595527161"><ele>262.66666666666663</ele><time>2026-05-01T10:38:50.998Z</time></trkpt><trkpt lat="37.54979235703218" lon="14.940501083232682"><ele>265.0</ele><time>2026-05-01T10:38:51.998Z</time></trkpt><trkpt lat="37.54989717479238" lon="14.940323385396582"><ele>265.0</ele><time>2026-05-01T10:38:52.998Z</time></trkpt><trkpt lat="37.550000410421475" lon="14.940149163601216"><ele>265.0</ele><time>2026-05-01T10:38:53.998Z</time></trkpt><trkpt lat="37.55010246153297" lon="14.939973019112148"><ele>265.0</ele><time>2026-05-01T10:38:54.998Z</time></trkpt><trkpt lat="37.55020422609436" lon="14.939797161030155"><ele>264.66666666666663</ele><time>2026-05-01T10:38:55.998Z</time></trkpt><trkpt lat="37.55030769282486" lon="14.93962359691153"><ele>264.3333333333333</ele><time>2026-05-01T10:38:56.998Z</time></trkpt><trkpt lat="37.55040955943387" lon="14.939449301018938"><ele>264.0</ele><time>2026-05-01T10:38:57.998Z</time></trkpt><trkpt lat="37.55051284868386" lon="14.939273608968909"><ele>266.6666666666667</ele><time>2026-05-01T10:38:58.998Z</time></trkpt><trkpt lat="37.55061583282911" lon="14.939098551671528"><ele>269.33333333333337</ele><time>2026-05-01T10:38:59.998Z</time></trkpt><trkpt lat="37.550717964918654" lon="14.938920664967918"><ele>272.0</ele><time>2026-05-01T10:39:00.998Z</time></trkpt><trkpt lat="37.550821067681056" lon="14.938744517022132"><ele>272.0</ele><time>2026-05-01T10:39:01.998Z</time></trkpt><trkpt lat="37.55092541921536" lon="14.938569452015027"><ele>272.0</ele><time>2026-05-01T10:39:02.998Z</time></trkpt><trkpt lat="37.55103138289489" lon="14.938395267306886"><ele>272.0</ele><time>2026-05-01T10:39:03.998Z</time></trkpt><trkpt lat="37.55113637108353" lon="14.938223757480289"><ele>273.33333333333337</ele><time>2026-05-01T10:39:04.998Z</time></trkpt><trkpt lat="37.55123821560222" lon="14.938054013852144"><ele>274.6666666666667</ele><time>2026-05-01T10:39:05.998Z</time></trkpt><trkpt lat="37.55133603274639" lon="14.937890835207494"><ele>276.0</ele><time>2026-05-01T10:39:06.998Z</time></trkpt><trkpt lat="37.55143153305201" lon="14.937730395739028"><ele>276.0</ele><time>2026-05-01T10:39:07.998Z</time></trkpt><trkpt lat="37.55152151842104" lon="14.937577188586179"><ele>276.0</ele><time>2026-05-01T10:39:08.998Z</time></trkpt><trkpt lat="37.551607826879696" lon="14.937429563355206"><ele>276.0</ele><time>2026-05-01T10:39:09.998Z</time></trkpt><trkpt lat="37.551690936329464" lon="14.937288585360477"><ele>276.0</ele><time>2026-05-01T10:39:10.998Z</time></trkpt><trkpt lat="37.551775609927596" lon="14.937146813011893"><ele>276.5</ele><time>2026-05-01T10:39:11.998Z</time></trkpt><trkpt lat="37.55186049187545" lon="14.937003801271779"><ele>277.0</ele><time>2026-05-01T10:39:12.998Z</time></trkpt><trkpt lat="37.551942123355424" lon="14.936863821926211"><ele>277.5</ele><time>2026-05-01T10:39:13.998Z</time></trkpt><trkpt lat="37.552021469166434" lon="14.936722737399869"><ele>278.0</ele><time>2026-05-01T10:39:14.998Z</time></trkpt><trkpt lat="37.55210522350264" lon="14.93657759670565"><ele>278.0</ele><time>2026-05-01T10:39:15.998Z</time></trkpt><trkpt lat="37.552192460326545" lon="14.936430908508253"><ele>278.0</ele><time>2026-05-01T10:39:16.998Z</time></trkpt><trkpt lat="37.55228180971044" lon="14.936281010571113"><ele>278.0</ele><time>2026-05-01T10:39:17.998Z</time></trkpt><trkpt lat="37.55237250322883" lon="14.936126893413801"><ele>278.0</ele><time>2026-05-01T10:39:18.998Z</time></trkpt><trkpt lat="37.552464903265516" lon="14.935969470324423"><ele>277.6666666666667</ele><time>2026-05-01T10:39:19.998Z</time></trkpt><trkpt lat="37.55255543935968" lon="14.935810939374054"><ele>277.3333333333333</ele><time>2026-05-01T10:39:20.998Z</time></trkpt><trkpt lat="37.552649561185575" lon="14.935650189240192"><ele>277.0</ele><time>2026-05-01T10:39:21.998Z</time></trkpt><trkpt lat="37.5527457437472" lon="14.935488560138635"><ele>277.0</ele><time>2026-05-01T10:39:22.998Z</time></trkpt><trkpt lat="37.55284132349657" lon="14.935326625447962"><ele>277.0</ele><time>2026-05-01T10:39:23.998Z</time></trkpt><trkpt lat="37.55293801197129" lon="14.935163452709258"><ele>277.0</ele><time>2026-05-01T10:39:24.998Z</time></trkpt><trkpt lat="37.55303491994952" lon="14.934999766761505"><ele>279.3333333333333</ele><time>2026-05-01T10:39:25.998Z</time></trkpt><trkpt lat="37.55312855641617" lon="14.934835045342476"><ele>281.6666666666667</ele><time>2026-05-01T10:39:26.998Z</time></trkpt><trkpt lat="37.55322110717976" lon="14.93467146882985"><ele>284.0</ele><time>2026-05-01T10:39:27.998Z</time></trkpt><trkpt lat="37.55331892084805" lon="14.934514066320254"><ele>284.0</ele><time>2026-05-01T10:39:28.998Z</time></trkpt><trkpt lat="37.553413773145955" lon="14.934362086432149"><ele>284.0</ele><time>2026-05-01T10:39:29.997Z</time></trkpt><trkpt lat="37.55350632417849" lon="14.934212605196556"><ele>284.0</ele><time>2026-05-01T10:39:30.997Z</time></trkpt><trkpt lat="37.55359735382956" lon="14.934056711044354"><ele>283.33333333333337</ele><time>2026-05-01T10:39:31.997Z</time></trkpt><trkpt lat="37.5536867290589" lon="14.933897370469927"><ele>282.6666666666667</ele><time>2026-05-01T10:39:32.997Z</time></trkpt><trkpt lat="37.55377551476393" lon="14.933740857640617"><ele>282.0</ele><time>2026-05-01T10:39:33.997Z</time></trkpt><trkpt lat="37.553870146808094" lon="14.933583931915143"><ele>284.3333333333333</ele><time>2026-05-01T10:39:34.997Z</time></trkpt><trkpt lat="37.553965906074076" lon="14.933431663495977"><ele>286.66666666666663</ele><time>2026-05-01T10:39:35.997Z</time></trkpt><trkpt lat="37.55406332255288" lon="14.933278292909419"><ele>289.0</ele><time>2026-05-01T10:39:36.997Z</time></trkpt><trkpt lat="37.55415678268982" lon="14.933124599516285"><ele>289.0</ele><time>2026-05-01T10:39:37.997Z</time></trkpt><trkpt lat="37.5542506333085" lon="14.932965625319024"><ele>289.0</ele><time>2026-05-01T10:39:39Z</time></trkpt><trkpt lat="37.55434330382542" lon="14.932808317462412"><ele>289.0</ele><time>2026-05-01T10:39:40Z</time></trkpt><trkpt lat="37.55443654626209" lon="14.932650313147754"><ele>290.3333333333333</ele><time>2026-05-01T10:39:41Z</time></trkpt><trkpt lat="37.554528752548606" lon="14.9324914416655"><ele>291.6666666666667</ele><time>2026-05-01T10:39:42Z</time></trkpt><trkpt lat="37.55461899300614" lon="14.932332290170452"><ele>293.0</ele><time>2026-05-01T10:39:43Z</time></trkpt><trkpt lat="37.554709814040265" lon="14.932175682584482"><ele>293.0</ele><time>2026-05-01T10:39:44Z</time></trkpt><trkpt lat="37.5547975686108" lon="14.932027312027"><ele>293.0</ele><time>2026-05-01T10:39:45Z</time></trkpt><trkpt lat="37.55488344046264" lon="14.931874706025354"><ele>293.0</ele><time>2026-05-01T10:39:46Z</time></trkpt><trkpt lat="37.554970769217746" lon="14.931720292250114"><ele>293.0</ele><time>2026-05-01T10:39:47Z</time></trkpt><trkpt lat="37.55505742224799" lon="14.931564839757057"><ele>293.0</ele><time>2026-05-01T10:39:48Z</time></trkpt><trkpt lat="37.55514870980069" lon="14.931410995113113"><ele>293.0</ele><time>2026-05-01T10:39:49Z</time></trkpt><trkpt lat="37.55524357243017" lon="14.931256913292167"><ele>293.0</ele><time>2026-05-01T10:39:50Z</time></trkpt><trkpt lat="37.55533693248778" lon="14.931100309957467"><ele>297.0</ele><time>2026-05-01T10:39:51Z</time></trkpt><trkpt lat="37.555430992253186" lon="14.930937796899524"><ele>301.0</ele><time>2026-05-01T10:39:52Z</time></trkpt><trkpt lat="37.555527031597755" lon="14.930777449165321"><ele>305.0</ele><time>2026-05-01T10:39:53Z</time></trkpt><trkpt lat="37.55562517400612" lon="14.930618837183937"><ele>305.0</ele><time>2026-05-01T10:39:54Z</time></trkpt><trkpt lat="37.55572506964706" lon="14.930456017354903"><ele>305.0</ele><time>2026-05-01T10:39:55Z</time></trkpt><trkpt lat="37.55582391154069" lon="14.930288209108975"><ele>305.0</ele><time>2026-05-01T10:39:56Z</time></trkpt><trkpt lat="37.555923528731185" lon="14.930116807170878"><ele>304.6666666666667</ele><time>2026-05-01T10:39:57Z</time></trkpt><trkpt lat="37.55602348307481" lon="14.929945681212386"><ele>304.3333333333333</ele><time>2026-05-01T10:39:58Z</time></trkpt><trkpt lat="37.55612733289249" lon="14.92976998543495"><ele>304.0</ele><time>2026-05-01T10:39:59Z</time></trkpt><trkpt lat="37.55622870146009" lon="14.929594865518109"><ele>305.0</ele><time>2026-05-01T10:40:00Z</time></trkpt><trkpt lat="37.55633071888794" lon="14.929418473463185"><ele>306.0</ele><time>2026-05-01T10:40:01Z</time></trkpt><trkpt lat="37.556431886161135" lon="14.929243191882431"><ele>307.0</ele><time>2026-05-01T10:40:02Z</time></trkpt><trkpt lat="37.55653335646477" lon="14.92906703113395"><ele>307.0</ele><time>2026-05-01T10:40:03Z</time></trkpt><trkpt lat="37.55663574485962" lon="14.92889137543453"><ele>307.0</ele><time>2026-05-01T10:40:04Z</time></trkpt><trkpt lat="37.55674003241061" lon="14.928715962078414"><ele>307.0</ele><time>2026-05-01T10:40:05Z</time></trkpt><trkpt lat="37.55684339667987" lon="14.92854111149917"><ele>307.0</ele><time>2026-05-01T10:40:06Z</time></trkpt><trkpt lat="37.55694694640462" lon="14.928365612352748"><ele>307.0</ele><time>2026-05-01T10:40:07Z</time></trkpt><trkpt lat="37.55705046059053" lon="14.928187353159553"><ele>307.0</ele><time>2026-05-01T10:40:08Z</time></trkpt><trkpt lat="37.557154496296235" lon="14.928009205159277"><ele>307.3333333333333</ele><time>2026-05-01T10:40:09Z</time></trkpt><trkpt lat="37.55725931368412" lon="14.927834469497984"><ele>307.6666666666667</ele><time>2026-05-01T10:40:10Z</time></trkpt><trkpt lat="37.557364687887535" lon="14.927659287550293"><ele>308.0</ele><time>2026-05-01T10:40:11Z</time></trkpt><trkpt lat="37.55747041615319" lon="14.927481456881354"><ele>308.0</ele><time>2026-05-01T10:40:12Z</time></trkpt><trkpt lat="37.557574320846875" lon="14.927302337907282"><ele>308.0</ele><time>2026-05-01T10:40:12.999Z</time></trkpt><trkpt lat="37.557678721124745" lon="14.927121416787621"><ele>308.0</ele><time>2026-05-01T10:40:13.999Z</time></trkpt><trkpt lat="37.55778471781716" lon="14.9269424900598"><ele>308.33333333333337</ele><time>2026-05-01T10:40:14.999Z</time></trkpt><trkpt lat="37.557892046291414" lon="14.92676521871429"><ele>308.6666666666667</ele><time>2026-05-01T10:40:15.999Z</time></trkpt><trkpt lat="37.55799809982241" lon="14.92658600173137"><ele>309.0</ele><time>2026-05-01T10:40:16.999Z</time></trkpt><trkpt lat="37.558104232044506" lon="14.926404588805852"><ele>309.3333333333333</ele><time>2026-05-01T10:40:17.999Z</time></trkpt><trkpt lat="37.558211567071524" lon="14.926223871141783"><ele>309.66666666666663</ele><time>2026-05-01T10:40:18.999Z</time></trkpt><trkpt lat="37.5583208715412" lon="14.92604169059582"><ele>310.0</ele><time>2026-05-01T10:40:19.999Z</time></trkpt><trkpt lat="37.55843120476422" lon="14.925859113737886"><ele>309.66666666666663</ele><time>2026-05-01T10:40:20.999Z</time></trkpt><trkpt lat="37.55853968298752" lon="14.925676360857826"><ele>309.3333333333333</ele><time>2026-05-01T10:40:21.999Z</time></trkpt><trkpt lat="37.5586474873734" lon="14.925492820071149"><ele>309.0</ele><time>2026-05-01T10:40:22.999Z</time></trkpt><trkpt lat="37.55875463341647" lon="14.925308370511491"><ele>309.0</ele><time>2026-05-01T10:40:23.999Z</time></trkpt><trkpt lat="37.55886320426586" lon="14.925124313617419"><ele>309.0</ele><time>2026-05-01T10:40:24.999Z</time></trkpt><trkpt lat="37.55897272205191" lon="14.924938979035966"><ele>309.0</ele><time>2026-05-01T10:40:25.999Z</time></trkpt><trkpt lat="37.559081879641255" lon="14.924755570618355"><ele>308.6666666666667</ele><time>2026-05-01T10:40:26.999Z</time></trkpt><trkpt lat="37.55918889928568" lon="14.924573943768008"><ele>308.33333333333337</ele><time>2026-05-01T10:40:27.999Z</time></trkpt><trkpt lat="37.559297629078245" lon="14.92439229982468"><ele>308.0</ele><time>2026-05-01T10:40:28.999Z</time></trkpt><trkpt lat="37.55940555165673" lon="14.92421015367925"><ele>307.33333333333337</ele><time>2026-05-01T10:40:29.999Z</time></trkpt><trkpt lat="37.55951193355013" lon="14.9240280760154"><ele>306.6666666666667</ele><time>2026-05-01T10:40:30.999Z</time></trkpt><trkpt lat="37.55962031466368" lon="14.923845491758097"><ele>306.0</ele><time>2026-05-01T10:40:31.999Z</time></trkpt><trkpt lat="37.559728390703576" lon="14.92366071821867"><ele>306.0</ele><time>2026-05-01T10:40:32.999Z</time></trkpt><trkpt lat="37.559838583684616" lon="14.923475536464112"><ele>306.0</ele><time>2026-05-01T10:40:33.999Z</time></trkpt><trkpt lat="37.559949802694575" lon="14.923291339688063"><ele>306.0</ele><time>2026-05-01T10:40:34.999Z</time></trkpt><trkpt lat="37.56006106196916" lon="14.92310459927054"><ele>305.3333333333333</ele><time>2026-05-01T10:40:35.999Z</time></trkpt><trkpt lat="37.56017272454299" lon="14.922915127322629"><ele>304.66666666666663</ele><time>2026-05-01T10:40:36.999Z</time></trkpt><trkpt lat="37.560285702819286" lon="14.922724873141101"><ele>304.0</ele><time>2026-05-01T10:40:37.999Z</time></trkpt><trkpt lat="37.560399382180194" lon="14.9225351631724"><ele>305.66666666666663</ele><time>2026-05-01T10:40:38.999Z</time></trkpt><trkpt lat="37.56051518944232" lon="14.922347579686093"><ele>307.3333333333333</ele><time>2026-05-01T10:40:39.999Z</time></trkpt><trkpt lat="37.56063253238253" lon="14.92216238113813"><ele>309.0</ele><time>2026-05-01T10:40:40.999Z</time></trkpt><trkpt lat="37.560755819386024" lon="14.92198207673148"><ele>309.0</ele><time>2026-05-01T10:40:41.999Z</time></trkpt><trkpt lat="37.56088761537325" lon="14.921805705320265"><ele>309.0</ele><time>2026-05-01T10:40:42.999Z</time></trkpt><trkpt lat="37.561022384684236" lon="14.921635321912666"><ele>309.0</ele><time>2026-05-01T10:40:43.999Z</time></trkpt><trkpt lat="37.561162325733605" lon="14.921467457888923"><ele>307.6666666666667</ele><time>2026-05-01T10:40:44.999Z</time></trkpt><trkpt lat="37.56130499014653" lon="14.921307225517902"><ele>306.33333333333337</ele><time>2026-05-01T10:40:45.999Z</time></trkpt><trkpt lat="37.56145061496359" lon="14.921154388767945"><ele>305.0</ele><time>2026-05-01T10:40:46.999Z</time></trkpt><trkpt lat="37.561601368666" lon="14.921008618963794"><ele>304.0</ele><time>2026-05-01T10:40:47.999Z</time></trkpt><trkpt lat="37.56175847452366" lon="14.920871462241653"><ele>303.0</ele><time>2026-05-01T10:40:48.999Z</time></trkpt><trkpt lat="37.561920836694284" lon="14.920740008486938"><ele>302.0</ele><time>2026-05-01T10:40:49.999Z</time></trkpt><trkpt lat="37.56208430675666" lon="14.920615170955404"><ele>302.0</ele><time>2026-05-01T10:40:50.999Z</time></trkpt><trkpt lat="37.56225286419528" lon="14.920484414377764"><ele>302.0</ele><time>2026-05-01T10:40:51.999Z</time></trkpt><trkpt lat="37.56242014638114" lon="14.920350445766893"><ele>302.0</ele><time>2026-05-01T10:40:52.999Z</time></trkpt><trkpt lat="37.562585745448125" lon="14.920216687352811"><ele>302.0</ele><time>2026-05-01T10:40:53.998Z</time></trkpt><trkpt lat="37.56275368085531" lon="14.920085029165008"><ele>302.0</ele><time>2026-05-01T10:40:54.998Z</time></trkpt><trkpt lat="37.56292609555944" lon="14.91994762928457"><ele>302.0</ele><time>2026-05-01T10:40:55.998Z</time></trkpt><trkpt lat="37.56309746014925" lon="14.91980519089067"><ele>301.6666666666667</ele><time>2026-05-01T10:40:56.998Z</time></trkpt><trkpt lat="37.563269987399345" lon="14.91965942415823"><ele>301.3333333333333</ele><time>2026-05-01T10:40:57.998Z</time></trkpt><trkpt lat="37.563446053332314" lon="14.919519103530806"><ele>301.0</ele><time>2026-05-01T10:40:58.998Z</time></trkpt><trkpt lat="37.56362669933766" lon="14.919382104649886"><ele>300.66666666666663</ele><time>2026-05-01T10:40:59.998Z</time></trkpt><trkpt lat="37.563808365962956" lon="14.919241410445858"><ele>300.3333333333333</ele><time>2026-05-01T10:41:00.998Z</time></trkpt><trkpt lat="37.56398460860709" lon="14.919101453608636"><ele>300.0</ele><time>2026-05-01T10:41:01.998Z</time></trkpt><trkpt lat="37.56415165421435" lon="14.918967016089713"><ele>298.3333333333333</ele><time>2026-05-01T10:41:02.998Z</time></trkpt><trkpt lat="37.56431592482876" lon="14.918830830176203"><ele>296.66666666666663</ele><time>2026-05-01T10:41:03.998Z</time></trkpt><trkpt lat="37.56447969101764" lon="14.918694799507355"><ele>295.0</ele><time>2026-05-01T10:41:04.998Z</time></trkpt><trkpt lat="37.56464288297854" lon="14.918559384297545"><ele>294.0</ele><time>2026-05-01T10:41:05.998Z</time></trkpt><trkpt lat="37.56480360616485" lon="14.918424433079894"><ele>293.0</ele><time>2026-05-01T10:41:06.998Z</time></trkpt><trkpt lat="37.56496179779918" lon="14.918293262335464"><ele>292.0</ele><time>2026-05-01T10:41:07.998Z</time></trkpt><trkpt lat="37.56512066975216" lon="14.918157787130403"><ele>288.0</ele><time>2026-05-01T10:41:08.998Z</time></trkpt><trkpt lat="37.565279011760275" lon="14.918023977347532"><ele>284.0</ele><time>2026-05-01T10:41:09.998Z</time></trkpt><trkpt lat="37.565439494467576" lon="14.9178931540403"><ele>280.0</ele><time>2026-05-01T10:41:10.998Z</time></trkpt><trkpt lat="37.56560137364807" lon="14.917766727986855"><ele>279.66666666666663</ele><time>2026-05-01T10:41:11.998Z</time></trkpt><trkpt lat="37.565763459034194" lon="14.917642409018418"><ele>279.3333333333333</ele><time>2026-05-01T10:41:12.998Z</time></trkpt><trkpt lat="37.56592927594277" lon="14.917520751765972"><ele>279.0</ele><time>2026-05-01T10:41:13.998Z</time></trkpt><trkpt lat="37.56609724570453" lon="14.91740986753405"><ele>278.6666666666667</ele><time>2026-05-01T10:41:14.998Z</time></trkpt><trkpt lat="37.56626785002529" lon="14.917303815479409"><ele>278.33333333333337</ele><time>2026-05-01T10:41:15.998Z</time></trkpt><trkpt lat="37.56644195723464" lon="14.917209448354278"><ele>278.0</ele><time>2026-05-01T10:41:16.998Z</time></trkpt><trkpt lat="37.5666131451987" lon="14.917130484266178"><ele>278.0</ele><time>2026-05-01T10:41:17.998Z</time></trkpt><trkpt lat="37.56678505146546" lon="14.917065602515256"><ele>278.0</ele><time>2026-05-01T10:41:18.998Z</time></trkpt><trkpt lat="37.56695603175771" lon="14.917007876783265"><ele>278.0</ele><time>2026-05-01T10:41:19.998Z</time></trkpt><trkpt lat="37.567124003420936" lon="14.916957303277263"><ele>278.33333333333337</ele><time>2026-05-01T10:41:20.998Z</time></trkpt><trkpt lat="37.567290716439324" lon="14.916908467941974"><ele>278.6666666666667</ele><time>2026-05-01T10:41:21.998Z</time></trkpt><trkpt lat="37.5674558803058" lon="14.916864764044753"><ele>279.0</ele><time>2026-05-01T10:41:22.998Z</time></trkpt><trkpt lat="37.56762882291848" lon="14.916826279779634"><ele>279.0</ele><time>2026-05-01T10:41:23.998Z</time></trkpt><trkpt lat="37.5678044413528" lon="14.91678454219285"><ele>279.0</ele><time>2026-05-01T10:41:24.998Z</time></trkpt><trkpt lat="37.56797985809705" lon="14.916739955723369"><ele>279.0</ele><time>2026-05-01T10:41:25.998Z</time></trkpt><trkpt lat="37.56815781372989" lon="14.91669154959505"><ele>278.6666666666667</ele><time>2026-05-01T10:41:26.998Z</time></trkpt><trkpt lat="37.56833413185164" lon="14.916640081930021"><ele>278.33333333333337</ele><time>2026-05-01T10:41:27.998Z</time></trkpt><trkpt lat="37.56850859277817" lon="14.91658668654953"><ele>278.0</ele><time>2026-05-01T10:41:28.998Z</time></trkpt><trkpt lat="37.568685283222635" lon="14.916537861063205"><ele>280.6666666666667</ele><time>2026-05-01T10:41:29.998Z</time></trkpt><trkpt lat="37.568861697657695" lon="14.916491921418253"><ele>283.3333333333333</ele><time>2026-05-01T10:41:30.998Z</time></trkpt><trkpt lat="37.569033777524325" lon="14.916445919496875"><ele>286.0</ele><time>2026-05-01T10:41:31.998Z</time></trkpt><trkpt lat="37.56920754576999" lon="14.91640066491466"><ele>286.0</ele><time>2026-05-01T10:41:32.998Z</time></trkpt><trkpt lat="37.569383621743036" lon="14.916355368598571"><ele>286.0</ele><time>2026-05-01T10:41:33.998Z</time></trkpt><trkpt lat="37.5695601598267" lon="14.916306321047028"><ele>286.0</ele><time>2026-05-01T10:41:34.998Z</time></trkpt><trkpt lat="37.56972799089181" lon="14.916254792754073"><ele>286.0</ele><time>2026-05-01T10:41:35.997Z</time></trkpt><trkpt lat="37.56988807865267" lon="14.916194850440402"><ele>286.0</ele><time>2026-05-01T10:41:36.997Z</time></trkpt><trkpt lat="37.57004624636606" lon="14.9161414219287"><ele>286.0</ele><time>2026-05-01T10:41:37.997Z</time></trkpt><trkpt lat="37.57020014544135" lon="14.91610071622879"><ele>286.0</ele><time>2026-05-01T10:41:38.997Z</time></trkpt><trkpt lat="37.57034984480618" lon="14.91606917116878"><ele>286.0</ele><time>2026-05-01T10:41:39.997Z</time></trkpt><trkpt lat="37.57049810659065" lon="14.916047725829845"><ele>286.0</ele><time>2026-05-01T10:41:40.997Z</time></trkpt><trkpt lat="37.57064273583611" lon="14.91603527828113"><ele>286.0</ele><time>2026-05-01T10:41:41.997Z</time></trkpt><trkpt lat="37.57078932845085" lon="14.916036110926797"><ele>285.0</ele><time>2026-05-01T10:41:42.997Z</time></trkpt><trkpt lat="37.57094344417744" lon="14.91604965274022"><ele>284.0</ele><time>2026-05-01T10:41:43.997Z</time></trkpt><trkpt lat="37.57109998216197" lon="14.916080719409123"><ele>283.0</ele><time>2026-05-01T10:41:45Z</time></trkpt><trkpt lat="37.57125775356691" lon="14.916121152079514"><ele>282.66666666666663</ele><time>2026-05-01T10:41:46Z</time></trkpt><trkpt lat="37.57141847253725" lon="14.916165205684253"><ele>282.3333333333333</ele><time>2026-05-01T10:41:47Z</time></trkpt><trkpt lat="37.57157907332864" lon="14.91621080085287"><ele>282.0</ele><time>2026-05-01T10:41:48Z</time></trkpt><trkpt lat="37.57174044908907" lon="14.91625945342657"><ele>282.0</ele><time>2026-05-01T10:41:49Z</time></trkpt><trkpt lat="37.57189608785325" lon="14.916312019572436"><ele>282.0</ele><time>2026-05-01T10:41:50Z</time></trkpt><trkpt lat="37.572055465615925" lon="14.916361774350369"><ele>282.0</ele><time>2026-05-01T10:41:51Z</time></trkpt><trkpt lat="37.572196652413005" lon="14.916400036457224"><ele>281.75</ele><time>2026-05-01T10:41:52Z</time></trkpt><trkpt lat="37.57232216847953" lon="14.91644070997136"><ele>281.5</ele><time>2026-05-01T10:41:53Z</time></trkpt><trkpt lat="37.57243871061437" lon="14.916472113856393"><ele>281.25</ele><time>2026-05-01T10:41:54Z</time></trkpt><trkpt lat="37.57257694986287" lon="14.916525676417875"><ele>281.0</ele><time>2026-05-01T10:41:55Z</time></trkpt><trkpt lat="37.5727012532921" lon="14.91656441609352"><ele>281.0</ele><time>2026-05-01T10:41:56Z</time></trkpt><trkpt lat="37.57282318888332" lon="14.916599466150348"><ele>281.0</ele><time>2026-05-01T10:41:57Z</time></trkpt><trkpt lat="37.57295067914266" lon="14.916638221050029"><ele>281.0</ele><time>2026-05-01T10:41:58Z</time></trkpt><trkpt lat="37.5730797736225" lon="14.916680565093905"><ele>281.0</ele><time>2026-05-01T10:41:59Z</time></trkpt><trkpt lat="37.573210261649685" lon="14.916723534123904"><ele>285.0</ele><time>2026-05-01T10:42:00Z</time></trkpt><trkpt lat="37.57334099212828" lon="14.916766995514203"><ele>289.0</ele><time>2026-05-01T10:42:01Z</time></trkpt><trkpt lat="37.57346965620469" lon="14.9168095115287"><ele>293.0</ele><time>2026-05-01T10:42:02Z</time></trkpt><trkpt lat="37.57360467174578" lon="14.916857260387276"><ele>297.0</ele><time>2026-05-01T10:42:03Z</time></trkpt><trkpt lat="37.57373698816489" lon="14.916905931476316"><ele>297.0</ele><time>2026-05-01T10:42:04Z</time></trkpt><trkpt lat="37.57387185854359" lon="14.916961581374807"><ele>297.0</ele><time>2026-05-01T10:42:05Z</time></trkpt><trkpt lat="37.57400133358188" lon="14.917012842169987"><ele>297.0</ele><time>2026-05-01T10:42:06Z</time></trkpt><trkpt lat="37.57413524842" lon="14.917069057880344"><ele>297.0</ele><time>2026-05-01T10:42:07Z</time></trkpt><trkpt lat="37.57426497335573" lon="14.917129028453163"><ele>297.0</ele><time>2026-05-01T10:42:08Z</time></trkpt><trkpt lat="37.5743896407463" lon="14.917201544054025"><ele>297.0</ele><time>2026-05-01T10:42:09Z</time></trkpt><trkpt lat="37.57451462155715" lon="14.917281941609358"><ele>297.0</ele><time>2026-05-01T10:42:10Z</time></trkpt><trkpt lat="37.57463985141323" lon="14.917358521869247"><ele>297.0</ele><time>2026-05-01T10:42:11Z</time></trkpt><trkpt lat="37.574770560562186" lon="14.917436353776734"><ele>297.25</ele><time>2026-05-01T10:42:12Z</time></trkpt><trkpt lat="37.57490278774711" lon="14.917507315411342"><ele>297.5</ele><time>2026-05-01T10:42:13Z</time></trkpt><trkpt lat="37.57502899947677" lon="14.917577786699857"><ele>297.75</ele><time>2026-05-01T10:42:14Z</time></trkpt><trkpt lat="37.57515975538191" lon="14.917649531080055"><ele>298.0</ele><time>2026-05-01T10:42:15Z</time></trkpt><trkpt lat="37.57528727124387" lon="14.917722452465547"><ele>298.75</ele><time>2026-05-01T10:42:16Z</time></trkpt><trkpt lat="37.57541003301751" lon="14.917786885160835"><ele>299.5</ele><time>2026-05-01T10:42:17Z</time></trkpt><trkpt lat="37.575534469110046" lon="14.917855673090596"><ele>300.25</ele><time>2026-05-01T10:42:18Z</time></trkpt><trkpt lat="37.575657225020876" lon="14.917920216977091"><ele>301.0</ele><time>2026-05-01T10:42:18.999Z</time></trkpt><trkpt lat="37.57578277197985" lon="14.917992839073536"><ele>301.0</ele><time>2026-05-01T10:42:19.999Z</time></trkpt><trkpt lat="37.575912400104464" lon="14.918064998900363"><ele>301.0</ele><time>2026-05-01T10:42:20.999Z</time></trkpt><trkpt lat="37.576044991892694" lon="14.918136842402491"><ele>301.0</ele><time>2026-05-01T10:42:21.999Z</time></trkpt><trkpt lat="37.57617666395305" lon="14.918207792218118"><ele>301.0</ele><time>2026-05-01T10:42:22.999Z</time></trkpt><trkpt lat="37.57631061885608" lon="14.918283693673164"><ele>300.75</ele><time>2026-05-01T10:42:23.999Z</time></trkpt><trkpt lat="37.57643677172129" lon="14.918354484989775"><ele>300.5</ele><time>2026-05-01T10:42:24.999Z</time></trkpt><trkpt lat="37.576558217139244" lon="14.918426318317348"><ele>300.25</ele><time>2026-05-01T10:42:25.999Z</time></trkpt><trkpt lat="37.576681836255055" lon="14.91849890023448"><ele>300.0</ele><time>2026-05-01T10:42:26.999Z</time></trkpt><trkpt lat="37.57680306642535" lon="14.918567120658718"><ele>300.75</ele><time>2026-05-01T10:42:27.999Z</time></trkpt><trkpt lat="37.57691191524132" lon="14.91862418272575"><ele>301.5</ele><time>2026-05-01T10:42:28.999Z</time></trkpt><trkpt lat="37.57703860657516" lon="14.918686702475654"><ele>302.25</ele><time>2026-05-01T10:42:29.999Z</time></trkpt><trkpt lat="37.577159591220685" lon="14.918737514064727"><ele>303.0</ele><time>2026-05-01T10:42:30.999Z</time></trkpt><trkpt lat="37.577280817556094" lon="14.918778992219941"><ele>303.5</ele><time>2026-05-01T10:42:31.999Z</time></trkpt><trkpt lat="37.57739857802859" lon="14.918816561103801"><ele>304.0</ele><time>2026-05-01T10:42:32.999Z</time></trkpt><trkpt lat="37.57751702866769" lon="14.91884473473057"><ele>304.5</ele><time>2026-05-01T10:42:33.999Z</time></trkpt><trkpt lat="37.577640706304784" lon="14.918870097285847"><ele>305.0</ele><time>2026-05-01T10:42:34.999Z</time></trkpt><trkpt lat="37.57776989165412" lon="14.91888459601438"><ele>306.0</ele><time>2026-05-01T10:42:35.999Z</time></trkpt><trkpt lat="37.57790325994055" lon="14.918885128671572"><ele>307.0</ele><time>2026-05-01T10:42:36.999Z</time></trkpt><trkpt lat="37.578040370004864" lon="14.918881908008487"><ele>308.0</ele><time>2026-05-01T10:42:37.999Z</time></trkpt><trkpt lat="37.578171319883324" lon="14.918874886716647"><ele>309.0</ele><time>2026-05-01T10:42:38.999Z</time></trkpt><trkpt lat="37.57830297038834" lon="14.918857725856705"><ele>309.0</ele><time>2026-05-01T10:42:39.999Z</time></trkpt><trkpt lat="37.578440915400364" lon="14.918831685475963"><ele>309.0</ele><time>2026-05-01T10:42:40.999Z</time></trkpt><trkpt lat="37.57857453015325" lon="14.918785128361096"><ele>309.0</ele><time>2026-05-01T10:42:41.999Z</time></trkpt><trkpt lat="37.57871079316379" lon="14.918726339741227"><ele>309.0</ele><time>2026-05-01T10:42:42.999Z</time></trkpt><trkpt lat="37.57884812141995" lon="14.918662931454655"><ele>309.6666666666667</ele><time>2026-05-01T10:42:43.999Z</time></trkpt><trkpt lat="37.57898865379175" lon="14.918603450429647"><ele>310.33333333333337</ele><time>2026-05-01T10:42:44.999Z</time></trkpt><trkpt lat="37.57913245216503" lon="14.918552349640494"><ele>311.0</ele><time>2026-05-01T10:42:45.999Z</time></trkpt><trkpt lat="37.57928155174506" lon="14.918502307235228"><ele>311.0</ele><time>2026-05-01T10:42:46.999Z</time></trkpt><trkpt lat="37.57943045808694" lon="14.91845529927182"><ele>311.0</ele><time>2026-05-01T10:42:47.999Z</time></trkpt><trkpt lat="37.579579486891745" lon="14.918407205506005"><ele>311.0</ele><time>2026-05-01T10:42:48.999Z</time></trkpt><trkpt lat="37.5797336203117" lon="14.91835602777091"><ele>312.33333333333337</ele><time>2026-05-01T10:42:49.999Z</time></trkpt><trkpt lat="37.57988696997887" lon="14.918306007314532"><ele>313.6666666666667</ele><time>2026-05-01T10:42:50.999Z</time></trkpt><trkpt lat="37.580041196723805" lon="14.918253871226995"><ele>315.0</ele><time>2026-05-01T10:42:51.999Z</time></trkpt><trkpt lat="37.58019890936649" lon="14.91820186767269"><ele>315.6666666666667</ele><time>2026-05-01T10:42:52.999Z</time></trkpt><trkpt lat="37.58035947224988" lon="14.918150307924257"><ele>316.33333333333337</ele><time>2026-05-01T10:42:53.999Z</time></trkpt><trkpt lat="37.580518499201894" lon="14.918098085168532"><ele>317.0</ele><time>2026-05-01T10:42:54.999Z</time></trkpt><trkpt lat="37.58067761905792" lon="14.91804238449946"><ele>317.0</ele><time>2026-05-01T10:42:55.999Z</time></trkpt><trkpt lat="37.58083472209102" lon="14.91798697970405"><ele>317.0</ele><time>2026-05-01T10:42:56.999Z</time></trkpt><trkpt lat="37.58099205577372" lon="14.91793126224826"><ele>317.0</ele><time>2026-05-01T10:42:57.999Z</time></trkpt><trkpt lat="37.58114911815314" lon="14.91787470812351"><ele>318.6666666666667</ele><time>2026-05-01T10:42:58.999Z</time></trkpt><trkpt lat="37.58130702031585" lon="14.91781773307486"><ele>320.3333333333333</ele><time>2026-05-01T10:42:59.998Z</time></trkpt><trkpt lat="37.5814657293254" lon="14.917758489650382"><ele>322.0</ele><time>2026-05-01T10:43:00.998Z</time></trkpt><trkpt lat="37.58162489569732" lon="14.917701419784695"><ele>322.0</ele><time>2026-05-01T10:43:01.998Z</time></trkpt><trkpt lat="37.581783422007916" lon="14.917644659820372"><ele>322.0</ele><time>2026-05-01T10:43:02.998Z</time></trkpt><trkpt lat="37.58194404522638" lon="14.917590265380635"><ele>322.0</ele><time>2026-05-01T10:43:03.998Z</time></trkpt><trkpt lat="37.582103917138" lon="14.917533328437143"><ele>321.3333333333333</ele><time>2026-05-01T10:43:04.998Z</time></trkpt><trkpt lat="37.58226266578637" lon="14.917473640659797"><ele>320.6666666666667</ele><time>2026-05-01T10:43:05.998Z</time></trkpt><trkpt lat="37.582424919390924" lon="14.917414536122974"><ele>320.0</ele><time>2026-05-01T10:43:06.998Z</time></trkpt><trkpt lat="37.582589044205946" lon="14.917356475314236"><ele>320.0</ele><time>2026-05-01T10:43:07.998Z</time></trkpt><trkpt lat="37.582752364473876" lon="14.917299592572553"><ele>320.0</ele><time>2026-05-01T10:43:08.998Z</time></trkpt><trkpt lat="37.58291719515512" lon="14.917240952695828"><ele>320.0</ele><time>2026-05-01T10:43:09.998Z</time></trkpt><trkpt lat="37.58308351659784" lon="14.917182797483369"><ele>322.6666666666667</ele><time>2026-05-01T10:43:10.998Z</time></trkpt><trkpt lat="37.58324924570145" lon="14.917125962444192"><ele>325.3333333333333</ele><time>2026-05-01T10:43:11.998Z</time></trkpt><trkpt lat="37.583417286188684" lon="14.917068865817301"><ele>328.0</ele><time>2026-05-01T10:43:12.998Z</time></trkpt><trkpt lat="37.58358114619934" lon="14.917012710334607"><ele>329.66666666666663</ele><time>2026-05-01T10:43:13.998Z</time></trkpt><trkpt lat="37.58374852879774" lon="14.916950996858693"><ele>331.3333333333333</ele><time>2026-05-01T10:43:14.998Z</time></trkpt><trkpt lat="37.58391594686755" lon="14.916886896245629"><ele>333.0</ele><time>2026-05-01T10:43:15.998Z</time></trkpt><trkpt lat="37.58408323117544" lon="14.916825410880556"><ele>333.0</ele><time>2026-05-01T10:43:16.998Z</time></trkpt><trkpt lat="37.584245146361475" lon="14.916767375307666"><ele>333.0</ele><time>2026-05-01T10:43:17.998Z</time></trkpt><trkpt lat="37.58441075543515" lon="14.916713073992067"><ele>333.0</ele><time>2026-05-01T10:43:18.998Z</time></trkpt><trkpt lat="37.58457942647043" lon="14.916660858673701"><ele>332.0</ele><time>2026-05-01T10:43:19.998Z</time></trkpt><trkpt lat="37.58474262173283" lon="14.916616120359167"><ele>331.0</ele><time>2026-05-01T10:43:20.998Z</time></trkpt><trkpt lat="37.584906492166134" lon="14.916575671993263"><ele>330.0</ele><time>2026-05-01T10:43:21.998Z</time></trkpt><trkpt lat="37.58506738101637" lon="14.916538368211649"><ele>330.0</ele><time>2026-05-01T10:43:22.998Z</time></trkpt><trkpt lat="37.5852300109259" lon="14.916506528765847"><ele>330.0</ele><time>2026-05-01T10:43:23.998Z</time></trkpt><trkpt lat="37.58539053576832" lon="14.916477547753367"><ele>330.0</ele><time>2026-05-01T10:43:24.998Z</time></trkpt><trkpt lat="37.58555091197356" lon="14.916450191924689"><ele>330.0</ele><time>2026-05-01T10:43:25.998Z</time></trkpt><trkpt lat="37.58570440485515" lon="14.916426347283949"><ele>330.0</ele><time>2026-05-01T10:43:26.998Z</time></trkpt><trkpt lat="37.58585686243841" lon="14.916408994022984"><ele>330.0</ele><time>2026-05-01T10:43:27.998Z</time></trkpt><trkpt lat="37.586008804956165" lon="14.916396729847467"><ele>330.0</ele><time>2026-05-01T10:43:28.998Z</time></trkpt><trkpt lat="37.586165081003436" lon="14.916378747315582"><ele>330.0</ele><time>2026-05-01T10:43:29.998Z</time></trkpt><trkpt lat="37.586309220603724" lon="14.916359091027445"><ele>330.0</ele><time>2026-05-01T10:43:30.998Z</time></trkpt><trkpt lat="37.586434278430986" lon="14.91634671975945"><ele>330.0</ele><time>2026-05-01T10:43:31.998Z</time></trkpt><trkpt lat="37.58655655915094" lon="14.916333942053594"><ele>331.2</ele><time>2026-05-01T10:43:32.998Z</time></trkpt><trkpt lat="37.58667010073378" lon="14.916329009382915"><ele>332.4</ele><time>2026-05-01T10:43:33.998Z</time></trkpt><trkpt lat="37.58677559040281" lon="14.916321995827783"><ele>333.6</ele><time>2026-05-01T10:43:34.998Z</time></trkpt><trkpt lat="37.58688041141638" lon="14.91631359702099"><ele>334.8</ele><time>2026-05-01T10:43:35.998Z</time></trkpt><trkpt lat="37.58698573192282" lon="14.91630249305895"><ele>336.0</ele><time>2026-05-01T10:43:36.998Z</time></trkpt><trkpt lat="37.587093247457446" lon="14.916295494217424"><ele>336.8</ele><time>2026-05-01T10:43:37.998Z</time></trkpt><trkpt lat="37.58720570148689" lon="14.91628980473571"><ele>337.6</ele><time>2026-05-01T10:43:38.998Z</time></trkpt><trkpt lat="37.58730826464512" lon="14.916281870512842"><ele>338.4</ele><time>2026-05-01T10:43:39.998Z</time></trkpt><trkpt lat="37.58742096307004" lon="14.916271618268443"><ele>339.2</ele><time>2026-05-01T10:43:40.998Z</time></trkpt><trkpt lat="37.58753867423011" lon="14.916265094558657"><ele>340.0</ele><time>2026-05-01T10:43:41.997Z</time></trkpt><trkpt lat="37.58766995457543" lon="14.916257189765451"><ele>340.0</ele><time>2026-05-01T10:43:42.997Z</time></trkpt><trkpt lat="37.587797986238556" lon="14.916244203333099"><ele>340.0</ele><time>2026-05-01T10:43:43.997Z</time></trkpt><trkpt lat="37.587924073950845" lon="14.916235568346545"><ele>340.0</ele><time>2026-05-01T10:43:44.997Z</time></trkpt><trkpt lat="37.588060449529166" lon="14.916223874723434"><ele>340.0</ele><time>2026-05-01T10:43:45.997Z</time></trkpt><trkpt lat="37.588198954219315" lon="14.916205747800527"><ele>342.5</ele><time>2026-05-01T10:43:46.997Z</time></trkpt><trkpt lat="37.58833953156317" lon="14.916188103499945"><ele>345.0</ele><time>2026-05-01T10:43:47.997Z</time></trkpt><trkpt lat="37.58848499814276" lon="14.91616863509284"><ele>347.5</ele><time>2026-05-01T10:43:48.997Z</time></trkpt><trkpt lat="37.588631182364196" lon="14.916152017148669"><ele>350.0</ele><time>2026-05-01T10:43:49.997Z</time></trkpt><trkpt lat="37.58877387600037" lon="14.916137445326916"><ele>350.0</ele><time>2026-05-01T10:43:51Z</time></trkpt><trkpt lat="37.58893753784209" lon="14.916120708407227"><ele>350.0</ele><time>2026-05-01T10:43:52Z</time></trkpt><trkpt lat="37.589092725990646" lon="14.916105435233849"><ele>350.0</ele><time>2026-05-01T10:43:53Z</time></trkpt><trkpt lat="37.589247294103075" lon="14.916091401434599"><ele>350.0</ele><time>2026-05-01T10:43:54Z</time></trkpt><trkpt lat="37.58939532920892" lon="14.916076226173654"><ele>350.0</ele><time>2026-05-01T10:43:55Z</time></trkpt><trkpt lat="37.58954701648374" lon="14.916054845965396"><ele>350.0</ele><time>2026-05-01T10:43:56Z</time></trkpt><trkpt lat="37.589694782055574" lon="14.916034349672296"><ele>350.5</ele><time>2026-05-01T10:43:57Z</time></trkpt><trkpt lat="37.58983751605628" lon="14.916001362653093"><ele>351.0</ele><time>2026-05-01T10:43:58Z</time></trkpt><trkpt lat="37.5899764327861" lon="14.915959927567856"><ele>351.5</ele><time>2026-05-01T10:43:59Z</time></trkpt><trkpt lat="37.59011062872726" lon="14.915913844139725"><ele>352.0</ele><time>2026-05-01T10:44:00Z</time></trkpt><trkpt lat="37.590241833151076" lon="14.915862535470266"><ele>353.0</ele><time>2026-05-01T10:44:01Z</time></trkpt><trkpt lat="37.59037763406688" lon="14.915802526630342"><ele>354.0</ele><time>2026-05-01T10:44:02Z</time></trkpt><trkpt lat="37.590516673710084" lon="14.91573875975617"><ele>355.0</ele><time>2026-05-01T10:44:03Z</time></trkpt><trkpt lat="37.59065682573893" lon="14.915667591458432"><ele>356.0</ele><time>2026-05-01T10:44:04Z</time></trkpt><trkpt lat="37.59079762997905" lon="14.915591436471301"><ele>356.0</ele><time>2026-05-01T10:44:05Z</time></trkpt><trkpt lat="37.590940829869865" lon="14.915512049954803"><ele>356.0</ele><time>2026-05-01T10:44:06Z</time></trkpt><trkpt lat="37.59108809503057" lon="14.915431098638978"><ele>356.0</ele><time>2026-05-01T10:44:07Z</time></trkpt><trkpt lat="37.59122937510862" lon="14.915355568038459"><ele>358.33333333333337</ele><time>2026-05-01T10:44:08Z</time></trkpt><trkpt lat="37.59137423311897" lon="14.915275666453317"><ele>360.6666666666667</ele><time>2026-05-01T10:44:09Z</time></trkpt><trkpt lat="37.59151364442353" lon="14.915196232732464"><ele>363.0</ele><time>2026-05-01T10:44:10Z</time></trkpt><trkpt lat="37.591660523743386" lon="14.91511399378402"><ele>361.6666666666667</ele><time>2026-05-01T10:44:11Z</time></trkpt><trkpt lat="37.59180281444461" lon="14.915033609644928"><ele>360.33333333333337</ele><time>2026-05-01T10:44:12Z</time></trkpt><trkpt lat="37.59194287626054" lon="14.914956889834093"><ele>359.0</ele><time>2026-05-01T10:44:13Z</time></trkpt><trkpt lat="37.592087635357544" lon="14.914876620071581"><ele>359.0</ele><time>2026-05-01T10:44:14Z</time></trkpt><trkpt lat="37.592225980842684" lon="14.914804214873751"><ele>359.0</ele><time>2026-05-01T10:44:15Z</time></trkpt><trkpt lat="37.59236757266834" lon="14.914725488836842"><ele>359.0</ele><time>2026-05-01T10:44:16Z</time></trkpt><trkpt lat="37.59250774041687" lon="14.914649856941214"><ele>359.0</ele><time>2026-05-01T10:44:17Z</time></trkpt><trkpt lat="37.59265101099734" lon="14.914572893554416"><ele>359.0</ele><time>2026-05-01T10:44:18Z</time></trkpt><trkpt lat="37.59279073466542" lon="14.914495414164488"><ele>359.0</ele><time>2026-05-01T10:44:19Z</time></trkpt><trkpt lat="37.59292684182071" lon="14.914417708846923"><ele>360.0</ele><time>2026-05-01T10:44:20Z</time></trkpt><trkpt lat="37.59306551633975" lon="14.914340044922678"><ele>361.0</ele><time>2026-05-01T10:44:21Z</time></trkpt><trkpt lat="37.593203645193455" lon="14.914261778395383"><ele>362.0</ele><time>2026-05-01T10:44:22Z</time></trkpt><trkpt lat="37.59334129940708" lon="14.914183184592215"><ele>362.0</ele><time>2026-05-01T10:44:23Z</time></trkpt><trkpt lat="37.59348334369097" lon="14.914105253188493"><ele>362.0</ele><time>2026-05-01T10:44:24Z</time></trkpt><trkpt lat="37.593625094551996" lon="14.914024229596885"><ele>362.0</ele><time>2026-05-01T10:44:24.999Z</time></trkpt><trkpt lat="37.59377061188629" lon="14.913944420194614"><ele>363.33333333333337</ele><time>2026-05-01T10:44:25.999Z</time></trkpt><trkpt lat="37.59391175845035" lon="14.91386690130184"><ele>364.6666666666667</ele><time>2026-05-01T10:44:26.999Z</time></trkpt><trkpt lat="37.59405415584493" lon="14.913786730658666"><ele>366.0</ele><time>2026-05-01T10:44:27.999Z</time></trkpt><trkpt lat="37.59419321900811" lon="14.913709817542578"><ele>366.0</ele><time>2026-05-01T10:44:28.999Z</time></trkpt><trkpt lat="37.59433802425093" lon="14.913629588702994"><ele>366.0</ele><time>2026-05-01T10:44:29.999Z</time></trkpt><trkpt lat="37.594476655220795" lon="14.913554301964185"><ele>366.0</ele><time>2026-05-01T10:44:30.999Z</time></trkpt><trkpt lat="37.59461957042694" lon="14.913474421096835"><ele>364.6666666666667</ele><time>2026-05-01T10:44:31.999Z</time></trkpt><trkpt lat="37.594764023128704" lon="14.91339594744936"><ele>363.33333333333337</ele><time>2026-05-01T10:44:32.999Z</time></trkpt><trkpt lat="37.594909333899956" lon="14.913312598851135"><ele>362.0</ele><time>2026-05-01T10:44:33.999Z</time></trkpt><trkpt lat="37.59505358977506" lon="14.913229283998689"><ele>362.0</ele><time>2026-05-01T10:44:34.999Z</time></trkpt><trkpt lat="37.59519925819643" lon="14.91314616573628"><ele>362.0</ele><time>2026-05-01T10:44:35.999Z</time></trkpt><trkpt lat="37.59534866306265" lon="14.913061290626848"><ele>362.0</ele><time>2026-05-01T10:44:36.999Z</time></trkpt><trkpt lat="37.595507246778396" lon="14.912973989689798"><ele>363.6666666666667</ele><time>2026-05-01T10:44:37.999Z</time></trkpt><trkpt lat="37.59567133145112" lon="14.912887754583327"><ele>365.3333333333333</ele><time>2026-05-01T10:44:38.999Z</time></trkpt><trkpt lat="37.59583477133622" lon="14.912804521065752"><ele>367.0</ele><time>2026-05-01T10:44:39.999Z</time></trkpt><trkpt lat="37.595996741471595" lon="14.912718663997312"><ele>367.0</ele><time>2026-05-01T10:44:40.999Z</time></trkpt><trkpt lat="37.596159842201246" lon="14.91262612343406"><ele>367.0</ele><time>2026-05-01T10:44:41.999Z</time></trkpt><trkpt lat="37.59632307433067" lon="14.91253524054936"><ele>367.0</ele><time>2026-05-01T10:44:42.999Z</time></trkpt><trkpt lat="37.596486961439474" lon="14.912441421343539"><ele>365.66666666666663</ele><time>2026-05-01T10:44:43.999Z</time></trkpt><trkpt lat="37.596644795138296" lon="14.912356466482317"><ele>364.3333333333333</ele><time>2026-05-01T10:44:44.999Z</time></trkpt><trkpt lat="37.596794281180365" lon="14.912271424523206"><ele>363.0</ele><time>2026-05-01T10:44:45.999Z</time></trkpt><trkpt lat="37.59694298299141" lon="14.912187520658328"><ele>364.6666666666667</ele><time>2026-05-01T10:44:46.999Z</time></trkpt><trkpt lat="37.597095746201376" lon="14.912102244943435"><ele>366.33333333333337</ele><time>2026-05-01T10:44:47.999Z</time></trkpt><trkpt lat="37.59725535243592" lon="14.912010131196514"><ele>368.0</ele><time>2026-05-01T10:44:48.999Z</time></trkpt><trkpt lat="37.597420573651796" lon="14.911918878148708"><ele>368.0</ele><time>2026-05-01T10:44:49.999Z</time></trkpt><trkpt lat="37.597590675689496" lon="14.911832888619266"><ele>368.0</ele><time>2026-05-01T10:44:50.999Z</time></trkpt><trkpt lat="37.59776376398192" lon="14.911747895867158"><ele>368.0</ele><time>2026-05-01T10:44:51.999Z</time></trkpt><trkpt lat="37.59793983012659" lon="14.911668157134931"><ele>368.6666666666667</ele><time>2026-05-01T10:44:52.999Z</time></trkpt><trkpt lat="37.59812189922199" lon="14.911599146602072"><ele>369.3333333333333</ele><time>2026-05-01T10:44:53.999Z</time></trkpt><trkpt lat="37.59830712065402" lon="14.91154133893172"><ele>370.0</ele><time>2026-05-01T10:44:54.999Z</time></trkpt><trkpt lat="37.598496675800675" lon="14.91149215046083"><ele>372.3333333333333</ele><time>2026-05-01T10:44:55.999Z</time></trkpt><trkpt lat="37.59868467764716" lon="14.911449942316452"><ele>374.6666666666667</ele><time>2026-05-01T10:44:56.999Z</time></trkpt><trkpt lat="37.598872757641196" lon="14.91141857143554"><ele>377.0</ele><time>2026-05-01T10:44:57.999Z</time></trkpt><trkpt lat="37.59906589782035" lon="14.911400774360656"><ele>377.0</ele><time>2026-05-01T10:44:58.999Z</time></trkpt><trkpt lat="37.59926010338836" lon="14.911390767603887"><ele>377.0</ele><time>2026-05-01T10:44:59.999Z</time></trkpt><trkpt lat="37.59945144371078" lon="14.911385753946877"><ele>377.0</ele><time>2026-05-01T10:45:00.999Z</time></trkpt><trkpt lat="37.59964323119492" lon="14.911395037103969"><ele>379.33333333333337</ele><time>2026-05-01T10:45:01.999Z</time></trkpt><trkpt lat="37.59983426188385" lon="14.911407908491743"><ele>381.6666666666667</ele><time>2026-05-01T10:45:02.999Z</time></trkpt><trkpt lat="37.60002628248852" lon="14.911419265296852"><ele>384.0</ele><time>2026-05-01T10:45:03.999Z</time></trkpt><trkpt lat="37.60022110716576" lon="14.911426648029133"><ele>385.0</ele><time>2026-05-01T10:45:04.999Z</time></trkpt><trkpt lat="37.60041238315672" lon="14.911432662475656"><ele>386.0</ele><time>2026-05-01T10:45:05.998Z</time></trkpt><trkpt lat="37.60060656881687" lon="14.911439486301958"><ele>387.0</ele><time>2026-05-01T10:45:06.998Z</time></trkpt><trkpt lat="37.600802899738355" lon="14.911446346466144"><ele>387.0</ele><time>2026-05-01T10:45:07.998Z</time></trkpt><trkpt lat="37.6009984951409" lon="14.911454424797212"><ele>387.0</ele><time>2026-05-01T10:45:08.998Z</time></trkpt><trkpt lat="37.60119440848988" lon="14.911462397475786"><ele>387.0</ele><time>2026-05-01T10:45:09.998Z</time></trkpt><trkpt lat="37.60139207906285" lon="14.911471509108921"><ele>387.66666666666663</ele><time>2026-05-01T10:45:10.998Z</time></trkpt><trkpt lat="37.60158992444064" lon="14.911481045034042"><ele>388.3333333333333</ele><time>2026-05-01T10:45:11.998Z</time></trkpt><trkpt lat="37.60179035696844" lon="14.911489887775712"><ele>389.0</ele><time>2026-05-01T10:45:12.998Z</time></trkpt><trkpt lat="37.60199294517414" lon="14.91149735308491"><ele>390.3333333333333</ele><time>2026-05-01T10:45:13.998Z</time></trkpt><trkpt lat="37.60219425063647" lon="14.911502876195788"><ele>391.66666666666663</ele><time>2026-05-01T10:45:14.998Z</time></trkpt><trkpt lat="37.602398127850165" lon="14.911509030587956"><ele>393.0</ele><time>2026-05-01T10:45:15.998Z</time></trkpt><trkpt lat="37.602602844161176" lon="14.911516474922795"><ele>393.0</ele><time>2026-05-01T10:45:16.998Z</time></trkpt><trkpt lat="37.602810928837876" lon="14.911523892196065"><ele>393.0</ele><time>2026-05-01T10:45:17.998Z</time></trkpt><trkpt lat="37.60301826161567" lon="14.911526619380847"><ele>393.0</ele><time>2026-05-01T10:45:18.998Z</time></trkpt><trkpt lat="37.60322222977118" lon="14.911527509252757"><ele>394.0</ele><time>2026-05-01T10:45:19.998Z</time></trkpt><trkpt lat="37.60343043343173" lon="14.91152910378337"><ele>395.0</ele><time>2026-05-01T10:45:20.998Z</time></trkpt><trkpt lat="37.60363673782021" lon="14.911520346735216"><ele>396.0</ele><time>2026-05-01T10:45:21.998Z</time></trkpt><trkpt lat="37.603842114169815" lon="14.911485654862133"><ele>397.0</ele><time>2026-05-01T10:45:22.998Z</time></trkpt><trkpt lat="37.60404171595543" lon="14.911428483996165"><ele>398.0</ele><time>2026-05-01T10:45:23.998Z</time></trkpt><trkpt lat="37.604237029528264" lon="14.911342173775141"><ele>399.0</ele><time>2026-05-01T10:45:24.998Z</time></trkpt><trkpt lat="37.6044275181828" lon="14.911242222219855"><ele>400.33333333333337</ele><time>2026-05-01T10:45:25.998Z</time></trkpt><trkpt lat="37.604612847821116" lon="14.911134138869125"><ele>401.6666666666667</ele><time>2026-05-01T10:45:26.998Z</time></trkpt><trkpt lat="37.60478991195571" lon="14.911010137025611"><ele>403.0</ele><time>2026-05-01T10:45:27.998Z</time></trkpt><trkpt lat="37.60495840404536" lon="14.91086881567347"><ele>404.0</ele><time>2026-05-01T10:45:28.998Z</time></trkpt><trkpt lat="37.605124418473096" lon="14.91072237104688"><ele>405.0</ele><time>2026-05-01T10:45:29.998Z</time></trkpt><trkpt lat="37.60528978296606" lon="14.910573218836586"><ele>406.0</ele><time>2026-05-01T10:45:30.998Z</time></trkpt><trkpt lat="37.605458113603646" lon="14.910430730383476"><ele>408.33333333333337</ele><time>2026-05-01T10:45:31.998Z</time></trkpt><trkpt lat="37.60562666467853" lon="14.910288291858672"><ele>410.66666666666663</ele><time>2026-05-01T10:45:32.998Z</time></trkpt><trkpt lat="37.605796444917196" lon="14.910147137108837"><ele>413.0</ele><time>2026-05-01T10:45:33.998Z</time></trkpt><trkpt lat="37.60596353703337" lon="14.910004627166849"><ele>413.0</ele><time>2026-05-01T10:45:34.998Z</time></trkpt><trkpt lat="37.60613089378897" lon="14.90986040058112"><ele>413.0</ele><time>2026-05-01T10:45:35.998Z</time></trkpt><trkpt lat="37.60629662213069" lon="14.90971933201394"><ele>413.0</ele><time>2026-05-01T10:45:36.998Z</time></trkpt><trkpt lat="37.606463069721826" lon="14.909575626529312"><ele>413.3333333333333</ele><time>2026-05-01T10:45:37.998Z</time></trkpt><trkpt lat="37.60663078723924" lon="14.909431992601668"><ele>413.66666666666663</ele><time>2026-05-01T10:45:38.998Z</time></trkpt><trkpt lat="37.606797288683055" lon="14.909287999000018"><ele>414.0</ele><time>2026-05-01T10:45:39.998Z</time></trkpt><trkpt lat="37.606963658461645" lon="14.909144226653233"><ele>417.33333333333337</ele><time>2026-05-01T10:45:40.998Z</time></trkpt><trkpt lat="37.60712981947848" lon="14.908997893646522"><ele>420.6666666666667</ele><time>2026-05-01T10:45:41.998Z</time></trkpt><trkpt lat="37.60729602629188" lon="14.908855591118208"><ele>424.0</ele><time>2026-05-01T10:45:42.998Z</time></trkpt><trkpt lat="37.60746234935672" lon="14.908712937700638"><ele>424.0</ele><time>2026-05-01T10:45:43.998Z</time></trkpt><trkpt lat="37.60762758269049" lon="14.908569730840245"><ele>424.0</ele><time>2026-05-01T10:45:44.998Z</time></trkpt><trkpt lat="37.607793113658666" lon="14.908427666177126"><ele>424.0</ele><time>2026-05-01T10:45:45.998Z</time></trkpt><trkpt lat="37.60796009105774" lon="14.908283413588252"><ele>425.0</ele><time>2026-05-01T10:45:46.997Z</time></trkpt><trkpt lat="37.60812744024423" lon="14.908139468473971"><ele>426.0</ele><time>2026-05-01T10:45:47.997Z</time></trkpt><trkpt lat="37.608292650124355" lon="14.907997770025208"><ele>427.0</ele><time>2026-05-01T10:45:48.997Z</time></trkpt><trkpt lat="37.60845818192636" lon="14.90785787082964"><ele>427.0</ele><time>2026-05-01T10:45:49.997Z</time></trkpt><trkpt lat="37.60862315815503" lon="14.90771636205965"><ele>427.0</ele><time>2026-05-01T10:45:50.997Z</time></trkpt><trkpt lat="37.608786010935226" lon="14.907574368369529"><ele>427.0</ele><time>2026-05-01T10:45:51.997Z</time></trkpt><trkpt lat="37.60894696158151" lon="14.907431009878135"><ele>428.33333333333337</ele><time>2026-05-01T10:45:52.997Z</time></trkpt><trkpt lat="37.60910664084302" lon="14.907290867697006"><ele>429.66666666666663</ele><time>2026-05-01T10:45:53.997Z</time></trkpt><trkpt lat="37.609267380343034" lon="14.907152872628057"><ele>431.0</ele><time>2026-05-01T10:45:54.997Z</time></trkpt><trkpt lat="37.60942805889636" lon="14.907014240296654"><ele>432.0</ele><time>2026-05-01T10:45:55.997Z</time></trkpt><trkpt lat="37.60958995417805" lon="14.906876311167407"><ele>433.0</ele><time>2026-05-01T10:45:57Z</time></trkpt><trkpt lat="37.609748717731065" lon="14.906738621231597"><ele>434.0</ele><time>2026-05-01T10:45:58Z</time></trkpt><trkpt lat="37.609910243801096" lon="14.906598202974282"><ele>434.0</ele><time>2026-05-01T10:45:59Z</time></trkpt><trkpt lat="37.610070339375795" lon="14.906458095568507"><ele>434.0</ele><time>2026-05-01T10:46:00Z</time></trkpt><trkpt lat="37.61023032753069" lon="14.906319130425283"><ele>434.0</ele><time>2026-05-01T10:46:01Z</time></trkpt><trkpt lat="37.610390489071946" lon="14.906178969648728"><ele>436.0</ele><time>2026-05-01T10:46:02Z</time></trkpt><trkpt lat="37.61055116325707" lon="14.906041761448401"><ele>438.0</ele><time>2026-05-01T10:46:03Z</time></trkpt><trkpt lat="37.610714094358684" lon="14.905904176693172"><ele>440.0</ele><time>2026-05-01T10:46:04Z</time></trkpt><trkpt lat="37.610875525776144" lon="14.905768640827786"><ele>440.3333333333333</ele><time>2026-05-01T10:46:05Z</time></trkpt><trkpt lat="37.611036191889106" lon="14.905631595432688"><ele>440.66666666666663</ele><time>2026-05-01T10:46:06Z</time></trkpt><trkpt lat="37.61119677515787" lon="14.90549447375815"><ele>441.0</ele><time>2026-05-01T10:46:07Z</time></trkpt><trkpt lat="37.61135808637773" lon="14.905355229887334"><ele>441.0</ele><time>2026-05-01T10:46:08Z</time></trkpt><trkpt lat="37.61152111463002" lon="14.905214469779992"><ele>441.0</ele><time>2026-05-01T10:46:09Z</time></trkpt><trkpt lat="37.61168484981269" lon="14.905074155798722"><ele>441.0</ele><time>2026-05-01T10:46:10Z</time></trkpt><trkpt lat="37.611850255384475" lon="14.904935060334306"><ele>441.0</ele><time>2026-05-01T10:46:11Z</time></trkpt><trkpt lat="37.61201752239348" lon="14.904794951697802"><ele>441.0</ele><time>2026-05-01T10:46:12Z</time></trkpt><trkpt lat="37.6121831587728" lon="14.904652407812327"><ele>441.0</ele><time>2026-05-01T10:46:13Z</time></trkpt><trkpt lat="37.61234742681186" lon="14.904504332363953"><ele>441.0</ele><time>2026-05-01T10:46:14Z</time></trkpt><trkpt lat="37.61251022287446" lon="14.904355037703926"><ele>441.0</ele><time>2026-05-01T10:46:15Z</time></trkpt><trkpt lat="37.612676026248124" lon="14.904211269911986"><ele>441.0</ele><time>2026-05-01T10:46:16Z</time></trkpt><trkpt lat="37.61284500857368" lon="14.904069199643358"><ele>443.66666666666663</ele><time>2026-05-01T10:46:17Z</time></trkpt><trkpt lat="37.613015135467364" lon="14.903925766683688"><ele>446.3333333333333</ele><time>2026-05-01T10:46:18Z</time></trkpt><trkpt lat="37.61318554838206" lon="14.903777577599916"><ele>449.0</ele><time>2026-05-01T10:46:19Z</time></trkpt><trkpt lat="37.61335512824785" lon="14.903629381743649"><ele>449.0</ele><time>2026-05-01T10:46:20Z</time></trkpt><trkpt lat="37.61352649695737" lon="14.903481136182458"><ele>449.0</ele><time>2026-05-01T10:46:21Z</time></trkpt><trkpt lat="37.613697016417525" lon="14.903337632837971"><ele>449.0</ele><time>2026-05-01T10:46:22Z</time></trkpt><trkpt lat="37.613868564353844" lon="14.903195199672261"><ele>452.3333333333333</ele><time>2026-05-01T10:46:23Z</time></trkpt><trkpt lat="37.614041516472454" lon="14.903049851806083"><ele>455.66666666666663</ele><time>2026-05-01T10:46:24Z</time></trkpt><trkpt lat="37.614213709294724" lon="14.902903792033666"><ele>459.0</ele><time>2026-05-01T10:46:25Z</time></trkpt><trkpt lat="37.61438804735332" lon="14.902757580360507"><ele>459.33333333333337</ele><time>2026-05-01T10:46:26Z</time></trkpt><trkpt lat="37.614563111678144" lon="14.902614020517218"><ele>459.6666666666667</ele><time>2026-05-01T10:46:27Z</time></trkpt><trkpt lat="37.61474230075148" lon="14.902474167141913"><ele>460.0</ele><time>2026-05-01T10:46:28Z</time></trkpt><trkpt lat="37.61492322501987" lon="14.902339645160714"><ele>459.33333333333337</ele><time>2026-05-01T10:46:28.999Z</time></trkpt><trkpt lat="37.61510926908306" lon="14.90221671359835"><ele>458.66666666666663</ele><time>2026-05-01T10:46:29.999Z</time></trkpt><trkpt lat="37.61529923578156" lon="14.902108274225014"><ele>458.0</ele><time>2026-05-01T10:46:30.999Z</time></trkpt><trkpt lat="37.61549551085931" lon="14.902015846348474"><ele>460.66666666666663</ele><time>2026-05-01T10:46:31.999Z</time></trkpt><trkpt lat="37.615694201009816" lon="14.901930060025437"><ele>463.33333333333337</ele><time>2026-05-01T10:46:32.999Z</time></trkpt><trkpt lat="37.61589698567256" lon="14.90185268764993"><ele>466.0</ele><time>2026-05-01T10:46:33.999Z</time></trkpt><trkpt lat="37.616102990354015" lon="14.90178211086636"><ele>465.6666666666667</ele><time>2026-05-01T10:46:34.999Z</time></trkpt><trkpt lat="37.61630934792664" lon="14.901714274297799"><ele>465.33333333333337</ele><time>2026-05-01T10:46:35.999Z</time></trkpt><trkpt lat="37.616515487394956" lon="14.901641995956755"><ele>465.0</ele><time>2026-05-01T10:46:36.999Z</time></trkpt><trkpt lat="37.61672370648753" lon="14.901566166367015"><ele>465.0</ele><time>2026-05-01T10:46:37.999Z</time></trkpt><trkpt lat="37.6169361334832" lon="14.901489749419518"><ele>465.0</ele><time>2026-05-01T10:46:38.999Z</time></trkpt><trkpt lat="37.61715283160415" lon="14.901416859144241"><ele>465.0</ele><time>2026-05-01T10:46:39.999Z</time></trkpt><trkpt lat="37.61736738445176" lon="14.90134466304245"><ele>466.66666666666663</ele><time>2026-05-01T10:46:40.999Z</time></trkpt><trkpt lat="37.617584311279586" lon="14.901278866920299"><ele>468.3333333333333</ele><time>2026-05-01T10:46:41.999Z</time></trkpt><trkpt lat="37.617796515250596" lon="14.90122391129275"><ele>470.0</ele><time>2026-05-01T10:46:42.999Z</time></trkpt><trkpt lat="37.618009767342144" lon="14.901166764284387"><ele>471.3333333333333</ele><time>2026-05-01T10:46:43.999Z</time></trkpt><trkpt lat="37.618218238195766" lon="14.901103166432312"><ele>472.66666666666663</ele><time>2026-05-01T10:46:44.999Z</time></trkpt><trkpt lat="37.61842614316347" lon="14.901037083549355"><ele>474.0</ele><time>2026-05-01T10:46:45.999Z</time></trkpt><trkpt lat="37.618631321336764" lon="14.90097451292678"><ele>475.0</ele><time>2026-05-01T10:46:46.999Z</time></trkpt><trkpt lat="37.61883922626294" lon="14.900912577432573"><ele>476.0</ele><time>2026-05-01T10:46:47.999Z</time></trkpt><trkpt lat="37.61904433791142" lon="14.900846966903108"><ele>477.0</ele><time>2026-05-01T10:46:48.999Z</time></trkpt><trkpt lat="37.619245920197656" lon="14.900778466461883"><ele>477.0</ele><time>2026-05-01T10:46:49.999Z</time></trkpt><trkpt lat="37.61945017990119" lon="14.900710716131982"><ele>477.0</ele><time>2026-05-01T10:46:50.999Z</time></trkpt><trkpt lat="37.61965207549423" lon="14.90064552946277"><ele>477.0</ele><time>2026-05-01T10:46:51.999Z</time></trkpt><trkpt lat="37.61985589940521" lon="14.900582840480915"><ele>478.0</ele><time>2026-05-01T10:46:52.999Z</time></trkpt><trkpt lat="37.62005730426149" lon="14.900519588250681"><ele>479.0</ele><time>2026-05-01T10:46:53.999Z</time></trkpt><trkpt lat="37.62025906993729" lon="14.900455428395478"><ele>480.0</ele><time>2026-05-01T10:46:54.999Z</time></trkpt><trkpt lat="37.62045951209296" lon="14.900389604061457"><ele>482.0</ele><time>2026-05-01T10:46:55.999Z</time></trkpt><trkpt lat="37.62065762407791" lon="14.900320680481675"><ele>484.0</ele><time>2026-05-01T10:46:56.999Z</time></trkpt><trkpt lat="37.62085472456836" lon="14.900251658989458"><ele>486.0</ele><time>2026-05-01T10:46:57.999Z</time></trkpt><trkpt lat="37.6210524196" lon="14.900187461962721"><ele>488.33333333333337</ele><time>2026-05-01T10:46:58.999Z</time></trkpt><trkpt lat="37.621252631832036" lon="14.900126629600978"><ele>490.6666666666667</ele><time>2026-05-01T10:46:59.999Z</time></trkpt><trkpt lat="37.6214533618977" lon="14.900066180397406"><ele>493.0</ele><time>2026-05-01T10:47:00.999Z</time></trkpt><trkpt lat="37.62165276965408" lon="14.900001353490326"><ele>493.0</ele><time>2026-05-01T10:47:01.999Z</time></trkpt><trkpt lat="37.621846698525815" lon="14.899922008611538"><ele>493.0</ele><time>2026-05-01T10:47:02.999Z</time></trkpt><trkpt lat="37.622029196289745" lon="14.899823317895004"><ele>493.0</ele><time>2026-05-01T10:47:03.999Z</time></trkpt><trkpt lat="37.62220031471881" lon="14.89970284908262"><ele>493.33333333333337</ele><time>2026-05-01T10:47:04.999Z</time></trkpt><trkpt lat="37.62236147642128" lon="14.89956380775654"><ele>493.66666666666663</ele><time>2026-05-01T10:47:05.999Z</time></trkpt><trkpt lat="37.62251562140342" lon="14.899411321718752"><ele>494.0</ele><time>2026-05-01T10:47:06.999Z</time></trkpt><trkpt lat="37.62265783672749" lon="14.89924144675163"><ele>494.0</ele><time>2026-05-01T10:47:07.999Z</time></trkpt><trkpt lat="37.62279136168127" lon="14.899063625290873"><ele>494.0</ele><time>2026-05-01T10:47:08.999Z</time></trkpt><trkpt lat="37.62291354302212" lon="14.898874240219016"><ele>494.0</ele><time>2026-05-01T10:47:09.998Z</time></trkpt><trkpt lat="37.6230272303663" lon="14.898673227547674"><ele>495.66666666666663</ele><time>2026-05-01T10:47:10.998Z</time></trkpt><trkpt lat="37.62313014670889" lon="14.89846372298794"><ele>497.33333333333337</ele><time>2026-05-01T10:47:11.998Z</time></trkpt><trkpt lat="37.623234548547416" lon="14.89825586609972"><ele>499.0</ele><time>2026-05-01T10:47:12.998Z</time></trkpt><trkpt lat="37.623342210705694" lon="14.898047686803249"><ele>499.0</ele><time>2026-05-01T10:47:13.998Z</time></trkpt><trkpt lat="37.623450871331826" lon="14.897840021231431"><ele>499.0</ele><time>2026-05-01T10:47:14.998Z</time></trkpt><trkpt lat="37.623561835962924" lon="14.897632359270485"><ele>499.0</ele><time>2026-05-01T10:47:15.998Z</time></trkpt><trkpt lat="37.6236711876185" lon="14.897424178691796"><ele>504.0</ele><time>2026-05-01T10:47:16.998Z</time></trkpt><trkpt lat="37.62378314636843" lon="14.897214084618186"><ele>509.0</ele><time>2026-05-01T10:47:17.998Z</time></trkpt><trkpt lat="37.62389418388004" lon="14.897004590785663"><ele>514.0</ele><time>2026-05-01T10:47:18.998Z</time></trkpt><trkpt lat="37.62400237556419" lon="14.896795940314151"><ele>513.3333333333334</ele><time>2026-05-01T10:47:19.998Z</time></trkpt><trkpt lat="37.62410706532413" lon="14.896594215889195"><ele>512.6666666666666</ele><time>2026-05-01T10:47:20.998Z</time></trkpt><trkpt lat="37.62421895211637" lon="14.896404162313743"><ele>512.0</ele><time>2026-05-01T10:47:21.998Z</time></trkpt><trkpt lat="37.62434358327296" lon="14.89622571921358"><ele>513.3333333333333</ele><time>2026-05-01T10:47:22.998Z</time></trkpt><trkpt lat="37.62448097072974" lon="14.89605943817551"><ele>514.6666666666666</ele><time>2026-05-01T10:47:23.998Z</time></trkpt><trkpt lat="37.6246314381668" lon="14.895910564183325"><ele>516.0</ele><time>2026-05-01T10:47:24.998Z</time></trkpt><trkpt lat="37.624795861513604" lon="14.895777693439559"><ele>516.0</ele><time>2026-05-01T10:47:25.998Z</time></trkpt><trkpt lat="37.62496967214415" lon="14.895669893565364"><ele>516.0</ele><time>2026-05-01T10:47:26.998Z</time></trkpt><trkpt lat="37.6251528403037" lon="14.895575659803672"><ele>516.0</ele><time>2026-05-01T10:47:27.998Z</time></trkpt><trkpt lat="37.625341464815286" lon="14.895502542960726"><ele>516.6666666666666</ele><time>2026-05-01T10:47:28.998Z</time></trkpt><trkpt lat="37.625534646456025" lon="14.89546592735181"><ele>517.3333333333333</ele><time>2026-05-01T10:47:29.998Z</time></trkpt><trkpt lat="37.625724768836065" lon="14.895454862486725"><ele>518.0</ele><time>2026-05-01T10:47:30.998Z</time></trkpt><trkpt lat="37.625915659680814" lon="14.89547460550559"><ele>518.0</ele><time>2026-05-01T10:47:31.998Z</time></trkpt><trkpt lat="37.6261063763273" lon="14.895510521746914"><ele>518.0</ele><time>2026-05-01T10:47:32.998Z</time></trkpt><trkpt lat="37.626297822830125" lon="14.89554720553222"><ele>518.0</ele><time>2026-05-01T10:47:33.998Z</time></trkpt><trkpt lat="37.626488008833014" lon="14.89557514307653"><ele>520.3333333333333</ele><time>2026-05-01T10:47:34.998Z</time></trkpt><trkpt lat="37.626678764333704" lon="14.895602043547115"><ele>522.6666666666666</ele><time>2026-05-01T10:47:35.998Z</time></trkpt><trkpt lat="37.62686796510189" lon="14.895631983650846"><ele>525.0</ele><time>2026-05-01T10:47:36.998Z</time></trkpt><trkpt lat="37.627060625627564" lon="14.895662842376884"><ele>525.6666666666666</ele><time>2026-05-01T10:47:37.998Z</time></trkpt><trkpt lat="37.627249534651234" lon="14.895696868040018"><ele>526.3333333333333</ele><time>2026-05-01T10:47:38.998Z</time></trkpt><trkpt lat="37.6274409341278" lon="14.895728300806299"><ele>527.0</ele><time>2026-05-01T10:47:39.998Z</time></trkpt><trkpt lat="37.62763383192905" lon="14.895760919775961"><ele>524.6666666666666</ele><time>2026-05-01T10:47:40.998Z</time></trkpt><trkpt lat="37.62782574148679" lon="14.895794723062268"><ele>522.3333333333334</ele><time>2026-05-01T10:47:41.998Z</time></trkpt><trkpt lat="37.6280163460093" lon="14.895829206545654"><ele>520.0</ele><time>2026-05-01T10:47:42.998Z</time></trkpt><trkpt lat="37.62820632868657" lon="14.895863790487947"><ele>520.0</ele><time>2026-05-01T10:47:43.998Z</time></trkpt><trkpt lat="37.6283986306409" lon="14.895896465314605"><ele>520.0</ele><time>2026-05-01T10:47:44.998Z</time></trkpt><trkpt lat="37.62859017400318" lon="14.895928060100843"><ele>520.0</ele><time>2026-05-01T10:47:45.998Z</time></trkpt><trkpt lat="37.62877971155175" lon="14.895960279893208"><ele>522.6666666666667</ele><time>2026-05-01T10:47:46.998Z</time></trkpt><trkpt lat="37.628962604859396" lon="14.895993192427257"><ele>525.3333333333334</ele><time>2026-05-01T10:47:47.998Z</time></trkpt><trkpt lat="37.62914686556992" lon="14.896021076986726"><ele>528.0</ele><time>2026-05-01T10:47:48.998Z</time></trkpt><trkpt lat="37.62932666521971" lon="14.896046020953644"><ele>528.3333333333334</ele><time>2026-05-01T10:47:49.998Z</time></trkpt><trkpt lat="37.6295058105645" lon="14.896063325591141"><ele>528.6666666666667</ele><time>2026-05-01T10:47:50.997Z</time></trkpt><trkpt lat="37.62968252506581" lon="14.896065963371441"><ele>529.0</ele><time>2026-05-01T10:47:51.997Z</time></trkpt><trkpt lat="37.629857724162896" lon="14.896049974291001"><ele>529.0</ele><time>2026-05-01T10:47:52.997Z</time></trkpt><trkpt lat="37.630028133964416" lon="14.89601220684523"><ele>529.0</ele><time>2026-05-01T10:47:53.997Z</time></trkpt><trkpt lat="37.63019571065704" lon="14.895957362100978"><ele>529.0</ele><time>2026-05-01T10:47:54.997Z</time></trkpt><trkpt lat="37.63036220118748" lon="14.895885549993372"><ele>529.3333333333334</ele><time>2026-05-01T10:47:55.997Z</time></trkpt><trkpt lat="37.63052355046148" lon="14.895797273017308"><ele>529.6666666666666</ele><time>2026-05-01T10:47:56.997Z</time></trkpt><trkpt lat="37.63068086385143" lon="14.895700353131891"><ele>530.0</ele><time>2026-05-01T10:47:57.997Z</time></trkpt><trkpt lat="37.630832051476226" lon="14.89558902368636"><ele>530.0</ele><time>2026-05-01T10:47:58.997Z</time></trkpt><trkpt lat="37.630974578787566" lon="14.895469878404679"><ele>530.0</ele><time>2026-05-01T10:47:59.997Z</time></trkpt><trkpt lat="37.63111390843274" lon="14.895351854403028"><ele>530.0</ele><time>2026-05-01T10:48:00.997Z</time></trkpt><trkpt lat="37.63125327881401" lon="14.895233940365317"><ele>529.0</ele><time>2026-05-01T10:48:02Z</time></trkpt><trkpt lat="37.63139067859552" lon="14.89511558564939"><ele>528.0</ele><time>2026-05-01T10:48:03Z</time></trkpt><trkpt lat="37.631525668636485" lon="14.895000714119103"><ele>527.0</ele><time>2026-05-01T10:48:04Z</time></trkpt><trkpt lat="37.63165981446211" lon="14.894884589834026"><ele>527.0</ele><time>2026-05-01T10:48:05Z</time></trkpt><trkpt lat="37.631796168274164" lon="14.894770098685836"><ele>527.0</ele><time>2026-05-01T10:48:06Z</time></trkpt><trkpt lat="37.63193158266984" lon="14.894658166554319"><ele>527.0</ele><time>2026-05-01T10:48:07Z</time></trkpt><trkpt lat="37.63206606982583" lon="14.89454682954512"><ele>527.3333333333333</ele><time>2026-05-01T10:48:08Z</time></trkpt><trkpt lat="37.63220299594123" lon="14.894433470823905"><ele>527.6666666666666</ele><time>2026-05-01T10:48:09Z</time></trkpt><trkpt lat="37.632338976728" lon="14.89431948691189"><ele>528.0</ele><time>2026-05-01T10:48:10Z</time></trkpt><trkpt lat="37.63247420127579" lon="14.894207090141165"><ele>528.0</ele><time>2026-05-01T10:48:11Z</time></trkpt><trkpt lat="37.63261135805558" lon="14.894093536543718"><ele>528.0</ele><time>2026-05-01T10:48:12Z</time></trkpt><trkpt lat="37.63275145934756" lon="14.89397792490336"><ele>528.0</ele><time>2026-05-01T10:48:13Z</time></trkpt><trkpt lat="37.63289327452041" lon="14.893862712011547"><ele>529.6666666666666</ele><time>2026-05-01T10:48:14Z</time></trkpt><trkpt lat="37.6330339133039" lon="14.893747992521353"><ele>531.3333333333333</ele><time>2026-05-01T10:48:15Z</time></trkpt><trkpt lat="37.63317503912828" lon="14.893630319968029"><ele>533.0</ele><time>2026-05-01T10:48:16Z</time></trkpt><trkpt lat="37.63331699990225" lon="14.893512740357721"><ele>534.3333333333333</ele><time>2026-05-01T10:48:17Z</time></trkpt><trkpt lat="37.633458692842716" lon="14.89339597846097"><ele>535.6666666666666</ele><time>2026-05-01T10:48:18Z</time></trkpt><trkpt lat="37.633598903137006" lon="14.893279935571805"><ele>537.0</ele><time>2026-05-01T10:48:19Z</time></trkpt><trkpt lat="37.63373829197657" lon="14.8931623353787"><ele>537.0</ele><time>2026-05-01T10:48:20Z</time></trkpt><trkpt lat="37.63387621055755" lon="14.893046135911783"><ele>537.0</ele><time>2026-05-01T10:48:21Z</time></trkpt><trkpt lat="37.63401029175075" lon="14.892935239492703"><ele>537.0</ele><time>2026-05-01T10:48:22Z</time></trkpt><trkpt lat="37.6341427290588" lon="14.892826361874075"><ele>537.0</ele><time>2026-05-01T10:48:23Z</time></trkpt><trkpt lat="37.634273743495115" lon="14.892717697031628"><ele>537.0</ele><time>2026-05-01T10:48:24Z</time></trkpt><trkpt lat="37.63440701482954" lon="14.89260331555011"><ele>537.0</ele><time>2026-05-01T10:48:25Z</time></trkpt><trkpt lat="37.63454226703571" lon="14.892492854620178"><ele>538.3333333333334</ele><time>2026-05-01T10:48:26Z</time></trkpt><trkpt lat="37.63467772778147" lon="14.892381729903187"><ele>539.6666666666667</ele><time>2026-05-01T10:48:27Z</time></trkpt><trkpt lat="37.63481816272171" lon="14.892266156116502"><ele>541.0</ele><time>2026-05-01T10:48:28Z</time></trkpt><trkpt lat="37.63496205495217" lon="14.89214667500776"><ele>541.0</ele><time>2026-05-01T10:48:29Z</time></trkpt><trkpt lat="37.63510831323645" lon="14.892027565456504"><ele>541.0</ele><time>2026-05-01T10:48:30Z</time></trkpt><trkpt lat="37.635255035756884" lon="14.8919072233852"><ele>541.0</ele><time>2026-05-01T10:48:31Z</time></trkpt><trkpt lat="37.63540246027824" lon="14.891783602775563"><ele>543.0</ele><time>2026-05-01T10:48:32Z</time></trkpt><trkpt lat="37.63555216431599" lon="14.891658648652397"><ele>545.0</ele><time>2026-05-01T10:48:33Z</time></trkpt><trkpt lat="37.63569772945093" lon="14.891536635713377"><ele>547.0</ele><time>2026-05-01T10:48:33.999Z</time></trkpt><trkpt lat="37.635843150581806" lon="14.891415753690591"><ele>547.0</ele><time>2026-05-01T10:48:34.999Z</time></trkpt><trkpt lat="37.6359905854293" lon="14.891294249975891"><ele>547.0</ele><time>2026-05-01T10:48:35.999Z</time></trkpt><trkpt lat="37.63613283401844" lon="14.891176150883984"><ele>547.0</ele><time>2026-05-01T10:48:36.999Z</time></trkpt><trkpt lat="37.636273600848725" lon="14.891058679114787"><ele>546.3333333333334</ele><time>2026-05-01T10:48:37.999Z</time></trkpt><trkpt lat="37.63640915391789" lon="14.89094531116456"><ele>545.6666666666666</ele><time>2026-05-01T10:48:38.999Z</time></trkpt><trkpt lat="37.636540230356275" lon="14.890835160166496"><ele>545.0</ele><time>2026-05-01T10:48:39.999Z</time></trkpt><trkpt lat="37.636668812139554" lon="14.890728007374497"><ele>545.0</ele><time>2026-05-01T10:48:40.999Z</time></trkpt><trkpt lat="37.63679383405293" lon="14.890623469281389"><ele>545.0</ele><time>2026-05-01T10:48:41.999Z</time></trkpt><trkpt lat="37.63692001848465" lon="14.890518422824691"><ele>545.0</ele><time>2026-05-01T10:48:42.999Z</time></trkpt><trkpt lat="37.63704402601934" lon="14.890415440604768"><ele>545.0</ele><time>2026-05-01T10:48:43.999Z</time></trkpt><trkpt lat="37.63717028603015" lon="14.89031167536982"><ele>545.6666666666666</ele><time>2026-05-01T10:48:44.999Z</time></trkpt><trkpt lat="37.637296414839504" lon="14.890205263599553"><ele>546.3333333333334</ele><time>2026-05-01T10:48:45.999Z</time></trkpt><trkpt lat="37.63742398898557" lon="14.890100082112124"><ele>547.0</ele><time>2026-05-01T10:48:46.999Z</time></trkpt><trkpt lat="37.63754953248422" lon="14.8899972275118"><ele>547.0</ele><time>2026-05-01T10:48:47.999Z</time></trkpt><trkpt lat="37.63767460059228" lon="14.889891635719216"><ele>547.0</ele><time>2026-05-01T10:48:48.999Z</time></trkpt><trkpt lat="37.63779431865427" lon="14.889784204864544"><ele>547.0</ele><time>2026-05-01T10:48:49.999Z</time></trkpt><trkpt lat="37.63791244079602" lon="14.889678972894192"><ele>547.0</ele><time>2026-05-01T10:48:50.999Z</time></trkpt><trkpt lat="37.638026048402025" lon="14.889575277417045"><ele>547.3333333333334</ele><time>2026-05-01T10:48:51.999Z</time></trkpt><trkpt lat="37.638147370666545" lon="14.88949270672595"><ele>547.6666666666666</ele><time>2026-05-01T10:48:52.999Z</time></trkpt><trkpt lat="37.63833773628716" lon="14.88934145901978"><ele>548.0</ele><time>2026-05-01T10:48:53.999Z</time></trkpt><trkpt lat="37.63847334176796" lon="14.889226675439534"><ele>548.0</ele><time>2026-05-01T10:48:54.999Z</time></trkpt><trkpt lat="37.63861104551585" lon="14.889113735313137"><ele>548.0</ele><time>2026-05-01T10:48:55.999Z</time></trkpt><trkpt lat="37.63874304946171" lon="14.889004013285811"><ele>548.0</ele><time>2026-05-01T10:48:56.999Z</time></trkpt><trkpt lat="37.63887871974273" lon="14.888895840797902"><ele>549.25</ele><time>2026-05-01T10:48:57.999Z</time></trkpt><trkpt lat="37.6390053905967" lon="14.888787957945901"><ele>550.5</ele><time>2026-05-01T10:48:58.999Z</time></trkpt><trkpt lat="37.639127280001205" lon="14.888685988054883"><ele>551.75</ele><time>2026-05-01T10:48:59.999Z</time></trkpt><trkpt lat="37.639246624104224" lon="14.88858093903937"><ele>553.0</ele><time>2026-05-01T10:49:00.999Z</time></trkpt><trkpt lat="37.63936903139322" lon="14.88847465073761"><ele>553.6666666666667</ele><time>2026-05-01T10:49:01.999Z</time></trkpt><trkpt lat="37.639493770029425" lon="14.888372265165893"><ele>554.3333333333334</ele><time>2026-05-01T10:49:02.999Z</time></trkpt><trkpt lat="37.63962414933957" lon="14.888265403449779"><ele>555.0</ele><time>2026-05-01T10:49:03.999Z</time></trkpt><trkpt lat="37.639757446203326" lon="14.8881586317556"><ele>555.0</ele><time>2026-05-01T10:49:04.999Z</time></trkpt><trkpt lat="37.639892515963965" lon="14.888049420971965"><ele>555.0</ele><time>2026-05-01T10:49:05.999Z</time></trkpt><trkpt lat="37.64002784435784" lon="14.887937711360966"><ele>555.0</ele><time>2026-05-01T10:49:06.999Z</time></trkpt><trkpt lat="37.64016376120801" lon="14.88782618573525"><ele>556.3333333333334</ele><time>2026-05-01T10:49:07.999Z</time></trkpt><trkpt lat="37.64030328791609" lon="14.887709648624863"><ele>557.6666666666667</ele><time>2026-05-01T10:49:08.999Z</time></trkpt><trkpt lat="37.64044075710123" lon="14.887591119385107"><ele>559.0</ele><time>2026-05-01T10:49:09.999Z</time></trkpt><trkpt lat="37.64058122944123" lon="14.887473083444881"><ele>559.0</ele><time>2026-05-01T10:49:10.999Z</time></trkpt><trkpt lat="37.6407253384385" lon="14.887357108160598"><ele>559.0</ele><time>2026-05-01T10:49:11.999Z</time></trkpt><trkpt lat="37.64086377494656" lon="14.887242235306356"><ele>559.0</ele><time>2026-05-01T10:49:12.999Z</time></trkpt><trkpt lat="37.64100666071284" lon="14.887125301178767"><ele>561.0</ele><time>2026-05-01T10:49:13.999Z</time></trkpt><trkpt lat="37.64114220526727" lon="14.887010924808102"><ele>563.0</ele><time>2026-05-01T10:49:14.998Z</time></trkpt><trkpt lat="37.641276835578566" lon="14.886897740786745"><ele>565.0</ele><time>2026-05-01T10:49:15.998Z</time></trkpt><trkpt lat="37.6414116569686" lon="14.886783939773839"><ele>565.0</ele><time>2026-05-01T10:49:16.998Z</time></trkpt><trkpt lat="37.64154258349161" lon="14.886677483861686"><ele>565.0</ele><time>2026-05-01T10:49:17.998Z</time></trkpt><trkpt lat="37.64166883194817" lon="14.886566240400217"><ele>565.0</ele><time>2026-05-01T10:49:18.998Z</time></trkpt><trkpt lat="37.64180372931568" lon="14.886450522677855"><ele>565.0</ele><time>2026-05-01T10:49:19.998Z</time></trkpt><trkpt lat="37.641935150539574" lon="14.886332360915326"><ele>565.0</ele><time>2026-05-01T10:49:20.998Z</time></trkpt><trkpt lat="37.6420703580963" lon="14.8862192857129"><ele>565.0</ele><time>2026-05-01T10:49:21.998Z</time></trkpt><trkpt lat="37.64220770926274" lon="14.886103426257888"><ele>566.0</ele><time>2026-05-01T10:49:22.998Z</time></trkpt><trkpt lat="37.642338061537934" lon="14.885988701216627"><ele>567.0</ele><time>2026-05-01T10:49:23.998Z</time></trkpt><trkpt lat="37.64246871201514" lon="14.885884516439798"><ele>568.0</ele><time>2026-05-01T10:49:24.998Z</time></trkpt><trkpt lat="37.642595412420334" lon="14.885778834257435"><ele>568.0</ele><time>2026-05-01T10:49:25.998Z</time></trkpt><trkpt lat="37.64272178614217" lon="14.885676876677993"><ele>568.0</ele><time>2026-05-01T10:49:26.998Z</time></trkpt><trkpt lat="37.642848734065254" lon="14.885565787138136"><ele>568.0</ele><time>2026-05-01T10:49:27.998Z</time></trkpt><trkpt lat="37.642978295983646" lon="14.885453311033793"><ele>569.3333333333334</ele><time>2026-05-01T10:49:28.998Z</time></trkpt><trkpt lat="37.64310818097236" lon="14.885344269526454"><ele>570.6666666666666</ele><time>2026-05-01T10:49:29.998Z</time></trkpt><trkpt lat="37.643243119755596" lon="14.885230953864626"><ele>572.0</ele><time>2026-05-01T10:49:30.998Z</time></trkpt><trkpt lat="37.64337870146151" lon="14.8851145634654"><ele>572.6666666666666</ele><time>2026-05-01T10:49:31.998Z</time></trkpt><trkpt lat="37.64351402968528" lon="14.88499969858556"><ele>573.3333333333334</ele><time>2026-05-01T10:49:32.998Z</time></trkpt><trkpt lat="37.64365095154716" lon="14.88488375101261"><ele>574.0</ele><time>2026-05-01T10:49:33.998Z</time></trkpt><trkpt lat="37.64378484957818" lon="14.884770702397754"><ele>574.0</ele><time>2026-05-01T10:49:34.998Z</time></trkpt><trkpt lat="37.643911238872434" lon="14.884661167600253"><ele>574.0</ele><time>2026-05-01T10:49:35.998Z</time></trkpt><trkpt lat="37.64403765361575" lon="14.884554465020578"><ele>574.0</ele><time>2026-05-01T10:49:36.998Z</time></trkpt><trkpt lat="37.64416600593131" lon="14.884446188356465"><ele>574.0</ele><time>2026-05-01T10:49:37.998Z</time></trkpt><trkpt lat="37.64428916146899" lon="14.88434190846236"><ele>574.0</ele><time>2026-05-01T10:49:38.998Z</time></trkpt><trkpt lat="37.64441023976652" lon="14.884239643744849"><ele>574.0</ele><time>2026-05-01T10:49:39.998Z</time></trkpt><trkpt lat="37.64453114048678" lon="14.884134989217715"><ele>574.0</ele><time>2026-05-01T10:49:40.998Z</time></trkpt><trkpt lat="37.64465725847857" lon="14.884030850592943"><ele>577.0</ele><time>2026-05-01T10:49:41.998Z</time></trkpt><trkpt lat="37.644782027879145" lon="14.883926895045656"><ele>580.0</ele><time>2026-05-01T10:49:42.998Z</time></trkpt><trkpt lat="37.64490905148421" lon="14.883816477379499"><ele>583.0</ele><time>2026-05-01T10:49:43.998Z</time></trkpt><trkpt lat="37.64503738839686" lon="14.883706605510111"><ele>583.0</ele><time>2026-05-01T10:49:44.998Z</time></trkpt><trkpt lat="37.64516606647525" lon="14.883595112747054"><ele>583.0</ele><time>2026-05-01T10:49:45.998Z</time></trkpt><trkpt lat="37.64528952019736" lon="14.883487682858801"><ele>583.0</ele><time>2026-05-01T10:49:46.998Z</time></trkpt><trkpt lat="37.64541245518962" lon="14.883386581364071"><ele>585.0</ele><time>2026-05-01T10:49:47.998Z</time></trkpt><trkpt lat="37.64553109816937" lon="14.883286946508141"><ele>587.0</ele><time>2026-05-01T10:49:48.998Z</time></trkpt><trkpt lat="37.64565132652116" lon="14.883186013419815"><ele>589.0</ele><time>2026-05-01T10:49:49.998Z</time></trkpt><trkpt lat="37.64577686579753" lon="14.883080370348205"><ele>591.0</ele><time>2026-05-01T10:49:50.998Z</time></trkpt><trkpt lat="37.64589997391473" lon="14.882971886052792"><ele>591.0</ele><time>2026-05-01T10:49:51.998Z</time></trkpt><trkpt lat="37.64602608045151" lon="14.882861698007478"><ele>591.0</ele><time>2026-05-01T10:49:52.998Z</time></trkpt><trkpt lat="37.64615367029943" lon="14.882752654635134"><ele>591.0</ele><time>2026-05-01T10:49:53.998Z</time></trkpt><trkpt lat="37.646274490674564" lon="14.882644564565087"><ele>592.25</ele><time>2026-05-01T10:49:54.998Z</time></trkpt><trkpt lat="37.64639626432995" lon="14.8825337498875"><ele>593.5</ele><time>2026-05-01T10:49:55.998Z</time></trkpt><trkpt lat="37.64651763940727" lon="14.882426515819404"><ele>594.75</ele><time>2026-05-01T10:49:56.997Z</time></trkpt><trkpt lat="37.64664195188354" lon="14.882321400648205"><ele>596.0</ele><time>2026-05-01T10:49:57.997Z</time></trkpt><trkpt lat="37.64676811675668" lon="14.882214990193226"><ele>596.0</ele><time>2026-05-01T10:49:58.997Z</time></trkpt><trkpt lat="37.6468915483068" lon="14.882113026536295"><ele>596.0</ele><time>2026-05-01T10:49:59.997Z</time></trkpt><trkpt lat="37.647015707494106" lon="14.882008962333687"><ele>596.0</ele><time>2026-05-01T10:50:00.997Z</time></trkpt><trkpt lat="37.64714419305156" lon="14.881897658888445"><ele>598.0</ele><time>2026-05-01T10:50:01.997Z</time></trkpt><trkpt lat="37.64727141211537" lon="14.881787337362654"><ele>600.0</ele><time>2026-05-01T10:50:02.997Z</time></trkpt><trkpt lat="37.64739908007989" lon="14.881673486225264"><ele>602.0</ele><time>2026-05-01T10:50:03.997Z</time></trkpt><trkpt lat="37.647528279866016" lon="14.881563269208868"><ele>602.0</ele><time>2026-05-01T10:50:04.997Z</time></trkpt><trkpt lat="37.647658801096796" lon="14.881453708333828"><ele>602.0</ele><time>2026-05-01T10:50:05.997Z</time></trkpt><trkpt lat="37.64778462760889" lon="14.881342684505048"><ele>602.0</ele><time>2026-05-01T10:50:06.997Z</time></trkpt><trkpt lat="37.64791542249723" lon="14.881232518819893"><ele>603.3333333333333</ele><time>2026-05-01T10:50:08Z</time></trkpt><trkpt lat="37.64804431298837" lon="14.881120016132398"><ele>604.6666666666666</ele><time>2026-05-01T10:50:09Z</time></trkpt><trkpt lat="37.64817684371569" lon="14.881007822398804"><ele>606.0</ele><time>2026-05-01T10:50:10Z</time></trkpt><trkpt lat="37.64831208764194" lon="14.880893621342315"><ele>605.0</ele><time>2026-05-01T10:50:11Z</time></trkpt><trkpt lat="37.64844649084525" lon="14.880779388921342"><ele>604.0</ele><time>2026-05-01T10:50:12Z</time></trkpt><trkpt lat="37.64858293277908" lon="14.88066357647423"><ele>603.0</ele><time>2026-05-01T10:50:13Z</time></trkpt><trkpt lat="37.64872021799346" lon="14.88054813684723"><ele>603.0</ele><time>2026-05-01T10:50:14Z</time></trkpt><trkpt lat="37.64886071679016" lon="14.880429139632907"><ele>603.0</ele><time>2026-05-01T10:50:15Z</time></trkpt><trkpt lat="37.648999956082875" lon="14.880309045270549"><ele>603.0</ele><time>2026-05-01T10:50:16Z</time></trkpt><trkpt lat="37.64914272014563" lon="14.880185101368683"><ele>604.3333333333334</ele><time>2026-05-01T10:50:17Z</time></trkpt><trkpt lat="37.649289798597025" lon="14.880058434925644"><ele>605.6666666666667</ele><time>2026-05-01T10:50:18Z</time></trkpt><trkpt lat="37.64943857138375" lon="14.879933704441399"><ele>607.0</ele><time>2026-05-01T10:50:19Z</time></trkpt><trkpt lat="37.64958746522409" lon="14.879806451903221"><ele>609.0</ele><time>2026-05-01T10:50:20Z</time></trkpt><trkpt lat="37.6497384834697" lon="14.879678675003115"><ele>611.0</ele><time>2026-05-01T10:50:21Z</time></trkpt><trkpt lat="37.64989139382692" lon="14.879549177749743"><ele>613.0</ele><time>2026-05-01T10:50:22Z</time></trkpt><trkpt lat="37.65004075750605" lon="14.879423488372504"><ele>613.0</ele><time>2026-05-01T10:50:23Z</time></trkpt><trkpt lat="37.65018586223795" lon="14.87930328664227"><ele>613.0</ele><time>2026-05-01T10:50:24Z</time></trkpt><trkpt lat="37.6503292707133" lon="14.879184461873002"><ele>613.0</ele><time>2026-05-01T10:50:25Z</time></trkpt><trkpt lat="37.650463049061514" lon="14.87906864862855"><ele>612.3333333333334</ele><time>2026-05-01T10:50:26Z</time></trkpt><trkpt lat="37.65059191894378" lon="14.878957461047913"><ele>611.6666666666666</ele><time>2026-05-01T10:50:27Z</time></trkpt><trkpt lat="37.6507237862376" lon="14.878845295979254"><ele>611.0</ele><time>2026-05-01T10:50:28Z</time></trkpt><trkpt lat="37.65085697553421" lon="14.878731416623499"><ele>611.0</ele><time>2026-05-01T10:50:29Z</time></trkpt><trkpt lat="37.650987735767615" lon="14.878617393057189"><ele>611.0</ele><time>2026-05-01T10:50:30Z</time></trkpt><trkpt lat="37.65112214769289" lon="14.878504271153515"><ele>611.0</ele><time>2026-05-01T10:50:31Z</time></trkpt><trkpt lat="37.65125595058931" lon="14.878390653052938"><ele>612.6666666666666</ele><time>2026-05-01T10:50:32Z</time></trkpt><trkpt lat="37.65138886364925" lon="14.87827898724712"><ele>614.3333333333334</ele><time>2026-05-01T10:50:33Z</time></trkpt><trkpt lat="37.65151903737726" lon="14.87816903716743"><ele>616.0</ele><time>2026-05-01T10:50:34Z</time></trkpt><trkpt lat="37.65164555848896" lon="14.878063731519365"><ele>616.0</ele><time>2026-05-01T10:50:34.999Z</time></trkpt><trkpt lat="37.65176612184211" lon="14.877956538842186"><ele>616.0</ele><time>2026-05-01T10:50:35.999Z</time></trkpt><trkpt lat="37.65188169238341" lon="14.877849235434667"><ele>616.0</ele><time>2026-05-01T10:50:36.999Z</time></trkpt><trkpt lat="37.65199330548232" lon="14.877743172519317"><ele>616.0</ele><time>2026-05-01T10:50:37.999Z</time></trkpt><trkpt lat="37.65210290025" lon="14.87762970157015"><ele>616.25</ele><time>2026-05-01T10:50:38.999Z</time></trkpt><trkpt lat="37.65219928067754" lon="14.877525016268509"><ele>616.5</ele><time>2026-05-01T10:50:39.999Z</time></trkpt><trkpt lat="37.652279158316524" lon="14.877434273291929"><ele>616.75</ele><time>2026-05-01T10:50:40.999Z</time></trkpt><trkpt lat="37.65235763032739" lon="14.877334515053553"><ele>617.0</ele><time>2026-05-01T10:50:41.999Z</time></trkpt><trkpt lat="37.65243478568375" lon="14.877225388342112"><ele>617.0</ele><time>2026-05-01T10:50:42.999Z</time></trkpt><trkpt lat="37.65250997878075" lon="14.87710831851025"><ele>617.0</ele><time>2026-05-01T10:50:43.999Z</time></trkpt><trkpt lat="37.652586636443665" lon="14.876976528959375"><ele>617.0</ele><time>2026-05-01T10:50:44.999Z</time></trkpt><trkpt lat="37.65266342409606" lon="14.876834643102635"><ele>617.0</ele><time>2026-05-01T10:50:45.999Z</time></trkpt><trkpt lat="37.65275292125685" lon="14.876684859558699"><ele>618.0</ele><time>2026-05-01T10:50:46.999Z</time></trkpt><trkpt lat="37.6528431990585" lon="14.876526649659763"><ele>619.0</ele><time>2026-05-01T10:50:47.999Z</time></trkpt><trkpt lat="37.652932561173785" lon="14.87635846405672"><ele>620.0</ele><time>2026-05-01T10:50:48.999Z</time></trkpt><trkpt lat="37.65302129382378" lon="14.87618627137823"><ele>620.0</ele><time>2026-05-01T10:50:49.999Z</time></trkpt><trkpt lat="37.653108762105695" lon="14.876004920485117"><ele>620.0</ele><time>2026-05-01T10:50:50.999Z</time></trkpt><trkpt lat="37.65319933931128" lon="14.875813817962165"><ele>620.0</ele><time>2026-05-01T10:50:51.999Z</time></trkpt><trkpt lat="37.65329440187259" lon="14.8756177192892"><ele>619.6666666666666</ele><time>2026-05-01T10:50:52.999Z</time></trkpt><trkpt lat="37.6533952232779" lon="14.875416707165337"><ele>619.3333333333334</ele><time>2026-05-01T10:50:53.999Z</time></trkpt><trkpt lat="37.65349833173029" lon="14.875212529617931"><ele>619.0</ele><time>2026-05-01T10:50:54.999Z</time></trkpt><trkpt lat="37.653602055223914" lon="14.87500314368228"><ele>619.0</ele><time>2026-05-01T10:50:55.999Z</time></trkpt><trkpt lat="37.65370688686733" lon="14.87479010264331"><ele>619.0</ele><time>2026-05-01T10:50:56.999Z</time></trkpt><trkpt lat="37.653811207286175" lon="14.874571890415535"><ele>619.0</ele><time>2026-05-01T10:50:57.999Z</time></trkpt><trkpt lat="37.653917546493794" lon="14.874350977904284"><ele>617.3333333333334</ele><time>2026-05-01T10:50:58.999Z</time></trkpt><trkpt lat="37.654021402616515" lon="14.874132669827917"><ele>615.6666666666666</ele><time>2026-05-01T10:50:59.999Z</time></trkpt><trkpt lat="37.65412382344687" lon="14.87391929646733"><ele>614.0</ele><time>2026-05-01T10:51:00.999Z</time></trkpt><trkpt lat="37.654229471299644" lon="14.873703551572524"><ele>614.0</ele><time>2026-05-01T10:51:01.999Z</time></trkpt><trkpt lat="37.654336687581676" lon="14.873486663234262"><ele>614.0</ele><time>2026-05-01T10:51:02.999Z</time></trkpt><trkpt lat="37.65444625280553" lon="14.873268380706165"><ele>614.0</ele><time>2026-05-01T10:51:03.999Z</time></trkpt><trkpt lat="37.654557579944736" lon="14.87304588668592"><ele>614.6666666666666</ele><time>2026-05-01T10:51:04.999Z</time></trkpt><trkpt lat="37.65467019111693" lon="14.872822625159998"><ele>615.3333333333334</ele><time>2026-05-01T10:51:05.999Z</time></trkpt><trkpt lat="37.65478144748499" lon="14.872596266082086"><ele>616.0</ele><time>2026-05-01T10:51:06.999Z</time></trkpt><trkpt lat="37.65489229355337" lon="14.872363479651723"><ele>616.0</ele><time>2026-05-01T10:51:07.999Z</time></trkpt><trkpt lat="37.655003146759576" lon="14.872134076029544"><ele>616.0</ele><time>2026-05-01T10:51:08.999Z</time></trkpt><trkpt lat="37.65511751114659" lon="14.87190244212943"><ele>616.0</ele><time>2026-05-01T10:51:09.999Z</time></trkpt><trkpt lat="37.65523299872634" lon="14.871673596859475"><ele>615.6666666666667</ele><time>2026-05-01T10:51:10.999Z</time></trkpt><trkpt lat="37.65534914586797" lon="14.871444249563678"><ele>615.3333333333334</ele><time>2026-05-01T10:51:11.999Z</time></trkpt><trkpt lat="37.65546243795544" lon="14.87121287896966"><ele>615.0</ele><time>2026-05-01T10:51:12.999Z</time></trkpt><trkpt lat="37.65557441777356" lon="14.870981307926549"><ele>615.0</ele><time>2026-05-01T10:51:13.998Z</time></trkpt><trkpt lat="37.655685458547616" lon="14.870749995516952"><ele>615.0</ele><time>2026-05-01T10:51:14.998Z</time></trkpt><trkpt lat="37.655800297973386" lon="14.87051718931327"><ele>615.0</ele><time>2026-05-01T10:51:15.998Z</time></trkpt><trkpt lat="37.65591659683942" lon="14.870286276673617"><ele>615.3333333333334</ele><time>2026-05-01T10:51:16.998Z</time></trkpt><trkpt lat="37.656029648094076" lon="14.870058708274456"><ele>615.6666666666667</ele><time>2026-05-01T10:51:17.998Z</time></trkpt><trkpt lat="37.656144427635944" lon="14.869827276084528"><ele>616.0</ele><time>2026-05-01T10:51:18.998Z</time></trkpt><trkpt lat="37.65626170168549" lon="14.869600793754776"><ele>616.0</ele><time>2026-05-01T10:51:19.998Z</time></trkpt><trkpt lat="37.656395111559554" lon="14.869382880810116"><ele>616.0</ele><time>2026-05-01T10:51:20.998Z</time></trkpt><trkpt lat="37.656530650105665" lon="14.869187100064284"><ele>616.0</ele><time>2026-05-01T10:51:21.998Z</time></trkpt><trkpt lat="37.65667273392454" lon="14.869008741341451"><ele>616.0</ele><time>2026-05-01T10:51:22.998Z</time></trkpt><trkpt lat="37.65682453463269" lon="14.868845946547708"><ele>616.0</ele><time>2026-05-01T10:51:23.998Z</time></trkpt><trkpt lat="37.656984301868" lon="14.86869627548531"><ele>616.0</ele><time>2026-05-01T10:51:24.998Z</time></trkpt><trkpt lat="37.65714863564026" lon="14.868559762644864"><ele>617.3333333333334</ele><time>2026-05-01T10:51:25.998Z</time></trkpt><trkpt lat="37.65732212576622" lon="14.868433466972492"><ele>618.6666666666666</ele><time>2026-05-01T10:51:26.998Z</time></trkpt><trkpt lat="37.6574998848882" lon="14.868320585328409"><ele>620.0</ele><time>2026-05-01T10:51:27.998Z</time></trkpt><trkpt lat="37.65768344140408" lon="14.868217404775116"><ele>623.3333333333333</ele><time>2026-05-01T10:51:28.998Z</time></trkpt><trkpt lat="37.65787120059381" lon="14.86812496998716"><ele>626.6666666666666</ele><time>2026-05-01T10:51:29.998Z</time></trkpt><trkpt lat="37.65806295721764" lon="14.868039347709148"><ele>630.0</ele><time>2026-05-01T10:51:30.998Z</time></trkpt><trkpt lat="37.65825644541086" lon="14.867959770763658"><ele>630.0</ele><time>2026-05-01T10:51:31.998Z</time></trkpt><trkpt lat="37.65844939621945" lon="14.867876425380022"><ele>630.0</ele><time>2026-05-01T10:51:32.998Z</time></trkpt><trkpt lat="37.65864134426556" lon="14.867795558017272"><ele>630.0</ele><time>2026-05-01T10:51:33.998Z</time></trkpt><trkpt lat="37.6588332701402" lon="14.867715259107216"><ele>629.6666666666666</ele><time>2026-05-01T10:51:34.998Z</time></trkpt><trkpt lat="37.65902469660855" lon="14.867632936265737"><ele>629.3333333333333</ele><time>2026-05-01T10:51:35.998Z</time></trkpt><trkpt lat="37.659213997568635" lon="14.867550329049024"><ele>629.0</ele><time>2026-05-01T10:51:36.998Z</time></trkpt><trkpt lat="37.659405190904685" lon="14.867467427739326"><ele>628.6666666666666</ele><time>2026-05-01T10:51:37.998Z</time></trkpt><trkpt lat="37.65959422425727" lon="14.867389315964143"><ele>628.3333333333334</ele><time>2026-05-01T10:51:38.998Z</time></trkpt><trkpt lat="37.65978525047735" lon="14.867311289758414"><ele>628.0</ele><time>2026-05-01T10:51:39.998Z</time></trkpt><trkpt lat="37.659976723603116" lon="14.867233000479136"><ele>628.0</ele><time>2026-05-01T10:51:40.998Z</time></trkpt><trkpt lat="37.66016642325343" lon="14.8671551371603"><ele>628.0</ele><time>2026-05-01T10:51:41.998Z</time></trkpt><trkpt lat="37.660356370251726" lon="14.867076952540009"><ele>628.0</ele><time>2026-05-01T10:51:42.998Z</time></trkpt><trkpt lat="37.660545805933104" lon="14.86699920229914"><ele>627.6666666666667</ele><time>2026-05-01T10:51:43.998Z</time></trkpt><trkpt lat="37.66073407990685" lon="14.866924425586241"><ele>627.3333333333334</ele><time>2026-05-01T10:51:44.998Z</time></trkpt><trkpt lat="37.660920089723255" lon="14.866850493230107"><ele>627.0</ele><time>2026-05-01T10:51:45.998Z</time></trkpt><trkpt lat="37.66110210950368" lon="14.866775501121895"><ele>628.0</ele><time>2026-05-01T10:51:46.998Z</time></trkpt><trkpt lat="37.66128055211059" lon="14.866694409970135"><ele>629.0</ele><time>2026-05-01T10:51:47.998Z</time></trkpt><trkpt lat="37.66145555130782" lon="14.866603085799127"><ele>630.0</ele><time>2026-05-01T10:51:48.998Z</time></trkpt><trkpt lat="37.66161950529429" lon="14.866499899384435"><ele>630.0</ele><time>2026-05-01T10:51:49.998Z</time></trkpt><trkpt lat="37.66177278799056" lon="14.86638519761992"><ele>630.0</ele><time>2026-05-01T10:51:50.998Z</time></trkpt><trkpt lat="37.66191389490297" lon="14.866253204682163"><ele>630.0</ele><time>2026-05-01T10:51:51.998Z</time></trkpt><trkpt lat="37.66204662085408" lon="14.86610828857859"><ele>630.6666666666666</ele><time>2026-05-01T10:51:52.998Z</time></trkpt><trkpt lat="37.662173918506916" lon="14.865947759221784"><ele>631.3333333333333</ele><time>2026-05-01T10:51:53.998Z</time></trkpt><trkpt lat="37.66229619481187" lon="14.86577132023459"><ele>632.0</ele><time>2026-05-01T10:51:54.997Z</time></trkpt><trkpt lat="37.66240902590427" lon="14.86558386987064"><ele>630.3333333333333</ele><time>2026-05-01T10:51:55.997Z</time></trkpt><trkpt lat="37.66251051074727" lon="14.865388793744273"><ele>628.6666666666666</ele><time>2026-05-01T10:51:56.997Z</time></trkpt><trkpt lat="37.662605176410125" lon="14.865185720000348"><ele>627.0</ele><time>2026-05-01T10:51:57.997Z</time></trkpt><trkpt lat="37.662696643606694" lon="14.864978593044126"><ele>629.0</ele><time>2026-05-01T10:51:58.997Z</time></trkpt><trkpt lat="37.662789280003985" lon="14.864774308709526"><ele>631.0</ele><time>2026-05-01T10:51:59.997Z</time></trkpt><trkpt lat="37.6628848594557" lon="14.864565350579882"><ele>633.0</ele><time>2026-05-01T10:52:00.997Z</time></trkpt><trkpt lat="37.662981088107756" lon="14.864354954379579"><ele>631.6666666666666</ele><time>2026-05-01T10:52:01.997Z</time></trkpt><trkpt lat="37.663077360258676" lon="14.864139933516169"><ele>630.3333333333333</ele><time>2026-05-01T10:52:02.997Z</time></trkpt><trkpt lat="37.663175335866946" lon="14.863922603869906"><ele>629.0</ele><time>2026-05-01T10:52:03.997Z</time></trkpt><trkpt lat="37.66327534672989" lon="14.86370376323918"><ele>629.0</ele><time>2026-05-01T10:52:04.997Z</time></trkpt><trkpt lat="37.66337698644542" lon="14.86348199672582"><ele>629.0</ele><time>2026-05-01T10:52:05.997Z</time></trkpt><trkpt lat="37.66347905139851" lon="14.863258849027227"><ele>629.0</ele><time>2026-05-01T10:52:06.997Z</time></trkpt><trkpt lat="37.66357979537624" lon="14.863034751777642"><ele>630.0</ele><time>2026-05-01T10:52:07.997Z</time></trkpt><trkpt lat="37.663680816532796" lon="14.862810970864881"><ele>631.0</ele><time>2026-05-01T10:52:08.997Z</time></trkpt><trkpt lat="37.66378141628014" lon="14.862585366295574"><ele>632.0</ele><time>2026-05-01T10:52:09.997Z</time></trkpt><trkpt lat="37.66388262035158" lon="14.86235537744373"><ele>632.0</ele><time>2026-05-01T10:52:10.997Z</time></trkpt><trkpt lat="37.663982368090274" lon="14.862123812421762"><ele>632.0</ele><time>2026-05-01T10:52:11.997Z</time></trkpt><trkpt lat="37.664078940023316" lon="14.861897089063618"><ele>632.0</ele><time>2026-05-01T10:52:12.997Z</time></trkpt><trkpt lat="37.664178311998356" lon="14.861674313153207"><ele>633.3333333333333</ele><time>2026-05-01T10:52:14Z</time></trkpt><trkpt lat="37.664279889957626" lon="14.861459424780097"><ele>634.6666666666666</ele><time>2026-05-01T10:52:15Z</time></trkpt><trkpt lat="37.66438086809649" lon="14.861243306428822"><ele>636.0</ele><time>2026-05-01T10:52:16Z</time></trkpt><trkpt lat="37.66447982223722" lon="14.86102740910362"><ele>635.6666666666666</ele><time>2026-05-01T10:52:17Z</time></trkpt><trkpt lat="37.66457945186348" lon="14.86081231001159"><ele>635.3333333333333</ele><time>2026-05-01T10:52:18Z</time></trkpt><trkpt lat="37.664679256862556" lon="14.860598298327464"><ele>635.0</ele><time>2026-05-01T10:52:19Z</time></trkpt><trkpt lat="37.6647804127957" lon="14.860384580257632"><ele>635.0</ele><time>2026-05-01T10:52:20Z</time></trkpt><trkpt lat="37.66488176240125" lon="14.860169533930009"><ele>635.0</ele><time>2026-05-01T10:52:21Z</time></trkpt><trkpt lat="37.664980198503976" lon="14.859953175764293"><ele>635.0</ele><time>2026-05-01T10:52:22Z</time></trkpt><trkpt lat="37.66507550584806" lon="14.859734495477404"><ele>635.0</ele><time>2026-05-01T10:52:23Z</time></trkpt><trkpt lat="37.665172232255706" lon="14.859514828870008"><ele>635.0</ele><time>2026-05-01T10:52:24Z</time></trkpt><trkpt lat="37.66526774937699" lon="14.859293348223533"><ele>635.0</ele><time>2026-05-01T10:52:25Z</time></trkpt><trkpt lat="37.665363942712176" lon="14.859070624119228"><ele>635.0</ele><time>2026-05-01T10:52:26Z</time></trkpt><trkpt lat="37.665464169046004" lon="14.858847698029434"><ele>635.0</ele><time>2026-05-01T10:52:27Z</time></trkpt><trkpt lat="37.66556571858663" lon="14.858625078327968"><ele>635.0</ele><time>2026-05-01T10:52:28Z</time></trkpt><trkpt lat="37.66566825407724" lon="14.858401431284326"><ele>635.0</ele><time>2026-05-01T10:52:29Z</time></trkpt><trkpt lat="37.66577237650019" lon="14.858177041842518"><ele>635.0</ele><time>2026-05-01T10:52:30Z</time></trkpt><trkpt lat="37.66587682152216" lon="14.857951227973652"><ele>635.0</ele><time>2026-05-01T10:52:31Z</time></trkpt><trkpt lat="37.66598141678409" lon="14.857725805999998"><ele>636.3333333333333</ele><time>2026-05-01T10:52:32Z</time></trkpt><trkpt lat="37.666085518941095" lon="14.857500324300936"><ele>637.6666666666666</ele><time>2026-05-01T10:52:33Z</time></trkpt><trkpt lat="37.666189574882026" lon="14.857271879432844"><ele>639.0</ele><time>2026-05-01T10:52:34Z</time></trkpt><trkpt lat="37.66629564375847" lon="14.857047817237051"><ele>639.0</ele><time>2026-05-01T10:52:35Z</time></trkpt><trkpt lat="37.6664043706718" lon="14.856822088379742"><ele>639.0</ele><time>2026-05-01T10:52:36Z</time></trkpt><trkpt lat="37.666515979152976" lon="14.856596590087825"><ele>639.0</ele><time>2026-05-01T10:52:37Z</time></trkpt><trkpt lat="37.66663065791842" lon="14.856369602811796"><ele>639.0</ele><time>2026-05-01T10:52:38Z</time></trkpt><trkpt lat="37.66674981124613" lon="14.856143439222462"><ele>639.0</ele><time>2026-05-01T10:52:39Z</time></trkpt><trkpt lat="37.666872930283446" lon="14.855920659261491"><ele>639.0</ele><time>2026-05-01T10:52:40Z</time></trkpt><trkpt lat="37.66700252086624" lon="14.855700143903299"><ele>640.0</ele><time>2026-05-01T10:52:41Z</time></trkpt><trkpt lat="37.66713648245701" lon="14.8554828261184"><ele>641.0</ele><time>2026-05-01T10:52:41.999Z</time></trkpt><trkpt lat="37.66727633841345" lon="14.855266530749482"><ele>642.0</ele><time>2026-05-01T10:52:42.999Z</time></trkpt><trkpt lat="37.667421551074106" lon="14.855049505922123"><ele>636.5</ele><time>2026-05-01T10:52:43.999Z</time></trkpt><trkpt lat="37.66756345621404" lon="14.854832319769923"><ele>631.0</ele><time>2026-05-01T10:52:44.999Z</time></trkpt><trkpt lat="37.66770854696139" lon="14.854611943120853"><ele>630.0</ele><time>2026-05-01T10:52:45.999Z</time></trkpt><trkpt lat="37.66785277619654" lon="14.854390882719569"><ele>629.0</ele><time>2026-05-01T10:52:46.999Z</time></trkpt><trkpt lat="37.66799662272273" lon="14.854169250313296"><ele>629.0</ele><time>2026-05-01T10:52:47.999Z</time></trkpt><trkpt lat="37.668142270538006" lon="14.85394561178704"><ele>629.0</ele><time>2026-05-01T10:52:48.999Z</time></trkpt><trkpt lat="37.66828956728284" lon="14.853721288948885"><ele>629.0</ele><time>2026-05-01T10:52:49.999Z</time></trkpt><trkpt lat="37.668437221758396" lon="14.853495578530417"><ele>629.0</ele><time>2026-05-01T10:52:50.999Z</time></trkpt><trkpt lat="37.66858530855632" lon="14.853272297854856"><ele>629.0</ele><time>2026-05-01T10:52:51.999Z</time></trkpt><trkpt lat="37.668734380388926" lon="14.853049382428575"><ele>629.0</ele><time>2026-05-01T10:52:52.999Z</time></trkpt><trkpt lat="37.668882327097805" lon="14.852825291438412"><ele>628.0</ele><time>2026-05-01T10:52:53.999Z</time></trkpt><trkpt lat="37.66903165385792" lon="14.852599687356316"><ele>627.0</ele><time>2026-05-01T10:52:54.999Z</time></trkpt><trkpt lat="37.66917877931792" lon="14.85237783095961"><ele>627.0</ele><time>2026-05-01T10:52:55.999Z</time></trkpt><trkpt lat="37.669324221233715" lon="14.852159126642501"><ele>627.0</ele><time>2026-05-01T10:52:56.999Z</time></trkpt><trkpt lat="37.66947024727782" lon="14.851939623856326"><ele>631.0</ele><time>2026-05-01T10:52:57.999Z</time></trkpt><trkpt lat="37.669617045285285" lon="14.851721365735129"><ele>635.0</ele><time>2026-05-01T10:52:58.999Z</time></trkpt><trkpt lat="37.669763090963485" lon="14.85150542218849"><ele>635.0</ele><time>2026-05-01T10:52:59.999Z</time></trkpt><trkpt lat="37.66990148359919" lon="14.85129853419717"><ele>635.0</ele><time>2026-05-01T10:53:00.999Z</time></trkpt><trkpt lat="37.67003435039338" lon="14.851099082373146"><ele>635.0</ele><time>2026-05-01T10:53:01.999Z</time></trkpt><trkpt lat="37.67016580788023" lon="14.850904643397865"><ele>637.3333333333333</ele><time>2026-05-01T10:53:02.999Z</time></trkpt><trkpt lat="37.67029213993263" lon="14.85071623948833"><ele>639.6666666666666</ele><time>2026-05-01T10:53:03.999Z</time></trkpt><trkpt lat="37.670418183002276" lon="14.850529292438054"><ele>642.0</ele><time>2026-05-01T10:53:04.999Z</time></trkpt><trkpt lat="37.670541059852006" lon="14.850345313029809"><ele>642.0</ele><time>2026-05-01T10:53:05.999Z</time></trkpt><trkpt lat="37.670663304875305" lon="14.850160047439257"><ele>642.0</ele><time>2026-05-01T10:53:06.999Z</time></trkpt><trkpt lat="37.67078750450868" lon="14.849973065039954"><ele>642.0</ele><time>2026-05-01T10:53:07.999Z</time></trkpt><trkpt lat="37.670911723229345" lon="14.849787481705187"><ele>642.0</ele><time>2026-05-01T10:53:08.999Z</time></trkpt><trkpt lat="37.67103576390781" lon="14.849599814680728"><ele>642.0</ele><time>2026-05-01T10:53:09.999Z</time></trkpt><trkpt lat="37.67115911006102" lon="14.849413614306707"><ele>642.0</ele><time>2026-05-01T10:53:10.999Z</time></trkpt><trkpt lat="37.6712816172937" lon="14.849226499807173"><ele>643.3333333333334</ele><time>2026-05-01T10:53:11.999Z</time></trkpt><trkpt lat="37.671403551036356" lon="14.849040006721657"><ele>644.6666666666667</ele><time>2026-05-01T10:53:12.999Z</time></trkpt><trkpt lat="37.67152402467615" lon="14.848854616281129"><ele>646.0</ele><time>2026-05-01T10:53:13.999Z</time></trkpt><trkpt lat="37.671646584782856" lon="14.848667907961953"><ele>646.0</ele><time>2026-05-01T10:53:14.999Z</time></trkpt><trkpt lat="37.67176945359126" lon="14.848480950901282"><ele>646.0</ele><time>2026-05-01T10:53:15.999Z</time></trkpt><trkpt lat="37.67189178062911" lon="14.848290337992797"><ele>646.0</ele><time>2026-05-01T10:53:16.999Z</time></trkpt><trkpt lat="37.672013665147965" lon="14.848096074031957"><ele>644.6666666666667</ele><time>2026-05-01T10:53:17.999Z</time></trkpt><trkpt lat="37.672132483036116" lon="14.84789747400225"><ele>643.3333333333334</ele><time>2026-05-01T10:53:18.999Z</time></trkpt><trkpt lat="37.67224520480359" lon="14.847692815462102"><ele>642.0</ele><time>2026-05-01T10:53:19.999Z</time></trkpt><trkpt lat="37.67235083273976" lon="14.84748284536865"><ele>640.6666666666666</ele><time>2026-05-01T10:53:20.999Z</time></trkpt><trkpt lat="37.67244991811626" lon="14.847268777850372"><ele>639.3333333333333</ele><time>2026-05-01T10:53:21.999Z</time></trkpt><trkpt lat="37.67254147893293" lon="14.847054680997713"><ele>638.0</ele><time>2026-05-01T10:53:22.999Z</time></trkpt><trkpt lat="37.672623417307456" lon="14.846840719836402"><ele>638.0</ele><time>2026-05-01T10:53:23.998Z</time></trkpt><trkpt lat="37.672697120401345" lon="14.846626909709146"><ele>638.0</ele><time>2026-05-01T10:53:24.998Z</time></trkpt><trkpt lat="37.672766537598285" lon="14.846414898255842"><ele>638.0</ele><time>2026-05-01T10:53:25.998Z</time></trkpt><trkpt lat="37.67283204512867" lon="14.846200128012311"><ele>638.6666666666666</ele><time>2026-05-01T10:53:26.998Z</time></trkpt><trkpt lat="37.672895407423496" lon="14.84598356961341"><ele>639.3333333333334</ele><time>2026-05-01T10:53:27.998Z</time></trkpt><trkpt lat="37.67295905571304" lon="14.845762116209555"><ele>640.0</ele><time>2026-05-01T10:53:28.998Z</time></trkpt><trkpt lat="37.673022102402754" lon="14.845540208015995"><ele>640.0</ele><time>2026-05-01T10:53:29.998Z</time></trkpt><trkpt lat="37.673086681083966" lon="14.84531703221275"><ele>640.0</ele><time>2026-05-01T10:53:30.998Z</time></trkpt><trkpt lat="37.673149549890915" lon="14.845093397961817"><ele>640.0</ele><time>2026-05-01T10:53:31.998Z</time></trkpt><trkpt lat="37.673214169734784" lon="14.844867763397884"><ele>640.0</ele><time>2026-05-01T10:53:32.998Z</time></trkpt><trkpt lat="37.673277468029646" lon="14.844641185050286"><ele>640.0</ele><time>2026-05-01T10:53:33.998Z</time></trkpt><trkpt lat="37.67333888762107" lon="14.844415154292204"><ele>640.0</ele><time>2026-05-01T10:53:34.998Z</time></trkpt><trkpt lat="37.673402114665855" lon="14.844189681854454"><ele>638.3333333333334</ele><time>2026-05-01T10:53:35.998Z</time></trkpt><trkpt lat="37.67346664381378" lon="14.843961313016731"><ele>636.6666666666666</ele><time>2026-05-01T10:53:36.998Z</time></trkpt><trkpt lat="37.673530052500645" lon="14.843738215952719"><ele>635.0</ele><time>2026-05-01T10:53:37.998Z</time></trkpt><trkpt lat="37.6735929406754" lon="14.843522592053416"><ele>633.6666666666666</ele><time>2026-05-01T10:53:38.998Z</time></trkpt><trkpt lat="37.67365297205939" lon="14.843312963156214"><ele>632.3333333333334</ele><time>2026-05-01T10:53:39.998Z</time></trkpt><trkpt lat="37.67371374991796" lon="14.843107123859662"><ele>631.0</ele><time>2026-05-01T10:53:40.998Z</time></trkpt><trkpt lat="37.67377288040556" lon="14.84290436275239"><ele>631.0</ele><time>2026-05-01T10:53:41.998Z</time></trkpt><trkpt lat="37.67383131913656" lon="14.842699878990175"><ele>631.0</ele><time>2026-05-01T10:53:42.998Z</time></trkpt><trkpt lat="37.673888451864755" lon="14.842499916041593"><ele>631.0</ele><time>2026-05-01T10:53:43.998Z</time></trkpt><trkpt lat="37.67394507145479" lon="14.842303620381964"><ele>630.3333333333334</ele><time>2026-05-01T10:53:44.998Z</time></trkpt><trkpt lat="37.67399881065067" lon="14.842111306335589"><ele>629.6666666666666</ele><time>2026-05-01T10:53:45.998Z</time></trkpt><trkpt lat="37.674054383389596" lon="14.841923902785245"><ele>629.0</ele><time>2026-05-01T10:53:46.998Z</time></trkpt><trkpt lat="37.67411081774556" lon="14.841733633165292"><ele>629.0</ele><time>2026-05-01T10:53:47.998Z</time></trkpt><trkpt lat="37.67416404370615" lon="14.841543562830342"><ele>629.0</ele><time>2026-05-01T10:53:48.998Z</time></trkpt><trkpt lat="37.67421686169925" lon="14.841359026136658"><ele>629.0</ele><time>2026-05-01T10:53:49.998Z</time></trkpt><trkpt lat="37.674267885489954" lon="14.841177293196498"><ele>629.0</ele><time>2026-05-01T10:53:50.998Z</time></trkpt><trkpt lat="37.67432040594572" lon="14.840982268364732"><ele>629.0</ele><time>2026-05-01T10:53:51.998Z</time></trkpt><trkpt lat="37.674376600720464" lon="14.840781770336726"><ele>629.0</ele><time>2026-05-01T10:53:52.998Z</time></trkpt><trkpt lat="37.67443610394473" lon="14.840575785449252"><ele>629.75</ele><time>2026-05-01T10:53:53.998Z</time></trkpt><trkpt lat="37.67450788131756" lon="14.840386084857668"><ele>630.5</ele><time>2026-05-01T10:53:54.998Z</time></trkpt><trkpt lat="37.6745588792259" lon="14.840210334150635"><ele>631.25</ele><time>2026-05-01T10:53:55.998Z</time></trkpt><trkpt lat="37.674603823888354" lon="14.840054591590109"><ele>632.0</ele><time>2026-05-01T10:53:56.998Z</time></trkpt><trkpt lat="37.6746286831881" lon="14.839913344933473"><ele>632.0000000000001</ele><time>2026-05-01T10:53:57.998Z</time></trkpt><trkpt lat="37.67466738798017" lon="14.839798943100964"><ele>632.0</ele><time>2026-05-01T10:53:58.998Z</time></trkpt><trkpt lat="37.67468912219367" lon="14.839716710106496"><ele>632.0</ele><time>2026-05-01T10:53:59.998Z</time></trkpt><trkpt lat="37.67471076696278" lon="14.839640128542952"><ele>632.0</ele><time>2026-05-01T10:54:00.998Z</time></trkpt><trkpt lat="37.674736236002076" lon="14.839562666651561"><ele>632.0</ele><time>2026-05-01T10:54:01.998Z</time></trkpt><trkpt lat="37.674763598406415" lon="14.839484371508473"><ele>632.0000000000001</ele><time>2026-05-01T10:54:02.998Z</time></trkpt><trkpt lat="37.67479331840316" lon="14.839394048605735"><ele>632.0</ele><time>2026-05-01T10:54:03.998Z</time></trkpt><trkpt lat="37.67482194668566" lon="14.839296376176042"><ele>631.0</ele><time>2026-05-01T10:54:04.998Z</time></trkpt><trkpt lat="37.67485671502196" lon="14.83917937676756"><ele>630.0</ele><time>2026-05-01T10:54:05.997Z</time></trkpt><trkpt lat="37.674897321125584" lon="14.839041767582486"><ele>629.0</ele><time>2026-05-01T10:54:06.997Z</time></trkpt><trkpt lat="37.67493985146557" lon="14.838903932837745"><ele>628.0</ele><time>2026-05-01T10:54:07.997Z</time></trkpt><trkpt lat="37.6749744673368" lon="14.838741244583789"><ele>628.0</ele><time>2026-05-01T10:54:09.997Z</time></trkpt><trkpt lat="37.67500182755722" lon="14.838648546896335"><ele>628.0</ele><time>2026-05-01T10:54:10.997Z</time></trkpt><trkpt lat="37.67503399199804" lon="14.838547189233234"><ele>628.0</ele><time>2026-05-01T10:54:11.997Z</time></trkpt><trkpt lat="37.67506473951121" lon="14.838439370756726"><ele>628.0</ele><time>2026-05-01T10:54:12.997Z</time></trkpt><trkpt lat="37.67510210203972" lon="14.838329409230749"><ele>628.0</ele><time>2026-05-01T10:54:13.997Z</time></trkpt><trkpt lat="37.67513581442463" lon="14.83823025733363"><ele>628.0</ele><time>2026-05-01T10:54:14.997Z</time></trkpt><trkpt lat="37.6751858323595" lon="14.838156884149353"><ele>628.0</ele><time>2026-05-01T10:54:15.997Z</time></trkpt><trkpt lat="37.67522634792276" lon="14.838038286165515"><ele>628.0</ele><time>2026-05-01T10:54:17.997Z</time></trkpt><trkpt lat="37.67526475139367" lon="14.837972394825794"><ele>628.0</ele><time>2026-05-01T10:54:20Z</time></trkpt><trkpt lat="37.67531839790818" lon="14.837891220711969"><ele>628.0</ele><time>2026-05-01T10:54:22Z</time></trkpt><trkpt lat="37.67540331286357" lon="14.837834495540358"><ele>628.0</ele><time>2026-05-01T10:54:24Z</time></trkpt><trkpt lat="37.67547116778338" lon="14.837767916122772"><ele>628.0</ele><time>2026-05-01T10:54:26Z</time></trkpt><trkpt lat="37.67576864355459" lon="14.837764675233718"><ele>629.6666666666667</ele><time>2026-05-01T10:54:37Z</time></trkpt><trkpt lat="37.675880713250564" lon="14.83746798294958"><ele>631.3333333333334</ele><time>2026-05-01T10:54:40Z</time></trkpt><trkpt lat="37.67597460612783" lon="14.83734418583579"><ele>633.0</ele><time>2026-05-01T10:54:42Z</time></trkpt><trkpt lat="37.67602781638534" lon="14.837279412289531"><ele>633.0</ele><time>2026-05-01T10:54:43Z</time></trkpt><trkpt lat="37.67610112710403" lon="14.837208735682513"><ele>633.0</ele><time>2026-05-01T10:54:44Z</time></trkpt><trkpt lat="37.67618963684313" lon="14.837143085605403"><ele>633.0</ele><time>2026-05-01T10:54:45Z</time></trkpt><trkpt lat="37.676286310116694" lon="14.837078337957749"><ele>633.0</ele><time>2026-05-01T10:54:46Z</time></trkpt><trkpt lat="37.67638977283822" lon="14.837022108994326"><ele>633.0</ele><time>2026-05-01T10:54:46.999Z</time></trkpt><trkpt lat="37.676499292035764" lon="14.836977593583995"><ele>633.25</ele><time>2026-05-01T10:54:47.999Z</time></trkpt><trkpt lat="37.676617610944824" lon="14.836947103998373"><ele>633.5</ele><time>2026-05-01T10:54:48.999Z</time></trkpt><trkpt lat="37.67673792900113" lon="14.836931261195428"><ele>633.75</ele><time>2026-05-01T10:54:49.999Z</time></trkpt><trkpt lat="37.67686548043476" lon="14.836927401146509"><ele>634.0</ele><time>2026-05-01T10:54:50.999Z</time></trkpt><trkpt lat="37.677003129834276" lon="14.83693006898678"><ele>633.5</ele><time>2026-05-01T10:54:51.999Z</time></trkpt><trkpt lat="37.67713826783689" lon="14.836943234943982"><ele>633.0</ele><time>2026-05-01T10:54:52.999Z</time></trkpt><trkpt lat="37.67727391052033" lon="14.836958531505486"><ele>632.5</ele><time>2026-05-01T10:54:53.999Z</time></trkpt><trkpt lat="37.6774191546986" lon="14.836973406933492"><ele>632.0</ele><time>2026-05-01T10:54:54.999Z</time></trkpt><trkpt lat="37.67756811471254" lon="14.836985606603685"><ele>632.0</ele><time>2026-05-01T10:54:55.999Z</time></trkpt><trkpt lat="37.67772149299391" lon="14.836998429576786"><ele>632.0</ele><time>2026-05-01T10:54:56.999Z</time></trkpt><trkpt lat="37.67787615137601" lon="14.837013292192882"><ele>632.0</ele><time>2026-05-01T10:54:57.999Z</time></trkpt><trkpt lat="37.67802821282692" lon="14.837030315617412"><ele>630.3333333333333</ele><time>2026-05-01T10:54:58.999Z</time></trkpt><trkpt lat="37.678184257691925" lon="14.837049322743841"><ele>628.6666666666666</ele><time>2026-05-01T10:54:59.999Z</time></trkpt><trkpt lat="37.67833625026733" lon="14.837067368325778"><ele>627.0</ele><time>2026-05-01T10:55:00.999Z</time></trkpt><trkpt lat="37.67849551699598" lon="14.837085154185047"><ele>624.0</ele><time>2026-05-01T10:55:01.999Z</time></trkpt><trkpt lat="37.678650378325116" lon="14.83710508898289"><ele>621.0</ele><time>2026-05-01T10:55:02.999Z</time></trkpt><trkpt lat="37.67880257388241" lon="14.83712114374362"><ele>618.0</ele><time>2026-05-01T10:55:03.999Z</time></trkpt><trkpt lat="37.67894685587028" lon="14.83713677898513"><ele>618.0</ele><time>2026-05-01T10:55:04.999Z</time></trkpt><trkpt lat="37.67908756977204" lon="14.837151818161386"><ele>618.0</ele><time>2026-05-01T10:55:05.999Z</time></trkpt><trkpt lat="37.679225464366496" lon="14.837168779975695"><ele>618.0</ele><time>2026-05-01T10:55:06.999Z</time></trkpt><trkpt lat="37.679362274948296" lon="14.837186520711464"><ele>618.0</ele><time>2026-05-01T10:55:07.999Z</time></trkpt><trkpt lat="37.67948111744438" lon="14.837201871588325"><ele>618.1999999999999</ele><time>2026-05-01T10:55:08.999Z</time></trkpt><trkpt lat="37.67959098910255" lon="14.837221809185198"><ele>618.4</ele><time>2026-05-01T10:55:09.999Z</time></trkpt><trkpt lat="37.67969617567671" lon="14.83724316967549"><ele>618.5999999999999</ele><time>2026-05-01T10:55:10.999Z</time></trkpt><trkpt lat="37.679790174365735" lon="14.837270398268398"><ele>618.8</ele><time>2026-05-01T10:55:11.999Z</time></trkpt><trkpt lat="37.67987716638828" lon="14.837298693537772"><ele>619.0</ele><time>2026-05-01T10:55:12.999Z</time></trkpt><trkpt lat="37.6799482646151" lon="14.837323708769159"><ele>619.0</ele><time>2026-05-01T10:55:13.999Z</time></trkpt><trkpt lat="37.680019934090645" lon="14.837355558309602"><ele>619.0</ele><time>2026-05-01T10:55:16.999Z</time></trkpt><trkpt lat="37.680071146149686" lon="14.837424550737634"><ele>619.0</ele><time>2026-05-01T10:55:18.999Z</time></trkpt><trkpt lat="37.680133825220885" lon="14.837516096762236"><ele>619.0</ele><time>2026-05-01T10:55:20.999Z</time></trkpt><trkpt lat="37.68018434816256" lon="14.837580870433968"><ele>619.0</ele><time>2026-05-01T10:55:21.999Z</time></trkpt><trkpt lat="37.68025253309167" lon="14.837645404443679"><ele>619.0</ele><time>2026-05-01T10:55:22.999Z</time></trkpt><trkpt lat="37.680336759602284" lon="14.837696938416833"><ele>619.3333333333334</ele><time>2026-05-01T10:55:23.999Z</time></trkpt><trkpt lat="37.680418247989834" lon="14.83772247116275"><ele>619.6666666666667</ele><time>2026-05-01T10:55:24.999Z</time></trkpt><trkpt lat="37.680496216053584" lon="14.837722651881892"><ele>620.0</ele><time>2026-05-01T10:55:25.999Z</time></trkpt><trkpt lat="37.68058227640649" lon="14.837714420479513"><ele>620.3333333333334</ele><time>2026-05-01T10:55:26.999Z</time></trkpt><trkpt lat="37.6806764081919" lon="14.837731620703616"><ele>620.6666666666666</ele><time>2026-05-01T10:55:27.999Z</time></trkpt><trkpt lat="37.68077642529234" lon="14.83777373142692"><ele>621.0</ele><time>2026-05-01T10:55:28.998Z</time></trkpt><trkpt lat="37.6808749030554" lon="14.837819718240882"><ele>621.0</ele><time>2026-05-01T10:55:29.998Z</time></trkpt><trkpt lat="37.68098474743573" lon="14.837850944208947"><ele>621.0</ele><time>2026-05-01T10:55:30.998Z</time></trkpt><trkpt lat="37.68110373696733" lon="14.837860665778878"><ele>621.0</ele><time>2026-05-01T10:55:31.998Z</time></trkpt><trkpt lat="37.68123107941735" lon="14.837860274360278"><ele>621.0</ele><time>2026-05-01T10:55:32.998Z</time></trkpt><trkpt lat="37.68136426222592" lon="14.83785665313571"><ele>622.25</ele><time>2026-05-01T10:55:33.998Z</time></trkpt><trkpt lat="37.68150519142352" lon="14.837858072378191"><ele>623.5</ele><time>2026-05-01T10:55:34.998Z</time></trkpt><trkpt lat="37.68164999666752" lon="14.837868497543116"><ele>624.75</ele><time>2026-05-01T10:55:35.998Z</time></trkpt><trkpt lat="37.681795308739765" lon="14.837879826955257"><ele>626.0</ele><time>2026-05-01T10:55:36.998Z</time></trkpt><trkpt lat="37.68194175720809" lon="14.837889342941262"><ele>626.0</ele><time>2026-05-01T10:55:37.998Z</time></trkpt><trkpt lat="37.68207909791284" lon="14.837908119111944"><ele>626.0</ele><time>2026-05-01T10:55:38.998Z</time></trkpt><trkpt lat="37.68219123292316" lon="14.837951679601101"><ele>626.0</ele><time>2026-05-01T10:55:39.998Z</time></trkpt><trkpt lat="37.68227621181387" lon="14.838024326071373"><ele>626.0</ele><time>2026-05-01T10:55:40.998Z</time></trkpt><trkpt lat="37.68234468014356" lon="14.838144236674909"><ele>626.0</ele><time>2026-05-01T10:55:41.998Z</time></trkpt><trkpt lat="37.68244168446897" lon="14.838235189391627"><ele>626.0</ele><time>2026-05-01T10:55:42.998Z</time></trkpt><trkpt lat="37.682527562427495" lon="14.838352469434811"><ele>626.0</ele><time>2026-05-01T10:55:43.998Z</time></trkpt><trkpt lat="37.682619635165224" lon="14.838471473428726"><ele>626.0</ele><time>2026-05-01T10:55:44.998Z</time></trkpt><trkpt lat="37.682716125563104" lon="14.838590600811722"><ele>626.5</ele><time>2026-05-01T10:55:45.998Z</time></trkpt><trkpt lat="37.682818615263855" lon="14.838710783622286"><ele>627.0</ele><time>2026-05-01T10:55:46.998Z</time></trkpt><trkpt lat="37.682927392381536" lon="14.838833954069871"><ele>627.5</ele><time>2026-05-01T10:55:47.998Z</time></trkpt><trkpt lat="37.683037588563415" lon="14.838959672385903"><ele>628.0</ele><time>2026-05-01T10:55:48.998Z</time></trkpt><trkpt lat="37.683150009183144" lon="14.839080978605713"><ele>628.0</ele><time>2026-05-01T10:55:49.998Z</time></trkpt><trkpt lat="37.68325956497307" lon="14.839204710942441"><ele>628.0</ele><time>2026-05-01T10:55:50.998Z</time></trkpt><trkpt lat="37.68336901302883" lon="14.839327370974383"><ele>628.0</ele><time>2026-05-01T10:55:51.998Z</time></trkpt><trkpt lat="37.683477530218774" lon="14.839449329049774"><ele>628.0</ele><time>2026-05-01T10:55:52.998Z</time></trkpt><trkpt lat="37.683583979618014" lon="14.83956852709321"><ele>629.0</ele><time>2026-05-01T10:55:53.998Z</time></trkpt><trkpt lat="37.683685315079465" lon="14.83968023718623"><ele>630.0</ele><time>2026-05-01T10:55:54.998Z</time></trkpt><trkpt lat="37.68378109027353" lon="14.839787330870474"><ele>631.0</ele><time>2026-05-01T10:55:55.998Z</time></trkpt><trkpt lat="37.683871472009564" lon="14.839892125473892"><ele>632.0</ele><time>2026-05-01T10:55:56.998Z</time></trkpt><trkpt lat="37.68396107734701" lon="14.839996553261786"><ele>632.0</ele><time>2026-05-01T10:55:57.998Z</time></trkpt><trkpt lat="37.6840503629058" lon="14.840091477088583"><ele>632.0</ele><time>2026-05-01T10:55:58.998Z</time></trkpt><trkpt lat="37.68414404154279" lon="14.840189002516228"><ele>632.0</ele><time>2026-05-01T10:55:59.998Z</time></trkpt><trkpt lat="37.68423988831888" lon="14.840292915374404"><ele>632.0</ele><time>2026-05-01T10:56:00.998Z</time></trkpt><trkpt lat="37.684342677821036" lon="14.840395107468936"><ele>632.25</ele><time>2026-05-01T10:56:01.998Z</time></trkpt><trkpt lat="37.68445761694083" lon="14.840481151883607"><ele>632.5</ele><time>2026-05-01T10:56:02.998Z</time></trkpt><trkpt lat="37.684583504928504" lon="14.840546006289863"><ele>632.75</ele><time>2026-05-01T10:56:03.998Z</time></trkpt><trkpt lat="37.68472311944082" lon="14.840584831668775"><ele>633.0</ele><time>2026-05-01T10:56:04.998Z</time></trkpt><trkpt lat="37.68486637033782" lon="14.840615785116194"><ele>633.0</ele><time>2026-05-01T10:56:05.998Z</time></trkpt><trkpt lat="37.685015347085226" lon="14.84064969354426"><ele>633.0</ele><time>2026-05-01T10:56:06.998Z</time></trkpt><trkpt lat="37.68516492244055" lon="14.84069379487494"><ele>633.0</ele><time>2026-05-01T10:56:07.998Z</time></trkpt><trkpt lat="37.685314123552786" lon="14.840748552401633"><ele>633.3333333333334</ele><time>2026-05-01T10:56:08.998Z</time></trkpt><trkpt lat="37.68546950299254" lon="14.840807436134535"><ele>633.6666666666667</ele><time>2026-05-01T10:56:09.997Z</time></trkpt><trkpt lat="37.685624206976016" lon="14.840867632779009"><ele>634.0</ele><time>2026-05-01T10:56:10.997Z</time></trkpt><trkpt lat="37.68577982102146" lon="14.840931205132552"><ele>636.0</ele><time>2026-05-01T10:56:11.997Z</time></trkpt><trkpt lat="37.68593350694032" lon="14.840997670963507"><ele>638.0</ele><time>2026-05-01T10:56:12.997Z</time></trkpt><trkpt lat="37.68608659419185" lon="14.84106159874869"><ele>640.0</ele><time>2026-05-01T10:56:13.997Z</time></trkpt><trkpt lat="37.686237313422296" lon="14.841117504382133"><ele>641.3333333333334</ele><time>2026-05-01T10:56:14.997Z</time></trkpt><trkpt lat="37.68638757365519" lon="14.841161133581897"><ele>642.6666666666666</ele><time>2026-05-01T10:56:15.997Z</time></trkpt><trkpt lat="37.68653993613359" lon="14.84118995802985"><ele>644.0</ele><time>2026-05-01T10:56:16.997Z</time></trkpt><trkpt lat="37.68669855142321" lon="14.841201659680058"><ele>644.0</ele><time>2026-05-01T10:56:17.997Z</time></trkpt><trkpt lat="37.686860172654775" lon="14.841193580999352"><ele>644.0</ele><time>2026-05-01T10:56:18.997Z</time></trkpt><trkpt lat="37.687019646308975" lon="14.841173080680354"><ele>644.0</ele><time>2026-05-01T10:56:19.997Z</time></trkpt><trkpt lat="37.68717860973065" lon="14.841156031492304"><ele>643.3333333333333</ele><time>2026-05-01T10:56:20.997Z</time></trkpt><trkpt lat="37.68733639373786" lon="14.841142965263227"><ele>642.6666666666666</ele><time>2026-05-01T10:56:21.997Z</time></trkpt><trkpt lat="37.687493487989364" lon="14.841133205914044"><ele>642.0</ele><time>2026-05-01T10:56:22.997Z</time></trkpt><trkpt lat="37.68764926052244" lon="14.841119475539147"><ele>641.0</ele><time>2026-05-01T10:56:23.997Z</time></trkpt><trkpt lat="37.68780261509148" lon="14.841104402103872"><ele>640.0</ele><time>2026-05-01T10:56:25Z</time></trkpt><trkpt lat="37.687942095350515" lon="14.841093045225547"><ele>639.0</ele><time>2026-05-01T10:56:26Z</time></trkpt><trkpt lat="37.68806713786758" lon="14.841081021729615"><ele>638.0</ele><time>2026-05-01T10:56:27Z</time></trkpt><trkpt lat="37.68816928475349" lon="14.84106122431114"><ele>638.0</ele><time>2026-05-01T10:56:28Z</time></trkpt><trkpt lat="37.68825600085566" lon="14.84101905187664"><ele>638.0</ele><time>2026-05-01T10:56:29Z</time></trkpt><trkpt lat="37.688326597183575" lon="14.840953264934727"><ele>638.0</ele><time>2026-05-01T10:56:30Z</time></trkpt><trkpt lat="37.688384168896135" lon="14.840863067119336"><ele>638.0</ele><time>2026-05-01T10:56:31Z</time></trkpt><trkpt lat="37.68845431004485" lon="14.840788687300066"><ele>638.0</ele><time>2026-05-01T10:56:32Z</time></trkpt><trkpt lat="37.688532643679096" lon="14.840748585815842"><ele>638.0</ele><time>2026-05-01T10:56:33Z</time></trkpt><trkpt lat="37.6886255961514" lon="14.840736111510298"><ele>637.8333333333333</ele><time>2026-05-01T10:56:34Z</time></trkpt><trkpt lat="37.68870971669621" lon="14.840737947293995"><ele>637.6666666666666</ele><time>2026-05-01T10:56:35Z</time></trkpt><trkpt lat="37.688781343959654" lon="14.840768343465577"><ele>637.5</ele><time>2026-05-01T10:56:36Z</time></trkpt><trkpt lat="37.68884197181485" lon="14.840830976340298"><ele>637.3333333333334</ele><time>2026-05-01T10:56:37Z</time></trkpt><trkpt lat="37.68889274762212" lon="14.840926399279379"><ele>637.1666666666667</ele><time>2026-05-01T10:56:38Z</time></trkpt><trkpt lat="37.68894653356492" lon="14.84102350509368"><ele>637.0</ele><time>2026-05-01T10:56:39Z</time></trkpt><trkpt lat="37.689018414967634" lon="14.841100658215455"><ele>637.0</ele><time>2026-05-01T10:56:40Z</time></trkpt><trkpt lat="37.689106839963685" lon="14.841136507863348"><ele>637.0</ele><time>2026-05-01T10:56:41Z</time></trkpt><trkpt lat="37.689208880626545" lon="14.8411514932119"><ele>637.0</ele><time>2026-05-01T10:56:42Z</time></trkpt><trkpt lat="37.68931198902907" lon="14.841173741742214"><ele>637.0</ele><time>2026-05-01T10:56:43Z</time></trkpt><trkpt lat="37.68942550398268" lon="14.841207095039046"><ele>637.0</ele><time>2026-05-01T10:56:44Z</time></trkpt><trkpt lat="37.689538297153995" lon="14.841245162283103"><ele>635.5</ele><time>2026-05-01T10:56:45Z</time></trkpt><trkpt lat="37.6896531456078" lon="14.841291090891197"><ele>634.0</ele><time>2026-05-01T10:56:46Z</time></trkpt><trkpt lat="37.68976041520939" lon="14.841344749254333"><ele>632.5</ele><time>2026-05-01T10:56:47Z</time></trkpt><trkpt lat="37.68986054061501" lon="14.841434387215147"><ele>631.0</ele><time>2026-05-01T10:56:48Z</time></trkpt><trkpt lat="37.68994863426764" lon="14.841535485518861"><ele>631.0</ele><time>2026-05-01T10:56:49Z</time></trkpt><trkpt lat="37.69002260458448" lon="14.841649434129032"><ele>631.0</ele><time>2026-05-01T10:56:50Z</time></trkpt><trkpt lat="37.69005057728781" lon="14.841790408304057"><ele>631.0</ele><time>2026-05-01T10:56:51Z</time></trkpt><trkpt lat="37.69008914945754" lon="14.841925274009217"><ele>631.0</ele><time>2026-05-01T10:56:51.999Z</time></trkpt><trkpt lat="37.69013085829231" lon="14.842058948890221"><ele>632.6</ele><time>2026-05-01T10:56:52.999Z</time></trkpt><trkpt lat="37.690178210313945" lon="14.842171327420091"><ele>634.2</ele><time>2026-05-01T10:56:53.999Z</time></trkpt><trkpt lat="37.690251885893716" lon="14.842262946891285"><ele>635.8</ele><time>2026-05-01T10:56:54.999Z</time></trkpt><trkpt lat="37.69034111051472" lon="14.842319074736642"><ele>637.4</ele><time>2026-05-01T10:56:55.999Z</time></trkpt><trkpt lat="37.6904381199953" lon="14.84233756729168"><ele>639.0</ele><time>2026-05-01T10:56:56.999Z</time></trkpt><trkpt lat="37.69053760212262" lon="14.842317795585014"><ele>639.0</ele><time>2026-05-01T10:56:57.999Z</time></trkpt><trkpt lat="37.69063348096921" lon="14.84227095300579"><ele>639.0</ele><time>2026-05-01T10:56:58.999Z</time></trkpt><trkpt lat="37.69073047534382" lon="14.842197970443845"><ele>639.0</ele><time>2026-05-01T10:56:59.999Z</time></trkpt><trkpt lat="37.690825004537615" lon="14.84210531899625"><ele>639.0</ele><time>2026-05-01T10:57:00.999Z</time></trkpt><trkpt lat="37.690924836983214" lon="14.842020082590414"><ele>639.0</ele><time>2026-05-01T10:57:01.999Z</time></trkpt><trkpt lat="37.69103653106098" lon="14.84197118251849"><ele>639.0</ele><time>2026-05-01T10:57:02.999Z</time></trkpt><trkpt lat="37.691152381237266" lon="14.841951831808082"><ele>639.0</ele><time>2026-05-01T10:57:03.999Z</time></trkpt><trkpt lat="37.69127057279912" lon="14.841956942211931"><ele>639.0</ele><time>2026-05-01T10:57:04.999Z</time></trkpt><trkpt lat="37.69136787966284" lon="14.84203975598196"><ele>637.75</ele><time>2026-05-01T10:57:05.999Z</time></trkpt><trkpt lat="37.69148161498218" lon="14.842109639195273"><ele>636.5</ele><time>2026-05-01T10:57:06.999Z</time></trkpt><trkpt lat="37.69160075569065" lon="14.842165572251362"><ele>635.25</ele><time>2026-05-01T10:57:07.999Z</time></trkpt><trkpt lat="37.69171745038171" lon="14.842236777677027"><ele>634.0</ele><time>2026-05-01T10:57:08.999Z</time></trkpt><trkpt lat="37.691848770122284" lon="14.842298836457232"><ele>630.75</ele><time>2026-05-01T10:57:09.999Z</time></trkpt><trkpt lat="37.691984346002755" lon="14.842349684790252"><ele>627.5</ele><time>2026-05-01T10:57:10.999Z</time></trkpt><trkpt lat="37.69212477172558" lon="14.842405898873125"><ele>624.25</ele><time>2026-05-01T10:57:11.999Z</time></trkpt><trkpt lat="37.692260117861274" lon="14.842465953281359"><ele>621.0</ele><time>2026-05-01T10:57:12.999Z</time></trkpt><trkpt lat="37.69239736826232" lon="14.842529026307233"><ele>621.0</ele><time>2026-05-01T10:57:13.999Z</time></trkpt><trkpt lat="37.69253190197243" lon="14.842588525771868"><ele>621.0</ele><time>2026-05-01T10:57:14.999Z</time></trkpt><trkpt lat="37.692667539910055" lon="14.842644966006336"><ele>621.0</ele><time>2026-05-01T10:57:15.999Z</time></trkpt><trkpt lat="37.69280462150293" lon="14.8426924667407"><ele>621.0</ele><time>2026-05-01T10:57:16.999Z</time></trkpt><trkpt lat="37.69295049928418" lon="14.842699136277345"><ele>621.25</ele><time>2026-05-01T10:57:17.999Z</time></trkpt><trkpt lat="37.69308954655976" lon="14.84268294832161"><ele>621.5</ele><time>2026-05-01T10:57:18.999Z</time></trkpt><trkpt lat="37.69322632815552" lon="14.842634461611942"><ele>621.75</ele><time>2026-05-01T10:57:19.999Z</time></trkpt><trkpt lat="37.6933624608085" lon="14.842568275368052"><ele>622.0</ele><time>2026-05-01T10:57:20.999Z</time></trkpt><trkpt lat="37.693500942443215" lon="14.842506718135304"><ele>624.25</ele><time>2026-05-01T10:57:21.999Z</time></trkpt><trkpt lat="37.693640255689076" lon="14.842459185147154"><ele>626.5</ele><time>2026-05-01T10:57:22.999Z</time></trkpt><trkpt lat="37.69377821381918" lon="14.84241452110912"><ele>628.75</ele><time>2026-05-01T10:57:23.999Z</time></trkpt><trkpt lat="37.69391231436932" lon="14.842376025460508"><ele>631.0</ele><time>2026-05-01T10:57:24.999Z</time></trkpt><trkpt lat="37.694039021573076" lon="14.842345252166627"><ele>631.0</ele><time>2026-05-01T10:57:25.999Z</time></trkpt><trkpt lat="37.69416280405465" lon="14.842326430901057"><ele>631.0</ele><time>2026-05-01T10:57:26.999Z</time></trkpt><trkpt lat="37.69428445411868" lon="14.842334752117019"><ele>631.0</ele><time>2026-05-01T10:57:27.999Z</time></trkpt><trkpt lat="37.694414734200855" lon="14.842360802717579"><ele>631.0</ele><time>2026-05-01T10:57:28.999Z</time></trkpt><trkpt lat="37.69454920264334" lon="14.842388157332868"><ele>630.0</ele><time>2026-05-01T10:57:29.999Z</time></trkpt><trkpt lat="37.69468868144262" lon="14.84241773131802"><ele>629.0</ele><time>2026-05-01T10:57:30.999Z</time></trkpt><trkpt lat="37.69482504655439" lon="14.842449089266104"><ele>628.0</ele><time>2026-05-01T10:57:31.999Z</time></trkpt><trkpt lat="37.694958176399616" lon="14.842465954698731"><ele>627.0</ele><time>2026-05-01T10:57:32.999Z</time></trkpt><trkpt lat="37.695090063423315" lon="14.842458231792227"><ele>627.0</ele><time>2026-05-01T10:57:33.998Z</time></trkpt><trkpt lat="37.695219526425575" lon="14.842429413016314"><ele>627.0</ele><time>2026-05-01T10:57:34.998Z</time></trkpt><trkpt lat="37.69533027848035" lon="14.842378256234381"><ele>627.0</ele><time>2026-05-01T10:57:35.998Z</time></trkpt><trkpt lat="37.69541655511214" lon="14.842312538956667"><ele>627.0</ele><time>2026-05-01T10:57:36.998Z</time></trkpt><trkpt lat="37.69548783341812" lon="14.842236072142011"><ele>627.0</ele><time>2026-05-01T10:57:37.998Z</time></trkpt><trkpt lat="37.69553109769961" lon="14.842139960127282"><ele>626.8000000000001</ele><time>2026-05-01T10:57:38.998Z</time></trkpt><trkpt lat="37.69555423297749" lon="14.842027399956754"><ele>626.6</ele><time>2026-05-01T10:57:39.998Z</time></trkpt><trkpt lat="37.695562981075525" lon="14.841902031598309"><ele>626.4000000000001</ele><time>2026-05-01T10:57:40.998Z</time></trkpt><trkpt lat="37.6955815027741" lon="14.841751992678807"><ele>626.2</ele><time>2026-05-01T10:57:41.998Z</time></trkpt><trkpt lat="37.6955847782239" lon="14.841595653881392"><ele>626.0</ele><time>2026-05-01T10:57:42.998Z</time></trkpt><trkpt lat="37.6955937533226" lon="14.841446787900848"><ele>624.6</ele><time>2026-05-01T10:57:43.998Z</time></trkpt><trkpt lat="37.69559238760266" lon="14.84129489365413"><ele>623.2</ele><time>2026-05-01T10:57:44.998Z</time></trkpt><trkpt lat="37.695604313145196" lon="14.841162977776733"><ele>621.8</ele><time>2026-05-01T10:57:45.998Z</time></trkpt><trkpt lat="37.69561993194423" lon="14.841049091701363"><ele>620.4</ele><time>2026-05-01T10:57:46.998Z</time></trkpt><trkpt lat="37.69565698088981" lon="14.840965625852682"><ele>619.0</ele><time>2026-05-01T10:57:47.998Z</time></trkpt><trkpt lat="37.69572818666953" lon="14.840914721796755"><ele>618.2</ele><time>2026-05-01T10:57:48.998Z</time></trkpt><trkpt lat="37.69582128228985" lon="14.840921434152847"><ele>617.4</ele><time>2026-05-01T10:57:49.998Z</time></trkpt><trkpt lat="37.69591218927001" lon="14.840891016688499"><ele>616.6</ele><time>2026-05-01T10:57:50.998Z</time></trkpt><trkpt lat="37.69600195992409" lon="14.840862982459411"><ele>615.8</ele><time>2026-05-01T10:57:51.998Z</time></trkpt><trkpt lat="37.69608487873646" lon="14.840804394170563"><ele>615.0</ele><time>2026-05-01T10:57:52.998Z</time></trkpt><trkpt lat="37.69616223560972" lon="14.840722694995979"><ele>615.0</ele><time>2026-05-01T10:57:53.998Z</time></trkpt><trkpt lat="37.696235192904965" lon="14.84062074713242"><ele>615.0</ele><time>2026-05-01T10:57:54.998Z</time></trkpt><trkpt lat="37.696303621855876" lon="14.840499999320981"><ele>615.0</ele><time>2026-05-01T10:57:55.998Z</time></trkpt><trkpt lat="37.696366827894806" lon="14.840371748089288"><ele>615.0</ele><time>2026-05-01T10:57:56.998Z</time></trkpt><trkpt lat="37.696434845053375" lon="14.840235408168743"><ele>613.5</ele><time>2026-05-01T10:57:57.998Z</time></trkpt><trkpt lat="37.69650437092117" lon="14.840089676082103"><ele>612.0</ele><time>2026-05-01T10:57:58.998Z</time></trkpt><trkpt lat="37.696575900484085" lon="14.839935923735188"><ele>610.5</ele><time>2026-05-01T10:57:59.998Z</time></trkpt><trkpt lat="37.6966537195631" lon="14.839785564118282"><ele>609.0</ele><time>2026-05-01T10:58:00.998Z</time></trkpt><trkpt lat="37.6967382477668" lon="14.83965252758836"><ele>609.0</ele><time>2026-05-01T10:58:01.998Z</time></trkpt><trkpt lat="37.69683285297217" lon="14.839551275543089"><ele>609.0</ele><time>2026-05-01T10:58:02.998Z</time></trkpt><trkpt lat="37.696941931987475" lon="14.839483362820642"><ele>609.0</ele><time>2026-05-01T10:58:03.998Z</time></trkpt><trkpt lat="37.69705883142962" lon="14.839443313108736"><ele>609.0</ele><time>2026-05-01T10:58:04.998Z</time></trkpt><trkpt lat="37.697176524475076" lon="14.83944090010938"><ele>609.5</ele><time>2026-05-01T10:58:05.998Z</time></trkpt><trkpt lat="37.69729789144981" lon="14.839460667231387"><ele>610.0</ele><time>2026-05-01T10:58:06.998Z</time></trkpt><trkpt lat="37.69742373897961" lon="14.839492437225577"><ele>610.5</ele><time>2026-05-01T10:58:07.998Z</time></trkpt><trkpt lat="37.69755305025321" lon="14.839521303182616"><ele>611.0</ele><time>2026-05-01T10:58:08.998Z</time></trkpt><trkpt lat="37.69768394661341" lon="14.839545763852401"><ele>611.25</ele><time>2026-05-01T10:58:09.998Z</time></trkpt><trkpt lat="37.69781571933163" lon="14.839563143694628"><ele>611.5</ele><time>2026-05-01T10:58:10.998Z</time></trkpt><trkpt lat="37.69794299723984" lon="14.839567508119272"><ele>611.75</ele><time>2026-05-01T10:58:11.998Z</time></trkpt><trkpt lat="37.69805602355555" lon="14.839547914821457"><ele>612.0</ele><time>2026-05-01T10:58:12.998Z</time></trkpt><trkpt lat="37.69815036978874" lon="14.83949550065444"><ele>612.0</ele><time>2026-05-01T10:58:13.998Z</time></trkpt><trkpt lat="37.69822428750446" lon="14.83940285391478"><ele>612.0</ele><time>2026-05-01T10:58:14.997Z</time></trkpt><trkpt lat="37.69830119556152" lon="14.839280240249844"><ele>612.0</ele><time>2026-05-01T10:58:15.997Z</time></trkpt><trkpt lat="37.69837914147065" lon="14.839143240637412"><ele>612.0</ele><time>2026-05-01T10:58:16.997Z</time></trkpt><trkpt lat="37.69845949952022" lon="14.83900485010598"><ele>610.0</ele><time>2026-05-01T10:58:17.997Z</time></trkpt><trkpt lat="37.69854785221984" lon="14.838861362609949"><ele>608.0</ele><time>2026-05-01T10:58:18.997Z</time></trkpt><trkpt lat="37.69863783037214" lon="14.838714758680652"><ele>606.0</ele><time>2026-05-01T10:58:19.997Z</time></trkpt><trkpt lat="37.698732969114744" lon="14.838573857972627"><ele>604.0</ele><time>2026-05-01T10:58:20.997Z</time></trkpt><trkpt lat="37.69884191754138" lon="14.838442908871075"><ele>601.6666666666667</ele><time>2026-05-01T10:58:21.997Z</time></trkpt><trkpt lat="37.69895900451359" lon="14.838318248699316"><ele>599.3333333333334</ele><time>2026-05-01T10:58:22.997Z</time></trkpt><trkpt lat="37.69908411422461" lon="14.838201731261531"><ele>597.0</ele><time>2026-05-01T10:58:23.997Z</time></trkpt><trkpt lat="37.69920783779989" lon="14.838094204389732"><ele>597.0</ele><time>2026-05-01T10:58:24.997Z</time></trkpt><trkpt lat="37.699329973412496" lon="14.838003132109861"><ele>597.0</ele><time>2026-05-01T10:58:25.997Z</time></trkpt><trkpt lat="37.69945575641793" lon="14.837930211737444"><ele>597.0</ele><time>2026-05-01T10:58:26.997Z</time></trkpt><trkpt lat="37.6995917245698" lon="14.837874955057755"><ele>597.0</ele><time>2026-05-01T10:58:27.997Z</time></trkpt><trkpt lat="37.699734539267375" lon="14.837835079236918"><ele>597.75</ele><time>2026-05-01T10:58:28.997Z</time></trkpt><trkpt lat="37.69987798203427" lon="14.837804170622181"><ele>598.5</ele><time>2026-05-01T10:58:29.997Z</time></trkpt><trkpt lat="37.70002425209753" lon="14.837776126007775"><ele>599.25</ele><time>2026-05-01T10:58:31Z</time></trkpt><trkpt lat="37.70017017665666" lon="14.83775851952693"><ele>600.0</ele><time>2026-05-01T10:58:32Z</time></trkpt><trkpt lat="37.70031707467697" lon="14.837762203062411"><ele>601.0</ele><time>2026-05-01T10:58:33Z</time></trkpt><trkpt lat="37.700465731513646" lon="14.837790096804751"><ele>602.0</ele><time>2026-05-01T10:58:34Z</time></trkpt><trkpt lat="37.70060802472767" lon="14.837838492805355"><ele>603.0</ele><time>2026-05-01T10:58:35Z</time></trkpt><trkpt lat="37.700745488702594" lon="14.837892880926399"><ele>604.0</ele><time>2026-05-01T10:58:36Z</time></trkpt><trkpt lat="37.70089062136289" lon="14.837943375971895"><ele>604.0</ele><time>2026-05-01T10:58:37Z</time></trkpt><trkpt lat="37.701036004084095" lon="14.837990152458993"><ele>604.0</ele><time>2026-05-01T10:58:38Z</time></trkpt><trkpt lat="37.70118197170112" lon="14.838033156198"><ele>604.0</ele><time>2026-05-01T10:58:39Z</time></trkpt><trkpt lat="37.701322211114594" lon="14.83807645284185"><ele>604.0</ele><time>2026-05-01T10:58:40Z</time></trkpt><trkpt lat="37.70146415380391" lon="14.838114484489573"><ele>603.25</ele><time>2026-05-01T10:58:41Z</time></trkpt><trkpt lat="37.70160641935701" lon="14.838150541175994"><ele>602.5</ele><time>2026-05-01T10:58:42Z</time></trkpt><trkpt lat="37.70174546081684" lon="14.838184753652644"><ele>601.75</ele><time>2026-05-01T10:58:43Z</time></trkpt><trkpt lat="37.7018824704363" lon="14.838219227400149"><ele>601.0</ele><time>2026-05-01T10:58:44Z</time></trkpt><trkpt lat="37.70201781452369" lon="14.838252404827493"><ele>601.0</ele><time>2026-05-01T10:58:45Z</time></trkpt><trkpt lat="37.702156271214804" lon="14.838290730455048"><ele>601.0</ele><time>2026-05-01T10:58:46Z</time></trkpt><trkpt lat="37.70229251621121" lon="14.838342221483769"><ele>601.0</ele><time>2026-05-01T10:58:47Z</time></trkpt><trkpt lat="37.7024195802208" lon="14.838402636289585"><ele>601.0</ele><time>2026-05-01T10:58:48Z</time></trkpt><trkpt lat="37.70253767142142" lon="14.838478522531654"><ele>601.75</ele><time>2026-05-01T10:58:49Z</time></trkpt><trkpt lat="37.70264511284235" lon="14.838566585426246"><ele>602.5</ele><time>2026-05-01T10:58:50Z</time></trkpt><trkpt lat="37.70273830803254" lon="14.838671454923373"><ele>603.25</ele><time>2026-05-01T10:58:51Z</time></trkpt><trkpt lat="37.70280715351894" lon="14.838786179553834"><ele>604.0</ele><time>2026-05-01T10:58:52Z</time></trkpt><trkpt lat="37.70285118632938" lon="14.838900810626258"><ele>605.3333333333334</ele><time>2026-05-01T10:58:53Z</time></trkpt><trkpt lat="37.70288954163136" lon="14.839011793969021"><ele>606.6666666666667</ele><time>2026-05-01T10:58:53.999Z</time></trkpt><trkpt lat="37.70292226073082" lon="14.839109555158585"><ele>608.0</ele><time>2026-05-01T10:58:54.999Z</time></trkpt><trkpt lat="37.70296435628612" lon="14.839182128354595"><ele>609.3333333333334</ele><time>2026-05-01T10:58:55.999Z</time></trkpt><trkpt lat="37.70308450745687" lon="14.839210900427997"><ele>610.6666666666666</ele><time>2026-05-01T10:58:57.999Z</time></trkpt><trkpt lat="37.70314976597844" lon="14.839176079358676"><ele>612.0</ele><time>2026-05-01T10:58:58.999Z</time></trkpt><trkpt lat="37.70321620531245" lon="14.839131963560202"><ele>612.0</ele><time>2026-05-01T10:58:59.999Z</time></trkpt><trkpt lat="37.70328418640112" lon="14.839081632917441"><ele>612.0</ele><time>2026-05-01T10:59:00.999Z</time></trkpt><trkpt lat="37.70335347842054" lon="14.839026554111138"><ele>612.0</ele><time>2026-05-01T10:59:01.999Z</time></trkpt><trkpt lat="37.70342629933555" lon="14.838968524024503"><ele>612.0</ele><time>2026-05-01T10:59:02.999Z</time></trkpt><trkpt lat="37.70350633824376" lon="14.83890763054932"><ele>612.0</ele><time>2026-05-01T10:59:03.999Z</time></trkpt><trkpt lat="37.703592861820646" lon="14.838842942722543"><ele>612.0</ele><time>2026-05-01T10:59:04.999Z</time></trkpt><trkpt lat="37.703678312565884" lon="14.83878077163337"><ele>613.6</ele><time>2026-05-01T10:59:05.999Z</time></trkpt><trkpt lat="37.70376904845232" lon="14.838716880554113"><ele>615.2</ele><time>2026-05-01T10:59:06.999Z</time></trkpt><trkpt lat="37.70386504314256" lon="14.838657878197928"><ele>616.8</ele><time>2026-05-01T10:59:07.999Z</time></trkpt><trkpt lat="37.70396939818175" lon="14.838611649896137"><ele>618.4</ele><time>2026-05-01T10:59:08.999Z</time></trkpt><trkpt lat="37.704082099279304" lon="14.838578961467816"><ele>620.0</ele><time>2026-05-01T10:59:09.999Z</time></trkpt><trkpt lat="37.70419794349191" lon="14.83854872612471"><ele>620.0</ele><time>2026-05-01T10:59:10.999Z</time></trkpt><trkpt lat="37.704311578273" lon="14.838512567495776"><ele>620.0</ele><time>2026-05-01T10:59:11.999Z</time></trkpt><trkpt lat="37.70441539852631" lon="14.838478339505503"><ele>620.0</ele><time>2026-05-01T10:59:12.999Z</time></trkpt><trkpt lat="37.70451037890492" lon="14.838456121252525"><ele>620.0</ele><time>2026-05-01T10:59:13.999Z</time></trkpt><trkpt lat="37.704603643059436" lon="14.83844847439405"><ele>620.0</ele><time>2026-05-01T10:59:14.999Z</time></trkpt><trkpt lat="37.70469354944616" lon="14.83847327936864"><ele>620.8</ele><time>2026-05-01T10:59:15.999Z</time></trkpt><trkpt lat="37.704775241873094" lon="14.838535385517423"><ele>621.6</ele><time>2026-05-01T10:59:16.999Z</time></trkpt><trkpt lat="37.70482697035399" lon="14.838640111931449"><ele>622.4</ele><time>2026-05-01T10:59:17.999Z</time></trkpt><trkpt lat="37.70488928832847" lon="14.838731736989777"><ele>623.2</ele><time>2026-05-01T10:59:18.999Z</time></trkpt><trkpt lat="37.70493117421634" lon="14.838847724617223"><ele>624.0</ele><time>2026-05-01T10:59:19.999Z</time></trkpt><trkpt lat="37.70497746276757" lon="14.838968458229697"><ele>624.0</ele><time>2026-05-01T10:59:20.999Z</time></trkpt><trkpt lat="37.7050216904669" lon="14.839090166761201"><ele>624.0</ele><time>2026-05-01T10:59:21.999Z</time></trkpt><trkpt lat="37.70506125562897" lon="14.839209172604951"><ele>624.0</ele><time>2026-05-01T10:59:22.999Z</time></trkpt><trkpt lat="37.70509671753499" lon="14.839323880457162"><ele>624.0</ele><time>2026-05-01T10:59:23.999Z</time></trkpt><trkpt lat="37.70511288957964" lon="14.839444473590508"><ele>624.0</ele><time>2026-05-01T10:59:24.999Z</time></trkpt><trkpt lat="37.70514007196869" lon="14.839561101512698"><ele>625.2</ele><time>2026-05-01T10:59:25.999Z</time></trkpt><trkpt lat="37.705170340622914" lon="14.83969722723557"><ele>626.4</ele><time>2026-05-01T10:59:26.999Z</time></trkpt><trkpt lat="37.7052275065927" lon="14.839833042321791"><ele>627.6</ele><time>2026-05-01T10:59:27.999Z</time></trkpt><trkpt lat="37.70529347140257" lon="14.839929555022714"><ele>628.8</ele><time>2026-05-01T10:59:28.999Z</time></trkpt><trkpt lat="37.7053801751001" lon="14.840009033801756"><ele>630.0</ele><time>2026-05-01T10:59:29.999Z</time></trkpt><trkpt lat="37.7054845407224" lon="14.840058329498902"><ele>630.2</ele><time>2026-05-01T10:59:30.999Z</time></trkpt><trkpt lat="37.70556613117208" lon="14.8400938265767"><ele>630.4</ele><time>2026-05-01T10:59:31.999Z</time></trkpt><trkpt lat="37.70568659041316" lon="14.840074362645046"><ele>630.6</ele><time>2026-05-01T10:59:32.999Z</time></trkpt><trkpt lat="37.705773687809746" lon="14.839965285391392"><ele>630.8</ele><time>2026-05-01T10:59:33.999Z</time></trkpt><trkpt lat="37.705864153063004" lon="14.839955717817519"><ele>631.0</ele><time>2026-05-01T10:59:34.999Z</time></trkpt><trkpt lat="37.70593900759436" lon="14.839945395357207"><ele>631.0</ele><time>2026-05-01T10:59:35.999Z</time></trkpt><trkpt lat="37.70601164803234" lon="14.83993452320743"><ele>631.0</ele><time>2026-05-01T10:59:36.998Z</time></trkpt><trkpt lat="37.706172302994524" lon="14.84006204079402"><ele>631.0</ele><time>2026-05-01T10:59:37.998Z</time></trkpt><trkpt lat="37.70628391481541" lon="14.840059316707459"><ele>631.0</ele><time>2026-05-01T10:59:38.998Z</time></trkpt><trkpt lat="37.70640040349916" lon="14.840056473592075"><ele>631.5</ele><time>2026-05-01T10:59:39.998Z</time></trkpt><trkpt lat="37.706521681922354" lon="14.8400537390347"><ele>632.0</ele><time>2026-05-01T10:59:40.998Z</time></trkpt><trkpt lat="37.706645574891965" lon="14.84005106315873"><ele>632.5</ele><time>2026-05-01T10:59:41.998Z</time></trkpt><trkpt lat="37.70676627922996" lon="14.84004845615242"><ele>633.0</ele><time>2026-05-01T10:59:42.998Z</time></trkpt><trkpt lat="37.70689041863456" lon="14.840046630497042"><ele>634.25</ele><time>2026-05-01T10:59:43.998Z</time></trkpt><trkpt lat="37.70701690375452" lon="14.840042626391186"><ele>635.5</ele><time>2026-05-01T10:59:44.998Z</time></trkpt><trkpt lat="37.707136465210745" lon="14.840033397955784"><ele>636.75</ele><time>2026-05-01T10:59:45.998Z</time></trkpt><trkpt lat="37.7072655169318" lon="14.84000389461629"><ele>638.0</ele><time>2026-05-01T10:59:46.998Z</time></trkpt><trkpt lat="37.70739092803166" lon="14.839954196336576"><ele>638.0</ele><time>2026-05-01T10:59:47.998Z</time></trkpt><trkpt lat="37.70750902047533" lon="14.839872051640077"><ele>638.0</ele><time>2026-05-01T10:59:48.998Z</time></trkpt><trkpt lat="37.70762118592027" lon="14.83978216945415"><ele>638.0</ele><time>2026-05-01T10:59:49.998Z</time></trkpt><trkpt lat="37.70771871797149" lon="14.839675904905922"><ele>638.0</ele><time>2026-05-01T10:59:50.998Z</time></trkpt><trkpt lat="37.70782231599516" lon="14.8395891435051"><ele>638.75</ele><time>2026-05-01T10:59:51.998Z</time></trkpt><trkpt lat="37.70792577201329" lon="14.839505416338604"><ele>639.5</ele><time>2026-05-01T10:59:52.998Z</time></trkpt><trkpt lat="37.708023263694564" lon="14.839423345678316"><ele>640.25</ele><time>2026-05-01T10:59:53.998Z</time></trkpt><trkpt lat="37.708120800428915" lon="14.839344353939062"><ele>641.0</ele><time>2026-05-01T10:59:54.998Z</time></trkpt><trkpt lat="37.708222052195794" lon="14.839260810176732"><ele>641.75</ele><time>2026-05-01T10:59:55.998Z</time></trkpt><trkpt lat="37.708322091498985" lon="14.839174023348452"><ele>642.5</ele><time>2026-05-01T10:59:56.998Z</time></trkpt><trkpt lat="37.70841769972101" lon="14.839091022220963"><ele>643.25</ele><time>2026-05-01T10:59:57.998Z</time></trkpt><trkpt lat="37.70851781108594" lon="14.839007143974621"><ele>644.0</ele><time>2026-05-01T10:59:58.998Z</time></trkpt><trkpt lat="37.708628979738364" lon="14.83892681211615"><ele>644.75</ele><time>2026-05-01T10:59:59.998Z</time></trkpt><trkpt lat="37.70873712402412" lon="14.83883740561713"><ele>645.5</ele><time>2026-05-01T11:00:00.998Z</time></trkpt><trkpt lat="37.70884625301246" lon="14.838750703546316"><ele>646.25</ele><time>2026-05-01T11:00:01.998Z</time></trkpt><trkpt lat="37.70895499468228" lon="14.838669006606123"><ele>647.0</ele><time>2026-05-01T11:00:02.998Z</time></trkpt><trkpt lat="37.70906609132863" lon="14.838589642241143"><ele>647.0</ele><time>2026-05-01T11:00:03.998Z</time></trkpt><trkpt lat="37.70918338356139" lon="14.838516829046108"><ele>647.0</ele><time>2026-05-01T11:00:04.998Z</time></trkpt><trkpt lat="37.709303878636675" lon="14.838441466298649"><ele>647.0</ele><time>2026-05-01T11:00:05.998Z</time></trkpt><trkpt lat="37.709426357033344" lon="14.838371064218219"><ele>647.0</ele><time>2026-05-01T11:00:06.998Z</time></trkpt><trkpt lat="37.70954642660515" lon="14.838305879353511"><ele>646.75</ele><time>2026-05-01T11:00:07.998Z</time></trkpt><trkpt lat="37.709666725280535" lon="14.838256113108942"><ele>646.5</ele><time>2026-05-01T11:00:08.998Z</time></trkpt><trkpt lat="37.70978525148223" lon="14.838219629865861"><ele>646.25</ele><time>2026-05-01T11:00:09.998Z</time></trkpt><trkpt lat="37.709904661678095" lon="14.838198937245108"><ele>646.0</ele><time>2026-05-01T11:00:10.998Z</time></trkpt><trkpt lat="37.7100274508958" lon="14.838189938357173"><ele>646.0</ele><time>2026-05-01T11:00:11.998Z</time></trkpt><trkpt lat="37.710155043078245" lon="14.838186904612487"><ele>646.0</ele><time>2026-05-01T11:00:12.998Z</time></trkpt><trkpt lat="37.710283230000066" lon="14.838187252109964"><ele>646.0</ele><time>2026-05-01T11:00:13.998Z</time></trkpt><trkpt lat="37.71041472236908" lon="14.838189912224925"><ele>646.0</ele><time>2026-05-01T11:00:14.998Z</time></trkpt><trkpt lat="37.71054787994849" lon="14.83819088644567"><ele>645.5</ele><time>2026-05-01T11:00:15.998Z</time></trkpt><trkpt lat="37.71068256674466" lon="14.838189607150518"><ele>645.0</ele><time>2026-05-01T11:00:16.998Z</time></trkpt><trkpt lat="37.71081758797256" lon="14.838184150114689"><ele>644.5</ele><time>2026-05-01T11:00:17.998Z</time></trkpt><trkpt lat="37.71095315551122" lon="14.838174089240859"><ele>644.0</ele><time>2026-05-01T11:00:18.997Z</time></trkpt><trkpt lat="37.71109118672684" lon="14.83815488124224"><ele>643.75</ele><time>2026-05-01T11:00:19.997Z</time></trkpt><trkpt lat="37.71122554903511" lon="14.838126151372565"><ele>643.5</ele><time>2026-05-01T11:00:20.997Z</time></trkpt><trkpt lat="37.711363451956856" lon="14.83809529104168"><ele>643.25</ele><time>2026-05-01T11:00:21.997Z</time></trkpt><trkpt lat="37.71150042031972" lon="14.838062717381883"><ele>643.0</ele><time>2026-05-01T11:00:22.997Z</time></trkpt><trkpt lat="37.711636658532015" lon="14.838031572804425"><ele>643.0</ele><time>2026-05-01T11:00:23.997Z</time></trkpt><trkpt lat="37.71177548595882" lon="14.838003186784302"><ele>643.0</ele><time>2026-05-01T11:00:24.997Z</time></trkpt><trkpt lat="37.711914440872675" lon="14.837974179138683"><ele>643.0</ele><time>2026-05-01T11:00:25.997Z</time></trkpt><trkpt lat="37.712055218671594" lon="14.837943542365341"><ele>643.0</ele><time>2026-05-01T11:00:26.997Z</time></trkpt><trkpt lat="37.71219465240478" lon="14.837907583029539"><ele>644.75</ele><time>2026-05-01T11:00:27.997Z</time></trkpt><trkpt lat="37.7123371643932" lon="14.837868491656318"><ele>646.5</ele><time>2026-05-01T11:00:28.997Z</time></trkpt><trkpt lat="37.71247720488983" lon="14.83782586019329"><ele>648.25</ele><time>2026-05-01T11:00:29.997Z</time></trkpt><trkpt lat="37.712619948965056" lon="14.837780187811271"><ele>650.0</ele><time>2026-05-01T11:00:30.997Z</time></trkpt><trkpt lat="37.71276206113264" lon="14.837730524504789"><ele>650.0</ele><time>2026-05-01T11:00:31.997Z</time></trkpt><trkpt lat="37.71290297849629" lon="14.837675101276632"><ele>650.0</ele><time>2026-05-01T11:00:32.997Z</time></trkpt><trkpt lat="37.71304746916529" lon="14.837615750196665"><ele>650.0</ele><time>2026-05-01T11:00:33.997Z</time></trkpt><trkpt lat="37.71318858829282" lon="14.837556870128225"><ele>650.0</ele><time>2026-05-01T11:00:34.997Z</time></trkpt><trkpt lat="37.71333199688299" lon="14.837500747999542"><ele>650.0</ele><time>2026-05-01T11:00:35.997Z</time></trkpt><trkpt lat="37.71348023136523" lon="14.837440369962414"><ele>650.0</ele><time>2026-05-01T11:00:37Z</time></trkpt><trkpt lat="37.71362767591735" lon="14.837378560276298"><ele>650.0</ele><time>2026-05-01T11:00:38Z</time></trkpt><trkpt lat="37.713777505446984" lon="14.83731629989492"><ele>651.6666666666666</ele><time>2026-05-01T11:00:39Z</time></trkpt><trkpt lat="37.7139315748586" lon="14.83725674175413"><ele>653.3333333333334</ele><time>2026-05-01T11:00:40Z</time></trkpt><trkpt lat="37.714086972728644" lon="14.837196033142671"><ele>655.0</ele><time>2026-05-01T11:00:41Z</time></trkpt><trkpt lat="37.7142436283204" lon="14.837132366081905"><ele>655.0</ele><time>2026-05-01T11:00:42Z</time></trkpt><trkpt lat="37.7143999604605" lon="14.83706161573543"><ele>655.0</ele><time>2026-05-01T11:00:43Z</time></trkpt><trkpt lat="37.71455130151793" lon="14.836980465944084"><ele>655.0</ele><time>2026-05-01T11:00:44Z</time></trkpt><trkpt lat="37.71469937150998" lon="14.83687957792123"><ele>656.0</ele><time>2026-05-01T11:00:45Z</time></trkpt><trkpt lat="37.71484007782031" lon="14.83676659288172"><ele>657.0</ele><time>2026-05-01T11:00:46Z</time></trkpt><trkpt lat="37.71497231707564" lon="14.836638350742831"><ele>658.0</ele><time>2026-05-01T11:00:47Z</time></trkpt><trkpt lat="37.715104276727665" lon="14.836504998416908"><ele>660.6666666666667</ele><time>2026-05-01T11:00:48Z</time></trkpt><trkpt lat="37.715240856600445" lon="14.836374415912463"><ele>663.3333333333334</ele><time>2026-05-01T11:00:49Z</time></trkpt><trkpt lat="37.715378717294165" lon="14.836247543297317"><ele>666.0</ele><time>2026-05-01T11:00:50Z</time></trkpt><trkpt lat="37.71551815638893" lon="14.836115890156663"><ele>666.0</ele><time>2026-05-01T11:00:51Z</time></trkpt><trkpt lat="37.71565424149359" lon="14.835988751284557"><ele>666.0</ele><time>2026-05-01T11:00:52Z</time></trkpt><trkpt lat="37.7157888642243" lon="14.835860039225507"><ele>666.0</ele><time>2026-05-01T11:00:53Z</time></trkpt><trkpt lat="37.715922635041665" lon="14.835731007881419"><ele>664.6666666666666</ele><time>2026-05-01T11:00:54Z</time></trkpt><trkpt lat="37.716055928047474" lon="14.835606104770573"><ele>663.3333333333333</ele><time>2026-05-01T11:00:55Z</time></trkpt><trkpt lat="37.716188900214746" lon="14.835483935310478"><ele>662.0</ele><time>2026-05-01T11:00:56Z</time></trkpt><trkpt lat="37.71632161286145" lon="14.835360076959272"><ele>662.0</ele><time>2026-05-01T11:00:57Z</time></trkpt><trkpt lat="37.71645555891506" lon="14.835232250270286"><ele>662.0</ele><time>2026-05-01T11:00:58Z</time></trkpt><trkpt lat="37.716591052673564" lon="14.835104804288274"><ele>662.0</ele><time>2026-05-01T11:00:59Z</time></trkpt><trkpt lat="37.71672807670936" lon="14.834975883697341"><ele>661.3333333333333</ele><time>2026-05-01T11:01:00Z</time></trkpt><trkpt lat="37.71686364171414" lon="14.834846288162334"><ele>660.6666666666666</ele><time>2026-05-01T11:01:01Z</time></trkpt><trkpt lat="37.71699958928786" lon="14.834715139425045"><ele>660.0</ele><time>2026-05-01T11:01:01.999Z</time></trkpt><trkpt lat="37.71713875025105" lon="14.834584297074239"><ele>660.0</ele><time>2026-05-01T11:01:02.999Z</time></trkpt><trkpt lat="37.71727892844292" lon="14.834453839493811"><ele>660.0</ele><time>2026-05-01T11:01:03.999Z</time></trkpt><trkpt lat="37.71741920027801" lon="14.834321941892908"><ele>660.0</ele><time>2026-05-01T11:01:04.999Z</time></trkpt><trkpt lat="37.71755963988256" lon="14.834187283867578"><ele>659.3333333333334</ele><time>2026-05-01T11:01:05.999Z</time></trkpt><trkpt lat="37.71770293396587" lon="14.83405530467403"><ele>658.6666666666667</ele><time>2026-05-01T11:01:06.999Z</time></trkpt><trkpt lat="37.71784473176241" lon="14.833925860731581"><ele>658.0</ele><time>2026-05-01T11:01:07.999Z</time></trkpt><trkpt lat="37.71798952806497" lon="14.833802349668682"><ele>658.0</ele><time>2026-05-01T11:01:08.999Z</time></trkpt><trkpt lat="37.71813372585778" lon="14.833684355253476"><ele>658.0</ele><time>2026-05-01T11:01:09.999Z</time></trkpt><trkpt lat="37.7182812412628" lon="14.833574362094593"><ele>658.0</ele><time>2026-05-01T11:01:10.999Z</time></trkpt><trkpt lat="37.71842418874338" lon="14.833515317360424"><ele>660.25</ele><time>2026-05-01T11:01:11.999Z</time></trkpt><trkpt lat="37.71857031968287" lon="14.833494247873466"><ele>662.5</ele><time>2026-05-01T11:01:12.999Z</time></trkpt><trkpt lat="37.71872005533989" lon="14.833496319817097"><ele>664.75</ele><time>2026-05-01T11:01:13.999Z</time></trkpt><trkpt lat="37.71886611657171" lon="14.833518557708995"><ele>667.0</ele><time>2026-05-01T11:01:14.999Z</time></trkpt><trkpt lat="37.719004637814486" lon="14.833563855055207"><ele>667.0</ele><time>2026-05-01T11:01:15.999Z</time></trkpt><trkpt lat="37.71913493444959" lon="14.833632168765044"><ele>667.0</ele><time>2026-05-01T11:01:16.999Z</time></trkpt><trkpt lat="37.71925630898613" lon="14.833724598431012"><ele>667.0</ele><time>2026-05-01T11:01:17.999Z</time></trkpt><trkpt lat="37.719364741411475" lon="14.833838753977727"><ele>667.0</ele><time>2026-05-01T11:01:18.999Z</time></trkpt><trkpt lat="37.71946777899088" lon="14.83396271633362"><ele>667.5</ele><time>2026-05-01T11:01:19.999Z</time></trkpt><trkpt lat="37.719553279651215" lon="14.834095328584652"><ele>668.0</ele><time>2026-05-01T11:01:20.999Z</time></trkpt><trkpt lat="37.71961767785618" lon="14.834236333074964"><ele>668.5</ele><time>2026-05-01T11:01:21.999Z</time></trkpt><trkpt lat="37.71966577464445" lon="14.834385055695588"><ele>669.0</ele><time>2026-05-01T11:01:22.999Z</time></trkpt><trkpt lat="37.719693414703904" lon="14.834540566201635"><ele>671.25</ele><time>2026-05-01T11:01:23.999Z</time></trkpt><trkpt lat="37.719702452774264" lon="14.834703797009395"><ele>673.5</ele><time>2026-05-01T11:01:24.999Z</time></trkpt><trkpt lat="37.71970404451765" lon="14.83487179400742"><ele>675.75</ele><time>2026-05-01T11:01:25.999Z</time></trkpt><trkpt lat="37.71971315823139" lon="14.835038810213907"><ele>678.0</ele><time>2026-05-01T11:01:26.999Z</time></trkpt><trkpt lat="37.71974768474239" lon="14.835194660314459"><ele>680.0</ele><time>2026-05-01T11:01:27.999Z</time></trkpt><trkpt lat="37.7198103521927" lon="14.83533583367918"><ele>682.0</ele><time>2026-05-01T11:01:28.999Z</time></trkpt><trkpt lat="37.71989085538905" lon="14.835464257733541"><ele>684.0</ele><time>2026-05-01T11:01:29.999Z</time></trkpt><trkpt lat="37.71998748764242" lon="14.83557310825851"><ele>686.0</ele><time>2026-05-01T11:01:30.999Z</time></trkpt><trkpt lat="37.72009578342733" lon="14.835658029617138"><ele>686.0</ele><time>2026-05-01T11:01:31.999Z</time></trkpt><trkpt lat="37.72021618607201" lon="14.83572378726381"><ele>686.0</ele><time>2026-05-01T11:01:32.999Z</time></trkpt><trkpt lat="37.72034370219399" lon="14.835777431874098"><ele>686.0</ele><time>2026-05-01T11:01:33.999Z</time></trkpt><trkpt lat="37.72047708071634" lon="14.835824470127083"><ele>686.0</ele><time>2026-05-01T11:01:34.999Z</time></trkpt><trkpt lat="37.72061385568687" lon="14.835853667440597"><ele>686.25</ele><time>2026-05-01T11:01:35.999Z</time></trkpt><trkpt lat="37.72074869219128" lon="14.835861468244113"><ele>686.5</ele><time>2026-05-01T11:01:36.999Z</time></trkpt><trkpt lat="37.720882576812585" lon="14.835844654277158"><ele>686.75</ele><time>2026-05-01T11:01:37.999Z</time></trkpt><trkpt lat="37.72101330095871" lon="14.835805773711922"><ele>687.0</ele><time>2026-05-01T11:01:38.999Z</time></trkpt><trkpt lat="37.7211438837853" lon="14.83575118392395"><ele>691.25</ele><time>2026-05-01T11:01:39.999Z</time></trkpt><trkpt lat="37.721275389763385" lon="14.83568647759748"><ele>695.5</ele><time>2026-05-01T11:01:40.999Z</time></trkpt><trkpt lat="37.72140681366376" lon="14.835621203852442"><ele>699.75</ele><time>2026-05-01T11:01:41.999Z</time></trkpt><trkpt lat="37.72154096597861" lon="14.835552771482941"><ele>704.0</ele><time>2026-05-01T11:01:42.999Z</time></trkpt><trkpt lat="37.721679020166086" lon="14.835486793016143"><ele>704.0</ele><time>2026-05-01T11:01:43.998Z</time></trkpt><trkpt lat="37.721818990099514" lon="14.835426523865483"><ele>704.0</ele><time>2026-05-01T11:01:44.998Z</time></trkpt><trkpt lat="37.72196147008694" lon="14.835365090885096"><ele>704.0</ele><time>2026-05-01T11:01:45.998Z</time></trkpt><trkpt lat="37.72210589944812" lon="14.83529751771301"><ele>705.0</ele><time>2026-05-01T11:01:46.998Z</time></trkpt><trkpt lat="37.72224891854975" lon="14.835226075273294"><ele>706.0</ele><time>2026-05-01T11:01:47.998Z</time></trkpt><trkpt lat="37.722389930600514" lon="14.835145742453848"><ele>707.0</ele><time>2026-05-01T11:01:48.998Z</time></trkpt><trkpt lat="37.722531354513464" lon="14.83506016778934"><ele>707.0</ele><time>2026-05-01T11:01:49.998Z</time></trkpt><trkpt lat="37.72267155608001" lon="14.834972929753075"><ele>707.0</ele><time>2026-05-01T11:01:50.998Z</time></trkpt><trkpt lat="37.72281912916216" lon="14.834890728361959"><ele>707.0</ele><time>2026-05-01T11:01:51.998Z</time></trkpt><trkpt lat="37.7229698201558" lon="14.834823318120307"><ele>709.0</ele><time>2026-05-01T11:01:52.998Z</time></trkpt><trkpt lat="37.72312326595516" lon="14.834765670394859"><ele>711.0</ele><time>2026-05-01T11:01:53.998Z</time></trkpt><trkpt lat="37.723279316926885" lon="14.834721996426511"><ele>713.0</ele><time>2026-05-01T11:01:54.998Z</time></trkpt><trkpt lat="37.72343640684898" lon="14.834701595450111"><ele>714.0</ele><time>2026-05-01T11:01:55.998Z</time></trkpt><trkpt lat="37.72359293852594" lon="14.83470726678568"><ele>715.0</ele><time>2026-05-01T11:01:56.998Z</time></trkpt><trkpt lat="37.72374960718443" lon="14.834733666456618"><ele>716.0</ele><time>2026-05-01T11:01:57.998Z</time></trkpt><trkpt lat="37.7239090953672" lon="14.834772950340822"><ele>716.0</ele><time>2026-05-01T11:01:58.998Z</time></trkpt><trkpt lat="37.72406993032003" lon="14.834813632337871"><ele>716.0</ele><time>2026-05-01T11:01:59.998Z</time></trkpt><trkpt lat="37.724229118509825" lon="14.834845768309474"><ele>716.0</ele><time>2026-05-01T11:02:00.998Z</time></trkpt><trkpt lat="37.72439103219293" lon="14.834871542164967"><ele>716.6666666666666</ele><time>2026-05-01T11:02:01.998Z</time></trkpt><trkpt lat="37.724554288509864" lon="14.834892950506559"><ele>717.3333333333334</ele><time>2026-05-01T11:02:02.998Z</time></trkpt><trkpt lat="37.7247126091102" lon="14.834908170340308"><ele>718.0</ele><time>2026-05-01T11:02:03.998Z</time></trkpt><trkpt lat="37.72487134390724" lon="14.834905769094338"><ele>718.0</ele><time>2026-05-01T11:02:04.998Z</time></trkpt><trkpt lat="37.72502728470475" lon="14.834889201826897"><ele>718.0</ele><time>2026-05-01T11:02:05.998Z</time></trkpt><trkpt lat="37.725186611142036" lon="14.834856699294999"><ele>718.0</ele><time>2026-05-01T11:02:06.998Z</time></trkpt><trkpt lat="37.72533809665947" lon="14.834808758213383"><ele>719.3333333333334</ele><time>2026-05-01T11:02:07.998Z</time></trkpt><trkpt lat="37.72548319306633" lon="14.834740559245258"><ele>720.6666666666666</ele><time>2026-05-01T11:02:08.998Z</time></trkpt><trkpt lat="37.72562717064357" lon="14.83465172489188"><ele>722.0</ele><time>2026-05-01T11:02:09.998Z</time></trkpt><trkpt lat="37.72576834706912" lon="14.83455954988055"><ele>722.0</ele><time>2026-05-01T11:02:10.998Z</time></trkpt><trkpt lat="37.725915929242696" lon="14.834470299429418"><ele>722.0</ele><time>2026-05-01T11:02:11.998Z</time></trkpt><trkpt lat="37.7260655955508" lon="14.83438057830254"><ele>722.0</ele><time>2026-05-01T11:02:12.998Z</time></trkpt><trkpt lat="37.726213133214465" lon="14.834291541412654"><ele>719.6666666666666</ele><time>2026-05-01T11:02:13.998Z</time></trkpt><trkpt lat="37.72636362540591" lon="14.834198193962228"><ele>717.3333333333334</ele><time>2026-05-01T11:02:14.998Z</time></trkpt><trkpt lat="37.72651533857611" lon="14.834103158067428"><ele>715.0</ele><time>2026-05-01T11:02:15.998Z</time></trkpt><trkpt lat="37.726671591765495" lon="14.834006070528062"><ele>715.0</ele><time>2026-05-01T11:02:16.998Z</time></trkpt><trkpt lat="37.72682765698011" lon="14.83391133325775"><ele>715.0</ele><time>2026-05-01T11:02:17.998Z</time></trkpt><trkpt lat="37.72698706159184" lon="14.83380868160719"><ele>715.0</ele><time>2026-05-01T11:02:18.998Z</time></trkpt><trkpt lat="37.7271481117226" lon="14.8337013789606"><ele>715.0</ele><time>2026-05-01T11:02:19.998Z</time></trkpt><trkpt lat="37.727311029908336" lon="14.83357989307128"><ele>715.0</ele><time>2026-05-01T11:02:20.998Z</time></trkpt><trkpt lat="37.727461189994706" lon="14.83344787897813"><ele>715.0</ele><time>2026-05-01T11:02:21.998Z</time></trkpt><trkpt lat="37.727602739444784" lon="14.833300259137987"><ele>714.3333333333334</ele><time>2026-05-01T11:02:22.998Z</time></trkpt><trkpt lat="37.72773937941577" lon="14.833146838132231"><ele>713.6666666666666</ele><time>2026-05-01T11:02:23.998Z</time></trkpt><trkpt lat="37.72787207476407" lon="14.832995069943152"><ele>713.0</ele><time>2026-05-01T11:02:24.998Z</time></trkpt><trkpt lat="37.728005774640856" lon="14.832852838125541"><ele>713.0</ele><time>2026-05-01T11:02:25.997Z</time></trkpt><trkpt lat="37.728133767811826" lon="14.83270102502218"><ele>713.0</ele><time>2026-05-01T11:02:26.997Z</time></trkpt><trkpt lat="37.728258795949124" lon="14.832553389386423"><ele>713.0</ele><time>2026-05-01T11:02:27.997Z</time></trkpt><trkpt lat="37.728386867431695" lon="14.832408761821458"><ele>711.0</ele><time>2026-05-01T11:02:28.997Z</time></trkpt><trkpt lat="37.72851377777293" lon="14.832268897519894"><ele>709.0</ele><time>2026-05-01T11:02:29.997Z</time></trkpt><trkpt lat="37.72864875720231" lon="14.832149653647846"><ele>707.0</ele><time>2026-05-01T11:02:30.997Z</time></trkpt><trkpt lat="37.72879097765985" lon="14.832048709265342"><ele>707.0</ele><time>2026-05-01T11:02:31.997Z</time></trkpt><trkpt lat="37.72893890528913" lon="14.831967604062696"><ele>707.0</ele><time>2026-05-01T11:02:32.997Z</time></trkpt><trkpt lat="37.7290884303126" lon="14.831892199212504"><ele>707.0</ele><time>2026-05-01T11:02:33.997Z</time></trkpt><trkpt lat="37.72923884871185" lon="14.831823706306627"><ele>704.3333333333333</ele><time>2026-05-01T11:02:34.997Z</time></trkpt><trkpt lat="37.729387332494376" lon="14.831758595447937"><ele>701.6666666666666</ele><time>2026-05-01T11:02:35.997Z</time></trkpt><trkpt lat="37.72953302323463" lon="14.831689414851562"><ele>699.0</ele><time>2026-05-01T11:02:36.997Z</time></trkpt><trkpt lat="37.72967657324096" lon="14.83161915925916"><ele>699.0</ele><time>2026-05-01T11:02:37.997Z</time></trkpt><trkpt lat="37.72981542633079" lon="14.831545303393998"><ele>699.0</ele><time>2026-05-01T11:02:38.997Z</time></trkpt><trkpt lat="37.72995409210253" lon="14.831475176057676"><ele>699.0</ele><time>2026-05-01T11:02:39.997Z</time></trkpt><trkpt lat="37.73009123537529" lon="14.831404456150624"><ele>699.0</ele><time>2026-05-01T11:02:40.997Z</time></trkpt><trkpt lat="37.73023052719933" lon="14.831340559581301"><ele>701.25</ele><time>2026-05-01T11:02:41.997Z</time></trkpt><trkpt lat="37.730365877598935" lon="14.83127377001643"><ele>703.5</ele><time>2026-05-01T11:02:43Z</time></trkpt><trkpt lat="37.73050057871711" lon="14.831205344728804"><ele>705.75</ele><time>2026-05-01T11:02:44Z</time></trkpt><trkpt lat="37.73063489655021" lon="14.83113941463587"><ele>708.0</ele><time>2026-05-01T11:02:45Z</time></trkpt><trkpt lat="37.73076350812252" lon="14.831074922667263"><ele>708.0</ele><time>2026-05-01T11:02:46Z</time></trkpt><trkpt lat="37.73089588304525" lon="14.831008590687203"><ele>708.0</ele><time>2026-05-01T11:02:47Z</time></trkpt><trkpt lat="37.731027780472395" lon="14.83094858234877"><ele>708.0</ele><time>2026-05-01T11:02:48Z</time></trkpt><trkpt lat="37.731157115921775" lon="14.83089462286886"><ele>708.0</ele><time>2026-05-01T11:02:49Z</time></trkpt><trkpt lat="37.73128337425357" lon="14.830836219965118"><ele>706.0</ele><time>2026-05-01T11:02:50Z</time></trkpt><trkpt lat="37.7314075450675" lon="14.83077965182697"><ele>704.0</ele><time>2026-05-01T11:02:51Z</time></trkpt><trkpt lat="37.73153174079588" lon="14.830732635975941"><ele>702.0</ele><time>2026-05-01T11:02:52Z</time></trkpt><trkpt lat="37.73165498583829" lon="14.830693541226392"><ele>700.0</ele><time>2026-05-01T11:02:53Z</time></trkpt><trkpt lat="37.73177715686691" lon="14.830674531958673"><ele>699.25</ele><time>2026-05-01T11:02:54Z</time></trkpt><trkpt lat="37.731897451642524" lon="14.830683933444636"><ele>698.5</ele><time>2026-05-01T11:02:55Z</time></trkpt><trkpt lat="37.732011934105586" lon="14.830721554228797"><ele>697.75</ele><time>2026-05-01T11:02:56Z</time></trkpt><trkpt lat="37.732114808242144" lon="14.830775613457396"><ele>697.0</ele><time>2026-05-01T11:02:57Z</time></trkpt><trkpt lat="37.73222173526782" lon="14.830836587713588"><ele>697.0</ele><time>2026-05-01T11:02:58Z</time></trkpt><trkpt lat="37.73233551908568" lon="14.830896321523356"><ele>697.0</ele><time>2026-05-01T11:02:59Z</time></trkpt><trkpt lat="37.73245995192881" lon="14.83093927747675"><ele>697.0</ele><time>2026-05-01T11:03:00Z</time></trkpt><trkpt lat="37.73259071765483" lon="14.830957568766268"><ele>697.0</ele><time>2026-05-01T11:03:01Z</time></trkpt><trkpt lat="37.73272568805407" lon="14.830951865140085"><ele>697.5</ele><time>2026-05-01T11:03:02Z</time></trkpt><trkpt lat="37.73286355026416" lon="14.830925478386252"><ele>698.0</ele><time>2026-05-01T11:03:03Z</time></trkpt><trkpt lat="37.73300083111981" lon="14.830885716167371"><ele>698.5</ele><time>2026-05-01T11:03:04Z</time></trkpt><trkpt lat="37.73313805469094" lon="14.830839165689914"><ele>699.0</ele><time>2026-05-01T11:03:05Z</time></trkpt><trkpt lat="37.73327768888598" lon="14.830787718296442"><ele>699.0</ele><time>2026-05-01T11:03:06Z</time></trkpt><trkpt lat="37.73341356876751" lon="14.83072445697461"><ele>699.0</ele><time>2026-05-01T11:03:07Z</time></trkpt><trkpt lat="37.733547916305824" lon="14.830645237767227"><ele>699.0</ele><time>2026-05-01T11:03:07.999Z</time></trkpt><trkpt lat="37.73367683045788" lon="14.830553596364366"><ele>699.0</ele><time>2026-05-01T11:03:08.999Z</time></trkpt><trkpt lat="37.733803308565825" lon="14.830455691680116"><ele>699.75</ele><time>2026-05-01T11:03:09.999Z</time></trkpt><trkpt lat="37.73392898472274" lon="14.830358049171805"><ele>700.5</ele><time>2026-05-01T11:03:10.999Z</time></trkpt><trkpt lat="37.73405740833438" lon="14.830271023415186"><ele>701.25</ele><time>2026-05-01T11:03:11.999Z</time></trkpt><trkpt lat="37.734191074498874" lon="14.830202494106581"><ele>702.0</ele><time>2026-05-01T11:03:12.999Z</time></trkpt><trkpt lat="37.73432830427044" lon="14.830153385536496"><ele>702.5</ele><time>2026-05-01T11:03:13.999Z</time></trkpt><trkpt lat="37.73446897378881" lon="14.830128202856315"><ele>703.0</ele><time>2026-05-01T11:03:14.999Z</time></trkpt><trkpt lat="37.73461505021519" lon="14.830125773229122"><ele>703.5</ele><time>2026-05-01T11:03:15.999Z</time></trkpt><trkpt lat="37.73476577753747" lon="14.830139063926397"><ele>704.0</ele><time>2026-05-01T11:03:16.999Z</time></trkpt><trkpt lat="37.734921521918864" lon="14.830147173096236"><ele>704.0</ele><time>2026-05-01T11:03:17.999Z</time></trkpt><trkpt lat="37.73507697982059" lon="14.830149823227485"><ele>704.0</ele><time>2026-05-01T11:03:18.999Z</time></trkpt><trkpt lat="37.73523669467761" lon="14.83014929432674"><ele>704.0</ele><time>2026-05-01T11:03:19.999Z</time></trkpt><trkpt lat="37.735391797627145" lon="14.83014054754388"><ele>702.0</ele><time>2026-05-01T11:03:20.999Z</time></trkpt><trkpt lat="37.735549209088894" lon="14.830116229007063"><ele>700.0</ele><time>2026-05-01T11:03:21.999Z</time></trkpt><trkpt lat="37.73570848214602" lon="14.830074239342974"><ele>698.0</ele><time>2026-05-01T11:03:22.999Z</time></trkpt><trkpt lat="37.73586076020394" lon="14.83002093616858"><ele>698.0</ele><time>2026-05-01T11:03:23.999Z</time></trkpt><trkpt lat="37.73601022261054" lon="14.829959958584148"><ele>698.0</ele><time>2026-05-01T11:03:24.999Z</time></trkpt><trkpt lat="37.736159220863236" lon="14.829897732253436"><ele>698.0</ele><time>2026-05-01T11:03:25.999Z</time></trkpt><trkpt lat="37.73631071269624" lon="14.829835980184868"><ele>699.6666666666666</ele><time>2026-05-01T11:03:26.999Z</time></trkpt><trkpt lat="37.73646293165609" lon="14.829772795528621"><ele>701.3333333333334</ele><time>2026-05-01T11:03:27.999Z</time></trkpt><trkpt lat="37.736616661363804" lon="14.829716255699717"><ele>703.0</ele><time>2026-05-01T11:03:28.999Z</time></trkpt><trkpt lat="37.73677347631232" lon="14.829664914038947"><ele>705.3333333333334</ele><time>2026-05-01T11:03:29.999Z</time></trkpt><trkpt lat="37.73693091193143" lon="14.82961908490922"><ele>707.6666666666666</ele><time>2026-05-01T11:03:30.999Z</time></trkpt><trkpt lat="37.73708992699216" lon="14.82957370402286"><ele>710.0</ele><time>2026-05-01T11:03:31.999Z</time></trkpt><trkpt lat="37.73724863925915" lon="14.829533165991801"><ele>710.0</ele><time>2026-05-01T11:03:32.999Z</time></trkpt><trkpt lat="37.73740839084895" lon="14.829493199069667"><ele>710.0</ele><time>2026-05-01T11:03:33.999Z</time></trkpt><trkpt lat="37.737567593297975" lon="14.829454539652007"><ele>710.0</ele><time>2026-05-01T11:03:34.999Z</time></trkpt><trkpt lat="37.73772929489835" lon="14.82941614858623"><ele>710.6666666666666</ele><time>2026-05-01T11:03:35.999Z</time></trkpt><trkpt lat="37.73789284215014" lon="14.829375643473526"><ele>711.3333333333334</ele><time>2026-05-01T11:03:36.999Z</time></trkpt><trkpt lat="37.73805646063643" lon="14.829335090017837"><ele>712.0</ele><time>2026-05-01T11:03:37.999Z</time></trkpt><trkpt lat="37.73821713211892" lon="14.82929548315021"><ele>712.0</ele><time>2026-05-01T11:03:38.999Z</time></trkpt><trkpt lat="37.73838255713542" lon="14.829253769540868"><ele>712.0</ele><time>2026-05-01T11:03:39.999Z</time></trkpt><trkpt lat="37.73854481308246" lon="14.8292105942841"><ele>712.0</ele><time>2026-05-01T11:03:40.999Z</time></trkpt><trkpt lat="37.73870836116905" lon="14.829165019721115"><ele>714.3333333333334</ele><time>2026-05-01T11:03:41.999Z</time></trkpt><trkpt lat="37.738868890383436" lon="14.829109172791684"><ele>716.6666666666666</ele><time>2026-05-01T11:03:42.999Z</time></trkpt><trkpt lat="37.73902395832251" lon="14.82904216355983"><ele>719.0</ele><time>2026-05-01T11:03:43.999Z</time></trkpt><trkpt lat="37.73917477204068" lon="14.828962848843355"><ele>719.0</ele><time>2026-05-01T11:03:44.999Z</time></trkpt><trkpt lat="37.73931873739362" lon="14.828877087328639"><ele>719.0</ele><time>2026-05-01T11:03:45.999Z</time></trkpt><trkpt lat="37.73946574953666" lon="14.82879976720984"><ele>719.0</ele><time>2026-05-01T11:03:46.999Z</time></trkpt><trkpt lat="37.73961014334857" lon="14.828738135686512"><ele>720.5</ele><time>2026-05-01T11:03:47.999Z</time></trkpt><trkpt lat="37.73975215457761" lon="14.828705850866655"><ele>722.0</ele><time>2026-05-01T11:03:48.998Z</time></trkpt><trkpt lat="37.739892918009026" lon="14.828698752204946"><ele>723.5</ele><time>2026-05-01T11:03:49.998Z</time></trkpt><trkpt lat="37.74003254702277" lon="14.828714837928835"><ele>725.0</ele><time>2026-05-01T11:03:50.998Z</time></trkpt><trkpt lat="37.7401641102689" lon="14.828753425490715"><ele>725.25</ele><time>2026-05-01T11:03:51.998Z</time></trkpt><trkpt lat="37.740286030193346" lon="14.828812886146222"><ele>725.5</ele><time>2026-05-01T11:03:52.998Z</time></trkpt><trkpt lat="37.74040808853281" lon="14.828878588864045"><ele>725.75</ele><time>2026-05-01T11:03:53.998Z</time></trkpt><trkpt lat="37.74053153576563" lon="14.828935952141428"><ele>726.0</ele><time>2026-05-01T11:03:54.998Z</time></trkpt><trkpt lat="37.74066159940784" lon="14.82898654189881"><ele>726.0</ele><time>2026-05-01T11:03:55.998Z</time></trkpt><trkpt lat="37.740787381994544" lon="14.829033161812417"><ele>726.0</ele><time>2026-05-01T11:03:56.998Z</time></trkpt><trkpt lat="37.74090397094767" lon="14.82907930002776"><ele>726.0</ele><time>2026-05-01T11:03:57.998Z</time></trkpt><trkpt lat="37.74101649069257" lon="14.829126514158768"><ele>726.0</ele><time>2026-05-01T11:03:58.998Z</time></trkpt><trkpt lat="37.741126167568765" lon="14.829176051441479"><ele>727.0</ele><time>2026-05-01T11:03:59.998Z</time></trkpt><trkpt lat="37.74124054315845" lon="14.829225926669375"><ele>728.0</ele><time>2026-05-01T11:04:00.998Z</time></trkpt><trkpt lat="37.74134977600277" lon="14.82928523656702"><ele>729.0</ele><time>2026-05-01T11:04:01.998Z</time></trkpt><trkpt lat="37.74145607976534" lon="14.829356703559307"><ele>730.0</ele><time>2026-05-01T11:04:02.998Z</time></trkpt><trkpt lat="37.74155788978787" lon="14.829442548450267"><ele>732.0</ele><time>2026-05-01T11:04:03.998Z</time></trkpt><trkpt lat="37.741649657117115" lon="14.829544350977018"><ele>734.0</ele><time>2026-05-01T11:04:04.998Z</time></trkpt><trkpt lat="37.74173229798372" lon="14.829656813619348"><ele>736.0</ele><time>2026-05-01T11:04:05.998Z</time></trkpt><trkpt lat="37.74180999150267" lon="14.829774924788651"><ele>738.0</ele><time>2026-05-01T11:04:06.998Z</time></trkpt><trkpt lat="37.74188271975309" lon="14.829890170201939"><ele>738.1666666666666</ele><time>2026-05-01T11:04:07.998Z</time></trkpt><trkpt lat="37.74194772239583" lon="14.829987724761006"><ele>738.3333333333334</ele><time>2026-05-01T11:04:08.998Z</time></trkpt><trkpt lat="37.741990255987275" lon="14.830063317439386"><ele>738.5</ele><time>2026-05-01T11:04:09.998Z</time></trkpt><trkpt lat="37.742004960707" lon="14.83015837087601"><ele>738.6666666666667</ele><time>2026-05-01T11:04:11.998Z</time></trkpt><trkpt lat="37.74192678454412" lon="14.83018672534864"><ele>738.8333333333334</ele><time>2026-05-01T11:04:13.998Z</time></trkpt><trkpt lat="37.741849995167904" lon="14.83024258238624"><ele>739.0</ele><time>2026-05-01T11:04:15.998Z</time></trkpt><trkpt lat="37.741742531581735" lon="14.830278870435077"><ele>739.8333333333334</ele><time>2026-05-01T11:04:17.998Z</time></trkpt><trkpt lat="37.74163387492424" lon="14.830354156971651"><ele>740.6666666666667</ele><time>2026-05-01T11:04:19.998Z</time></trkpt><trkpt lat="37.74159357403723" lon="14.830491244644968"><ele>741.5</ele><time>2026-05-01T11:04:21.998Z</time></trkpt><trkpt lat="37.741604625172386" lon="14.830573863349947"><ele>742.3333333333334</ele><time>2026-05-01T11:04:22.998Z</time></trkpt><trkpt lat="37.74158429142058" lon="14.830653757464693"><ele>743.1666666666666</ele><time>2026-05-01T11:04:23.998Z</time></trkpt><trkpt lat="37.741579480230634" lon="14.830736978316931"><ele>744.0</ele><time>2026-05-01T11:04:24.998Z</time></trkpt><trkpt lat="37.7415751177499" lon="14.83083447405884"><ele>744.0</ele><time>2026-05-01T11:04:25.998Z</time></trkpt><trkpt lat="37.74157313402357" lon="14.830936033724354"><ele>744.0</ele><time>2026-05-01T11:04:26.998Z</time></trkpt><trkpt lat="37.741574692431705" lon="14.831033478764393"><ele>744.0</ele><time>2026-05-01T11:04:27.998Z</time></trkpt><trkpt lat="37.741579636836846" lon="14.831132859504883"><ele>744.0</ele><time>2026-05-01T11:04:28.998Z</time></trkpt><trkpt lat="37.74159067919159" lon="14.831233835624362"><ele>744.0</ele><time>2026-05-01T11:04:29.998Z</time></trkpt><trkpt lat="37.741609845332306" lon="14.83133264472539"><ele>744.0</ele><time>2026-05-01T11:04:30.997Z</time></trkpt><trkpt lat="37.74162874457195" lon="14.83143057726214"><ele>745.6666666666666</ele><time>2026-05-01T11:04:31.997Z</time></trkpt><trkpt lat="37.741651369535255" lon="14.831528587357338"><ele>747.3333333333334</ele><time>2026-05-01T11:04:32.997Z</time></trkpt><trkpt lat="37.74170021799943" lon="14.831618439583554"><ele>749.0</ele><time>2026-05-01T11:04:33.997Z</time></trkpt><trkpt lat="37.7417141977382" lon="14.8317184835967"><ele>750.6666666666667</ele><time>2026-05-01T11:04:34.997Z</time></trkpt><trkpt lat="37.74172311920084" lon="14.831812156171795"><ele>752.3333333333334</ele><time>2026-05-01T11:04:35.997Z</time></trkpt><trkpt lat="37.741673544602726" lon="14.83189866096362"><ele>754.0</ele><time>2026-05-01T11:04:36.997Z</time></trkpt><trkpt lat="37.74164249696287" lon="14.831997558995939"><ele>755.5</ele><time>2026-05-01T11:04:37.997Z</time></trkpt><trkpt lat="37.7416308839192" lon="14.832103273840048"><ele>757.0</ele><time>2026-05-01T11:04:38.997Z</time></trkpt><trkpt lat="37.74164758240839" lon="14.832209383871676"><ele>758.5</ele><time>2026-05-01T11:04:39.997Z</time></trkpt><trkpt lat="37.741661775343196" lon="14.832308878853265"><ele>760.0</ele><time>2026-05-01T11:04:40.997Z</time></trkpt><trkpt lat="37.741693825362816" lon="14.832397569005396"><ele>761.5</ele><time>2026-05-01T11:04:41.997Z</time></trkpt><trkpt lat="37.74173132870935" lon="14.83248233083642"><ele>763.0</ele><time>2026-05-01T11:04:42.997Z</time></trkpt><trkpt lat="37.741748723606364" lon="14.832574996605521"><ele>764.7142857142857</ele><time>2026-05-01T11:04:43.997Z</time></trkpt><trkpt lat="37.74177427900566" lon="14.83266352297704"><ele>766.4285714285714</ele><time>2026-05-01T11:04:44.997Z</time></trkpt><trkpt lat="37.74180071017394" lon="14.832755082962176"><ele>768.1428571428571</ele><time>2026-05-01T11:04:45.997Z</time></trkpt><trkpt lat="37.74182153263235" lon="14.83284316489174"><ele>769.8571428571429</ele><time>2026-05-01T11:04:46.997Z</time></trkpt><trkpt lat="37.741819553266104" lon="14.832925774893008"><ele>771.5714285714286</ele><time>2026-05-01T11:04:47.997Z</time></trkpt><trkpt lat="37.74182568606142" lon="14.833007839414636"><ele>773.2857142857142</ele><time>2026-05-01T11:04:49Z</time></trkpt><trkpt lat="37.74186005747965" lon="14.833077634333167"><ele>775.0</ele><time>2026-05-01T11:04:50Z</time></trkpt><trkpt lat="37.74194625475508" lon="14.833175624173952"><ele>775.1666666666666</ele><time>2026-05-01T11:04:52Z</time></trkpt><trkpt lat="37.742008947190484" lon="14.833219976544886"><ele>775.3333333333333</ele><time>2026-05-01T11:04:53Z</time></trkpt><trkpt lat="37.742071842884855" lon="14.8332687699384"><ele>775.5</ele><time>2026-05-01T11:04:54Z</time></trkpt><trkpt lat="37.74213104486806" lon="14.833323534977799"><ele>775.6666666666667</ele><time>2026-05-01T11:04:55Z</time></trkpt><trkpt lat="37.74218348037338" lon="14.83337586647754"><ele>775.8333333333334</ele><time>2026-05-01T11:04:56Z</time></trkpt><trkpt lat="37.74222808609293" lon="14.833436098621554"><ele>776.0</ele><time>2026-05-01T11:04:57Z</time></trkpt><trkpt lat="37.742262044235595" lon="14.833563496904238"><ele>776.5999999999999</ele><time>2026-05-01T11:04:59Z</time></trkpt><trkpt lat="37.74219804169821" lon="14.833686460344095"><ele>777.2</ele><time>2026-05-01T11:05:01Z</time></trkpt><trkpt lat="37.74209241598717" lon="14.833752800967908"><ele>777.8</ele><time>2026-05-01T11:05:03Z</time></trkpt><trkpt lat="37.74203463404082" lon="14.833815507402813"><ele>778.4000000000001</ele><time>2026-05-01T11:05:05Z</time></trkpt><trkpt lat="37.741973070861036" lon="14.833897897919254"><ele>779.0</ele><time>2026-05-01T11:05:07Z</time></trkpt><trkpt lat="37.741933817186975" lon="14.833969691618186"><ele>779.2</ele><time>2026-05-01T11:05:08Z</time></trkpt><trkpt lat="37.74187391842982" lon="14.834000705813713"><ele>779.4000000000001</ele><time>2026-05-01T11:05:09Z</time></trkpt><trkpt lat="37.74180404310007" lon="14.83409928822536"><ele>779.6</ele><time>2026-05-01T11:05:11Z</time></trkpt><trkpt lat="37.74179460772675" lon="14.834239956883632"><ele>779.8</ele><time>2026-05-01T11:05:13Z</time></trkpt><trkpt lat="37.74177806282746" lon="14.834352042607694"><ele>780.0</ele><time>2026-05-01T11:05:14.999Z</time></trkpt><trkpt lat="37.74170302799665" lon="14.83442673239338"><ele>781.6666666666666</ele><time>2026-05-01T11:05:16.999Z</time></trkpt><trkpt lat="37.74162550143995" lon="14.834447136714937"><ele>783.3333333333333</ele><time>2026-05-01T11:05:18.999Z</time></trkpt><trkpt lat="37.741541458165436" lon="14.834451380322482"><ele>785.0</ele><time>2026-05-01T11:05:20.999Z</time></trkpt><trkpt lat="37.74145973955275" lon="14.834483597530225"><ele>786.6666666666666</ele><time>2026-05-01T11:05:21.999Z</time></trkpt><trkpt lat="37.74143235263505" lon="14.834572143971434"><ele>788.3333333333333</ele><time>2026-05-01T11:05:22.999Z</time></trkpt><trkpt lat="37.74137741082535" lon="14.834615685830443"><ele>790.0</ele><time>2026-05-01T11:05:23.999Z</time></trkpt><trkpt lat="37.74129263402587" lon="14.834720553294266"><ele>790.0</ele><time>2026-05-01T11:05:25.999Z</time></trkpt><trkpt lat="37.741282572278486" lon="14.834802438436972"><ele>790.0</ele><time>2026-05-01T11:05:26.999Z</time></trkpt><trkpt lat="37.74122001180067" lon="14.834910884965566"><ele>790.0</ele><time>2026-05-01T11:05:28.999Z</time></trkpt><trkpt lat="37.74113934575219" lon="14.834960952266687"><ele>790.0</ele><time>2026-05-01T11:05:30.999Z</time></trkpt><trkpt lat="37.74104443267629" lon="14.83502889295649"><ele>790.0</ele><time>2026-05-01T11:05:32.999Z</time></trkpt><trkpt lat="37.74094040121693" lon="14.835099543736833"><ele>791.9999999999999</ele><time>2026-05-01T11:05:34.999Z</time></trkpt><trkpt lat="37.740884836621866" lon="14.835145719424752"><ele>794.0</ele><time>2026-05-01T11:05:35.999Z</time></trkpt><trkpt lat="37.74079883401116" lon="14.835259866020897"><ele>796.0</ele><time>2026-05-01T11:05:37.999Z</time></trkpt><trkpt lat="37.74076420660127" lon="14.835410867305557"><ele>798.0</ele><time>2026-05-01T11:05:39.999Z</time></trkpt><trkpt lat="37.740753540343675" lon="14.83548982575008"><ele>799.9999999999999</ele><time>2026-05-01T11:05:40.999Z</time></trkpt><trkpt lat="37.740747521155136" lon="14.835569127535413"><ele>802.0</ele><time>2026-05-01T11:05:41.999Z</time></trkpt><trkpt lat="37.740716734355004" lon="14.83569290863351"><ele>802.0</ele><time>2026-05-01T11:05:43.999Z</time></trkpt><trkpt lat="37.74060029582207" lon="14.835775838997288"><ele>802.0</ele><time>2026-05-01T11:05:47.999Z</time></trkpt><trkpt lat="37.740545733634654" lon="14.835863929371188"><ele>802.0</ele><time>2026-05-01T11:05:49.999Z</time></trkpt><trkpt lat="37.74049356752972" lon="14.835957926733794"><ele>802.0</ele><time>2026-05-01T11:05:51.999Z</time></trkpt><trkpt lat="37.740438236079115" lon="14.836055392160672"><ele>802.0</ele><time>2026-05-01T11:05:53.999Z</time></trkpt><trkpt lat="37.74037854023032" lon="14.836150122532429"><ele>805.0</ele><time>2026-05-01T11:05:55.998Z</time></trkpt><trkpt lat="37.74030948315482" lon="14.836254670920523"><ele>808.0</ele><time>2026-05-01T11:05:57.998Z</time></trkpt><trkpt lat="37.74023915089591" lon="14.836385516736518"><ele>811.0</ele><time>2026-05-01T11:05:59.998Z</time></trkpt><trkpt lat="37.740142930428746" lon="14.83647558515171"><ele>814.0</ele><time>2026-05-01T11:06:01.998Z</time></trkpt><trkpt lat="37.74007721738447" lon="14.83657581226357"><ele>813.9999999999999</ele><time>2026-05-01T11:06:03.998Z</time></trkpt><trkpt lat="37.74006010468629" lon="14.836667291640701"><ele>814.0</ele><time>2026-05-01T11:06:04.998Z</time></trkpt><trkpt lat="37.74002844537211" lon="14.83674369398566"><ele>814.0</ele><time>2026-05-01T11:06:05.998Z</time></trkpt><trkpt lat="37.73994397246758" lon="14.83684718029419"><ele>814.0</ele><time>2026-05-01T11:06:07.998Z</time></trkpt><trkpt lat="37.73987604905057" lon="14.83694131052847"><ele>813.9999999999999</ele><time>2026-05-01T11:06:09.998Z</time></trkpt><trkpt lat="37.73981792514521" lon="14.837004844042198"><ele>814.0</ele><time>2026-05-01T11:07:10Z</time></trkpt><trkpt lat="37.73978017850975" lon="14.837097546415684"><ele>816.2</ele><time>2026-05-01T11:07:12Z</time></trkpt><trkpt lat="37.739711544218686" lon="14.837184156755347"><ele>818.4000000000001</ele><time>2026-05-01T11:07:14Z</time></trkpt><trkpt lat="37.73968085643084" lon="14.837331262185726"><ele>820.6</ele><time>2026-05-01T11:07:16Z</time></trkpt><trkpt lat="37.73963161608211" lon="14.837447690180262"><ele>822.8</ele><time>2026-05-01T11:07:18Z</time></trkpt><trkpt lat="37.73957232887862" lon="14.837556662381658"><ele>825.0</ele><time>2026-05-01T11:07:19.999Z</time></trkpt><trkpt lat="37.739525937414605" lon="14.837683416005367"><ele>825.6666666666666</ele><time>2026-05-01T11:07:21.999Z</time></trkpt><trkpt lat="37.73948300714319" lon="14.837743377568854"><ele>826.3333333333333</ele><time>2026-05-01T11:07:22.999Z</time></trkpt><trkpt lat="37.739438333848454" lon="14.837886213906208"><ele>827.0</ele><time>2026-05-01T11:07:24.999Z</time></trkpt><trkpt lat="37.739411328448796" lon="14.837960994714932"><ele>827.6666666666666</ele><time>2026-05-01T11:07:25.999Z</time></trkpt><trkpt lat="37.739382176222946" lon="14.838044331641779"><ele>828.3333333333333</ele><time>2026-05-01T11:07:26.999Z</time></trkpt><trkpt lat="37.739359964682386" lon="14.838125682176129"><ele>829.0</ele><time>2026-05-01T11:07:27.999Z</time></trkpt><trkpt lat="37.739315005009026" lon="14.838254917744232"><ele>828.9999999999999</ele><time>2026-05-01T11:07:29.999Z</time></trkpt><trkpt lat="37.739252602986234" lon="14.83830262490964"><ele>829.0</ele><time>2026-05-01T11:07:31.999Z</time></trkpt><trkpt lat="37.73916830357245" lon="14.838300081006215"><ele>829.0</ele><time>2026-05-01T11:07:33.999Z</time></trkpt><trkpt lat="37.7390745145545" lon="14.838373382292847"><ele>829.0</ele><time>2026-05-01T11:07:35.999Z</time></trkpt><trkpt lat="37.739029601091005" lon="14.838436866340462"><ele>828.9999999999999</ele><time>2026-05-01T11:07:36.999Z</time></trkpt><trkpt lat="37.73898763878537" lon="14.838503515086892"><ele>829.0</ele><time>2026-05-01T11:07:37.999Z</time></trkpt><trkpt lat="37.738944093945186" lon="14.838571752607711"><ele>831.6666666666666</ele><time>2026-05-01T11:07:38.999Z</time></trkpt><trkpt lat="37.73890456063805" lon="14.838642422234857"><ele>834.3333333333333</ele><time>2026-05-01T11:07:39.999Z</time></trkpt><trkpt lat="37.73890128290886" lon="14.838740200783809"><ele>837.0</ele><time>2026-05-01T11:07:40.999Z</time></trkpt><trkpt lat="37.738879211527625" lon="14.838817936726839"><ele>839.6666666666667</ele><time>2026-05-01T11:07:41.999Z</time></trkpt><trkpt lat="37.738802187705815" lon="14.838911837092617"><ele>842.3333333333334</ele><time>2026-05-01T11:07:43.999Z</time></trkpt><trkpt lat="37.738709318131" lon="14.838962129097473"><ele>845.0</ele><time>2026-05-01T11:07:45.999Z</time></trkpt><trkpt lat="37.73862289020374" lon="14.839038129213519"><ele>845.0</ele><time>2026-05-01T11:07:47.999Z</time></trkpt><trkpt lat="37.7385707501474" lon="14.839114847732663"><ele>845.0</ele><time>2026-05-01T11:07:49.999Z</time></trkpt><trkpt lat="37.73851621888169" lon="14.839232451872581"><ele>845.0</ele><time>2026-05-01T11:07:51.999Z</time></trkpt><trkpt lat="37.73843732601942" lon="14.839313906593917"><ele>845.0</ele><time>2026-05-01T11:07:53.999Z</time></trkpt><trkpt lat="37.738364022167524" lon="14.839428414990463"><ele>845.0</ele><time>2026-05-01T11:07:55.999Z</time></trkpt><trkpt lat="37.73831815516343" lon="14.839566376560425"><ele>846.0</ele><time>2026-05-01T11:07:57.999Z</time></trkpt><trkpt lat="37.738270202962674" lon="14.8396979436767"><ele>847.0</ele><time>2026-05-01T11:07:59.999Z</time></trkpt><trkpt lat="37.73822535620443" lon="14.83981431453312"><ele>848.0</ele><time>2026-05-01T11:08:01.998Z</time></trkpt><trkpt lat="37.738168920858676" lon="14.839928510881217"><ele>849.0</ele><time>2026-05-01T11:08:03.998Z</time></trkpt><trkpt lat="37.73809486871717" lon="14.84001224318256"><ele>850.0</ele><time>2026-05-01T11:08:05.998Z</time></trkpt><trkpt lat="37.73801297486335" lon="14.840061576275863"><ele>850.0</ele><time>2026-05-01T11:08:07.998Z</time></trkpt><trkpt lat="37.73791278917598" lon="14.840042858661489"><ele>850.0</ele><time>2026-05-01T11:08:09.998Z</time></trkpt><trkpt lat="37.73782612168071" lon="14.84006103959176"><ele>850.0</ele><time>2026-05-01T11:08:11.998Z</time></trkpt><trkpt lat="37.73776344475198" lon="14.84008515389286"><ele>850.0</ele><time>2026-05-01T11:08:15.998Z</time></trkpt><trkpt lat="37.737778922192554" lon="14.840218725280385"><ele>850.0</ele><time>2026-05-01T11:08:16.998Z</time></trkpt><trkpt lat="37.73779976099315" lon="14.840335881559206"><ele>851.1428571428571</ele><time>2026-05-01T11:08:19.998Z</time></trkpt><trkpt lat="37.73783100090636" lon="14.84047410859004"><ele>852.2857142857142</ele><time>2026-05-01T11:08:21.998Z</time></trkpt><trkpt lat="37.73785004018343" lon="14.840554309914388"><ele>853.4285714285714</ele><time>2026-05-01T11:08:22.998Z</time></trkpt><trkpt lat="37.7378846735484" lon="14.840628994223154"><ele>854.5714285714286</ele><time>2026-05-01T11:08:23.998Z</time></trkpt><trkpt lat="37.73790454472353" lon="14.840707400839596"><ele>855.7142857142858</ele><time>2026-05-01T11:08:24.998Z</time></trkpt><trkpt lat="37.73792290483024" lon="14.84078730671066"><ele>856.8571428571429</ele><time>2026-05-01T11:08:25.998Z</time></trkpt><trkpt lat="37.7379425565751" lon="14.840870160314301"><ele>858.0</ele><time>2026-05-01T11:08:26.998Z</time></trkpt><trkpt lat="37.73796192579833" lon="14.84095328550307"><ele>858.5999999999999</ele><time>2026-05-01T11:08:27.998Z</time></trkpt><trkpt lat="37.73798339403659" lon="14.841051408330696"><ele>859.1999999999999</ele><time>2026-05-01T11:08:29.998Z</time></trkpt><trkpt lat="37.738157087600136" lon="14.841166798632651"><ele>859.8</ele><time>2026-05-01T11:08:53.997Z</time></trkpt><trkpt lat="37.738200507611786" lon="14.841225739993385"><ele>860.4</ele><time>2026-05-01T11:08:56.997Z</time></trkpt><trkpt lat="37.738248536902624" lon="14.841285922241221"><ele>861.0</ele><time>2026-05-01T11:10:39.998Z</time></trkpt><trkpt lat="37.73829735299148" lon="14.841345613520796"><ele>861.0</ele><time>2026-05-01T11:13:43.999Z</time></trkpt><trkpt lat="37.738226184656725" lon="14.841247213853494"><ele>861.0</ele><time>2026-05-01T11:18:35.998Z</time></trkpt></trkseg></trk></gpx>